<?xml version="1.0" encoding="UTF-8" standalone="no" ?>
<gpx xmlns="http://www.topografix.com/GPX/1/1" xmlns:xsi="http://www.w3.org/2001/XMLSchema-instance" xsi:schemaLocation="http://www.topografix.com/GPX/1/1 http://www.topografix.com/GPX/1/1/gpx.xsd" version="1.1" creator="VisuGPX - https://www.visugpx.com">
  <metadata>
    <name>Edirne-Mostar</name>
  </metadata>
  <trk>
    <name><![CDATA[Tour d'Europe: étape 654]]></name>
    <extensions>
      <line xmlns="http://www.topografix.com/GPX/gpx_style/0/2">
        <color>008800</color>
        <width>4</width>
      </line>
    </extensions>
    <trkseg>
      <trkpt lat="42.13931" lon="21.72083">
        <ele>379.998736</ele>
        <time>2022-04-13T08:37:26.342Z</time>
      </trkpt>
      <trkpt lat="42.13947" lon="21.72071">
        <ele>379.998736</ele>
        <time>2022-04-13T08:37:34.305Z</time>
      </trkpt>
      <trkpt lat="42.13953" lon="21.72062">
        <ele>379.998736</ele>
        <time>2022-04-13T08:37:36.309Z</time>
      </trkpt>
      <trkpt lat="42.13958" lon="21.72048">
        <ele>379.998736</ele>
        <time>2022-04-13T08:37:40.328Z</time>
      </trkpt>
      <trkpt lat="42.13962" lon="21.72037">
        <ele>379.998736</ele>
        <time>2022-04-13T08:37:43.323Z</time>
      </trkpt>
      <trkpt lat="42.13967" lon="21.72025">
        <ele>379.998736</ele>
        <time>2022-04-13T08:37:47.314Z</time>
      </trkpt>
      <trkpt lat="42.13976" lon="21.72022">
        <ele>379.998736</ele>
        <time>2022-04-13T08:37:51.314Z</time>
      </trkpt>
      <trkpt lat="42.1399" lon="21.72013">
        <ele>379.998736</ele>
        <time>2022-04-13T08:37:56.354Z</time>
      </trkpt>
      <trkpt lat="42.14" lon="21.7201">
        <ele>379.932541</ele>
        <time>2022-04-13T08:37:59.306Z</time>
      </trkpt>
      <trkpt lat="42.14008" lon="21.72005">
        <ele>379.710419</ele>
        <time>2022-04-13T08:38:04.319Z</time>
      </trkpt>
      <trkpt lat="42.14012" lon="21.71992">
        <ele>379.468081</ele>
        <time>2022-04-13T08:38:09.297Z</time>
      </trkpt>
      <trkpt lat="42.14012" lon="21.71979">
        <ele>379.226544</ele>
        <time>2022-04-13T08:38:16.329Z</time>
      </trkpt>
      <trkpt lat="42.14021" lon="21.71976">
        <ele>379.00065</ele>
        <time>2022-04-13T08:38:23.289Z</time>
      </trkpt>
      <trkpt lat="42.14031" lon="21.71978">
        <ele>378.772722</ele>
        <time>2022-04-13T08:38:27.288Z</time>
      </trkpt>
      <trkpt lat="42.14041" lon="21.71984">
        <ele>378.492277</ele>
        <time>2022-04-13T08:38:31.307Z</time>
      </trkpt>
      <trkpt lat="42.14052" lon="21.71989">
        <ele>378.234676</ele>
        <time>2022-04-13T08:38:35.288Z</time>
      </trkpt>
      <trkpt lat="42.14061" lon="21.71993">
        <ele>378.000278</ele>
        <time>2022-04-13T08:38:39.311Z</time>
      </trkpt>
      <trkpt lat="42.14071" lon="21.71998">
        <ele>377.743576</ele>
        <time>2022-04-13T08:38:43.298Z</time>
      </trkpt>
      <trkpt lat="42.1408" lon="21.72004">
        <ele>377.493071</ele>
        <time>2022-04-13T08:38:46.339Z</time>
      </trkpt>
      <trkpt lat="42.1409" lon="21.72014">
        <ele>377.195057</ele>
        <time>2022-04-13T08:38:49.457Z</time>
      </trkpt>
      <trkpt lat="42.14101" lon="21.72022">
        <ele>376.914511</ele>
        <time>2022-04-13T08:38:52.348Z</time>
      </trkpt>
      <trkpt lat="42.14111" lon="21.7203">
        <ele>376.619744</ele>
        <time>2022-04-13T08:38:55.323Z</time>
      </trkpt>
      <trkpt lat="42.14122" lon="21.72036">
        <ele>376.340372</ele>
        <time>2022-04-13T08:38:59.310Z</time>
      </trkpt>
      <trkpt lat="42.14131" lon="21.72041">
        <ele>376.10806</ele>
        <time>2022-04-13T08:39:02.307Z</time>
      </trkpt>
      <trkpt lat="42.1414" lon="21.72046">
        <ele>375.872127</ele>
        <time>2022-04-13T08:39:05.303Z</time>
      </trkpt>
      <trkpt lat="42.1415" lon="21.72052">
        <ele>375.810752</ele>
        <time>2022-04-13T08:39:08.312Z</time>
      </trkpt>
      <trkpt lat="42.14161" lon="21.72057">
        <ele>376.207137</ele>
        <time>2022-04-13T08:39:11.307Z</time>
      </trkpt>
      <trkpt lat="42.14172" lon="21.72063">
        <ele>376.623415</ele>
        <time>2022-04-13T08:39:14.366Z</time>
      </trkpt>
      <trkpt lat="42.14184" lon="21.72066">
        <ele>377.030562</ele>
        <time>2022-04-13T08:39:17.312Z</time>
      </trkpt>
      <trkpt lat="42.14194" lon="21.72061">
        <ele>377.420936</ele>
        <time>2022-04-13T08:39:20.303Z</time>
      </trkpt>
      <trkpt lat="42.14202" lon="21.72052">
        <ele>377.773131</ele>
        <time>2022-04-13T08:39:23.323Z</time>
      </trkpt>
      <trkpt lat="42.1421" lon="21.72044">
        <ele>378.124118</ele>
        <time>2022-04-13T08:39:27.312Z</time>
      </trkpt>
      <trkpt lat="42.14219" lon="21.72036">
        <ele>378.497688</ele>
        <time>2022-04-13T08:39:31.299Z</time>
      </trkpt>
      <trkpt lat="42.14228" lon="21.72028">
        <ele>378.869619</ele>
        <time>2022-04-13T08:39:35.309Z</time>
      </trkpt>
      <trkpt lat="42.14234" lon="21.72016">
        <ele>379.263839</ele>
        <time>2022-04-13T08:39:39.295Z</time>
      </trkpt>
      <trkpt lat="42.14236" lon="21.72004">
        <ele>379.576991</ele>
        <time>2022-04-13T08:39:42.286Z</time>
      </trkpt>
      <trkpt lat="42.14239" lon="21.71991">
        <ele>379.922842</ele>
        <time>2022-04-13T08:39:47.302Z</time>
      </trkpt>
      <trkpt lat="42.14243" lon="21.71977">
        <ele>380.318234</ele>
        <time>2022-04-13T08:39:52.327Z</time>
      </trkpt>
      <trkpt lat="42.14246" lon="21.71962">
        <ele>380.701932</ele>
        <time>2022-04-13T08:39:56.308Z</time>
      </trkpt>
      <trkpt lat="42.1425" lon="21.71948">
        <ele>381.094886</ele>
        <time>2022-04-13T08:40:00.308Z</time>
      </trkpt>
      <trkpt lat="42.14253" lon="21.71936">
        <ele>381.416796</ele>
        <time>2022-04-13T08:40:03.327Z</time>
      </trkpt>
      <trkpt lat="42.14256" lon="21.71921">
        <ele>381.806519</ele>
        <time>2022-04-13T08:40:07.321Z</time>
      </trkpt>
      <trkpt lat="42.14259" lon="21.71907">
        <ele>381.800411</ele>
        <time>2022-04-13T08:40:11.344Z</time>
      </trkpt>
      <trkpt lat="42.14263" lon="21.71891">
        <ele>381.563203</ele>
        <time>2022-04-13T08:40:15.311Z</time>
      </trkpt>
      <trkpt lat="42.14269" lon="21.71878">
        <ele>381.333919</ele>
        <time>2022-04-13T08:40:19.311Z</time>
      </trkpt>
      <trkpt lat="42.14272" lon="21.71865">
        <ele>381.133603</ele>
        <time>2022-04-13T08:40:22.298Z</time>
      </trkpt>
      <trkpt lat="42.14276" lon="21.71852">
        <ele>380.924357</ele>
        <time>2022-04-13T08:40:25.301Z</time>
      </trkpt>
      <trkpt lat="42.14279" lon="21.71838">
        <ele>380.721009</ele>
        <time>2022-04-13T08:40:28.305Z</time>
      </trkpt>
      <trkpt lat="42.14283" lon="21.71823">
        <ele>380.482414</ele>
        <time>2022-04-13T08:40:32.323Z</time>
      </trkpt>
      <trkpt lat="42.14287" lon="21.71809">
        <ele>380.269897</ele>
        <time>2022-04-13T08:40:35.316Z</time>
      </trkpt>
      <trkpt lat="42.14291" lon="21.71798">
        <ele>380.085944</ele>
        <time>2022-04-13T08:40:38.315Z</time>
      </trkpt>
      <trkpt lat="42.14289" lon="21.71783">
        <ele>379.878152</ele>
        <time>2022-04-13T08:40:42.295Z</time>
      </trkpt>
      <trkpt lat="42.14279" lon="21.71782">
        <ele>379.670204</ele>
        <time>2022-04-13T08:40:46.352Z</time>
      </trkpt>
      <trkpt lat="42.14269" lon="21.71777">
        <ele>379.471897</ele>
        <time>2022-04-13T08:40:51.308Z</time>
      </trkpt>
      <trkpt lat="42.14284" lon="21.71779">
        <ele>379.172121</ele>
        <time>2022-04-13T08:49:53.292Z</time>
      </trkpt>
      <trkpt lat="42.14288" lon="21.71792">
        <ele>378.961062</ele>
        <time>2022-04-13T08:49:59.329Z</time>
      </trkpt>
      <trkpt lat="42.14285" lon="21.71807">
        <ele>378.730004</ele>
        <time>2022-04-13T08:50:03.315Z</time>
      </trkpt>
      <trkpt lat="42.14281" lon="21.71822">
        <ele>378.501511</ele>
        <time>2022-04-13T08:50:07.314Z</time>
      </trkpt>
      <trkpt lat="42.1428" lon="21.71836">
        <ele>378.324334</ele>
        <time>2022-04-13T08:50:10.315Z</time>
      </trkpt>
      <trkpt lat="42.14276" lon="21.71848">
        <ele>378.16293</ele>
        <time>2022-04-13T08:50:13.308Z</time>
      </trkpt>
      <trkpt lat="42.14274" lon="21.71861">
        <ele>378.008444</ele>
        <time>2022-04-13T08:50:16.310Z</time>
      </trkpt>
      <trkpt lat="42.1427" lon="21.71873">
        <ele>377.84308</ele>
        <time>2022-04-13T08:50:20.300Z</time>
      </trkpt>
      <trkpt lat="42.14266" lon="21.71885">
        <ele>377.690746</ele>
        <time>2022-04-13T08:50:23.298Z</time>
      </trkpt>
      <trkpt lat="42.14263" lon="21.71897">
        <ele>377.537238</ele>
        <time>2022-04-13T08:50:26.329Z</time>
      </trkpt>
      <trkpt lat="42.14259" lon="21.7191">
        <ele>377.369623</ele>
        <time>2022-04-13T08:50:29.323Z</time>
      </trkpt>
      <trkpt lat="42.14257" lon="21.71925">
        <ele>377.180731</ele>
        <time>2022-04-13T08:50:32.308Z</time>
      </trkpt>
      <trkpt lat="42.14253" lon="21.71939">
        <ele>377.004619</ele>
        <time>2022-04-13T08:50:35.318Z</time>
      </trkpt>
      <trkpt lat="42.1425" lon="21.71951">
        <ele>376.850029</ele>
        <time>2022-04-13T08:50:38.310Z</time>
      </trkpt>
      <trkpt lat="42.14245" lon="21.71961">
        <ele>376.700395</ele>
        <time>2022-04-13T08:50:41.349Z</time>
      </trkpt>
      <trkpt lat="42.14241" lon="21.71973">
        <ele>376.541479</ele>
        <time>2022-04-13T08:50:44.301Z</time>
      </trkpt>
      <trkpt lat="42.14238" lon="21.71987">
        <ele>376.364169</ele>
        <time>2022-04-13T08:50:47.320Z</time>
      </trkpt>
      <trkpt lat="42.14237" lon="21.72001">
        <ele>376.198044</ele>
        <time>2022-04-13T08:50:50.318Z</time>
      </trkpt>
      <trkpt lat="42.14234" lon="21.72014">
        <ele>376.03013</ele>
        <time>2022-04-13T08:50:53.326Z</time>
      </trkpt>
      <trkpt lat="42.14228" lon="21.72025">
        <ele>375.861288</ele>
        <time>2022-04-13T08:50:56.306Z</time>
      </trkpt>
      <trkpt lat="42.1422" lon="21.72036">
        <ele>375.690925</ele>
        <time>2022-04-13T08:50:59.306Z</time>
      </trkpt>
      <trkpt lat="42.14213" lon="21.72045">
        <ele>375.524497</ele>
        <time>2022-04-13T08:51:02.325Z</time>
      </trkpt>
      <trkpt lat="42.14206" lon="21.72055">
        <ele>375.307668</ele>
        <time>2022-04-13T08:51:06.326Z</time>
      </trkpt>
      <trkpt lat="42.14188" lon="21.7207">
        <ele>374.831678</ele>
        <time>2022-04-13T08:52:00.323Z</time>
      </trkpt>
      <trkpt lat="42.14178" lon="21.72069">
        <ele>374.618326</ele>
        <time>2022-04-13T08:52:04.317Z</time>
      </trkpt>
      <trkpt lat="42.14169" lon="21.72064">
        <ele>374.394991</ele>
        <time>2022-04-13T08:52:07.302Z</time>
      </trkpt>
      <trkpt lat="42.14158" lon="21.72056">
        <ele>374.122718</ele>
        <time>2022-04-13T08:52:10.335Z</time>
      </trkpt>
      <trkpt lat="42.14149" lon="21.7205">
        <ele>373.87901</ele>
        <time>2022-04-13T08:52:13.358Z</time>
      </trkpt>
      <trkpt lat="42.1414" lon="21.72044">
        <ele>373.66039</ele>
        <time>2022-04-13T08:52:16.308Z</time>
      </trkpt>
      <trkpt lat="42.1413" lon="21.72039">
        <ele>373.415912</ele>
        <time>2022-04-13T08:52:19.305Z</time>
      </trkpt>
      <trkpt lat="42.1412" lon="21.72033">
        <ele>373.168501</ele>
        <time>2022-04-13T08:52:22.324Z</time>
      </trkpt>
      <trkpt lat="42.14109" lon="21.72027">
        <ele>372.903479</ele>
        <time>2022-04-13T08:52:25.359Z</time>
      </trkpt>
      <trkpt lat="42.141" lon="21.72021">
        <ele>372.68608</ele>
        <time>2022-04-13T08:52:28.327Z</time>
      </trkpt>
      <trkpt lat="42.14092" lon="21.72014">
        <ele>372.462249</ele>
        <time>2022-04-13T08:52:31.364Z</time>
      </trkpt>
      <trkpt lat="42.14088" lon="21.72">
        <ele>372.211078</ele>
        <time>2022-04-13T08:52:35.321Z</time>
      </trkpt>
      <trkpt lat="42.14088" lon="21.71985">
        <ele>371.969899</ele>
        <time>2022-04-13T08:52:38.322Z</time>
      </trkpt>
      <trkpt lat="42.14087" lon="21.71973">
        <ele>371.762198</ele>
        <time>2022-04-13T08:52:41.337Z</time>
      </trkpt>
      <trkpt lat="42.14085" lon="21.71959">
        <ele>371.520404</ele>
        <time>2022-04-13T08:52:45.355Z</time>
      </trkpt>
      <trkpt lat="42.14088" lon="21.71944">
        <ele>371.632917</ele>
        <time>2022-04-13T08:52:49.322Z</time>
      </trkpt>
      <trkpt lat="42.1409" lon="21.71931">
        <ele>371.913798</ele>
        <time>2022-04-13T08:52:53.297Z</time>
      </trkpt>
      <trkpt lat="42.1409" lon="21.71918">
        <ele>372.19617</ele>
        <time>2022-04-13T08:52:59.327Z</time>
      </trkpt>
      <trkpt lat="42.1409" lon="21.71905">
        <ele>372.496967</ele>
        <time>2022-04-13T08:53:02.307Z</time>
      </trkpt>
      <trkpt lat="42.14091" lon="21.7189">
        <ele>372.828747</ele>
        <time>2022-04-13T08:53:05.295Z</time>
      </trkpt>
      <trkpt lat="42.14093" lon="21.71875">
        <ele>373.153455</ele>
        <time>2022-04-13T08:53:08.320Z</time>
      </trkpt>
      <trkpt lat="42.14095" lon="21.7186">
        <ele>373.494628</ele>
        <time>2022-04-13T08:53:11.338Z</time>
      </trkpt>
      <trkpt lat="42.14097" lon="21.71847">
        <ele>373.78194</ele>
        <time>2022-04-13T08:53:14.354Z</time>
      </trkpt>
      <trkpt lat="42.14099" lon="21.71835">
        <ele>374.058724</ele>
        <time>2022-04-13T08:53:17.333Z</time>
      </trkpt>
      <trkpt lat="42.14102" lon="21.7182">
        <ele>374.408814</ele>
        <time>2022-04-13T08:53:21.350Z</time>
      </trkpt>
      <trkpt lat="42.14105" lon="21.71806">
        <ele>374.729039</ele>
        <time>2022-04-13T08:53:24.324Z</time>
      </trkpt>
      <trkpt lat="42.14108" lon="21.71789">
        <ele>375.106153</ele>
        <time>2022-04-13T08:53:27.315Z</time>
      </trkpt>
      <trkpt lat="42.14111" lon="21.71772">
        <ele>375.491938</ele>
        <time>2022-04-13T08:53:30.315Z</time>
      </trkpt>
      <trkpt lat="42.14111" lon="21.71754">
        <ele>375.875302</ele>
        <time>2022-04-13T08:53:33.308Z</time>
      </trkpt>
      <trkpt lat="42.14111" lon="21.71738">
        <ele>376.232233</ele>
        <time>2022-04-13T08:53:36.316Z</time>
      </trkpt>
      <trkpt lat="42.14111" lon="21.71722">
        <ele>376.58296</ele>
        <time>2022-04-13T08:53:39.313Z</time>
      </trkpt>
      <trkpt lat="42.14112" lon="21.71706">
        <ele>376.605189</ele>
        <time>2022-04-13T08:53:42.316Z</time>
      </trkpt>
      <trkpt lat="42.14111" lon="21.71693">
        <ele>376.333248</ele>
        <time>2022-04-13T08:53:45.308Z</time>
      </trkpt>
      <trkpt lat="42.1411" lon="21.7168">
        <ele>376.051451</ele>
        <time>2022-04-13T08:53:48.358Z</time>
      </trkpt>
      <trkpt lat="42.14109" lon="21.71665">
        <ele>375.739456</ele>
        <time>2022-04-13T08:53:51.357Z</time>
      </trkpt>
      <trkpt lat="42.14107" lon="21.71652">
        <ele>375.464836</ele>
        <time>2022-04-13T08:53:54.303Z</time>
      </trkpt>
      <trkpt lat="42.14106" lon="21.71638">
        <ele>375.179944</ele>
        <time>2022-04-13T08:53:57.308Z</time>
      </trkpt>
      <trkpt lat="42.14105" lon="21.71623">
        <ele>374.869256</ele>
        <time>2022-04-13T08:54:00.341Z</time>
      </trkpt>
      <trkpt lat="42.14103" lon="21.71608">
        <ele>374.545777</ele>
        <time>2022-04-13T08:54:03.314Z</time>
      </trkpt>
      <trkpt lat="42.14099" lon="21.71592">
        <ele>374.18577</ele>
        <time>2022-04-13T08:54:06.303Z</time>
      </trkpt>
      <trkpt lat="42.14092" lon="21.71579">
        <ele>373.863533</ele>
        <time>2022-04-13T08:54:09.322Z</time>
      </trkpt>
      <trkpt lat="42.14082" lon="21.7157">
        <ele>373.517732</ele>
        <time>2022-04-13T08:54:12.308Z</time>
      </trkpt>
      <trkpt lat="42.1407" lon="21.71565">
        <ele>373.183481</ele>
        <time>2022-04-13T08:54:15.299Z</time>
      </trkpt>
      <trkpt lat="42.14059" lon="21.71561">
        <ele>372.857623</ele>
        <time>2022-04-13T08:54:18.309Z</time>
      </trkpt>
      <trkpt lat="42.14049" lon="21.71556">
        <ele>372.545199</ele>
        <time>2022-04-13T08:54:21.345Z</time>
      </trkpt>
      <trkpt lat="42.14038" lon="21.71552">
        <ele>372.242001</ele>
        <time>2022-04-13T08:54:24.299Z</time>
      </trkpt>
      <trkpt lat="42.14027" lon="21.71549">
        <ele>371.935756</ele>
        <time>2022-04-13T08:54:27.327Z</time>
      </trkpt>
      <trkpt lat="42.14016" lon="21.71546">
        <ele>371.872849</ele>
        <time>2022-04-13T08:54:30.315Z</time>
      </trkpt>
      <trkpt lat="42.14005" lon="21.71542">
        <ele>372.282545</ele>
        <time>2022-04-13T08:54:33.302Z</time>
      </trkpt>
      <trkpt lat="42.13994" lon="21.71539">
        <ele>372.677399</ele>
        <time>2022-04-13T08:54:36.311Z</time>
      </trkpt>
      <trkpt lat="42.13984" lon="21.71535">
        <ele>373.074266</ele>
        <time>2022-04-13T08:54:39.315Z</time>
      </trkpt>
      <trkpt lat="42.13973" lon="21.71531">
        <ele>373.447876</ele>
        <time>2022-04-13T08:54:42.306Z</time>
      </trkpt>
      <trkpt lat="42.13964" lon="21.71528">
        <ele>373.798289</ele>
        <time>2022-04-13T08:54:45.306Z</time>
      </trkpt>
      <trkpt lat="42.13954" lon="21.71524">
        <ele>374.150173</ele>
        <time>2022-04-13T08:54:48.325Z</time>
      </trkpt>
      <trkpt lat="42.13944" lon="21.7152">
        <ele>374.516385</ele>
        <time>2022-04-13T08:54:51.315Z</time>
      </trkpt>
      <trkpt lat="42.13934" lon="21.71516">
        <ele>374.900944</ele>
        <time>2022-04-13T08:54:54.355Z</time>
      </trkpt>
      <trkpt lat="42.13923" lon="21.71511">
        <ele>375.303966</ele>
        <time>2022-04-13T08:54:57.336Z</time>
      </trkpt>
      <trkpt lat="42.13913" lon="21.71507">
        <ele>375.689198</ele>
        <time>2022-04-13T08:55:00.311Z</time>
      </trkpt>
      <trkpt lat="42.13903" lon="21.71507">
        <ele>376.043704</ele>
        <time>2022-04-13T08:55:03.308Z</time>
      </trkpt>
      <trkpt lat="42.13891" lon="21.71504">
        <ele>376.448329</ele>
        <time>2022-04-13T08:55:06.334Z</time>
      </trkpt>
      <trkpt lat="42.13882" lon="21.71499">
        <ele>376.819613</ele>
        <time>2022-04-13T08:55:09.309Z</time>
      </trkpt>
      <trkpt lat="42.13872" lon="21.71492">
        <ele>377.197598</ele>
        <time>2022-04-13T08:55:12.307Z</time>
      </trkpt>
      <trkpt lat="42.13863" lon="21.71484">
        <ele>377.573716</ele>
        <time>2022-04-13T08:55:15.302Z</time>
      </trkpt>
      <trkpt lat="42.13855" lon="21.71477">
        <ele>377.930805</ele>
        <time>2022-04-13T08:55:18.327Z</time>
      </trkpt>
      <trkpt lat="42.13846" lon="21.71471">
        <ele>378.460771</ele>
        <time>2022-04-13T08:55:22.364Z</time>
      </trkpt>
      <trkpt lat="42.13838" lon="21.71468">
        <ele>379.200628</ele>
        <time>2022-04-13T08:55:26.344Z</time>
      </trkpt>
      <trkpt lat="42.13827" lon="21.71465">
        <ele>380.019086</ele>
        <time>2022-04-13T08:55:31.310Z</time>
      </trkpt>
      <trkpt lat="42.13818" lon="21.71463">
        <ele>380.804076</ele>
        <time>2022-04-13T08:55:35.306Z</time>
      </trkpt>
      <trkpt lat="42.13807" lon="21.71459">
        <ele>381.662833</ele>
        <time>2022-04-13T08:55:40.305Z</time>
      </trkpt>
      <trkpt lat="42.13798" lon="21.71455">
        <ele>382.412017</ele>
        <time>2022-04-13T08:55:45.351Z</time>
      </trkpt>
      <trkpt lat="42.13789" lon="21.71455">
        <ele>383.146256</ele>
        <time>2022-04-13T08:55:50.303Z</time>
      </trkpt>
      <trkpt lat="42.13779" lon="21.71453">
        <ele>384.001612</ele>
        <time>2022-04-13T08:55:55.343Z</time>
      </trkpt>
      <trkpt lat="42.1377" lon="21.71451">
        <ele>384.742688</ele>
        <time>2022-04-13T08:56:00.380Z</time>
      </trkpt>
      <trkpt lat="42.13759" lon="21.71447">
        <ele>385.599577</ele>
        <time>2022-04-13T08:56:05.338Z</time>
      </trkpt>
      <trkpt lat="42.1375" lon="21.71442">
        <ele>386.388981</ele>
        <time>2022-04-13T08:56:10.302Z</time>
      </trkpt>
      <trkpt lat="42.13741" lon="21.71438">
        <ele>387.151772</ele>
        <time>2022-04-13T08:56:15.315Z</time>
      </trkpt>
      <trkpt lat="42.13736" lon="21.71427">
        <ele>387.889176</ele>
        <time>2022-04-13T08:56:19.329Z</time>
      </trkpt>
      <trkpt lat="42.13735" lon="21.71415">
        <ele>388.640959</ele>
        <time>2022-04-13T08:56:23.327Z</time>
      </trkpt>
      <trkpt lat="42.13735" lon="21.71402">
        <ele>389.376904</ele>
        <time>2022-04-13T08:56:27.305Z</time>
      </trkpt>
      <trkpt lat="42.13738" lon="21.7139">
        <ele>390.147388</ele>
        <time>2022-04-13T08:56:32.327Z</time>
      </trkpt>
      <trkpt lat="42.13738" lon="21.71374">
        <ele>391.100474</ele>
        <time>2022-04-13T08:56:36.303Z</time>
      </trkpt>
      <trkpt lat="42.13737" lon="21.71358">
        <ele>392.048182</ele>
        <time>2022-04-13T08:56:40.308Z</time>
      </trkpt>
      <trkpt lat="42.13736" lon="21.71344">
        <ele>392.684483</ele>
        <time>2022-04-13T08:56:43.357Z</time>
      </trkpt>
      <trkpt lat="42.13735" lon="21.71332">
        <ele>393.107883</ele>
        <time>2022-04-13T08:56:46.324Z</time>
      </trkpt>
      <trkpt lat="42.13734" lon="21.71318">
        <ele>393.580399</ele>
        <time>2022-04-13T08:56:49.307Z</time>
      </trkpt>
      <trkpt lat="42.1373" lon="21.71304">
        <ele>394.072517</ele>
        <time>2022-04-13T08:56:52.317Z</time>
      </trkpt>
      <trkpt lat="42.13727" lon="21.71291">
        <ele>394.513468</ele>
        <time>2022-04-13T08:56:55.330Z</time>
      </trkpt>
      <trkpt lat="42.13723" lon="21.71277">
        <ele>395.012944</ele>
        <time>2022-04-13T08:56:59.315Z</time>
      </trkpt>
      <trkpt lat="42.1372" lon="21.71262">
        <ele>395.543966</ele>
        <time>2022-04-13T08:57:03.311Z</time>
      </trkpt>
      <trkpt lat="42.13715" lon="21.71248">
        <ele>396.064039</ele>
        <time>2022-04-13T08:57:07.311Z</time>
      </trkpt>
      <trkpt lat="42.13711" lon="21.71233">
        <ele>396.59009</ele>
        <time>2022-04-13T08:57:11.314Z</time>
      </trkpt>
      <trkpt lat="42.13708" lon="21.71221">
        <ele>397.025513</ele>
        <time>2022-04-13T08:57:15.356Z</time>
      </trkpt>
      <trkpt lat="42.13706" lon="21.71207">
        <ele>397.502956</ele>
        <time>2022-04-13T08:57:19.315Z</time>
      </trkpt>
      <trkpt lat="42.13704" lon="21.71195">
        <ele>397.920462</ele>
        <time>2022-04-13T08:57:22.318Z</time>
      </trkpt>
      <trkpt lat="42.13701" lon="21.71182">
        <ele>398.361854</ele>
        <time>2022-04-13T08:57:25.317Z</time>
      </trkpt>
      <trkpt lat="42.13698" lon="21.71167">
        <ele>398.895861</ele>
        <time>2022-04-13T08:57:28.308Z</time>
      </trkpt>
      <trkpt lat="42.13693" lon="21.71153">
        <ele>399.425645</ele>
        <time>2022-04-13T08:57:31.348Z</time>
      </trkpt>
      <trkpt lat="42.1369" lon="21.71139">
        <ele>399.91413</ele>
        <time>2022-04-13T08:57:34.303Z</time>
      </trkpt>
      <trkpt lat="42.13685" lon="21.71126">
        <ele>400.391939</ele>
        <time>2022-04-13T08:57:37.319Z</time>
      </trkpt>
      <trkpt lat="42.13679" lon="21.71114">
        <ele>400.57929</ele>
        <time>2022-04-13T08:57:40.322Z</time>
      </trkpt>
      <trkpt lat="42.13672" lon="21.71101">
        <ele>400.52724</ele>
        <time>2022-04-13T08:57:43.315Z</time>
      </trkpt>
      <trkpt lat="42.13666" lon="21.71091">
        <ele>400.484433</ele>
        <time>2022-04-13T08:57:46.312Z</time>
      </trkpt>
      <trkpt lat="42.13658" lon="21.71079">
        <ele>400.432389</ele>
        <time>2022-04-13T08:57:50.316Z</time>
      </trkpt>
      <trkpt lat="42.13653" lon="21.71069">
        <ele>400.390382</ele>
        <time>2022-04-13T08:57:53.361Z</time>
      </trkpt>
      <trkpt lat="42.13648" lon="21.71059">
        <ele>400.34934</ele>
        <time>2022-04-13T08:57:56.307Z</time>
      </trkpt>
      <trkpt lat="42.13642" lon="21.71049">
        <ele>400.309183</ele>
        <time>2022-04-13T08:57:59.357Z</time>
      </trkpt>
      <trkpt lat="42.13636" lon="21.71038">
        <ele>400.265061</ele>
        <time>2022-04-13T08:58:02.303Z</time>
      </trkpt>
      <trkpt lat="42.13629" lon="21.71025">
        <ele>400.213015</ele>
        <time>2022-04-13T08:58:05.326Z</time>
      </trkpt>
      <trkpt lat="42.13622" lon="21.71014">
        <ele>400.16329</ele>
        <time>2022-04-13T08:58:08.329Z</time>
      </trkpt>
      <trkpt lat="42.13617" lon="21.71002">
        <ele>400.118314</ele>
        <time>2022-04-13T08:58:11.307Z</time>
      </trkpt>
      <trkpt lat="42.1361" lon="21.70989">
        <ele>400.066879</ele>
        <time>2022-04-13T08:58:15.299Z</time>
      </trkpt>
      <trkpt lat="42.13605" lon="21.70977">
        <ele>400.021606</ele>
        <time>2022-04-13T08:58:18.310Z</time>
      </trkpt>
      <trkpt lat="42.136" lon="21.70965">
        <ele>399.975287</ele>
        <time>2022-04-13T08:58:21.291Z</time>
      </trkpt>
      <trkpt lat="42.13594" lon="21.70953">
        <ele>399.927977</ele>
        <time>2022-04-13T08:58:24.305Z</time>
      </trkpt>
      <trkpt lat="42.13588" lon="21.70943">
        <ele>399.884911</ele>
        <time>2022-04-13T08:58:27.358Z</time>
      </trkpt>
      <trkpt lat="42.13582" lon="21.70933">
        <ele>399.842828</ele>
        <time>2022-04-13T08:58:30.320Z</time>
      </trkpt>
      <trkpt lat="42.13576" lon="21.7092">
        <ele>400.044991</ele>
        <time>2022-04-13T08:58:34.345Z</time>
      </trkpt>
      <trkpt lat="42.13571" lon="21.70905">
        <ele>400.897602</ele>
        <time>2022-04-13T08:58:38.298Z</time>
      </trkpt>
      <trkpt lat="42.13568" lon="21.70894">
        <ele>401.562719</ele>
        <time>2022-04-13T08:58:41.316Z</time>
      </trkpt>
      <trkpt lat="42.13565" lon="21.70882">
        <ele>402.235038</ele>
        <time>2022-04-13T08:58:44.305Z</time>
      </trkpt>
      <trkpt lat="42.13562" lon="21.70869">
        <ele>402.936198</ele>
        <time>2022-04-13T08:58:47.325Z</time>
      </trkpt>
      <trkpt lat="42.13559" lon="21.70857">
        <ele>403.604444</ele>
        <time>2022-04-13T08:58:50.307Z</time>
      </trkpt>
      <trkpt lat="42.13555" lon="21.70843">
        <ele>404.390866</ele>
        <time>2022-04-13T08:58:54.326Z</time>
      </trkpt>
      <trkpt lat="42.13551" lon="21.70828">
        <ele>405.241282</ele>
        <time>2022-04-13T08:58:58.302Z</time>
      </trkpt>
      <trkpt lat="42.13547" lon="21.70814">
        <ele>406.042359</ele>
        <time>2022-04-13T08:59:02.300Z</time>
      </trkpt>
      <trkpt lat="42.13543" lon="21.70801">
        <ele>406.769008</ele>
        <time>2022-04-13T08:59:06.346Z</time>
      </trkpt>
      <trkpt lat="42.13538" lon="21.7079">
        <ele>407.416495</ele>
        <time>2022-04-13T08:59:09.336Z</time>
      </trkpt>
      <trkpt lat="42.13534" lon="21.70779">
        <ele>408.103044</ele>
        <time>2022-04-13T08:59:12.306Z</time>
      </trkpt>
      <trkpt lat="42.13533" lon="21.70764">
        <ele>408.888699</ele>
        <time>2022-04-13T08:59:16.304Z</time>
      </trkpt>
      <trkpt lat="42.13535" lon="21.70752">
        <ele>409.551067</ele>
        <time>2022-04-13T08:59:21.295Z</time>
      </trkpt>
      <trkpt lat="42.1353" lon="21.70738">
        <ele>410.365182</ele>
        <time>2022-04-13T08:59:26.322Z</time>
      </trkpt>
      <trkpt lat="42.13525" lon="21.70725">
        <ele>411.148533</ele>
        <time>2022-04-13T08:59:30.292Z</time>
      </trkpt>
      <trkpt lat="42.1352" lon="21.70712">
        <ele>411.887403</ele>
        <time>2022-04-13T08:59:34.319Z</time>
      </trkpt>
      <trkpt lat="42.13516" lon="21.70698">
        <ele>412.562594</ele>
        <time>2022-04-13T08:59:37.305Z</time>
      </trkpt>
      <trkpt lat="42.13512" lon="21.70683">
        <ele>412.280953</ele>
        <time>2022-04-13T08:59:40.335Z</time>
      </trkpt>
      <trkpt lat="42.13509" lon="21.70671">
        <ele>412.064382</ele>
        <time>2022-04-13T08:59:43.332Z</time>
      </trkpt>
      <trkpt lat="42.13506" lon="21.70658">
        <ele>411.823973</ele>
        <time>2022-04-13T08:59:46.316Z</time>
      </trkpt>
      <trkpt lat="42.13501" lon="21.70644">
        <ele>411.56907</ele>
        <time>2022-04-13T08:59:50.300Z</time>
      </trkpt>
      <trkpt lat="42.13498" lon="21.70632">
        <ele>411.33611</ele>
        <time>2022-04-13T08:59:54.301Z</time>
      </trkpt>
      <trkpt lat="42.13494" lon="21.70619">
        <ele>411.093336</ele>
        <time>2022-04-13T08:59:59.303Z</time>
      </trkpt>
      <trkpt lat="42.13492" lon="21.70604">
        <ele>410.825696</ele>
        <time>2022-04-13T09:00:03.382Z</time>
      </trkpt>
      <trkpt lat="42.13491" lon="21.70591">
        <ele>410.603688</ele>
        <time>2022-04-13T09:00:06.321Z</time>
      </trkpt>
      <trkpt lat="42.13489" lon="21.70577">
        <ele>410.360401</ele>
        <time>2022-04-13T09:00:09.359Z</time>
      </trkpt>
      <trkpt lat="42.13485" lon="21.70562">
        <ele>410.091381</ele>
        <time>2022-04-13T09:00:13.304Z</time>
      </trkpt>
      <trkpt lat="42.13481" lon="21.70551">
        <ele>409.864654</ele>
        <time>2022-04-13T09:00:17.304Z</time>
      </trkpt>
      <trkpt lat="42.13477" lon="21.70539">
        <ele>409.636217</ele>
        <time>2022-04-13T09:00:21.306Z</time>
      </trkpt>
      <trkpt lat="42.13473" lon="21.70526">
        <ele>409.402069</ele>
        <time>2022-04-13T09:00:25.303Z</time>
      </trkpt>
      <trkpt lat="42.13465" lon="21.70516">
        <ele>409.129812</ele>
        <time>2022-04-13T09:00:29.299Z</time>
      </trkpt>
      <trkpt lat="42.13458" lon="21.70502">
        <ele>408.852623</ele>
        <time>2022-04-13T09:00:33.292Z</time>
      </trkpt>
      <trkpt lat="42.13456" lon="21.70487">
        <ele>408.57839</ele>
        <time>2022-04-13T09:00:37.305Z</time>
      </trkpt>
      <trkpt lat="42.13454" lon="21.70472">
        <ele>408.286995</ele>
        <time>2022-04-13T09:00:41.303Z</time>
      </trkpt>
      <trkpt lat="42.13453" lon="21.70459">
        <ele>407.920463</ele>
        <time>2022-04-13T09:00:44.295Z</time>
      </trkpt>
      <trkpt lat="42.13451" lon="21.70444">
        <ele>407.516346</ele>
        <time>2022-04-13T09:00:48.323Z</time>
      </trkpt>
      <trkpt lat="42.13449" lon="21.70428">
        <ele>407.086872</ele>
        <time>2022-04-13T09:00:52.305Z</time>
      </trkpt>
      <trkpt lat="42.13444" lon="21.70415">
        <ele>406.678935</ele>
        <time>2022-04-13T09:00:56.321Z</time>
      </trkpt>
      <trkpt lat="42.13441" lon="21.70403">
        <ele>406.342415</ele>
        <time>2022-04-13T09:01:00.305Z</time>
      </trkpt>
      <trkpt lat="42.13438" lon="21.70389">
        <ele>405.962725</ele>
        <time>2022-04-13T09:01:05.346Z</time>
      </trkpt>
      <trkpt lat="42.13436" lon="21.70377">
        <ele>405.603362</ele>
        <time>2022-04-13T09:01:09.295Z</time>
      </trkpt>
      <trkpt lat="42.13433" lon="21.70363">
        <ele>405.210613</ele>
        <time>2022-04-13T09:01:13.310Z</time>
      </trkpt>
      <trkpt lat="42.1343" lon="21.70349">
        <ele>404.820056</ele>
        <time>2022-04-13T09:01:18.320Z</time>
      </trkpt>
      <trkpt lat="42.13428" lon="21.70336">
        <ele>404.474714</ele>
        <time>2022-04-13T09:01:23.356Z</time>
      </trkpt>
      <trkpt lat="42.13425" lon="21.70323">
        <ele>404.086212</ele>
        <time>2022-04-13T09:01:28.328Z</time>
      </trkpt>
      <trkpt lat="42.13422" lon="21.7031">
        <ele>403.726283</ele>
        <time>2022-04-13T09:01:33.296Z</time>
      </trkpt>
      <trkpt lat="42.13418" lon="21.70299">
        <ele>403.38708</ele>
        <time>2022-04-13T09:01:38.302Z</time>
      </trkpt>
      <trkpt lat="42.13414" lon="21.70286">
        <ele>403.010856</ele>
        <time>2022-04-13T09:01:44.313Z</time>
      </trkpt>
      <trkpt lat="42.1341" lon="21.70273">
        <ele>402.632451</ele>
        <time>2022-04-13T09:01:50.306Z</time>
      </trkpt>
      <trkpt lat="42.13406" lon="21.7026">
        <ele>402.265386</ele>
        <time>2022-04-13T09:01:55.320Z</time>
      </trkpt>
      <trkpt lat="42.13404" lon="21.70248">
        <ele>401.924166</ele>
        <time>2022-04-13T09:02:00.315Z</time>
      </trkpt>
      <trkpt lat="42.13401" lon="21.70236">
        <ele>401.968885</ele>
        <time>2022-04-13T09:02:05.297Z</time>
      </trkpt>
      <trkpt lat="42.13397" lon="21.70223">
        <ele>402.235108</ele>
        <time>2022-04-13T09:02:11.362Z</time>
      </trkpt>
      <trkpt lat="42.13394" lon="21.70211">
        <ele>402.462787</ele>
        <time>2022-04-13T09:02:16.309Z</time>
      </trkpt>
      <trkpt lat="42.1339" lon="21.70199">
        <ele>402.705769</ele>
        <time>2022-04-13T09:02:21.324Z</time>
      </trkpt>
      <trkpt lat="42.13387" lon="21.70187">
        <ele>402.936724</ele>
        <time>2022-04-13T09:02:25.303Z</time>
      </trkpt>
      <trkpt lat="42.13383" lon="21.70176">
        <ele>403.168757</ele>
        <time>2022-04-13T09:02:29.340Z</time>
      </trkpt>
      <trkpt lat="42.1338" lon="21.70162">
        <ele>403.436694</ele>
        <time>2022-04-13T09:02:33.323Z</time>
      </trkpt>
      <trkpt lat="42.13376" lon="21.7015">
        <ele>403.664184</ele>
        <time>2022-04-13T09:02:36.297Z</time>
      </trkpt>
      <trkpt lat="42.13372" lon="21.70136">
        <ele>403.948517</ele>
        <time>2022-04-13T09:02:40.303Z</time>
      </trkpt>
      <trkpt lat="42.13368" lon="21.70122">
        <ele>404.228661</ele>
        <time>2022-04-13T09:02:44.308Z</time>
      </trkpt>
      <trkpt lat="42.13364" lon="21.70109">
        <ele>404.475041</ele>
        <time>2022-04-13T09:02:47.319Z</time>
      </trkpt>
      <trkpt lat="42.13361" lon="21.70098">
        <ele>404.707661</ele>
        <time>2022-04-13T09:02:50.317Z</time>
      </trkpt>
      <trkpt lat="42.13357" lon="21.70085">
        <ele>404.959229</ele>
        <time>2022-04-13T09:02:54.304Z</time>
      </trkpt>
      <trkpt lat="42.13355" lon="21.70072">
        <ele>405.199554</ele>
        <time>2022-04-13T09:02:58.312Z</time>
      </trkpt>
      <trkpt lat="42.13351" lon="21.70057">
        <ele>405.481502</ele>
        <time>2022-04-13T09:03:02.315Z</time>
      </trkpt>
      <trkpt lat="42.13348" lon="21.70044">
        <ele>405.742946</ele>
        <time>2022-04-13T09:03:06.315Z</time>
      </trkpt>
      <trkpt lat="42.13344" lon="21.70029">
        <ele>406.029004</ele>
        <time>2022-04-13T09:03:10.334Z</time>
      </trkpt>
      <trkpt lat="42.13341" lon="21.70015">
        <ele>406.332015</ele>
        <time>2022-04-13T09:03:14.307Z</time>
      </trkpt>
      <trkpt lat="42.13339" lon="21.70003">
        <ele>406.787551</ele>
        <time>2022-04-13T09:03:17.321Z</time>
      </trkpt>
      <trkpt lat="42.13334" lon="21.69988">
        <ele>407.355342</ele>
        <time>2022-04-13T09:03:21.319Z</time>
      </trkpt>
      <trkpt lat="42.13331" lon="21.69976">
        <ele>407.798472</ele>
        <time>2022-04-13T09:03:24.317Z</time>
      </trkpt>
      <trkpt lat="42.13329" lon="21.69964">
        <ele>408.241674</ele>
        <time>2022-04-13T09:03:27.322Z</time>
      </trkpt>
      <trkpt lat="42.13325" lon="21.6995">
        <ele>408.81293</ele>
        <time>2022-04-13T09:03:31.382Z</time>
      </trkpt>
      <trkpt lat="42.13321" lon="21.69938">
        <ele>409.27149</ele>
        <time>2022-04-13T09:03:34.309Z</time>
      </trkpt>
      <trkpt lat="42.13317" lon="21.69926">
        <ele>409.735776</ele>
        <time>2022-04-13T09:03:37.362Z</time>
      </trkpt>
      <trkpt lat="42.13314" lon="21.69915">
        <ele>410.175881</ele>
        <time>2022-04-13T09:03:40.320Z</time>
      </trkpt>
      <trkpt lat="42.13311" lon="21.699">
        <ele>410.711308</ele>
        <time>2022-04-13T09:03:44.345Z</time>
      </trkpt>
      <trkpt lat="42.13308" lon="21.69887">
        <ele>411.200609</ele>
        <time>2022-04-13T09:03:48.319Z</time>
      </trkpt>
      <trkpt lat="42.13305" lon="21.69874">
        <ele>411.694425</ele>
        <time>2022-04-13T09:03:52.312Z</time>
      </trkpt>
      <trkpt lat="42.13301" lon="21.69861">
        <ele>412.211672</ele>
        <time>2022-04-13T09:03:56.306Z</time>
      </trkpt>
      <trkpt lat="42.13299" lon="21.69846">
        <ele>412.749114</ele>
        <time>2022-04-13T09:04:01.320Z</time>
      </trkpt>
      <trkpt lat="42.13297" lon="21.69834">
        <ele>413.18559</ele>
        <time>2022-04-13T09:04:05.373Z</time>
      </trkpt>
      <trkpt lat="42.13295" lon="21.69822">
        <ele>413.622067</ele>
        <time>2022-04-13T09:04:09.320Z</time>
      </trkpt>
      <trkpt lat="42.13292" lon="21.69809">
        <ele>414.139315</ele>
        <time>2022-04-13T09:04:14.304Z</time>
      </trkpt>
      <trkpt lat="42.13288" lon="21.69796">
        <ele>414.630529</ele>
        <time>2022-04-13T09:04:19.315Z</time>
      </trkpt>
      <trkpt lat="42.13283" lon="21.69783">
        <ele>415.22014</ele>
        <time>2022-04-13T09:04:24.320Z</time>
      </trkpt>
      <trkpt lat="42.13279" lon="21.69771">
        <ele>415.901528</ele>
        <time>2022-04-13T09:04:29.303Z</time>
      </trkpt>
      <trkpt lat="42.13275" lon="21.69759">
        <ele>416.607477</ele>
        <time>2022-04-13T09:04:33.351Z</time>
      </trkpt>
      <trkpt lat="42.1327" lon="21.69746">
        <ele>417.363463</ele>
        <time>2022-04-13T09:04:37.314Z</time>
      </trkpt>
      <trkpt lat="42.13268" lon="21.69732">
        <ele>418.121485</ele>
        <time>2022-04-13T09:04:42.320Z</time>
      </trkpt>
      <trkpt lat="42.13265" lon="21.69717">
        <ele>418.904714</ele>
        <time>2022-04-13T09:04:47.347Z</time>
      </trkpt>
      <trkpt lat="42.13262" lon="21.69703">
        <ele>419.663759</ele>
        <time>2022-04-13T09:04:52.291Z</time>
      </trkpt>
      <trkpt lat="42.13259" lon="21.6969">
        <ele>420.391753</ele>
        <time>2022-04-13T09:04:58.314Z</time>
      </trkpt>
      <trkpt lat="42.13256" lon="21.69678">
        <ele>421.059226</ele>
        <time>2022-04-13T09:05:04.320Z</time>
      </trkpt>
      <trkpt lat="42.13253" lon="21.69666">
        <ele>421.702591</ele>
        <time>2022-04-13T09:05:10.321Z</time>
      </trkpt>
      <trkpt lat="42.13251" lon="21.69653">
        <ele>422.394529</ele>
        <time>2022-04-13T09:05:16.320Z</time>
      </trkpt>
      <trkpt lat="42.13247" lon="21.69641">
        <ele>423.049785</ele>
        <time>2022-04-13T09:05:21.355Z</time>
      </trkpt>
      <trkpt lat="42.13244" lon="21.6963">
        <ele>423.705146</ele>
        <time>2022-04-13T09:05:26.319Z</time>
      </trkpt>
      <trkpt lat="42.13241" lon="21.69617">
        <ele>424.386143</ele>
        <time>2022-04-13T09:05:30.303Z</time>
      </trkpt>
      <trkpt lat="42.13238" lon="21.69605">
        <ele>425.061424</ele>
        <time>2022-04-13T09:05:34.315Z</time>
      </trkpt>
      <trkpt lat="42.13235" lon="21.69593">
        <ele>425.733918</ele>
        <time>2022-04-13T09:05:39.328Z</time>
      </trkpt>
      <trkpt lat="42.13231" lon="21.6958">
        <ele>426.46313</ele>
        <time>2022-04-13T09:05:44.311Z</time>
      </trkpt>
      <trkpt lat="42.13227" lon="21.69566">
        <ele>427.226068</ele>
        <time>2022-04-13T09:05:49.317Z</time>
      </trkpt>
      <trkpt lat="42.13226" lon="21.69553">
        <ele>427.411229</ele>
        <time>2022-04-13T09:05:53.333Z</time>
      </trkpt>
      <trkpt lat="42.13224" lon="21.6954">
        <ele>426.87484</ele>
        <time>2022-04-13T09:05:57.341Z</time>
      </trkpt>
      <trkpt lat="42.13221" lon="21.69526">
        <ele>426.282231</ele>
        <time>2022-04-13T09:06:02.314Z</time>
      </trkpt>
      <trkpt lat="42.13218" lon="21.69513">
        <ele>425.716058</ele>
        <time>2022-04-13T09:06:07.307Z</time>
      </trkpt>
      <trkpt lat="42.13214" lon="21.69501">
        <ele>425.213919</ele>
        <time>2022-04-13T09:06:11.323Z</time>
      </trkpt>
      <trkpt lat="42.1321" lon="21.69489">
        <ele>424.67065</ele>
        <time>2022-04-13T09:06:15.297Z</time>
      </trkpt>
      <trkpt lat="42.13206" lon="21.69474">
        <ele>424.020296</ele>
        <time>2022-04-13T09:06:19.358Z</time>
      </trkpt>
      <trkpt lat="42.13203" lon="21.69462">
        <ele>423.495472</ele>
        <time>2022-04-13T09:06:22.320Z</time>
      </trkpt>
      <trkpt lat="42.13199" lon="21.69449">
        <ele>422.942139</ele>
        <time>2022-04-13T09:06:25.303Z</time>
      </trkpt>
      <trkpt lat="42.13196" lon="21.69435">
        <ele>422.331671</ele>
        <time>2022-04-13T09:06:28.312Z</time>
      </trkpt>
      <trkpt lat="42.13192" lon="21.6942">
        <ele>421.684912</ele>
        <time>2022-04-13T09:06:31.327Z</time>
      </trkpt>
      <trkpt lat="42.13187" lon="21.69403">
        <ele>420.960418</ele>
        <time>2022-04-13T09:06:34.324Z</time>
      </trkpt>
      <trkpt lat="42.13184" lon="21.69391">
        <ele>420.454466</ele>
        <time>2022-04-13T09:06:36.307Z</time>
      </trkpt>
      <trkpt lat="42.13181" lon="21.69378">
        <ele>419.918107</ele>
        <time>2022-04-13T09:06:38.323Z</time>
      </trkpt>
      <trkpt lat="42.13178" lon="21.69366">
        <ele>419.369758</ele>
        <time>2022-04-13T09:06:40.321Z</time>
      </trkpt>
      <trkpt lat="42.13175" lon="21.69352">
        <ele>418.784055</ele>
        <time>2022-04-13T09:06:42.333Z</time>
      </trkpt>
      <trkpt lat="42.1317" lon="21.69337">
        <ele>418.143115</ele>
        <time>2022-04-13T09:06:44.326Z</time>
      </trkpt>
      <trkpt lat="42.13165" lon="21.69322">
        <ele>417.593485</ele>
        <time>2022-04-13T09:06:46.312Z</time>
      </trkpt>
      <trkpt lat="42.13161" lon="21.69306">
        <ele>417.148755</ele>
        <time>2022-04-13T09:06:48.334Z</time>
      </trkpt>
      <trkpt lat="42.13156" lon="21.69288">
        <ele>416.665561</ele>
        <time>2022-04-13T09:06:50.305Z</time>
      </trkpt>
      <trkpt lat="42.13151" lon="21.69271">
        <ele>416.18112</ele>
        <time>2022-04-13T09:06:52.322Z</time>
      </trkpt>
      <trkpt lat="42.13146" lon="21.69252">
        <ele>415.68231</ele>
        <time>2022-04-13T09:06:54.326Z</time>
      </trkpt>
      <trkpt lat="42.13141" lon="21.69235">
        <ele>415.196729</ele>
        <time>2022-04-13T09:06:56.296Z</time>
      </trkpt>
      <trkpt lat="42.13136" lon="21.69217">
        <ele>414.717159</ele>
        <time>2022-04-13T09:06:58.318Z</time>
      </trkpt>
      <trkpt lat="42.13131" lon="21.69199">
        <ele>414.215936</ele>
        <time>2022-04-13T09:07:00.316Z</time>
      </trkpt>
      <trkpt lat="42.13126" lon="21.6918">
        <ele>413.706185</ele>
        <time>2022-04-13T09:07:02.312Z</time>
      </trkpt>
      <trkpt lat="42.13121" lon="21.69161">
        <ele>413.188145</ele>
        <time>2022-04-13T09:07:04.350Z</time>
      </trkpt>
      <trkpt lat="42.13116" lon="21.69141">
        <ele>412.65675</ele>
        <time>2022-04-13T09:07:06.319Z</time>
      </trkpt>
      <trkpt lat="42.13111" lon="21.69122">
        <ele>412.123065</ele>
        <time>2022-04-13T09:07:08.345Z</time>
      </trkpt>
      <trkpt lat="42.13106" lon="21.69103">
        <ele>411.60023</ele>
        <time>2022-04-13T09:07:10.347Z</time>
      </trkpt>
      <trkpt lat="42.13101" lon="21.69083">
        <ele>411.406391</ele>
        <time>2022-04-13T09:07:12.327Z</time>
      </trkpt>
      <trkpt lat="42.13096" lon="21.69063">
        <ele>411.224637</ele>
        <time>2022-04-13T09:07:14.320Z</time>
      </trkpt>
      <trkpt lat="42.13091" lon="21.69043">
        <ele>411.047104</ele>
        <time>2022-04-13T09:07:16.327Z</time>
      </trkpt>
      <trkpt lat="42.13086" lon="21.69025">
        <ele>410.873291</ele>
        <time>2022-04-13T09:07:18.327Z</time>
      </trkpt>
      <trkpt lat="42.13081" lon="21.69007">
        <ele>410.709656</ele>
        <time>2022-04-13T09:07:20.347Z</time>
      </trkpt>
      <trkpt lat="42.13076" lon="21.68991">
        <ele>410.54996</ele>
        <time>2022-04-13T09:07:22.316Z</time>
      </trkpt>
      <trkpt lat="42.1307" lon="21.68976">
        <ele>410.404496</ele>
        <time>2022-04-13T09:07:24.303Z</time>
      </trkpt>
      <trkpt lat="42.13064" lon="21.68963">
        <ele>410.274183</ele>
        <time>2022-04-13T09:07:26.318Z</time>
      </trkpt>
      <trkpt lat="42.13056" lon="21.6895">
        <ele>410.126683</ele>
        <time>2022-04-13T09:07:29.306Z</time>
      </trkpt>
      <trkpt lat="42.13051" lon="21.68939">
        <ele>410.014839</ele>
        <time>2022-04-13T09:07:32.315Z</time>
      </trkpt>
      <trkpt lat="42.13043" lon="21.68927">
        <ele>409.879766</ele>
        <time>2022-04-13T09:07:36.323Z</time>
      </trkpt>
      <trkpt lat="42.13038" lon="21.68918">
        <ele>409.772061</ele>
        <time>2022-04-13T09:07:39.313Z</time>
      </trkpt>
      <trkpt lat="42.1303" lon="21.68905">
        <ele>409.631879</ele>
        <time>2022-04-13T09:07:43.315Z</time>
      </trkpt>
      <trkpt lat="42.13022" lon="21.68895">
        <ele>409.504192</ele>
        <time>2022-04-13T09:07:47.321Z</time>
      </trkpt>
      <trkpt lat="42.13015" lon="21.68886">
        <ele>410.035979</ele>
        <time>2022-04-13T09:07:51.301Z</time>
      </trkpt>
      <trkpt lat="42.13009" lon="21.68877">
        <ele>410.782097</ele>
        <time>2022-04-13T09:07:55.308Z</time>
      </trkpt>
      <trkpt lat="42.13003" lon="21.68866">
        <ele>411.612377</ele>
        <time>2022-04-13T09:08:01.310Z</time>
      </trkpt>
      <trkpt lat="42.12996" lon="21.68856">
        <ele>412.463195</ele>
        <time>2022-04-13T09:08:06.353Z</time>
      </trkpt>
      <trkpt lat="42.12988" lon="21.68846">
        <ele>413.312427</ele>
        <time>2022-04-13T09:08:10.313Z</time>
      </trkpt>
      <trkpt lat="42.12981" lon="21.68837">
        <ele>414.100384</ele>
        <time>2022-04-13T09:08:14.316Z</time>
      </trkpt>
      <trkpt lat="42.12974" lon="21.68825">
        <ele>415.010367</ele>
        <time>2022-04-13T09:08:19.316Z</time>
      </trkpt>
      <trkpt lat="42.12968" lon="21.68815">
        <ele>415.762559</ele>
        <time>2022-04-13T09:08:23.307Z</time>
      </trkpt>
      <trkpt lat="42.12962" lon="21.68804">
        <ele>416.64176</ele>
        <time>2022-04-13T09:08:28.360Z</time>
      </trkpt>
      <trkpt lat="42.12955" lon="21.68794">
        <ele>417.472756</ele>
        <time>2022-04-13T09:08:33.325Z</time>
      </trkpt>
      <trkpt lat="42.12949" lon="21.68784">
        <ele>418.243721</ele>
        <time>2022-04-13T09:08:37.304Z</time>
      </trkpt>
      <trkpt lat="42.12942" lon="21.68773">
        <ele>419.104972</ele>
        <time>2022-04-13T09:08:42.316Z</time>
      </trkpt>
      <trkpt lat="42.12936" lon="21.68764">
        <ele>419.842905</ele>
        <time>2022-04-13T09:08:47.301Z</time>
      </trkpt>
      <trkpt lat="42.12929" lon="21.68754">
        <ele>420.706439</ele>
        <time>2022-04-13T09:08:54.309Z</time>
      </trkpt>
      <trkpt lat="42.12922" lon="21.68746">
        <ele>421.433745</ele>
        <time>2022-04-13T09:09:00.358Z</time>
      </trkpt>
      <trkpt lat="42.12914" lon="21.68737">
        <ele>422.280054</ele>
        <time>2022-04-13T09:09:06.304Z</time>
      </trkpt>
      <trkpt lat="42.12908" lon="21.68727">
        <ele>423.061598</ele>
        <time>2022-04-13T09:09:11.314Z</time>
      </trkpt>
      <trkpt lat="42.12902" lon="21.68718">
        <ele>423.82081</ele>
        <time>2022-04-13T09:09:15.330Z</time>
      </trkpt>
      <trkpt lat="42.12896" lon="21.68708">
        <ele>424.266767</ele>
        <time>2022-04-13T09:09:20.298Z</time>
      </trkpt>
      <trkpt lat="42.12889" lon="21.68697">
        <ele>424.526211</ele>
        <time>2022-04-13T09:09:26.312Z</time>
      </trkpt>
      <trkpt lat="42.12882" lon="21.68685">
        <ele>424.789852</ele>
        <time>2022-04-13T09:09:32.311Z</time>
      </trkpt>
      <trkpt lat="42.12875" lon="21.68675">
        <ele>425.03671</ele>
        <time>2022-04-13T09:09:37.294Z</time>
      </trkpt>
      <trkpt lat="42.12868" lon="21.68666">
        <ele>425.282614</ele>
        <time>2022-04-13T09:09:42.319Z</time>
      </trkpt>
      <trkpt lat="42.1286" lon="21.68657">
        <ele>425.533472</ele>
        <time>2022-04-13T09:09:47.359Z</time>
      </trkpt>
      <trkpt lat="42.12852" lon="21.68649">
        <ele>425.783765</ele>
        <time>2022-04-13T09:09:53.319Z</time>
      </trkpt>
      <trkpt lat="42.12844" lon="21.68643">
        <ele>426.008112</ele>
        <time>2022-04-13T09:09:58.471Z</time>
      </trkpt>
      <trkpt lat="42.12834" lon="21.68639">
        <ele>426.265078</ele>
        <time>2022-04-13T09:10:03.313Z</time>
      </trkpt>
      <trkpt lat="42.12824" lon="21.68634">
        <ele>426.519173</ele>
        <time>2022-04-13T09:10:08.323Z</time>
      </trkpt>
      <trkpt lat="42.12815" lon="21.68629">
        <ele>426.761312</ele>
        <time>2022-04-13T09:10:13.322Z</time>
      </trkpt>
      <trkpt lat="42.12805" lon="21.68624">
        <ele>427.02292</ele>
        <time>2022-04-13T09:10:18.327Z</time>
      </trkpt>
      <trkpt lat="42.12796" lon="21.6862">
        <ele>427.256737</ele>
        <time>2022-04-13T09:10:23.305Z</time>
      </trkpt>
      <trkpt lat="42.12786" lon="21.68615">
        <ele>427.515632</ele>
        <time>2022-04-13T09:10:29.317Z</time>
      </trkpt>
      <trkpt lat="42.12777" lon="21.68611">
        <ele>427.747127</ele>
        <time>2022-04-13T09:10:34.300Z</time>
      </trkpt>
      <trkpt lat="42.12767" lon="21.68607">
        <ele>428.00516</ele>
        <time>2022-04-13T09:10:40.307Z</time>
      </trkpt>
      <trkpt lat="42.12758" lon="21.68602">
        <ele>428.239324</ele>
        <time>2022-04-13T09:10:45.303Z</time>
      </trkpt>
      <trkpt lat="42.12749" lon="21.68595">
        <ele>428.497995</ele>
        <time>2022-04-13T09:10:51.305Z</time>
      </trkpt>
      <trkpt lat="42.12741" lon="21.68587">
        <ele>429.712126</ele>
        <time>2022-04-13T09:10:57.315Z</time>
      </trkpt>
      <trkpt lat="42.12734" lon="21.68576">
        <ele>431.154559</ele>
        <time>2022-04-13T09:11:02.314Z</time>
      </trkpt>
      <trkpt lat="42.12729" lon="21.68564">
        <ele>432.472458</ele>
        <time>2022-04-13T09:11:09.319Z</time>
      </trkpt>
      <trkpt lat="42.12727" lon="21.68551">
        <ele>433.772905</ele>
        <time>2022-04-13T09:11:15.318Z</time>
      </trkpt>
      <trkpt lat="42.12725" lon="21.68539">
        <ele>435.013127</ele>
        <time>2022-04-13T09:11:19.319Z</time>
      </trkpt>
      <trkpt lat="42.12723" lon="21.68525">
        <ele>436.423353</ele>
        <time>2022-04-13T09:11:24.302Z</time>
      </trkpt>
      <trkpt lat="42.12721" lon="21.68511">
        <ele>437.837792</ele>
        <time>2022-04-13T09:11:30.323Z</time>
      </trkpt>
      <trkpt lat="42.12722" lon="21.68497">
        <ele>439.225305</ele>
        <time>2022-04-13T09:11:36.331Z</time>
      </trkpt>
      <trkpt lat="42.12721" lon="21.68484">
        <ele>440.534811</ele>
        <time>2022-04-13T09:11:41.307Z</time>
      </trkpt>
      <trkpt lat="42.12719" lon="21.6847">
        <ele>442.024916</ele>
        <time>2022-04-13T09:11:46.320Z</time>
      </trkpt>
      <trkpt lat="42.12718" lon="21.68456">
        <ele>443.441562</ele>
        <time>2022-04-13T09:11:53.318Z</time>
      </trkpt>
      <trkpt lat="42.12718" lon="21.68443">
        <ele>444.680519</ele>
        <time>2022-04-13T09:12:00.385Z</time>
      </trkpt>
      <trkpt lat="42.12719" lon="21.68431">
        <ele>445.943961</ele>
        <time>2022-04-13T09:12:07.302Z</time>
      </trkpt>
      <trkpt lat="42.1272" lon="21.68417">
        <ele>447.33219</ele>
        <time>2022-04-13T09:12:13.300Z</time>
      </trkpt>
      <trkpt lat="42.12722" lon="21.68402">
        <ele>448.770841</ele>
        <time>2022-04-13T09:12:20.322Z</time>
      </trkpt>
      <trkpt lat="42.12723" lon="21.68389">
        <ele>450.092482</ele>
        <time>2022-04-13T09:12:26.318Z</time>
      </trkpt>
      <trkpt lat="42.12723" lon="21.68376">
        <ele>451.448454</ele>
        <time>2022-04-13T09:12:33.339Z</time>
      </trkpt>
      <trkpt lat="42.12722" lon="21.68363">
        <ele>452.669586</ele>
        <time>2022-04-13T09:12:38.322Z</time>
      </trkpt>
      <trkpt lat="42.1272" lon="21.68351">
        <ele>453.536811</ele>
        <time>2022-04-13T09:12:43.296Z</time>
      </trkpt>
      <trkpt lat="42.12719" lon="21.68337">
        <ele>454.502086</ele>
        <time>2022-04-13T09:12:50.324Z</time>
      </trkpt>
      <trkpt lat="42.12718" lon="21.68324">
        <ele>455.396791</ele>
        <time>2022-04-13T09:12:56.303Z</time>
      </trkpt>
      <trkpt lat="42.12718" lon="21.68311">
        <ele>456.303697</ele>
        <time>2022-04-13T09:13:02.304Z</time>
      </trkpt>
      <trkpt lat="42.12716" lon="21.68297">
        <ele>457.251065</ele>
        <time>2022-04-13T09:13:08.362Z</time>
      </trkpt>
      <trkpt lat="42.12715" lon="21.68284">
        <ele>458.210509</ele>
        <time>2022-04-13T09:13:15.300Z</time>
      </trkpt>
      <trkpt lat="42.12712" lon="21.68271">
        <ele>459.119727</ele>
        <time>2022-04-13T09:13:22.317Z</time>
      </trkpt>
      <trkpt lat="42.12711" lon="21.68258">
        <ele>460.031162</ele>
        <time>2022-04-13T09:13:28.308Z</time>
      </trkpt>
      <trkpt lat="42.12711" lon="21.68245">
        <ele>460.890595</ele>
        <time>2022-04-13T09:13:34.299Z</time>
      </trkpt>
      <trkpt lat="42.12709" lon="21.68232">
        <ele>461.801104</ele>
        <time>2022-04-13T09:13:40.289Z</time>
      </trkpt>
      <trkpt lat="42.12709" lon="21.68218">
        <ele>462.76638</ele>
        <time>2022-04-13T09:13:46.315Z</time>
      </trkpt>
      <trkpt lat="42.12708" lon="21.68205">
        <ele>463.663242</ele>
        <time>2022-04-13T09:13:51.318Z</time>
      </trkpt>
      <trkpt lat="42.12705" lon="21.68192">
        <ele>464.570146</ele>
        <time>2022-04-13T09:13:57.335Z</time>
      </trkpt>
      <trkpt lat="42.12703" lon="21.68179">
        <ele>465.512619</ele>
        <time>2022-04-13T09:14:04.295Z</time>
      </trkpt>
      <trkpt lat="42.12701" lon="21.68166">
        <ele>466.411162</ele>
        <time>2022-04-13T09:14:10.307Z</time>
      </trkpt>
      <trkpt lat="42.12698" lon="21.68153">
        <ele>467.345113</ele>
        <time>2022-04-13T09:14:16.361Z</time>
      </trkpt>
      <trkpt lat="42.12697" lon="21.68139">
        <ele>468.331749</ele>
        <time>2022-04-13T09:14:22.295Z</time>
      </trkpt>
      <trkpt lat="42.12696" lon="21.68126">
        <ele>469.193575</ele>
        <time>2022-04-13T09:14:27.306Z</time>
      </trkpt>
      <trkpt lat="42.12695" lon="21.68114">
        <ele>469.585938</ele>
        <time>2022-04-13T09:14:34.321Z</time>
      </trkpt>
      <trkpt lat="42.12693" lon="21.681">
        <ele>469.880326</ele>
        <time>2022-04-13T09:14:40.323Z</time>
      </trkpt>
      <trkpt lat="42.12691" lon="21.68087">
        <ele>470.185319</ele>
        <time>2022-04-13T09:14:46.314Z</time>
      </trkpt>
      <trkpt lat="42.1269" lon="21.68073">
        <ele>470.475381</ele>
        <time>2022-04-13T09:14:51.306Z</time>
      </trkpt>
      <trkpt lat="42.12688" lon="21.68061">
        <ele>470.766417</ele>
        <time>2022-04-13T09:14:57.318Z</time>
      </trkpt>
      <trkpt lat="42.12687" lon="21.68047">
        <ele>471.059886</ele>
        <time>2022-04-13T09:15:02.304Z</time>
      </trkpt>
      <trkpt lat="42.12686" lon="21.68035">
        <ele>471.335342</ele>
        <time>2022-04-13T09:15:07.298Z</time>
      </trkpt>
      <trkpt lat="42.12685" lon="21.68021">
        <ele>471.639753</ele>
        <time>2022-04-13T09:15:12.304Z</time>
      </trkpt>
      <trkpt lat="42.12683" lon="21.68008">
        <ele>471.922695</ele>
        <time>2022-04-13T09:15:16.307Z</time>
      </trkpt>
      <trkpt lat="42.1268" lon="21.67996">
        <ele>472.19798</ele>
        <time>2022-04-13T09:15:20.318Z</time>
      </trkpt>
      <trkpt lat="42.12677" lon="21.67982">
        <ele>472.510571</ele>
        <time>2022-04-13T09:15:25.320Z</time>
      </trkpt>
      <trkpt lat="42.12675" lon="21.6797">
        <ele>472.797444</ele>
        <time>2022-04-13T09:15:30.309Z</time>
      </trkpt>
      <trkpt lat="42.12673" lon="21.67957">
        <ele>473.078238</ele>
        <time>2022-04-13T09:15:35.330Z</time>
      </trkpt>
      <trkpt lat="42.12673" lon="21.67944">
        <ele>473.361283</ele>
        <time>2022-04-13T09:15:40.304Z</time>
      </trkpt>
      <trkpt lat="42.12672" lon="21.67931">
        <ele>473.659608</ele>
        <time>2022-04-13T09:15:45.307Z</time>
      </trkpt>
      <trkpt lat="42.12671" lon="21.67917">
        <ele>473.956806</ele>
        <time>2022-04-13T09:15:50.327Z</time>
      </trkpt>
      <trkpt lat="42.12669" lon="21.67904">
        <ele>474.245817</ele>
        <time>2022-04-13T09:15:55.300Z</time>
      </trkpt>
      <trkpt lat="42.12666" lon="21.67891">
        <ele>474.541101</ele>
        <time>2022-04-13T09:16:01.315Z</time>
      </trkpt>
      <trkpt lat="42.12665" lon="21.67877">
        <ele>474.489044</ele>
        <time>2022-04-13T09:16:07.304Z</time>
      </trkpt>
      <trkpt lat="42.12664" lon="21.67865">
        <ele>474.229577</ele>
        <time>2022-04-13T09:16:11.318Z</time>
      </trkpt>
      <trkpt lat="42.12662" lon="21.67852">
        <ele>473.964565</ele>
        <time>2022-04-13T09:16:15.301Z</time>
      </trkpt>
      <trkpt lat="42.1266" lon="21.6784">
        <ele>473.700137</ele>
        <time>2022-04-13T09:16:19.320Z</time>
      </trkpt>
      <trkpt lat="42.12659" lon="21.67827">
        <ele>473.420334</ele>
        <time>2022-04-13T09:16:23.307Z</time>
      </trkpt>
      <trkpt lat="42.12658" lon="21.67812">
        <ele>473.115313</ele>
        <time>2022-04-13T09:16:27.299Z</time>
      </trkpt>
      <trkpt lat="42.12658" lon="21.67797">
        <ele>472.799514</ele>
        <time>2022-04-13T09:16:32.309Z</time>
      </trkpt>
      <trkpt lat="42.12657" lon="21.67784">
        <ele>472.522928</ele>
        <time>2022-04-13T09:16:37.311Z</time>
      </trkpt>
      <trkpt lat="42.12655" lon="21.67769">
        <ele>472.210293</ele>
        <time>2022-04-13T09:16:42.318Z</time>
      </trkpt>
      <trkpt lat="42.12653" lon="21.67756">
        <ele>471.930501</ele>
        <time>2022-04-13T09:16:46.318Z</time>
      </trkpt>
      <trkpt lat="42.12651" lon="21.67744">
        <ele>471.675044</ele>
        <time>2022-04-13T09:16:50.305Z</time>
      </trkpt>
      <trkpt lat="42.12649" lon="21.67729">
        <ele>471.358661</ele>
        <time>2022-04-13T09:16:55.297Z</time>
      </trkpt>
      <trkpt lat="42.12647" lon="21.67717">
        <ele>471.09914</ele>
        <time>2022-04-13T09:16:59.347Z</time>
      </trkpt>
      <trkpt lat="42.12645" lon="21.67704">
        <ele>470.827963</ele>
        <time>2022-04-13T09:17:03.316Z</time>
      </trkpt>
      <trkpt lat="42.12644" lon="21.67691">
        <ele>470.553625</ele>
        <time>2022-04-13T09:17:07.316Z</time>
      </trkpt>
      <trkpt lat="42.12642" lon="21.67679">
        <ele>470.296769</ele>
        <time>2022-04-13T09:17:11.324Z</time>
      </trkpt>
      <trkpt lat="42.1264" lon="21.67667">
        <ele>470.042145</ele>
        <time>2022-04-13T09:17:15.362Z</time>
      </trkpt>
      <trkpt lat="42.12639" lon="21.67654">
        <ele>469.75518</ele>
        <time>2022-04-13T09:17:19.308Z</time>
      </trkpt>
      <trkpt lat="42.12637" lon="21.67641">
        <ele>469.483974</ele>
        <time>2022-04-13T09:17:23.323Z</time>
      </trkpt>
      <trkpt lat="42.12634" lon="21.67626">
        <ele>469.192856</ele>
        <time>2022-04-13T09:17:27.308Z</time>
      </trkpt>
      <trkpt lat="42.12633" lon="21.67611">
        <ele>468.912972</ele>
        <time>2022-04-13T09:17:31.307Z</time>
      </trkpt>
      <trkpt lat="42.12631" lon="21.67595">
        <ele>468.603078</ele>
        <time>2022-04-13T09:17:35.313Z</time>
      </trkpt>
      <trkpt lat="42.1263" lon="21.67582">
        <ele>468.349031</ele>
        <time>2022-04-13T09:17:38.297Z</time>
      </trkpt>
      <trkpt lat="42.12628" lon="21.67569">
        <ele>468.100682</ele>
        <time>2022-04-13T09:17:41.303Z</time>
      </trkpt>
      <trkpt lat="42.12627" lon="21.67557">
        <ele>467.858151</ele>
        <time>2022-04-13T09:17:44.319Z</time>
      </trkpt>
      <trkpt lat="42.12624" lon="21.67545">
        <ele>467.614668</ele>
        <time>2022-04-13T09:17:47.318Z</time>
      </trkpt>
      <trkpt lat="42.12622" lon="21.67533">
        <ele>467.377264</ele>
        <time>2022-04-13T09:17:50.317Z</time>
      </trkpt>
      <trkpt lat="42.12621" lon="21.67517">
        <ele>467.066635</ele>
        <time>2022-04-13T09:17:54.316Z</time>
      </trkpt>
      <trkpt lat="42.12619" lon="21.67504">
        <ele>466.815585</ele>
        <time>2022-04-13T09:17:57.304Z</time>
      </trkpt>
      <trkpt lat="42.12617" lon="21.67491">
        <ele>466.576302</ele>
        <time>2022-04-13T09:18:00.315Z</time>
      </trkpt>
      <trkpt lat="42.12615" lon="21.67478">
        <ele>466.321459</ele>
        <time>2022-04-13T09:18:03.336Z</time>
      </trkpt>
      <trkpt lat="42.12613" lon="21.67465">
        <ele>466.065729</ele>
        <time>2022-04-13T09:18:06.335Z</time>
      </trkpt>
      <trkpt lat="42.12611" lon="21.67453">
        <ele>465.817045</ele>
        <time>2022-04-13T09:18:09.305Z</time>
      </trkpt>
      <trkpt lat="42.12609" lon="21.67437">
        <ele>465.515513</ele>
        <time>2022-04-13T09:18:13.320Z</time>
      </trkpt>
      <trkpt lat="42.12606" lon="21.67422">
        <ele>465.219833</ele>
        <time>2022-04-13T09:18:17.341Z</time>
      </trkpt>
      <trkpt lat="42.12605" lon="21.6741">
        <ele>464.979451</ele>
        <time>2022-04-13T09:18:20.304Z</time>
      </trkpt>
      <trkpt lat="42.12604" lon="21.67398">
        <ele>465.230311</ele>
        <time>2022-04-13T09:18:23.320Z</time>
      </trkpt>
      <trkpt lat="42.12603" lon="21.67382">
        <ele>465.666936</ele>
        <time>2022-04-13T09:18:27.308Z</time>
      </trkpt>
      <trkpt lat="42.12601" lon="21.67367">
        <ele>466.081367</ele>
        <time>2022-04-13T09:18:31.299Z</time>
      </trkpt>
      <trkpt lat="42.12599" lon="21.67353">
        <ele>466.471335</ele>
        <time>2022-04-13T09:18:35.292Z</time>
      </trkpt>
      <trkpt lat="42.12596" lon="21.67341">
        <ele>466.832933</ele>
        <time>2022-04-13T09:18:39.346Z</time>
      </trkpt>
      <trkpt lat="42.12593" lon="21.67328">
        <ele>467.187348</ele>
        <time>2022-04-13T09:18:43.324Z</time>
      </trkpt>
      <trkpt lat="42.12588" lon="21.67316">
        <ele>467.569324</ele>
        <time>2022-04-13T09:18:48.309Z</time>
      </trkpt>
      <trkpt lat="42.12582" lon="21.67305">
        <ele>467.949369</ele>
        <time>2022-04-13T09:18:53.327Z</time>
      </trkpt>
      <trkpt lat="42.12575" lon="21.67293">
        <ele>468.356828</ele>
        <time>2022-04-13T09:18:58.310Z</time>
      </trkpt>
      <trkpt lat="42.12569" lon="21.67284">
        <ele>468.706132</ele>
        <time>2022-04-13T09:19:02.315Z</time>
      </trkpt>
      <trkpt lat="42.12561" lon="21.67274">
        <ele>469.102333</ele>
        <time>2022-04-13T09:19:07.316Z</time>
      </trkpt>
      <trkpt lat="42.12554" lon="21.67264">
        <ele>469.486111</ele>
        <time>2022-04-13T09:19:12.343Z</time>
      </trkpt>
      <trkpt lat="42.12547" lon="21.67254">
        <ele>469.865327</ele>
        <time>2022-04-13T09:19:17.318Z</time>
      </trkpt>
      <trkpt lat="42.1254" lon="21.67244">
        <ele>470.236802</ele>
        <time>2022-04-13T09:19:22.305Z</time>
      </trkpt>
      <trkpt lat="42.12533" lon="21.67234">
        <ele>470.614817</ele>
        <time>2022-04-13T09:19:28.333Z</time>
      </trkpt>
      <trkpt lat="42.12525" lon="21.67224">
        <ele>471.009189</ele>
        <time>2022-04-13T09:19:34.313Z</time>
      </trkpt>
      <trkpt lat="42.1252" lon="21.67215">
        <ele>471.344817</ele>
        <time>2022-04-13T09:19:39.303Z</time>
      </trkpt>
      <trkpt lat="42.12514" lon="21.67204">
        <ele>471.795281</ele>
        <time>2022-04-13T09:19:45.304Z</time>
      </trkpt>
      <trkpt lat="42.12507" lon="21.67194">
        <ele>472.434157</ele>
        <time>2022-04-13T09:19:51.348Z</time>
      </trkpt>
      <trkpt lat="42.125" lon="21.67184">
        <ele>473.094839</ele>
        <time>2022-04-13T09:19:57.359Z</time>
      </trkpt>
      <trkpt lat="42.12493" lon="21.67174">
        <ele>473.706809</ele>
        <time>2022-04-13T09:20:02.308Z</time>
      </trkpt>
      <trkpt lat="42.12487" lon="21.67165">
        <ele>474.308515</ele>
        <time>2022-04-13T09:20:07.307Z</time>
      </trkpt>
      <trkpt lat="42.1248" lon="21.67156">
        <ele>474.887615</ele>
        <time>2022-04-13T09:20:12.315Z</time>
      </trkpt>
      <trkpt lat="42.12473" lon="21.67147">
        <ele>475.539911</ele>
        <time>2022-04-13T09:20:17.333Z</time>
      </trkpt>
      <trkpt lat="42.12466" lon="21.67138">
        <ele>476.150395</ele>
        <time>2022-04-13T09:20:22.298Z</time>
      </trkpt>
      <trkpt lat="42.1246" lon="21.67128">
        <ele>476.778878</ele>
        <time>2022-04-13T09:20:28.320Z</time>
      </trkpt>
      <trkpt lat="42.12453" lon="21.67119">
        <ele>477.405659</ele>
        <time>2022-04-13T09:20:34.323Z</time>
      </trkpt>
      <trkpt lat="42.12447" lon="21.67108">
        <ele>478.006589</ele>
        <time>2022-04-13T09:20:40.301Z</time>
      </trkpt>
      <trkpt lat="42.1244" lon="21.67098">
        <ele>478.646381</ele>
        <time>2022-04-13T09:20:46.312Z</time>
      </trkpt>
      <trkpt lat="42.12432" lon="21.67089">
        <ele>479.319012</ele>
        <time>2022-04-13T09:20:52.313Z</time>
      </trkpt>
      <trkpt lat="42.12425" lon="21.67079">
        <ele>479.959815</ele>
        <time>2022-04-13T09:20:58.304Z</time>
      </trkpt>
      <trkpt lat="42.12418" lon="21.67069">
        <ele>480.624165</ele>
        <time>2022-04-13T09:21:04.323Z</time>
      </trkpt>
      <trkpt lat="42.12412" lon="21.6706">
        <ele>481.221803</ele>
        <time>2022-04-13T09:21:10.335Z</time>
      </trkpt>
      <trkpt lat="42.12406" lon="21.67049">
        <ele>481.845526</ele>
        <time>2022-04-13T09:21:16.315Z</time>
      </trkpt>
      <trkpt lat="42.12399" lon="21.67039">
        <ele>482.507701</ele>
        <time>2022-04-13T09:21:22.320Z</time>
      </trkpt>
      <trkpt lat="42.12392" lon="21.67029">
        <ele>483.142683</ele>
        <time>2022-04-13T09:21:28.304Z</time>
      </trkpt>
      <trkpt lat="42.12386" lon="21.6702">
        <ele>483.525334</ele>
        <time>2022-04-13T09:21:34.323Z</time>
      </trkpt>
      <trkpt lat="42.12379" lon="21.67011">
        <ele>483.916323</ele>
        <time>2022-04-13T09:21:40.313Z</time>
      </trkpt>
      <trkpt lat="42.12371" lon="21.67003">
        <ele>484.321803</ele>
        <time>2022-04-13T09:21:46.323Z</time>
      </trkpt>
      <trkpt lat="42.12365" lon="21.66993">
        <ele>484.724753</ele>
        <time>2022-04-13T09:21:52.307Z</time>
      </trkpt>
      <trkpt lat="42.12359" lon="21.66983">
        <ele>485.118589</ele>
        <time>2022-04-13T09:21:58.318Z</time>
      </trkpt>
      <trkpt lat="42.12352" lon="21.66974">
        <ele>485.522136</ele>
        <time>2022-04-13T09:22:04.309Z</time>
      </trkpt>
      <trkpt lat="42.12344" lon="21.66964">
        <ele>485.953479</ele>
        <time>2022-04-13T09:22:10.321Z</time>
      </trkpt>
      <trkpt lat="42.12337" lon="21.66954">
        <ele>486.384091</ele>
        <time>2022-04-13T09:22:16.305Z</time>
      </trkpt>
      <trkpt lat="42.1233" lon="21.66945">
        <ele>486.772007</ele>
        <time>2022-04-13T09:22:21.312Z</time>
      </trkpt>
      <trkpt lat="42.12324" lon="21.66936">
        <ele>487.183523</ele>
        <time>2022-04-13T09:22:27.319Z</time>
      </trkpt>
      <trkpt lat="42.12316" lon="21.66928">
        <ele>487.56756</ele>
        <time>2022-04-13T09:22:33.306Z</time>
      </trkpt>
      <trkpt lat="42.12309" lon="21.66919">
        <ele>487.977393</ele>
        <time>2022-04-13T09:22:40.316Z</time>
      </trkpt>
      <trkpt lat="42.12302" lon="21.66909">
        <ele>488.404953</ele>
        <time>2022-04-13T09:22:46.300Z</time>
      </trkpt>
      <trkpt lat="42.12296" lon="21.669">
        <ele>488.789059</ele>
        <time>2022-04-13T09:22:52.346Z</time>
      </trkpt>
      <trkpt lat="42.12289" lon="21.66891">
        <ele>489.184677</ele>
        <time>2022-04-13T09:22:58.336Z</time>
      </trkpt>
      <trkpt lat="42.12283" lon="21.6688">
        <ele>489.58774</ele>
        <time>2022-04-13T09:23:05.315Z</time>
      </trkpt>
      <trkpt lat="42.12277" lon="21.66871">
        <ele>489.974974</ele>
        <time>2022-04-13T09:23:12.311Z</time>
      </trkpt>
      <trkpt lat="42.1227" lon="21.6686">
        <ele>490.416938</ele>
        <time>2022-04-13T09:23:19.327Z</time>
      </trkpt>
      <trkpt lat="42.12264" lon="21.6685">
        <ele>490.81901</ele>
        <time>2022-04-13T09:23:25.301Z</time>
      </trkpt>
      <trkpt lat="42.12259" lon="21.66839">
        <ele>491.201533</ele>
        <time>2022-04-13T09:23:31.336Z</time>
      </trkpt>
      <trkpt lat="42.12252" lon="21.6683">
        <ele>491.629149</ele>
        <time>2022-04-13T09:23:39.306Z</time>
      </trkpt>
      <trkpt lat="42.12244" lon="21.66821">
        <ele>492.063833</ele>
        <time>2022-04-13T09:23:46.309Z</time>
      </trkpt>
      <trkpt lat="42.12237" lon="21.66812">
        <ele>492.472143</ele>
        <time>2022-04-13T09:23:51.296Z</time>
      </trkpt>
      <trkpt lat="42.1223" lon="21.66804">
        <ele>492.857751</ele>
        <time>2022-04-13T09:23:56.313Z</time>
      </trkpt>
      <trkpt lat="42.12222" lon="21.66796">
        <ele>493.277955</ele>
        <time>2022-04-13T09:24:01.322Z</time>
      </trkpt>
      <trkpt lat="42.12215" lon="21.66788">
        <ele>493.663556</ele>
        <time>2022-04-13T09:24:06.314Z</time>
      </trkpt>
      <trkpt lat="42.12208" lon="21.66781">
        <ele>494.044766</ele>
        <time>2022-04-13T09:24:11.321Z</time>
      </trkpt>
      <trkpt lat="42.12199" lon="21.66773">
        <ele>494.488607</ele>
        <time>2022-04-13T09:24:17.322Z</time>
      </trkpt>
      <trkpt lat="42.12191" lon="21.66766">
        <ele>494.895999</ele>
        <time>2022-04-13T09:24:22.313Z</time>
      </trkpt>
      <trkpt lat="42.12182" lon="21.66759">
        <ele>495.30851</ele>
        <time>2022-04-13T09:24:27.320Z</time>
      </trkpt>
      <trkpt lat="42.12175" lon="21.66752">
        <ele>495.705165</ele>
        <time>2022-04-13T09:24:32.305Z</time>
      </trkpt>
      <trkpt lat="42.12167" lon="21.66744">
        <ele>496.114896</ele>
        <time>2022-04-13T09:24:38.313Z</time>
      </trkpt>
      <trkpt lat="42.12158" lon="21.66736">
        <ele>496.561188</ele>
        <time>2022-04-13T09:24:43.356Z</time>
      </trkpt>
      <trkpt lat="42.1215" lon="21.6673">
        <ele>496.952674</ele>
        <time>2022-04-13T09:24:47.329Z</time>
      </trkpt>
      <trkpt lat="42.12142" lon="21.66721">
        <ele>497.389766</ele>
        <time>2022-04-13T09:24:52.304Z</time>
      </trkpt>
      <trkpt lat="42.12134" lon="21.66714">
        <ele>497.797578</ele>
        <time>2022-04-13T09:24:57.293Z</time>
      </trkpt>
      <trkpt lat="42.12126" lon="21.66704">
        <ele>498.199275</ele>
        <time>2022-04-13T09:25:02.310Z</time>
      </trkpt>
      <trkpt lat="42.1212" lon="21.66695">
        <ele>498.391338</ele>
        <time>2022-04-13T09:25:07.299Z</time>
      </trkpt>
      <trkpt lat="42.12113" lon="21.66685">
        <ele>498.600917</ele>
        <time>2022-04-13T09:25:12.321Z</time>
      </trkpt>
      <trkpt lat="42.12107" lon="21.66675">
        <ele>498.798744</ele>
        <time>2022-04-13T09:25:17.286Z</time>
      </trkpt>
      <trkpt lat="42.12102" lon="21.66664">
        <ele>499.001556</ele>
        <time>2022-04-13T09:25:22.303Z</time>
      </trkpt>
      <trkpt lat="42.12097" lon="21.66654">
        <ele>499.201154</ele>
        <time>2022-04-13T09:25:27.298Z</time>
      </trkpt>
      <trkpt lat="42.1209" lon="21.66643">
        <ele>499.424193</ele>
        <time>2022-04-13T09:25:32.350Z</time>
      </trkpt>
      <trkpt lat="42.12084" lon="21.66632">
        <ele>499.636406</ele>
        <time>2022-04-13T09:25:36.341Z</time>
      </trkpt>
      <trkpt lat="42.12077" lon="21.6662">
        <ele>499.868104</ele>
        <time>2022-04-13T09:25:40.342Z</time>
      </trkpt>
      <trkpt lat="42.1207" lon="21.66608">
        <ele>500.113976</ele>
        <time>2022-04-13T09:25:44.307Z</time>
      </trkpt>
      <trkpt lat="42.12064" lon="21.66598">
        <ele>500.321945</ele>
        <time>2022-04-13T09:25:47.313Z</time>
      </trkpt>
      <trkpt lat="42.12058" lon="21.66587">
        <ele>500.52721</ele>
        <time>2022-04-13T09:25:50.294Z</time>
      </trkpt>
      <trkpt lat="42.12052" lon="21.66577">
        <ele>500.732486</ele>
        <time>2022-04-13T09:25:53.301Z</time>
      </trkpt>
      <trkpt lat="42.12046" lon="21.66567">
        <ele>500.936689</ele>
        <time>2022-04-13T09:25:56.316Z</time>
      </trkpt>
      <trkpt lat="42.12039" lon="21.66557">
        <ele>501.145151</ele>
        <time>2022-04-13T09:25:59.311Z</time>
      </trkpt>
      <trkpt lat="42.12033" lon="21.66545">
        <ele>501.386933</ele>
        <time>2022-04-13T09:26:03.363Z</time>
      </trkpt>
      <trkpt lat="42.12026" lon="21.66532">
        <ele>501.633744</ele>
        <time>2022-04-13T09:26:07.318Z</time>
      </trkpt>
      <trkpt lat="42.12018" lon="21.6652">
        <ele>501.877064</ele>
        <time>2022-04-13T09:26:11.320Z</time>
      </trkpt>
      <trkpt lat="42.1201" lon="21.66508">
        <ele>501.758529</ele>
        <time>2022-04-13T09:26:15.298Z</time>
      </trkpt>
      <trkpt lat="42.12003" lon="21.66497">
        <ele>501.534146</ele>
        <time>2022-04-13T09:26:19.288Z</time>
      </trkpt>
      <trkpt lat="42.11998" lon="21.66487">
        <ele>501.347642</ele>
        <time>2022-04-13T09:26:23.308Z</time>
      </trkpt>
      <trkpt lat="42.11991" lon="21.66474">
        <ele>501.111077</ele>
        <time>2022-04-13T09:26:27.320Z</time>
      </trkpt>
      <trkpt lat="42.11985" lon="21.66463">
        <ele>500.904017</ele>
        <time>2022-04-13T09:26:30.314Z</time>
      </trkpt>
      <trkpt lat="42.11979" lon="21.66452">
        <ele>500.691854</ele>
        <time>2022-04-13T09:26:33.304Z</time>
      </trkpt>
      <trkpt lat="42.11972" lon="21.66443">
        <ele>500.49228</ele>
        <time>2022-04-13T09:26:36.322Z</time>
      </trkpt>
      <trkpt lat="42.11965" lon="21.66432">
        <ele>500.285472</ele>
        <time>2022-04-13T09:26:39.297Z</time>
      </trkpt>
      <trkpt lat="42.11958" lon="21.66421">
        <ele>500.052635</ele>
        <time>2022-04-13T09:26:42.294Z</time>
      </trkpt>
      <trkpt lat="42.1195" lon="21.66407">
        <ele>499.789599</ele>
        <time>2022-04-13T09:26:45.297Z</time>
      </trkpt>
      <trkpt lat="42.11944" lon="21.66397">
        <ele>499.592123</ele>
        <time>2022-04-13T09:26:47.289Z</time>
      </trkpt>
      <trkpt lat="42.11938" lon="21.66387">
        <ele>499.39435</ele>
        <time>2022-04-13T09:26:49.308Z</time>
      </trkpt>
      <trkpt lat="42.11932" lon="21.66376">
        <ele>499.183674</ele>
        <time>2022-04-13T09:26:51.302Z</time>
      </trkpt>
      <trkpt lat="42.11925" lon="21.66364">
        <ele>498.961873</ele>
        <time>2022-04-13T09:26:53.310Z</time>
      </trkpt>
      <trkpt lat="42.11918" lon="21.66352">
        <ele>498.732862</ele>
        <time>2022-04-13T09:26:55.293Z</time>
      </trkpt>
      <trkpt lat="42.11911" lon="21.6634">
        <ele>498.496383</ele>
        <time>2022-04-13T09:26:57.326Z</time>
      </trkpt>
      <trkpt lat="42.11903" lon="21.66329">
        <ele>498.264084</ele>
        <time>2022-04-13T09:26:59.344Z</time>
      </trkpt>
      <trkpt lat="42.11894" lon="21.66319">
        <ele>498.2471</ele>
        <time>2022-04-13T09:27:01.314Z</time>
      </trkpt>
      <trkpt lat="42.11885" lon="21.6631">
        <ele>498.230038</ele>
        <time>2022-04-13T09:27:03.309Z</time>
      </trkpt>
      <trkpt lat="42.11875" lon="21.66305">
        <ele>498.21309</ele>
        <time>2022-04-13T09:27:05.324Z</time>
      </trkpt>
      <trkpt lat="42.11863" lon="21.66304">
        <ele>498.195696</ele>
        <time>2022-04-13T09:27:07.315Z</time>
      </trkpt>
      <trkpt lat="42.11851" lon="21.66304">
        <ele>498.17776</ele>
        <time>2022-04-13T09:27:09.318Z</time>
      </trkpt>
      <trkpt lat="42.11841" lon="21.66307">
        <ele>498.161229</ele>
        <time>2022-04-13T09:27:11.318Z</time>
      </trkpt>
      <trkpt lat="42.11831" lon="21.66309">
        <ele>498.14595</ele>
        <time>2022-04-13T09:27:13.311Z</time>
      </trkpt>
      <trkpt lat="42.11821" lon="21.6631">
        <ele>498.131319</ele>
        <time>2022-04-13T09:27:15.299Z</time>
      </trkpt>
      <trkpt lat="42.11812" lon="21.66311">
        <ele>498.117121</ele>
        <time>2022-04-13T09:27:17.312Z</time>
      </trkpt>
      <trkpt lat="42.118" lon="21.66313">
        <ele>498.09832</ele>
        <time>2022-04-13T09:27:20.327Z</time>
      </trkpt>
      <trkpt lat="42.11788" lon="21.66314">
        <ele>498.080221</ele>
        <time>2022-04-13T09:27:23.314Z</time>
      </trkpt>
      <trkpt lat="42.11777" lon="21.66314">
        <ele>498.063665</ele>
        <time>2022-04-13T09:27:26.316Z</time>
      </trkpt>
      <trkpt lat="42.11767" lon="21.6631">
        <ele>498.048483</ele>
        <time>2022-04-13T09:27:29.312Z</time>
      </trkpt>
      <trkpt lat="42.11757" lon="21.66302">
        <ele>498.030637</ele>
        <time>2022-04-13T09:27:33.312Z</time>
      </trkpt>
      <trkpt lat="42.11749" lon="21.66291">
        <ele>498.013416</ele>
        <time>2022-04-13T09:27:37.302Z</time>
      </trkpt>
      <trkpt lat="42.11742" lon="21.6628">
        <ele>497.996562</ele>
        <time>2022-04-13T09:27:41.293Z</time>
      </trkpt>
      <trkpt lat="42.11735" lon="21.66268">
        <ele>498.138488</ele>
        <time>2022-04-13T09:27:45.318Z</time>
      </trkpt>
      <trkpt lat="42.11728" lon="21.66256">
        <ele>498.351139</ele>
        <time>2022-04-13T09:27:49.335Z</time>
      </trkpt>
      <trkpt lat="42.11721" lon="21.66245">
        <ele>498.56379</ele>
        <time>2022-04-13T09:27:53.315Z</time>
      </trkpt>
      <trkpt lat="42.11713" lon="21.66233">
        <ele>498.780042</ele>
        <time>2022-04-13T09:27:57.309Z</time>
      </trkpt>
      <trkpt lat="42.11707" lon="21.66223">
        <ele>498.955392</ele>
        <time>2022-04-13T09:28:00.325Z</time>
      </trkpt>
      <trkpt lat="42.11701" lon="21.66214">
        <ele>499.136257</ele>
        <time>2022-04-13T09:28:03.299Z</time>
      </trkpt>
      <trkpt lat="42.11695" lon="21.66204">
        <ele>499.30956</ele>
        <time>2022-04-13T09:28:06.324Z</time>
      </trkpt>
      <trkpt lat="42.11688" lon="21.66192">
        <ele>499.525525</ele>
        <time>2022-04-13T09:28:10.297Z</time>
      </trkpt>
      <trkpt lat="42.11682" lon="21.66181">
        <ele>499.720075</ele>
        <time>2022-04-13T09:28:14.308Z</time>
      </trkpt>
      <trkpt lat="42.11675" lon="21.66169">
        <ele>499.937168</ele>
        <time>2022-04-13T09:28:18.314Z</time>
      </trkpt>
      <trkpt lat="42.11667" lon="21.66157">
        <ele>500.156736</ele>
        <time>2022-04-13T09:28:22.324Z</time>
      </trkpt>
      <trkpt lat="42.11659" lon="21.66148">
        <ele>500.362301</ele>
        <time>2022-04-13T09:28:25.298Z</time>
      </trkpt>
      <trkpt lat="42.11651" lon="21.66137">
        <ele>500.578458</ele>
        <time>2022-04-13T09:28:28.318Z</time>
      </trkpt>
      <trkpt lat="42.11644" lon="21.66125">
        <ele>500.795794</ele>
        <time>2022-04-13T09:28:31.344Z</time>
      </trkpt>
      <trkpt lat="42.11637" lon="21.66112">
        <ele>501.017612</ele>
        <time>2022-04-13T09:28:34.295Z</time>
      </trkpt>
      <trkpt lat="42.11632" lon="21.66098">
        <ele>501.243858</ele>
        <time>2022-04-13T09:28:37.323Z</time>
      </trkpt>
      <trkpt lat="42.1163" lon="21.66083">
        <ele>501.525465</ele>
        <time>2022-04-13T09:28:40.348Z</time>
      </trkpt>
      <trkpt lat="42.1163" lon="21.66069">
        <ele>502.11422</ele>
        <time>2022-04-13T09:28:43.301Z</time>
      </trkpt>
      <trkpt lat="42.1163" lon="21.66055">
        <ele>502.699045</ele>
        <time>2022-04-13T09:28:46.361Z</time>
      </trkpt>
      <trkpt lat="42.1163" lon="21.66042">
        <ele>503.238435</ele>
        <time>2022-04-13T09:28:49.308Z</time>
      </trkpt>
      <trkpt lat="42.1163" lon="21.66027">
        <ele>503.836448</ele>
        <time>2022-04-13T09:28:52.304Z</time>
      </trkpt>
      <trkpt lat="42.11627" lon="21.66013">
        <ele>504.438393</ele>
        <time>2022-04-13T09:28:55.299Z</time>
      </trkpt>
      <trkpt lat="42.11623" lon="21.66001">
        <ele>505.007816</ele>
        <time>2022-04-13T09:28:58.327Z</time>
      </trkpt>
      <trkpt lat="42.11618" lon="21.65989">
        <ele>505.552186</ele>
        <time>2022-04-13T09:29:01.299Z</time>
      </trkpt>
      <trkpt lat="42.11612" lon="21.65978">
        <ele>506.082563</ele>
        <time>2022-04-13T09:29:04.297Z</time>
      </trkpt>
      <trkpt lat="42.11608" lon="21.65968">
        <ele>506.586664</ele>
        <time>2022-04-13T09:29:07.309Z</time>
      </trkpt>
      <trkpt lat="42.11601" lon="21.65956">
        <ele>507.175084</ele>
        <time>2022-04-13T09:29:11.357Z</time>
      </trkpt>
      <trkpt lat="42.11595" lon="21.65947">
        <ele>507.688579</ele>
        <time>2022-04-13T09:29:15.317Z</time>
      </trkpt>
      <trkpt lat="42.11589" lon="21.65935">
        <ele>508.293507</ele>
        <time>2022-04-13T09:29:19.312Z</time>
      </trkpt>
      <trkpt lat="42.11582" lon="21.65924">
        <ele>508.870263</ele>
        <time>2022-04-13T09:29:23.307Z</time>
      </trkpt>
      <trkpt lat="42.11576" lon="21.65913">
        <ele>509.438842</ele>
        <time>2022-04-13T09:29:27.310Z</time>
      </trkpt>
      <trkpt lat="42.11571" lon="21.65901">
        <ele>510.017066</ele>
        <time>2022-04-13T09:29:31.335Z</time>
      </trkpt>
      <trkpt lat="42.11564" lon="21.65891">
        <ele>510.597531</ele>
        <time>2022-04-13T09:29:35.295Z</time>
      </trkpt>
      <trkpt lat="42.11556" lon="21.65881">
        <ele>511.176206</ele>
        <time>2022-04-13T09:29:39.304Z</time>
      </trkpt>
      <trkpt lat="42.11547" lon="21.65871">
        <ele>511.590993</ele>
        <time>2022-04-13T09:29:43.294Z</time>
      </trkpt>
      <trkpt lat="42.11539" lon="21.6586">
        <ele>511.896234</ele>
        <time>2022-04-13T09:29:47.326Z</time>
      </trkpt>
      <trkpt lat="42.11532" lon="21.65847">
        <ele>512.195982</ele>
        <time>2022-04-13T09:29:51.299Z</time>
      </trkpt>
      <trkpt lat="42.11524" lon="21.65835">
        <ele>512.501572</ele>
        <time>2022-04-13T09:29:55.297Z</time>
      </trkpt>
      <trkpt lat="42.11516" lon="21.65824">
        <ele>512.800873</ele>
        <time>2022-04-13T09:29:59.335Z</time>
      </trkpt>
      <trkpt lat="42.11509" lon="21.65814">
        <ele>513.060767</ele>
        <time>2022-04-13T09:30:03.306Z</time>
      </trkpt>
      <trkpt lat="42.11503" lon="21.65804">
        <ele>513.314056</ele>
        <time>2022-04-13T09:30:07.319Z</time>
      </trkpt>
      <trkpt lat="42.11495" lon="21.65792">
        <ele>513.618411</ele>
        <time>2022-04-13T09:30:11.307Z</time>
      </trkpt>
      <trkpt lat="42.11489" lon="21.65779">
        <ele>513.924371</ele>
        <time>2022-04-13T09:30:15.300Z</time>
      </trkpt>
      <trkpt lat="42.11482" lon="21.65769">
        <ele>514.167943</ele>
        <time>2022-04-13T09:30:18.304Z</time>
      </trkpt>
      <trkpt lat="42.11476" lon="21.65759">
        <ele>514.411515</ele>
        <time>2022-04-13T09:30:21.344Z</time>
      </trkpt>
      <trkpt lat="42.1147" lon="21.65749">
        <ele>514.65615</ele>
        <time>2022-04-13T09:30:24.314Z</time>
      </trkpt>
      <trkpt lat="42.11463" lon="21.6574">
        <ele>514.919025</ele>
        <time>2022-04-13T09:30:27.304Z</time>
      </trkpt>
      <trkpt lat="42.11455" lon="21.65729">
        <ele>515.209271</ele>
        <time>2022-04-13T09:30:30.304Z</time>
      </trkpt>
      <trkpt lat="42.11449" lon="21.65719">
        <ele>515.464588</ele>
        <time>2022-04-13T09:30:33.320Z</time>
      </trkpt>
      <trkpt lat="42.11442" lon="21.65709">
        <ele>515.731901</ele>
        <time>2022-04-13T09:30:36.299Z</time>
      </trkpt>
      <trkpt lat="42.11434" lon="21.65698">
        <ele>516.012217</ele>
        <time>2022-04-13T09:30:39.308Z</time>
      </trkpt>
      <trkpt lat="42.11426" lon="21.65688">
        <ele>516.104385</ele>
        <time>2022-04-13T09:30:42.306Z</time>
      </trkpt>
      <trkpt lat="42.11419" lon="21.65679">
        <ele>516.186653</ele>
        <time>2022-04-13T09:30:45.319Z</time>
      </trkpt>
      <trkpt lat="42.11413" lon="21.6567">
        <ele>516.26239</ele>
        <time>2022-04-13T09:30:48.309Z</time>
      </trkpt>
      <trkpt lat="42.11406" lon="21.6566">
        <ele>516.337896</ele>
        <time>2022-04-13T09:30:51.327Z</time>
      </trkpt>
      <trkpt lat="42.114" lon="21.65651">
        <ele>516.413679</ele>
        <time>2022-04-13T09:30:54.298Z</time>
      </trkpt>
      <trkpt lat="42.11393" lon="21.6564">
        <ele>516.498678</ele>
        <time>2022-04-13T09:30:58.320Z</time>
      </trkpt>
      <trkpt lat="42.11386" lon="21.65628">
        <ele>516.592144</ele>
        <time>2022-04-13T09:31:02.317Z</time>
      </trkpt>
      <trkpt lat="42.11379" lon="21.65617">
        <ele>516.67753</ele>
        <time>2022-04-13T09:31:06.314Z</time>
      </trkpt>
      <trkpt lat="42.11373" lon="21.65606">
        <ele>516.763837</ele>
        <time>2022-04-13T09:31:10.305Z</time>
      </trkpt>
      <trkpt lat="42.11367" lon="21.65596">
        <ele>516.838478</ele>
        <time>2022-04-13T09:31:14.294Z</time>
      </trkpt>
      <trkpt lat="42.11361" lon="21.65584">
        <ele>516.928522</ele>
        <time>2022-04-13T09:31:18.322Z</time>
      </trkpt>
      <trkpt lat="42.11354" lon="21.65575">
        <ele>517.002974</ele>
        <time>2022-04-13T09:31:21.304Z</time>
      </trkpt>
      <trkpt lat="42.11348" lon="21.65566">
        <ele>517.079469</ele>
        <time>2022-04-13T09:31:24.320Z</time>
      </trkpt>
      <trkpt lat="42.11342" lon="21.65556">
        <ele>517.153895</ele>
        <time>2022-04-13T09:31:27.305Z</time>
      </trkpt>
      <trkpt lat="42.11336" lon="21.65547">
        <ele>517.227337</ele>
        <time>2022-04-13T09:31:30.315Z</time>
      </trkpt>
      <trkpt lat="42.11329" lon="21.65538">
        <ele>517.302844</ele>
        <time>2022-04-13T09:31:33.348Z</time>
      </trkpt>
      <trkpt lat="42.11323" lon="21.65528">
        <ele>517.37727</ele>
        <time>2022-04-13T09:31:36.330Z</time>
      </trkpt>
      <trkpt lat="42.11315" lon="21.65517">
        <ele>517.473656</ele>
        <time>2022-04-13T09:31:40.323Z</time>
      </trkpt>
      <trkpt lat="42.11307" lon="21.65505">
        <ele>517.38559</ele>
        <time>2022-04-13T09:31:44.352Z</time>
      </trkpt>
      <trkpt lat="42.11299" lon="21.65494">
        <ele>517.286841</ele>
        <time>2022-04-13T09:31:48.334Z</time>
      </trkpt>
      <trkpt lat="42.11291" lon="21.65482">
        <ele>517.190087</ele>
        <time>2022-04-13T09:31:52.317Z</time>
      </trkpt>
      <trkpt lat="42.11284" lon="21.65473">
        <ele>517.113928</ele>
        <time>2022-04-13T09:31:55.346Z</time>
      </trkpt>
      <trkpt lat="42.11278" lon="21.65463">
        <ele>517.032719</ele>
        <time>2022-04-13T09:31:58.325Z</time>
      </trkpt>
      <trkpt lat="42.11271" lon="21.65453">
        <ele>516.950659</ele>
        <time>2022-04-13T09:32:01.341Z</time>
      </trkpt>
      <trkpt lat="42.11264" lon="21.65443">
        <ele>516.870269</ele>
        <time>2022-04-13T09:32:04.308Z</time>
      </trkpt>
      <trkpt lat="42.11257" lon="21.65433">
        <ele>516.787879</ele>
        <time>2022-04-13T09:32:07.289Z</time>
      </trkpt>
      <trkpt lat="42.1125" lon="21.65423">
        <ele>516.703369</ele>
        <time>2022-04-13T09:32:10.311Z</time>
      </trkpt>
      <trkpt lat="42.11243" lon="21.65413">
        <ele>516.618294</ele>
        <time>2022-04-13T09:32:13.312Z</time>
      </trkpt>
      <trkpt lat="42.11237" lon="21.65403">
        <ele>516.539605</ele>
        <time>2022-04-13T09:32:16.305Z</time>
      </trkpt>
      <trkpt lat="42.11231" lon="21.65393">
        <ele>516.461379</ele>
        <time>2022-04-13T09:32:19.302Z</time>
      </trkpt>
      <trkpt lat="42.11224" lon="21.65383">
        <ele>516.37772</ele>
        <time>2022-04-13T09:32:22.311Z</time>
      </trkpt>
      <trkpt lat="42.11218" lon="21.65373">
        <ele>516.294661</ele>
        <time>2022-04-13T09:32:25.292Z</time>
      </trkpt>
      <trkpt lat="42.11211" lon="21.65362">
        <ele>516.210006</ele>
        <time>2022-04-13T09:32:28.319Z</time>
      </trkpt>
      <trkpt lat="42.11204" lon="21.65352">
        <ele>516.126166</ele>
        <time>2022-04-13T09:32:31.319Z</time>
      </trkpt>
      <trkpt lat="42.11197" lon="21.65342">
        <ele>516.044497</ele>
        <time>2022-04-13T09:32:34.322Z</time>
      </trkpt>
      <trkpt lat="42.11191" lon="21.65332">
        <ele>516.0318</ele>
        <time>2022-04-13T09:32:37.315Z</time>
      </trkpt>
      <trkpt lat="42.11185" lon="21.65322">
        <ele>516.091257</ele>
        <time>2022-04-13T09:32:40.306Z</time>
      </trkpt>
      <trkpt lat="42.11178" lon="21.65313">
        <ele>516.156247</ele>
        <time>2022-04-13T09:32:43.305Z</time>
      </trkpt>
      <trkpt lat="42.11172" lon="21.65302">
        <ele>516.220766</ele>
        <time>2022-04-13T09:32:46.320Z</time>
      </trkpt>
      <trkpt lat="42.11166" lon="21.65292">
        <ele>516.281733</ele>
        <time>2022-04-13T09:32:49.296Z</time>
      </trkpt>
      <trkpt lat="42.1116" lon="21.65282">
        <ele>516.346666</ele>
        <time>2022-04-13T09:32:52.302Z</time>
      </trkpt>
      <trkpt lat="42.11153" lon="21.65272">
        <ele>516.409548</ele>
        <time>2022-04-13T09:32:55.302Z</time>
      </trkpt>
      <trkpt lat="42.11146" lon="21.65262">
        <ele>516.473705</ele>
        <time>2022-04-13T09:32:58.315Z</time>
      </trkpt>
      <trkpt lat="42.11139" lon="21.6525">
        <ele>516.544863</ele>
        <time>2022-04-13T09:33:02.322Z</time>
      </trkpt>
      <trkpt lat="42.11131" lon="21.65239">
        <ele>516.617311</ele>
        <time>2022-04-13T09:33:06.318Z</time>
      </trkpt>
      <trkpt lat="42.11124" lon="21.65228">
        <ele>516.68585</ele>
        <time>2022-04-13T09:33:10.324Z</time>
      </trkpt>
      <trkpt lat="42.11117" lon="21.65218">
        <ele>516.752645</ele>
        <time>2022-04-13T09:33:14.306Z</time>
      </trkpt>
      <trkpt lat="42.11111" lon="21.65209">
        <ele>516.812351</ele>
        <time>2022-04-13T09:33:18.304Z</time>
      </trkpt>
      <trkpt lat="42.11103" lon="21.65198">
        <ele>516.880972</ele>
        <time>2022-04-13T09:33:22.301Z</time>
      </trkpt>
      <trkpt lat="42.11097" lon="21.65189">
        <ele>516.942378</ele>
        <time>2022-04-13T09:33:26.290Z</time>
      </trkpt>
      <trkpt lat="42.11091" lon="21.6518">
        <ele>517.000141</ele>
        <time>2022-04-13T09:33:30.315Z</time>
      </trkpt>
      <trkpt lat="42.11085" lon="21.6517">
        <ele>517.059621</ele>
        <time>2022-04-13T09:33:34.318Z</time>
      </trkpt>
      <trkpt lat="42.11078" lon="21.65159">
        <ele>517.128381</ele>
        <time>2022-04-13T09:33:39.307Z</time>
      </trkpt>
      <trkpt lat="42.11072" lon="21.6515">
        <ele>517.287782</ele>
        <time>2022-04-13T09:33:43.307Z</time>
      </trkpt>
      <trkpt lat="42.11065" lon="21.6514">
        <ele>517.539309</ele>
        <time>2022-04-13T09:33:47.314Z</time>
      </trkpt>
      <trkpt lat="42.11058" lon="21.65131">
        <ele>517.790132</ele>
        <time>2022-04-13T09:33:51.311Z</time>
      </trkpt>
      <trkpt lat="42.11051" lon="21.65121">
        <ele>518.044414</ele>
        <time>2022-04-13T09:33:55.306Z</time>
      </trkpt>
      <trkpt lat="42.11044" lon="21.65111">
        <ele>518.300665</ele>
        <time>2022-04-13T09:33:59.315Z</time>
      </trkpt>
      <trkpt lat="42.11037" lon="21.65101">
        <ele>518.562503</ele>
        <time>2022-04-13T09:34:03.306Z</time>
      </trkpt>
      <trkpt lat="42.1103" lon="21.65092">
        <ele>518.809526</ele>
        <time>2022-04-13T09:34:07.310Z</time>
      </trkpt>
      <trkpt lat="42.11024" lon="21.65082">
        <ele>519.05655</ele>
        <time>2022-04-13T09:34:11.380Z</time>
      </trkpt>
      <trkpt lat="42.11018" lon="21.65073">
        <ele>519.291166</ele>
        <time>2022-04-13T09:34:15.304Z</time>
      </trkpt>
      <trkpt lat="42.11011" lon="21.65064">
        <ele>519.534597</ele>
        <time>2022-04-13T09:34:19.310Z</time>
      </trkpt>
      <trkpt lat="42.11005" lon="21.65055">
        <ele>519.770401</ele>
        <time>2022-04-13T09:34:23.303Z</time>
      </trkpt>
      <trkpt lat="42.10998" lon="21.65046">
        <ele>520.007341</ele>
        <time>2022-04-13T09:34:27.300Z</time>
      </trkpt>
      <trkpt lat="42.10993" lon="21.65036">
        <ele>520.244819</ele>
        <time>2022-04-13T09:34:31.306Z</time>
      </trkpt>
      <trkpt lat="42.10986" lon="21.65027">
        <ele>520.48244</ele>
        <time>2022-04-13T09:34:35.296Z</time>
      </trkpt>
      <trkpt lat="42.1098" lon="21.65018">
        <ele>520.728101</ele>
        <time>2022-04-13T09:34:39.320Z</time>
      </trkpt>
      <trkpt lat="42.10972" lon="21.65008">
        <ele>520.99757</ele>
        <time>2022-04-13T09:34:43.343Z</time>
      </trkpt>
      <trkpt lat="42.10964" lon="21.64997">
        <ele>521.284987</ele>
        <time>2022-04-13T09:34:47.288Z</time>
      </trkpt>
      <trkpt lat="42.10958" lon="21.64987">
        <ele>521.515053</ele>
        <time>2022-04-13T09:34:50.304Z</time>
      </trkpt>
      <trkpt lat="42.10951" lon="21.64975">
        <ele>521.748573</ele>
        <time>2022-04-13T09:34:54.293Z</time>
      </trkpt>
      <trkpt lat="42.10943" lon="21.64964">
        <ele>521.747434</ele>
        <time>2022-04-13T09:34:58.296Z</time>
      </trkpt>
      <trkpt lat="42.10935" lon="21.64953">
        <ele>521.746281</ele>
        <time>2022-04-13T09:35:02.346Z</time>
      </trkpt>
      <trkpt lat="42.10927" lon="21.64942">
        <ele>521.745188</ele>
        <time>2022-04-13T09:35:06.297Z</time>
      </trkpt>
      <trkpt lat="42.10918" lon="21.64933">
        <ele>521.744105</ele>
        <time>2022-04-13T09:35:10.321Z</time>
      </trkpt>
      <trkpt lat="42.10909" lon="21.64926">
        <ele>521.743007</ele>
        <time>2022-04-13T09:35:14.309Z</time>
      </trkpt>
      <trkpt lat="42.109" lon="21.64916">
        <ele>521.741888</ele>
        <time>2022-04-13T09:35:18.307Z</time>
      </trkpt>
      <trkpt lat="42.10894" lon="21.64904">
        <ele>521.740753</ele>
        <time>2022-04-13T09:35:22.315Z</time>
      </trkpt>
      <trkpt lat="42.10888" lon="21.64893">
        <ele>521.739842</ele>
        <time>2022-04-13T09:35:25.305Z</time>
      </trkpt>
      <trkpt lat="42.10882" lon="21.64884">
        <ele>521.738941</ele>
        <time>2022-04-13T09:35:28.323Z</time>
      </trkpt>
      <trkpt lat="42.10874" lon="21.64874">
        <ele>521.737861</ele>
        <time>2022-04-13T09:35:32.298Z</time>
      </trkpt>
      <trkpt lat="42.10868" lon="21.64865">
        <ele>521.736956</ele>
        <time>2022-04-13T09:35:35.340Z</time>
      </trkpt>
      <trkpt lat="42.1086" lon="21.64854">
        <ele>521.735786</ele>
        <time>2022-04-13T09:35:39.295Z</time>
      </trkpt>
      <trkpt lat="42.10853" lon="21.64845">
        <ele>521.734892</ele>
        <time>2022-04-13T09:35:42.321Z</time>
      </trkpt>
      <trkpt lat="42.10845" lon="21.64834">
        <ele>521.733719</ele>
        <time>2022-04-13T09:35:46.346Z</time>
      </trkpt>
      <trkpt lat="42.10837" lon="21.64823">
        <ele>521.732564</ele>
        <time>2022-04-13T09:35:50.311Z</time>
      </trkpt>
      <trkpt lat="42.10828" lon="21.64814">
        <ele>521.731459</ele>
        <time>2022-04-13T09:35:54.309Z</time>
      </trkpt>
      <trkpt lat="42.1082" lon="21.64803">
        <ele>521.931721</ele>
        <time>2022-04-13T09:35:58.344Z</time>
      </trkpt>
      <trkpt lat="42.10812" lon="21.64791">
        <ele>522.252134</ele>
        <time>2022-04-13T09:36:02.313Z</time>
      </trkpt>
      <trkpt lat="42.10805" lon="21.64779">
        <ele>522.571907</ele>
        <time>2022-04-13T09:36:06.315Z</time>
      </trkpt>
      <trkpt lat="42.10797" lon="21.64769">
        <ele>522.871442</ele>
        <time>2022-04-13T09:36:10.312Z</time>
      </trkpt>
      <trkpt lat="42.1079" lon="21.64759">
        <ele>523.176721</ele>
        <time>2022-04-13T09:36:14.338Z</time>
      </trkpt>
      <trkpt lat="42.10782" lon="21.64748">
        <ele>523.486542</ele>
        <time>2022-04-13T09:36:18.300Z</time>
      </trkpt>
      <trkpt lat="42.10775" lon="21.64737">
        <ele>523.790695</ele>
        <time>2022-04-13T09:36:22.291Z</time>
      </trkpt>
      <trkpt lat="42.10768" lon="21.64727">
        <ele>524.071218</ele>
        <time>2022-04-13T09:36:26.303Z</time>
      </trkpt>
      <trkpt lat="42.10761" lon="21.64717">
        <ele>524.371664</ele>
        <time>2022-04-13T09:36:30.317Z</time>
      </trkpt>
      <trkpt lat="42.10754" lon="21.64706">
        <ele>524.671978</ele>
        <time>2022-04-13T09:36:34.320Z</time>
      </trkpt>
      <trkpt lat="42.10746" lon="21.64695">
        <ele>524.992542</ele>
        <time>2022-04-13T09:36:38.324Z</time>
      </trkpt>
      <trkpt lat="42.1074" lon="21.64686">
        <ele>525.246595</ele>
        <time>2022-04-13T09:36:41.306Z</time>
      </trkpt>
      <trkpt lat="42.10733" lon="21.64677">
        <ele>525.511361</ele>
        <time>2022-04-13T09:36:44.308Z</time>
      </trkpt>
      <trkpt lat="42.10726" lon="21.64667">
        <ele>525.792389</ele>
        <time>2022-04-13T09:36:47.342Z</time>
      </trkpt>
      <trkpt lat="42.10719" lon="21.64656">
        <ele>526.099188</ele>
        <time>2022-04-13T09:36:50.315Z</time>
      </trkpt>
      <trkpt lat="42.10712" lon="21.64644">
        <ele>526.410579</ele>
        <time>2022-04-13T09:36:53.308Z</time>
      </trkpt>
      <trkpt lat="42.10705" lon="21.64633">
        <ele>526.709196</ele>
        <time>2022-04-13T09:36:56.312Z</time>
      </trkpt>
      <trkpt lat="42.10699" lon="21.64622">
        <ele>526.827774</ele>
        <time>2022-04-13T09:36:59.319Z</time>
      </trkpt>
      <trkpt lat="42.10693" lon="21.6461">
        <ele>526.889028</ele>
        <time>2022-04-13T09:37:02.320Z</time>
      </trkpt>
      <trkpt lat="42.10686" lon="21.64599">
        <ele>526.948921</ele>
        <time>2022-04-13T09:37:05.296Z</time>
      </trkpt>
      <trkpt lat="42.1068" lon="21.64587">
        <ele>527.008876</ele>
        <time>2022-04-13T09:37:08.319Z</time>
      </trkpt>
      <trkpt lat="42.10674" lon="21.64575">
        <ele>527.070816</ele>
        <time>2022-04-13T09:37:11.329Z</time>
      </trkpt>
      <trkpt lat="42.10668" lon="21.64563">
        <ele>527.133445</ele>
        <time>2022-04-13T09:37:14.352Z</time>
      </trkpt>
      <trkpt lat="42.10662" lon="21.64551">
        <ele>527.194713</ele>
        <time>2022-04-13T09:37:17.297Z</time>
      </trkpt>
      <trkpt lat="42.10656" lon="21.64539">
        <ele>527.254002</ele>
        <time>2022-04-13T09:37:20.288Z</time>
      </trkpt>
      <trkpt lat="42.1065" lon="21.64528">
        <ele>527.313994</ele>
        <time>2022-04-13T09:37:23.309Z</time>
      </trkpt>
      <trkpt lat="42.10645" lon="21.64515">
        <ele>527.375669</ele>
        <time>2022-04-13T09:37:26.343Z</time>
      </trkpt>
      <trkpt lat="42.10639" lon="21.64502">
        <ele>527.438505</ele>
        <time>2022-04-13T09:37:29.326Z</time>
      </trkpt>
      <trkpt lat="42.10632" lon="21.6449">
        <ele>527.502525</ele>
        <time>2022-04-13T09:37:32.301Z</time>
      </trkpt>
      <trkpt lat="42.10626" lon="21.64477">
        <ele>527.568873</ele>
        <time>2022-04-13T09:37:35.293Z</time>
      </trkpt>
      <trkpt lat="42.10619" lon="21.64463">
        <ele>527.638253</ele>
        <time>2022-04-13T09:37:38.295Z</time>
      </trkpt>
      <trkpt lat="42.10612" lon="21.6445">
        <ele>527.705934</ele>
        <time>2022-04-13T09:37:41.304Z</time>
      </trkpt>
      <trkpt lat="42.10605" lon="21.64437">
        <ele>527.773991</ele>
        <time>2022-04-13T09:37:44.307Z</time>
      </trkpt>
      <trkpt lat="42.10598" lon="21.64423">
        <ele>527.756974</ele>
        <time>2022-04-13T09:37:47.316Z</time>
      </trkpt>
      <trkpt lat="42.10591" lon="21.6441">
        <ele>527.673758</ele>
        <time>2022-04-13T09:37:50.316Z</time>
      </trkpt>
      <trkpt lat="42.10585" lon="21.64397">
        <ele>527.591508</ele>
        <time>2022-04-13T09:37:53.298Z</time>
      </trkpt>
      <trkpt lat="42.10578" lon="21.64384">
        <ele>527.509324</ele>
        <time>2022-04-13T09:37:56.315Z</time>
      </trkpt>
      <trkpt lat="42.10571" lon="21.64371">
        <ele>527.426704</ele>
        <time>2022-04-13T09:37:59.352Z</time>
      </trkpt>
      <trkpt lat="42.10564" lon="21.64359">
        <ele>527.347021</ele>
        <time>2022-04-13T09:38:02.316Z</time>
      </trkpt>
      <trkpt lat="42.10557" lon="21.64347">
        <ele>527.269821</ele>
        <time>2022-04-13T09:38:05.291Z</time>
      </trkpt>
      <trkpt lat="42.1055" lon="21.64336">
        <ele>527.194939</ele>
        <time>2022-04-13T09:38:08.324Z</time>
      </trkpt>
      <trkpt lat="42.10543" lon="21.64326">
        <ele>527.120078</ele>
        <time>2022-04-13T09:38:11.315Z</time>
      </trkpt>
      <trkpt lat="42.10537" lon="21.64315">
        <ele>527.047075</ele>
        <time>2022-04-13T09:38:14.313Z</time>
      </trkpt>
      <trkpt lat="42.10531" lon="21.64303">
        <ele>526.975302</ele>
        <time>2022-04-13T09:38:17.326Z</time>
      </trkpt>
      <trkpt lat="42.10524" lon="21.64292">
        <ele>526.902709</ele>
        <time>2022-04-13T09:38:20.324Z</time>
      </trkpt>
      <trkpt lat="42.10517" lon="21.64281">
        <ele>526.824668</ele>
        <time>2022-04-13T09:38:23.305Z</time>
      </trkpt>
      <trkpt lat="42.10511" lon="21.64269">
        <ele>526.74744</ele>
        <time>2022-04-13T09:38:26.312Z</time>
      </trkpt>
      <trkpt lat="42.10503" lon="21.64259">
        <ele>526.676662</ele>
        <time>2022-04-13T09:38:29.315Z</time>
      </trkpt>
      <trkpt lat="42.10497" lon="21.64248">
        <ele>526.604866</ele>
        <time>2022-04-13T09:38:32.358Z</time>
      </trkpt>
      <trkpt lat="42.10491" lon="21.64237">
        <ele>526.548565</ele>
        <time>2022-04-13T09:38:35.320Z</time>
      </trkpt>
      <trkpt lat="42.10485" lon="21.64227">
        <ele>526.563527</ele>
        <time>2022-04-13T09:38:38.313Z</time>
      </trkpt>
      <trkpt lat="42.10478" lon="21.64217">
        <ele>526.578531</ele>
        <time>2022-04-13T09:38:41.294Z</time>
      </trkpt>
      <trkpt lat="42.10471" lon="21.64207">
        <ele>526.593562</ele>
        <time>2022-04-13T09:38:44.306Z</time>
      </trkpt>
      <trkpt lat="42.10465" lon="21.64197">
        <ele>526.609192</ele>
        <time>2022-04-13T09:38:47.315Z</time>
      </trkpt>
      <trkpt lat="42.10458" lon="21.64187">
        <ele>526.624874</ele>
        <time>2022-04-13T09:38:50.300Z</time>
      </trkpt>
      <trkpt lat="42.10451" lon="21.64177">
        <ele>526.640183</ele>
        <time>2022-04-13T09:38:53.298Z</time>
      </trkpt>
      <trkpt lat="42.10444" lon="21.64168">
        <ele>526.655232</ele>
        <time>2022-04-13T09:38:56.318Z</time>
      </trkpt>
      <trkpt lat="42.10437" lon="21.64158">
        <ele>526.670451</ele>
        <time>2022-04-13T09:38:59.326Z</time>
      </trkpt>
      <trkpt lat="42.1043" lon="21.6415">
        <ele>526.684633</ele>
        <time>2022-04-13T09:39:02.301Z</time>
      </trkpt>
      <trkpt lat="42.10422" lon="21.64142">
        <ele>526.699003</ele>
        <time>2022-04-13T09:39:05.288Z</time>
      </trkpt>
      <trkpt lat="42.10415" lon="21.64133">
        <ele>526.713941</ele>
        <time>2022-04-13T09:39:08.321Z</time>
      </trkpt>
      <trkpt lat="42.10408" lon="21.64124">
        <ele>526.729291</ele>
        <time>2022-04-13T09:39:11.340Z</time>
      </trkpt>
      <trkpt lat="42.104" lon="21.64115">
        <ele>526.744189</ele>
        <time>2022-04-13T09:39:14.318Z</time>
      </trkpt>
      <trkpt lat="42.10393" lon="21.64107">
        <ele>526.75879</ele>
        <time>2022-04-13T09:39:17.349Z</time>
      </trkpt>
      <trkpt lat="42.10386" lon="21.64099">
        <ele>526.772913</ele>
        <time>2022-04-13T09:39:20.291Z</time>
      </trkpt>
      <trkpt lat="42.10377" lon="21.64088">
        <ele>526.790187</ele>
        <time>2022-04-13T09:39:24.302Z</time>
      </trkpt>
      <trkpt lat="42.10369" lon="21.64078">
        <ele>526.807688</ele>
        <time>2022-04-13T09:39:28.353Z</time>
      </trkpt>
      <trkpt lat="42.10362" lon="21.6407">
        <ele>526.818851</ele>
        <time>2022-04-13T09:39:31.293Z</time>
      </trkpt>
      <trkpt lat="42.10355" lon="21.64061">
        <ele>526.815587</ele>
        <time>2022-04-13T09:39:34.305Z</time>
      </trkpt>
      <trkpt lat="42.10348" lon="21.64053">
        <ele>526.812359</ele>
        <time>2022-04-13T09:39:37.305Z</time>
      </trkpt>
      <trkpt lat="42.10339" lon="21.64043">
        <ele>526.808114</ele>
        <time>2022-04-13T09:39:41.322Z</time>
      </trkpt>
      <trkpt lat="42.10333" lon="21.64035">
        <ele>526.804886</ele>
        <time>2022-04-13T09:39:44.307Z</time>
      </trkpt>
      <trkpt lat="42.10324" lon="21.64024">
        <ele>526.800674</ele>
        <time>2022-04-13T09:39:48.312Z</time>
      </trkpt>
      <trkpt lat="42.10314" lon="21.64014">
        <ele>526.796359</ele>
        <time>2022-04-13T09:39:52.298Z</time>
      </trkpt>
      <trkpt lat="42.10307" lon="21.64006">
        <ele>526.793041</ele>
        <time>2022-04-13T09:39:55.316Z</time>
      </trkpt>
      <trkpt lat="42.103" lon="21.63998">
        <ele>526.789794</ele>
        <time>2022-04-13T09:39:58.362Z</time>
      </trkpt>
      <trkpt lat="42.10291" lon="21.63988">
        <ele>526.785716</ele>
        <time>2022-04-13T09:40:02.341Z</time>
      </trkpt>
      <trkpt lat="42.10282" lon="21.63978">
        <ele>526.781545</ele>
        <time>2022-04-13T09:40:06.322Z</time>
      </trkpt>
      <trkpt lat="42.10275" lon="21.6397">
        <ele>526.778271</ele>
        <time>2022-04-13T09:40:09.303Z</time>
      </trkpt>
      <trkpt lat="42.10266" lon="21.63959">
        <ele>526.773964</ele>
        <time>2022-04-13T09:40:13.296Z</time>
      </trkpt>
      <trkpt lat="42.10259" lon="21.63952">
        <ele>526.770661</ele>
        <time>2022-04-13T09:40:16.310Z</time>
      </trkpt>
      <trkpt lat="42.10251" lon="21.63944">
        <ele>526.767261</ele>
        <time>2022-04-13T09:40:19.348Z</time>
      </trkpt>
      <trkpt lat="42.10244" lon="21.63937">
        <ele>526.763977</ele>
        <time>2022-04-13T09:40:22.300Z</time>
      </trkpt>
      <trkpt lat="42.10235" lon="21.63927">
        <ele>526.759878</ele>
        <time>2022-04-13T09:40:26.323Z</time>
      </trkpt>
      <trkpt lat="42.10226" lon="21.63917">
        <ele>526.755731</ele>
        <time>2022-04-13T09:40:30.335Z</time>
      </trkpt>
      <trkpt lat="42.10218" lon="21.6391">
        <ele>526.833476</ele>
        <time>2022-04-13T09:40:33.306Z</time>
      </trkpt>
      <trkpt lat="42.10209" lon="21.63901">
        <ele>526.950561</ele>
        <time>2022-04-13T09:40:37.330Z</time>
      </trkpt>
      <trkpt lat="42.10201" lon="21.63894">
        <ele>527.039441</ele>
        <time>2022-04-13T09:40:40.312Z</time>
      </trkpt>
      <trkpt lat="42.10193" lon="21.63886">
        <ele>527.132839</ele>
        <time>2022-04-13T09:40:43.354Z</time>
      </trkpt>
      <trkpt lat="42.10186" lon="21.63879">
        <ele>527.225784</ele>
        <time>2022-04-13T09:40:46.319Z</time>
      </trkpt>
      <trkpt lat="42.10176" lon="21.6387">
        <ele>527.342781</ele>
        <time>2022-04-13T09:40:50.312Z</time>
      </trkpt>
      <trkpt lat="42.10166" lon="21.63861">
        <ele>527.45855</ele>
        <time>2022-04-13T09:40:54.327Z</time>
      </trkpt>
      <trkpt lat="42.10158" lon="21.63855">
        <ele>527.547039</ele>
        <time>2022-04-13T09:40:57.309Z</time>
      </trkpt>
      <trkpt lat="42.10149" lon="21.63846">
        <ele>527.66487</ele>
        <time>2022-04-13T09:41:01.321Z</time>
      </trkpt>
      <trkpt lat="42.10139" lon="21.63837">
        <ele>527.78228</ele>
        <time>2022-04-13T09:41:05.302Z</time>
      </trkpt>
      <trkpt lat="42.10131" lon="21.6383">
        <ele>527.872367</ele>
        <time>2022-04-13T09:41:08.321Z</time>
      </trkpt>
      <trkpt lat="42.10122" lon="21.63822">
        <ele>527.979982</ele>
        <time>2022-04-13T09:41:12.297Z</time>
      </trkpt>
      <trkpt lat="42.10112" lon="21.63813">
        <ele>528.091674</ele>
        <time>2022-04-13T09:41:16.329Z</time>
      </trkpt>
      <trkpt lat="42.10102" lon="21.63805">
        <ele>528.208736</ele>
        <time>2022-04-13T09:41:20.327Z</time>
      </trkpt>
      <trkpt lat="42.10094" lon="21.63798">
        <ele>528.30416</ele>
        <time>2022-04-13T09:41:23.314Z</time>
      </trkpt>
      <trkpt lat="42.10086" lon="21.63791">
        <ele>528.39793</ele>
        <time>2022-04-13T09:41:26.305Z</time>
      </trkpt>
      <trkpt lat="42.10078" lon="21.63783">
        <ele>528.492921</ele>
        <time>2022-04-13T09:41:29.305Z</time>
      </trkpt>
      <trkpt lat="42.1007" lon="21.63776">
        <ele>528.682192</ele>
        <time>2022-04-13T09:41:32.378Z</time>
      </trkpt>
      <trkpt lat="42.10062" lon="21.63769">
        <ele>528.912426</ele>
        <time>2022-04-13T09:41:35.291Z</time>
      </trkpt>
      <trkpt lat="42.10054" lon="21.63762">
        <ele>529.14073</ele>
        <time>2022-04-13T09:41:38.311Z</time>
      </trkpt>
      <trkpt lat="42.10045" lon="21.63755">
        <ele>529.372515</ele>
        <time>2022-04-13T09:41:41.318Z</time>
      </trkpt>
      <trkpt lat="42.10036" lon="21.63746">
        <ele>529.646137</ele>
        <time>2022-04-13T09:41:45.294Z</time>
      </trkpt>
      <trkpt lat="42.10027" lon="21.63737">
        <ele>529.908746</ele>
        <time>2022-04-13T09:41:49.314Z</time>
      </trkpt>
      <trkpt lat="42.10019" lon="21.6373">
        <ele>530.126357</ele>
        <time>2022-04-13T09:41:52.310Z</time>
      </trkpt>
      <trkpt lat="42.10011" lon="21.63724">
        <ele>530.349835</ele>
        <time>2022-04-13T09:41:55.299Z</time>
      </trkpt>
      <trkpt lat="42.10003" lon="21.63717">
        <ele>530.572579</ele>
        <time>2022-04-13T09:41:58.328Z</time>
      </trkpt>
      <trkpt lat="42.09995" lon="21.6371">
        <ele>530.796057</ele>
        <time>2022-04-13T09:42:01.316Z</time>
      </trkpt>
      <trkpt lat="42.09987" lon="21.63703">
        <ele>531.021438</ele>
        <time>2022-04-13T09:42:04.301Z</time>
      </trkpt>
      <trkpt lat="42.09977" lon="21.63694">
        <ele>531.307578</ele>
        <time>2022-04-13T09:42:08.317Z</time>
      </trkpt>
      <trkpt lat="42.0997" lon="21.63687">
        <ele>531.523191</ele>
        <time>2022-04-13T09:42:11.296Z</time>
      </trkpt>
      <trkpt lat="42.09961" lon="21.63678">
        <ele>531.783152</ele>
        <time>2022-04-13T09:42:15.318Z</time>
      </trkpt>
      <trkpt lat="42.09953" lon="21.63671">
        <ele>531.995767</ele>
        <time>2022-04-13T09:42:18.330Z</time>
      </trkpt>
      <trkpt lat="42.09946" lon="21.63664">
        <ele>532.217204</ele>
        <time>2022-04-13T09:42:21.316Z</time>
      </trkpt>
      <trkpt lat="42.09938" lon="21.63657">
        <ele>532.437717</ele>
        <time>2022-04-13T09:42:24.296Z</time>
      </trkpt>
      <trkpt lat="42.0993" lon="21.6365">
        <ele>532.671069</ele>
        <time>2022-04-13T09:42:27.316Z</time>
      </trkpt>
      <trkpt lat="42.09922" lon="21.63643">
        <ele>532.975043</ele>
        <time>2022-04-13T09:42:30.311Z</time>
      </trkpt>
      <trkpt lat="42.09914" lon="21.63636">
        <ele>533.329538</ele>
        <time>2022-04-13T09:42:33.302Z</time>
      </trkpt>
      <trkpt lat="42.09905" lon="21.6363">
        <ele>533.690606</ele>
        <time>2022-04-13T09:42:36.321Z</time>
      </trkpt>
      <trkpt lat="42.09895" lon="21.63621">
        <ele>534.145638</ele>
        <time>2022-04-13T09:42:40.324Z</time>
      </trkpt>
      <trkpt lat="42.09886" lon="21.63612">
        <ele>534.567526</ele>
        <time>2022-04-13T09:42:44.332Z</time>
      </trkpt>
      <trkpt lat="42.09876" lon="21.63603">
        <ele>535.025722</ele>
        <time>2022-04-13T09:42:48.306Z</time>
      </trkpt>
      <trkpt lat="42.09867" lon="21.63595">
        <ele>535.461859</ele>
        <time>2022-04-13T09:42:52.309Z</time>
      </trkpt>
      <trkpt lat="42.09858" lon="21.63587">
        <ele>535.861651</ele>
        <time>2022-04-13T09:42:56.324Z</time>
      </trkpt>
      <trkpt lat="42.09849" lon="21.6358">
        <ele>536.277552</ele>
        <time>2022-04-13T09:43:00.341Z</time>
      </trkpt>
      <trkpt lat="42.0984" lon="21.63571">
        <ele>536.687006</ele>
        <time>2022-04-13T09:43:04.342Z</time>
      </trkpt>
      <trkpt lat="42.09831" lon="21.63563">
        <ele>537.099666</ele>
        <time>2022-04-13T09:43:08.313Z</time>
      </trkpt>
      <trkpt lat="42.09822" lon="21.63556">
        <ele>537.501755</ele>
        <time>2022-04-13T09:43:12.312Z</time>
      </trkpt>
      <trkpt lat="42.09813" lon="21.63549">
        <ele>537.88605</ele>
        <time>2022-04-13T09:43:16.333Z</time>
      </trkpt>
      <trkpt lat="42.09804" lon="21.63543">
        <ele>538.282669</ele>
        <time>2022-04-13T09:43:20.304Z</time>
      </trkpt>
      <trkpt lat="42.09794" lon="21.63536">
        <ele>538.69545</ele>
        <time>2022-04-13T09:43:24.306Z</time>
      </trkpt>
      <trkpt lat="42.09785" lon="21.63531">
        <ele>539.073175</ele>
        <time>2022-04-13T09:43:28.358Z</time>
      </trkpt>
      <trkpt lat="42.09776" lon="21.63524">
        <ele>539.471952</ele>
        <time>2022-04-13T09:43:32.311Z</time>
      </trkpt>
      <trkpt lat="42.09767" lon="21.63518">
        <ele>539.755892</ele>
        <time>2022-04-13T09:43:36.349Z</time>
      </trkpt>
      <trkpt lat="42.09758" lon="21.63513">
        <ele>539.970547</ele>
        <time>2022-04-13T09:43:40.338Z</time>
      </trkpt>
      <trkpt lat="42.09749" lon="21.63508">
        <ele>540.187926</ele>
        <time>2022-04-13T09:43:44.307Z</time>
      </trkpt>
      <trkpt lat="42.09739" lon="21.63502">
        <ele>540.433427</ele>
        <time>2022-04-13T09:43:48.305Z</time>
      </trkpt>
      <trkpt lat="42.09728" lon="21.63496">
        <ele>540.689575</ele>
        <time>2022-04-13T09:43:52.323Z</time>
      </trkpt>
      <trkpt lat="42.09718" lon="21.6349">
        <ele>540.915079</ele>
        <time>2022-04-13T09:43:56.322Z</time>
      </trkpt>
      <trkpt lat="42.09709" lon="21.63485">
        <ele>541.139172</ele>
        <time>2022-04-13T09:44:00.294Z</time>
      </trkpt>
      <trkpt lat="42.097" lon="21.63481">
        <ele>541.344705</ele>
        <time>2022-04-13T09:44:04.306Z</time>
      </trkpt>
      <trkpt lat="42.09692" lon="21.63475">
        <ele>541.547324</ele>
        <time>2022-04-13T09:44:08.315Z</time>
      </trkpt>
      <trkpt lat="42.09683" lon="21.63471">
        <ele>541.749383</ele>
        <time>2022-04-13T09:44:12.340Z</time>
      </trkpt>
      <trkpt lat="42.09674" lon="21.63465">
        <ele>541.963373</ele>
        <time>2022-04-13T09:44:16.314Z</time>
      </trkpt>
      <trkpt lat="42.09665" lon="21.6346">
        <ele>542.186062</ele>
        <time>2022-04-13T09:44:20.311Z</time>
      </trkpt>
      <trkpt lat="42.09655" lon="21.63454">
        <ele>542.420337</ele>
        <time>2022-04-13T09:44:24.362Z</time>
      </trkpt>
      <trkpt lat="42.09646" lon="21.63449">
        <ele>542.642425</ele>
        <time>2022-04-13T09:44:28.293Z</time>
      </trkpt>
      <trkpt lat="42.09637" lon="21.63444">
        <ele>542.858805</ele>
        <time>2022-04-13T09:44:32.288Z</time>
      </trkpt>
      <trkpt lat="42.09628" lon="21.6344">
        <ele>543.059977</ele>
        <time>2022-04-13T09:44:36.315Z</time>
      </trkpt>
      <trkpt lat="42.09619" lon="21.63435">
        <ele>543.275222</ele>
        <time>2022-04-13T09:44:40.314Z</time>
      </trkpt>
      <trkpt lat="42.0961" lon="21.63429">
        <ele>543.508801</ele>
        <time>2022-04-13T09:44:44.307Z</time>
      </trkpt>
      <trkpt lat="42.096" lon="21.63422">
        <ele>543.476856</ele>
        <time>2022-04-13T09:44:49.306Z</time>
      </trkpt>
      <trkpt lat="42.09591" lon="21.63416">
        <ele>543.349683</ele>
        <time>2022-04-13T09:44:52.352Z</time>
      </trkpt>
      <trkpt lat="42.09581" lon="21.6341">
        <ele>543.20329</ele>
        <time>2022-04-13T09:44:56.319Z</time>
      </trkpt>
      <trkpt lat="42.09571" lon="21.63405">
        <ele>543.062258</ele>
        <time>2022-04-13T09:45:00.303Z</time>
      </trkpt>
      <trkpt lat="42.09562" lon="21.634">
        <ele>542.933359</ele>
        <time>2022-04-13T09:45:04.304Z</time>
      </trkpt>
      <trkpt lat="42.09552" lon="21.63395">
        <ele>542.788927</ele>
        <time>2022-04-13T09:45:08.310Z</time>
      </trkpt>
      <trkpt lat="42.09543" lon="21.63389">
        <ele>542.668604</ele>
        <time>2022-04-13T09:45:11.318Z</time>
      </trkpt>
      <trkpt lat="42.09532" lon="21.63384">
        <ele>542.514516</ele>
        <time>2022-04-13T09:45:15.292Z</time>
      </trkpt>
      <trkpt lat="42.09523" lon="21.63379">
        <ele>542.387202</ele>
        <time>2022-04-13T09:45:18.321Z</time>
      </trkpt>
      <trkpt lat="42.09514" lon="21.63374">
        <ele>542.256048</ele>
        <time>2022-04-13T09:45:21.304Z</time>
      </trkpt>
      <trkpt lat="42.09505" lon="21.63369">
        <ele>542.12005</ele>
        <time>2022-04-13T09:45:24.323Z</time>
      </trkpt>
      <trkpt lat="42.09496" lon="21.63363">
        <ele>541.990497</ele>
        <time>2022-04-13T09:45:27.318Z</time>
      </trkpt>
      <trkpt lat="42.09485" lon="21.63358">
        <ele>541.846994</ele>
        <time>2022-04-13T09:45:30.316Z</time>
      </trkpt>
      <trkpt lat="42.09475" lon="21.63353">
        <ele>541.696682</ele>
        <time>2022-04-13T09:45:33.306Z</time>
      </trkpt>
      <trkpt lat="42.09464" lon="21.6335">
        <ele>541.545619</ele>
        <time>2022-04-13T09:45:36.313Z</time>
      </trkpt>
      <trkpt lat="42.09452" lon="21.63347">
        <ele>541.395874</ele>
        <time>2022-04-13T09:45:39.305Z</time>
      </trkpt>
      <trkpt lat="42.09441" lon="21.63347">
        <ele>541.241497</ele>
        <time>2022-04-13T09:45:42.290Z</time>
      </trkpt>
      <trkpt lat="42.09429" lon="21.63348">
        <ele>541.3786</ele>
        <time>2022-04-13T09:45:45.293Z</time>
      </trkpt>
      <trkpt lat="42.09417" lon="21.63347">
        <ele>541.581539</ele>
        <time>2022-04-13T09:45:48.302Z</time>
      </trkpt>
      <trkpt lat="42.09406" lon="21.63348">
        <ele>541.782741</ele>
        <time>2022-04-13T09:45:51.308Z</time>
      </trkpt>
      <trkpt lat="42.09394" lon="21.63347">
        <ele>541.985879</ele>
        <time>2022-04-13T09:45:54.360Z</time>
      </trkpt>
      <trkpt lat="42.09383" lon="21.63344">
        <ele>542.180248</ele>
        <time>2022-04-13T09:45:57.295Z</time>
      </trkpt>
      <trkpt lat="42.09371" lon="21.63338">
        <ele>542.397617</ele>
        <time>2022-04-13T09:46:00.330Z</time>
      </trkpt>
      <trkpt lat="42.0936" lon="21.63329">
        <ele>542.633749</ele>
        <time>2022-04-13T09:46:03.320Z</time>
      </trkpt>
      <trkpt lat="42.09354" lon="21.63319">
        <ele>542.794711</ele>
        <time>2022-04-13T09:46:05.302Z</time>
      </trkpt>
      <trkpt lat="42.09348" lon="21.63309">
        <ele>542.956312</ele>
        <time>2022-04-13T09:46:07.339Z</time>
      </trkpt>
      <trkpt lat="42.09343" lon="21.633">
        <ele>543.113758</ele>
        <time>2022-04-13T09:46:09.297Z</time>
      </trkpt>
      <trkpt lat="42.09335" lon="21.63287">
        <ele>543.330613</ele>
        <time>2022-04-13T09:46:12.320Z</time>
      </trkpt>
      <trkpt lat="42.09328" lon="21.63273">
        <ele>543.550582</ele>
        <time>2022-04-13T09:46:15.295Z</time>
      </trkpt>
      <trkpt lat="42.0932" lon="21.63259">
        <ele>543.775818</ele>
        <time>2022-04-13T09:46:18.316Z</time>
      </trkpt>
      <trkpt lat="42.09312" lon="21.63245">
        <ele>544.002054</ele>
        <time>2022-04-13T09:46:21.316Z</time>
      </trkpt>
      <trkpt lat="42.09304" lon="21.63231">
        <ele>544.23663</ele>
        <time>2022-04-13T09:46:24.304Z</time>
      </trkpt>
      <trkpt lat="42.09296" lon="21.63217">
        <ele>544.473134</ele>
        <time>2022-04-13T09:46:27.310Z</time>
      </trkpt>
      <trkpt lat="42.09289" lon="21.63202">
        <ele>544.723418</ele>
        <time>2022-04-13T09:46:30.312Z</time>
      </trkpt>
      <trkpt lat="42.09281" lon="21.63189">
        <ele>544.969324</ele>
        <time>2022-04-13T09:46:33.306Z</time>
      </trkpt>
      <trkpt lat="42.09274" lon="21.63176">
        <ele>545.185655</ele>
        <time>2022-04-13T09:46:36.317Z</time>
      </trkpt>
      <trkpt lat="42.09268" lon="21.63164">
        <ele>545.394165</ele>
        <time>2022-04-13T09:46:39.290Z</time>
      </trkpt>
      <trkpt lat="42.09262" lon="21.63153">
        <ele>545.588938</ele>
        <time>2022-04-13T09:46:42.311Z</time>
      </trkpt>
      <trkpt lat="42.09256" lon="21.63143">
        <ele>545.770122</ele>
        <time>2022-04-13T09:46:45.301Z</time>
      </trkpt>
      <trkpt lat="42.0925" lon="21.63133">
        <ele>545.946883</ele>
        <time>2022-04-13T09:46:48.299Z</time>
      </trkpt>
      <trkpt lat="42.09243" lon="21.63121">
        <ele>546.164312</ele>
        <time>2022-04-13T09:46:52.286Z</time>
      </trkpt>
      <trkpt lat="42.09236" lon="21.6311">
        <ele>546.37522</ele>
        <time>2022-04-13T09:46:56.326Z</time>
      </trkpt>
      <trkpt lat="42.09227" lon="21.631">
        <ele>546.588712</ele>
        <time>2022-04-13T09:47:00.307Z</time>
      </trkpt>
      <trkpt lat="42.09218" lon="21.63091">
        <ele>546.809384</ele>
        <time>2022-04-13T09:47:04.326Z</time>
      </trkpt>
      <trkpt lat="42.09207" lon="21.63082">
        <ele>547.03907</ele>
        <time>2022-04-13T09:47:08.303Z</time>
      </trkpt>
      <trkpt lat="42.09199" lon="21.63076">
        <ele>547.227635</ele>
        <time>2022-04-13T09:47:11.308Z</time>
      </trkpt>
      <trkpt lat="42.09189" lon="21.6307">
        <ele>547.427557</ele>
        <time>2022-04-13T09:47:14.319Z</time>
      </trkpt>
      <trkpt lat="42.09179" lon="21.63065">
        <ele>547.636916</ele>
        <time>2022-04-13T09:47:17.313Z</time>
      </trkpt>
      <trkpt lat="42.09168" lon="21.6306">
        <ele>547.694999</ele>
        <time>2022-04-13T09:47:20.324Z</time>
      </trkpt>
      <trkpt lat="42.09157" lon="21.63054">
        <ele>547.432094</ele>
        <time>2022-04-13T09:47:23.320Z</time>
      </trkpt>
      <trkpt lat="42.09145" lon="21.63049">
        <ele>547.163522</ele>
        <time>2022-04-13T09:47:26.302Z</time>
      </trkpt>
      <trkpt lat="42.09133" lon="21.63046">
        <ele>546.888112</ele>
        <time>2022-04-13T09:47:29.312Z</time>
      </trkpt>
      <trkpt lat="42.0912" lon="21.63042">
        <ele>546.610912</ele>
        <time>2022-04-13T09:47:32.300Z</time>
      </trkpt>
      <trkpt lat="42.09107" lon="21.63039">
        <ele>546.320301</ele>
        <time>2022-04-13T09:47:35.348Z</time>
      </trkpt>
      <trkpt lat="42.09098" lon="21.63036">
        <ele>546.124343</ele>
        <time>2022-04-13T09:47:37.308Z</time>
      </trkpt>
      <trkpt lat="42.09087" lon="21.63032">
        <ele>545.866244</ele>
        <time>2022-04-13T09:47:40.308Z</time>
      </trkpt>
      <trkpt lat="42.09075" lon="21.63029">
        <ele>545.601786</ele>
        <time>2022-04-13T09:47:43.324Z</time>
      </trkpt>
      <trkpt lat="42.09063" lon="21.63024">
        <ele>545.322106</ele>
        <time>2022-04-13T09:47:46.351Z</time>
      </trkpt>
      <trkpt lat="42.0905" lon="21.63021">
        <ele>545.040971</ele>
        <time>2022-04-13T09:47:49.307Z</time>
      </trkpt>
      <trkpt lat="42.09037" lon="21.63016">
        <ele>544.747838</ele>
        <time>2022-04-13T09:47:52.320Z</time>
      </trkpt>
      <trkpt lat="42.09027" lon="21.63013">
        <ele>544.532212</ele>
        <time>2022-04-13T09:47:54.324Z</time>
      </trkpt>
      <trkpt lat="42.09018" lon="21.63006">
        <ele>544.30974</ele>
        <time>2022-04-13T09:47:56.302Z</time>
      </trkpt>
      <trkpt lat="42.09009" lon="21.62996">
        <ele>544.057714</ele>
        <time>2022-04-13T09:47:58.317Z</time>
      </trkpt>
      <trkpt lat="42.09003" lon="21.62983">
        <ele>544.028921</ele>
        <time>2022-04-13T09:48:00.318Z</time>
      </trkpt>
      <trkpt lat="42.08997" lon="21.6297">
        <ele>544.750534</ele>
        <time>2022-04-13T09:48:02.313Z</time>
      </trkpt>
      <trkpt lat="42.0899" lon="21.62957">
        <ele>545.453208</ele>
        <time>2022-04-13T09:48:04.309Z</time>
      </trkpt>
      <trkpt lat="42.08983" lon="21.62945">
        <ele>546.163276</ele>
        <time>2022-04-13T09:48:06.320Z</time>
      </trkpt>
      <trkpt lat="42.08976" lon="21.62934">
        <ele>546.800439</ele>
        <time>2022-04-13T09:48:08.339Z</time>
      </trkpt>
      <trkpt lat="42.08971" lon="21.62924">
        <ele>547.357841</ele>
        <time>2022-04-13T09:48:10.292Z</time>
      </trkpt>
      <trkpt lat="42.08964" lon="21.62912">
        <ele>548.043059</ele>
        <time>2022-04-13T09:48:13.302Z</time>
      </trkpt>
      <trkpt lat="42.08956" lon="21.62901">
        <ele>548.733148</ele>
        <time>2022-04-13T09:48:16.309Z</time>
      </trkpt>
      <trkpt lat="42.0895" lon="21.62891">
        <ele>549.331836</ele>
        <time>2022-04-13T09:48:19.356Z</time>
      </trkpt>
      <trkpt lat="42.08943" lon="21.62881">
        <ele>549.937751</ele>
        <time>2022-04-13T09:48:23.326Z</time>
      </trkpt>
      <trkpt lat="42.08936" lon="21.62871">
        <ele>550.570961</ele>
        <time>2022-04-13T09:48:27.304Z</time>
      </trkpt>
      <trkpt lat="42.08929" lon="21.6286">
        <ele>551.227031</ele>
        <time>2022-04-13T09:48:31.319Z</time>
      </trkpt>
      <trkpt lat="42.08923" lon="21.62849">
        <ele>551.861331</ele>
        <time>2022-04-13T09:48:35.285Z</time>
      </trkpt>
      <trkpt lat="42.08916" lon="21.62839">
        <ele>552.434321</ele>
        <time>2022-04-13T09:48:39.310Z</time>
      </trkpt>
      <trkpt lat="42.08909" lon="21.62829">
        <ele>553.066016</ele>
        <time>2022-04-13T09:48:44.313Z</time>
      </trkpt>
      <trkpt lat="42.08902" lon="21.62819">
        <ele>553.727762</ele>
        <time>2022-04-13T09:48:49.316Z</time>
      </trkpt>
      <trkpt lat="42.08894" lon="21.62809">
        <ele>554.364173</ele>
        <time>2022-04-13T09:48:54.314Z</time>
      </trkpt>
      <trkpt lat="42.08887" lon="21.628">
        <ele>554.928989</ele>
        <time>2022-04-13T09:48:59.287Z</time>
      </trkpt>
      <trkpt lat="42.0888" lon="21.6279">
        <ele>555.393415</ele>
        <time>2022-04-13T09:49:04.309Z</time>
      </trkpt>
      <trkpt lat="42.08873" lon="21.6278">
        <ele>555.841678</ele>
        <time>2022-04-13T09:49:09.362Z</time>
      </trkpt>
      <trkpt lat="42.08867" lon="21.62769">
        <ele>556.286298</ele>
        <time>2022-04-13T09:49:14.311Z</time>
      </trkpt>
      <trkpt lat="42.08861" lon="21.6276">
        <ele>556.695325</ele>
        <time>2022-04-13T09:49:19.313Z</time>
      </trkpt>
      <trkpt lat="42.08855" lon="21.62751">
        <ele>557.114759</ele>
        <time>2022-04-13T09:49:24.302Z</time>
      </trkpt>
      <trkpt lat="42.08848" lon="21.6274">
        <ele>557.581811</ele>
        <time>2022-04-13T09:49:29.302Z</time>
      </trkpt>
      <trkpt lat="42.08842" lon="21.62731">
        <ele>558.002124</ele>
        <time>2022-04-13T09:49:34.316Z</time>
      </trkpt>
      <trkpt lat="42.08836" lon="21.62721">
        <ele>558.420508</ele>
        <time>2022-04-13T09:49:39.304Z</time>
      </trkpt>
      <trkpt lat="42.0883" lon="21.62709">
        <ele>558.897289</ele>
        <time>2022-04-13T09:49:44.293Z</time>
      </trkpt>
      <trkpt lat="42.08824" lon="21.62697">
        <ele>559.383248</ele>
        <time>2022-04-13T09:49:49.314Z</time>
      </trkpt>
      <trkpt lat="42.08818" lon="21.62685">
        <ele>559.858413</ele>
        <time>2022-04-13T09:49:54.314Z</time>
      </trkpt>
      <trkpt lat="42.08813" lon="21.62672">
        <ele>560.34279</ele>
        <time>2022-04-13T09:49:59.338Z</time>
      </trkpt>
      <trkpt lat="42.0881" lon="21.62659">
        <ele>560.78884</ele>
        <time>2022-04-13T09:50:03.300Z</time>
      </trkpt>
      <trkpt lat="42.08807" lon="21.62647">
        <ele>561.228944</ele>
        <time>2022-04-13T09:50:07.286Z</time>
      </trkpt>
      <trkpt lat="42.08803" lon="21.62634">
        <ele>561.682808</ele>
        <time>2022-04-13T09:50:11.279Z</time>
      </trkpt>
      <trkpt lat="42.088" lon="21.62619">
        <ele>562.199048</ele>
        <time>2022-04-13T09:50:15.273Z</time>
      </trkpt>
      <trkpt lat="42.08797" lon="21.62607">
        <ele>562.618869</ele>
        <time>2022-04-13T09:50:18.293Z</time>
      </trkpt>
      <trkpt lat="42.08794" lon="21.62595">
        <ele>562.867201</ele>
        <time>2022-04-13T09:50:21.301Z</time>
      </trkpt>
      <trkpt lat="42.08791" lon="21.62583">
        <ele>562.789599</ele>
        <time>2022-04-13T09:50:24.275Z</time>
      </trkpt>
      <trkpt lat="42.08788" lon="21.62571">
        <ele>562.710631</ele>
        <time>2022-04-13T09:50:27.277Z</time>
      </trkpt>
      <trkpt lat="42.08785" lon="21.62559">
        <ele>562.631843</ele>
        <time>2022-04-13T09:50:30.286Z</time>
      </trkpt>
      <trkpt lat="42.08782" lon="21.62547">
        <ele>562.551512</ele>
        <time>2022-04-13T09:50:33.280Z</time>
      </trkpt>
      <trkpt lat="42.0878" lon="21.62535">
        <ele>562.472724</ele>
        <time>2022-04-13T09:50:36.291Z</time>
      </trkpt>
      <trkpt lat="42.08776" lon="21.62519">
        <ele>562.372606</ele>
        <time>2022-04-13T09:50:40.290Z</time>
      </trkpt>
      <trkpt lat="42.08772" lon="21.62504">
        <ele>562.274608</ele>
        <time>2022-04-13T09:50:44.276Z</time>
      </trkpt>
      <trkpt lat="42.08769" lon="21.6249">
        <ele>562.179294</ele>
        <time>2022-04-13T09:50:48.282Z</time>
      </trkpt>
      <trkpt lat="42.08766" lon="21.62476">
        <ele>562.088114</ele>
        <time>2022-04-13T09:50:52.279Z</time>
      </trkpt>
      <trkpt lat="42.08763" lon="21.62461">
        <ele>561.997161</ele>
        <time>2022-04-13T09:50:56.285Z</time>
      </trkpt>
      <trkpt lat="42.08759" lon="21.62447">
        <ele>561.902116</ele>
        <time>2022-04-13T09:51:00.279Z</time>
      </trkpt>
      <trkpt lat="42.08756" lon="21.62432">
        <ele>561.805214</ele>
        <time>2022-04-13T09:51:04.282Z</time>
      </trkpt>
      <trkpt lat="42.08752" lon="21.62417">
        <ele>561.706718</ele>
        <time>2022-04-13T09:51:08.284Z</time>
      </trkpt>
      <trkpt lat="42.08749" lon="21.62402">
        <ele>561.610167</ele>
        <time>2022-04-13T09:51:12.278Z</time>
      </trkpt>
      <trkpt lat="42.08745" lon="21.62387">
        <ele>561.512255</ele>
        <time>2022-04-13T09:51:16.279Z</time>
      </trkpt>
      <trkpt lat="42.08742" lon="21.62373">
        <ele>561.422381</ele>
        <time>2022-04-13T09:51:20.287Z</time>
      </trkpt>
      <trkpt lat="42.08739" lon="21.6236">
        <ele>561.500014</ele>
        <time>2022-04-13T09:51:24.283Z</time>
      </trkpt>
      <trkpt lat="42.08735" lon="21.62346">
        <ele>561.697865</ele>
        <time>2022-04-13T09:51:28.279Z</time>
      </trkpt>
      <trkpt lat="42.08731" lon="21.62332">
        <ele>561.884619</ele>
        <time>2022-04-13T09:51:32.281Z</time>
      </trkpt>
      <trkpt lat="42.08728" lon="21.62318">
        <ele>562.074925</ele>
        <time>2022-04-13T09:51:36.287Z</time>
      </trkpt>
      <trkpt lat="42.08725" lon="21.62305">
        <ele>562.265968</ele>
        <time>2022-04-13T09:51:40.309Z</time>
      </trkpt>
      <trkpt lat="42.08721" lon="21.62291">
        <ele>562.460708</ele>
        <time>2022-04-13T09:51:44.295Z</time>
      </trkpt>
      <trkpt lat="42.08717" lon="21.62278">
        <ele>562.639432</ele>
        <time>2022-04-13T09:51:48.285Z</time>
      </trkpt>
      <trkpt lat="42.08714" lon="21.62265">
        <ele>562.823239</ele>
        <time>2022-04-13T09:51:52.286Z</time>
      </trkpt>
      <trkpt lat="42.08711" lon="21.62251">
        <ele>563.017336</ele>
        <time>2022-04-13T09:51:56.294Z</time>
      </trkpt>
      <trkpt lat="42.08708" lon="21.62236">
        <ele>563.212954</ele>
        <time>2022-04-13T09:52:00.279Z</time>
      </trkpt>
      <trkpt lat="42.08704" lon="21.62223">
        <ele>563.400373</ele>
        <time>2022-04-13T09:52:04.283Z</time>
      </trkpt>
      <trkpt lat="42.08701" lon="21.6221">
        <ele>563.580941</ele>
        <time>2022-04-13T09:52:08.279Z</time>
      </trkpt>
      <trkpt lat="42.08698" lon="21.62197">
        <ele>563.75749</ele>
        <time>2022-04-13T09:52:12.302Z</time>
      </trkpt>
      <trkpt lat="42.08695" lon="21.62182">
        <ele>563.959659</ele>
        <time>2022-04-13T09:52:16.288Z</time>
      </trkpt>
      <trkpt lat="42.08691" lon="21.62168">
        <ele>564.159334</ele>
        <time>2022-04-13T09:52:20.275Z</time>
      </trkpt>
      <trkpt lat="42.08688" lon="21.62154">
        <ele>564.351058</ele>
        <time>2022-04-13T09:52:24.284Z</time>
      </trkpt>
      <trkpt lat="42.08684" lon="21.62142">
        <ele>564.525467</ele>
        <time>2022-04-13T09:52:28.282Z</time>
      </trkpt>
      <trkpt lat="42.08682" lon="21.62129">
        <ele>564.528257</ele>
        <time>2022-04-13T09:52:32.283Z</time>
      </trkpt>
      <trkpt lat="42.08679" lon="21.62115">
        <ele>564.464675</ele>
        <time>2022-04-13T09:52:36.274Z</time>
      </trkpt>
      <trkpt lat="42.08677" lon="21.62101">
        <ele>564.400213</ele>
        <time>2022-04-13T09:52:40.281Z</time>
      </trkpt>
      <trkpt lat="42.08673" lon="21.62088">
        <ele>564.335418</ele>
        <time>2022-04-13T09:52:44.299Z</time>
      </trkpt>
      <trkpt lat="42.08669" lon="21.62075">
        <ele>564.274226</ele>
        <time>2022-04-13T09:52:48.281Z</time>
      </trkpt>
      <trkpt lat="42.08666" lon="21.62063">
        <ele>564.213859</ele>
        <time>2022-04-13T09:52:52.281Z</time>
      </trkpt>
      <trkpt lat="42.08663" lon="21.6205">
        <ele>564.155378</ele>
        <time>2022-04-13T09:52:56.288Z</time>
      </trkpt>
      <trkpt lat="42.08659" lon="21.62037">
        <ele>564.090318</ele>
        <time>2022-04-13T09:53:00.280Z</time>
      </trkpt>
      <trkpt lat="42.08655" lon="21.62024">
        <ele>564.027262</ele>
        <time>2022-04-13T09:53:04.281Z</time>
      </trkpt>
      <trkpt lat="42.08652" lon="21.62012">
        <ele>563.970258</ele>
        <time>2022-04-13T09:53:08.283Z</time>
      </trkpt>
      <trkpt lat="42.08648" lon="21.61999">
        <ele>563.904402</ele>
        <time>2022-04-13T09:53:12.276Z</time>
      </trkpt>
      <trkpt lat="42.08646" lon="21.61986">
        <ele>563.845318</ele>
        <time>2022-04-13T09:53:16.286Z</time>
      </trkpt>
      <trkpt lat="42.08644" lon="21.61973">
        <ele>563.785446</ele>
        <time>2022-04-13T09:53:20.276Z</time>
      </trkpt>
      <trkpt lat="42.08641" lon="21.61958">
        <ele>563.715984</ele>
        <time>2022-04-13T09:53:24.274Z</time>
      </trkpt>
      <trkpt lat="42.08637" lon="21.61944">
        <ele>563.649499</ele>
        <time>2022-04-13T09:53:28.282Z</time>
      </trkpt>
      <trkpt lat="42.08634" lon="21.6193">
        <ele>563.581485</ele>
        <time>2022-04-13T09:53:32.276Z</time>
      </trkpt>
      <trkpt lat="42.08631" lon="21.61917">
        <ele>563.51966</ele>
        <time>2022-04-13T09:53:36.288Z</time>
      </trkpt>
      <trkpt lat="42.08629" lon="21.61904">
        <ele>563.56726</ele>
        <time>2022-04-13T09:53:40.280Z</time>
      </trkpt>
      <trkpt lat="42.08626" lon="21.61891">
        <ele>563.869241</ele>
        <time>2022-04-13T09:53:44.283Z</time>
      </trkpt>
      <trkpt lat="42.08622" lon="21.61877">
        <ele>564.193313</ele>
        <time>2022-04-13T09:53:48.284Z</time>
      </trkpt>
      <trkpt lat="42.08619" lon="21.61863">
        <ele>564.5001</ele>
        <time>2022-04-13T09:53:52.278Z</time>
      </trkpt>
      <trkpt lat="42.08616" lon="21.6185">
        <ele>564.805126</ele>
        <time>2022-04-13T09:53:56.277Z</time>
      </trkpt>
      <trkpt lat="42.08613" lon="21.61838">
        <ele>565.086468</ele>
        <time>2022-04-13T09:54:00.279Z</time>
      </trkpt>
      <trkpt lat="42.08609" lon="21.61826">
        <ele>565.374057</ele>
        <time>2022-04-13T09:54:04.278Z</time>
      </trkpt>
      <trkpt lat="42.08606" lon="21.61813">
        <ele>565.679584</ele>
        <time>2022-04-13T09:54:08.283Z</time>
      </trkpt>
      <trkpt lat="42.08603" lon="21.61799">
        <ele>565.990181</ele>
        <time>2022-04-13T09:54:12.277Z</time>
      </trkpt>
      <trkpt lat="42.086" lon="21.61786">
        <ele>566.293304</ele>
        <time>2022-04-13T09:54:16.271Z</time>
      </trkpt>
      <trkpt lat="42.08597" lon="21.61773">
        <ele>566.599321</ele>
        <time>2022-04-13T09:54:20.279Z</time>
      </trkpt>
      <trkpt lat="42.08594" lon="21.6176">
        <ele>566.891371</ele>
        <time>2022-04-13T09:54:24.283Z</time>
      </trkpt>
      <trkpt lat="42.08591" lon="21.61748">
        <ele>567.177285</ele>
        <time>2022-04-13T09:54:28.274Z</time>
      </trkpt>
      <trkpt lat="42.08589" lon="21.61736">
        <ele>567.443617</ele>
        <time>2022-04-13T09:54:31.282Z</time>
      </trkpt>
      <trkpt lat="42.08585" lon="21.61721">
        <ele>567.787827</ele>
        <time>2022-04-13T09:54:35.287Z</time>
      </trkpt>
      <trkpt lat="42.08582" lon="21.61707">
        <ele>568.109505</ele>
        <time>2022-04-13T09:54:39.286Z</time>
      </trkpt>
      <trkpt lat="42.08578" lon="21.61693">
        <ele>568.436554</ele>
        <time>2022-04-13T09:54:43.281Z</time>
      </trkpt>
      <trkpt lat="42.08575" lon="21.61679">
        <ele>568.769597</ele>
        <time>2022-04-13T09:54:47.286Z</time>
      </trkpt>
      <trkpt lat="42.08572" lon="21.61665">
        <ele>568.878373</ele>
        <time>2022-04-13T09:54:51.284Z</time>
      </trkpt>
      <trkpt lat="42.08569" lon="21.61651">
        <ele>568.957386</ele>
        <time>2022-04-13T09:54:55.289Z</time>
      </trkpt>
      <trkpt lat="42.08566" lon="21.61638">
        <ele>569.032564</ele>
        <time>2022-04-13T09:54:59.278Z</time>
      </trkpt>
      <trkpt lat="42.08562" lon="21.61625">
        <ele>569.111236</ele>
        <time>2022-04-13T09:55:03.281Z</time>
      </trkpt>
      <trkpt lat="42.08559" lon="21.61611">
        <ele>569.189952</ele>
        <time>2022-04-13T09:55:07.283Z</time>
      </trkpt>
      <trkpt lat="42.08556" lon="21.61597">
        <ele>569.270021</ele>
        <time>2022-04-13T09:55:11.292Z</time>
      </trkpt>
      <trkpt lat="42.08553" lon="21.61583">
        <ele>569.35232</ele>
        <time>2022-04-13T09:55:15.290Z</time>
      </trkpt>
      <trkpt lat="42.08549" lon="21.61569">
        <ele>569.432847</ele>
        <time>2022-04-13T09:55:19.283Z</time>
      </trkpt>
      <trkpt lat="42.08547" lon="21.61556">
        <ele>569.51101</ele>
        <time>2022-04-13T09:55:23.283Z</time>
      </trkpt>
      <trkpt lat="42.08543" lon="21.61542">
        <ele>569.589801</ele>
        <time>2022-04-13T09:55:27.274Z</time>
      </trkpt>
      <trkpt lat="42.0854" lon="21.61528">
        <ele>569.668753</ele>
        <time>2022-04-13T09:55:31.273Z</time>
      </trkpt>
      <trkpt lat="42.08537" lon="21.61514">
        <ele>569.754251</ele>
        <time>2022-04-13T09:55:35.282Z</time>
      </trkpt>
      <trkpt lat="42.08533" lon="21.615">
        <ele>569.831682</ele>
        <time>2022-04-13T09:55:39.287Z</time>
      </trkpt>
      <trkpt lat="42.08529" lon="21.61486">
        <ele>569.919182</ele>
        <time>2022-04-13T09:55:43.274Z</time>
      </trkpt>
      <trkpt lat="42.08527" lon="21.61472">
        <ele>569.998947</ele>
        <time>2022-04-13T09:55:47.279Z</time>
      </trkpt>
      <trkpt lat="42.08523" lon="21.61458">
        <ele>570.078647</ele>
        <time>2022-04-13T09:55:51.288Z</time>
      </trkpt>
      <trkpt lat="42.0852" lon="21.61445">
        <ele>570.165707</ele>
        <time>2022-04-13T09:55:55.282Z</time>
      </trkpt>
      <trkpt lat="42.08517" lon="21.61432">
        <ele>570.365024</ele>
        <time>2022-04-13T09:55:59.278Z</time>
      </trkpt>
      <trkpt lat="42.08513" lon="21.61417">
        <ele>570.579644</ele>
        <time>2022-04-13T09:56:03.275Z</time>
      </trkpt>
      <trkpt lat="42.08509" lon="21.61404">
        <ele>570.786185</ele>
        <time>2022-04-13T09:56:07.284Z</time>
      </trkpt>
      <trkpt lat="42.08506" lon="21.6139">
        <ele>570.986477</ele>
        <time>2022-04-13T09:56:11.274Z</time>
      </trkpt>
      <trkpt lat="42.08503" lon="21.61377">
        <ele>571.188491</ele>
        <time>2022-04-13T09:56:15.284Z</time>
      </trkpt>
      <trkpt lat="42.085" lon="21.61363">
        <ele>571.398691</ele>
        <time>2022-04-13T09:56:19.281Z</time>
      </trkpt>
      <trkpt lat="42.08497" lon="21.61349">
        <ele>571.605538</ele>
        <time>2022-04-13T09:56:23.276Z</time>
      </trkpt>
      <trkpt lat="42.08494" lon="21.61337">
        <ele>571.78479</ele>
        <time>2022-04-13T09:56:27.290Z</time>
      </trkpt>
      <trkpt lat="42.0849" lon="21.61323">
        <ele>571.994757</ele>
        <time>2022-04-13T09:56:31.278Z</time>
      </trkpt>
      <trkpt lat="42.08487" lon="21.61309">
        <ele>572.198003</ele>
        <time>2022-04-13T09:56:35.287Z</time>
      </trkpt>
      <trkpt lat="42.08483" lon="21.61295">
        <ele>572.408591</ele>
        <time>2022-04-13T09:56:39.286Z</time>
      </trkpt>
      <trkpt lat="42.0848" lon="21.61282">
        <ele>572.608662</ele>
        <time>2022-04-13T09:56:43.279Z</time>
      </trkpt>
      <trkpt lat="42.08477" lon="21.61269">
        <ele>572.801597</ele>
        <time>2022-04-13T09:56:47.285Z</time>
      </trkpt>
      <trkpt lat="42.08474" lon="21.61255">
        <ele>573.002447</ele>
        <time>2022-04-13T09:56:51.279Z</time>
      </trkpt>
      <trkpt lat="42.08471" lon="21.61242">
        <ele>573.192436</ele>
        <time>2022-04-13T09:56:55.274Z</time>
      </trkpt>
      <trkpt lat="42.08468" lon="21.61231">
        <ele>573.370412</ele>
        <time>2022-04-13T09:56:59.280Z</time>
      </trkpt>
      <trkpt lat="42.08466" lon="21.61218">
        <ele>573.563286</ele>
        <time>2022-04-13T09:57:03.283Z</time>
      </trkpt>
      <trkpt lat="42.08463" lon="21.61204">
        <ele>573.76445</ele>
        <time>2022-04-13T09:57:07.281Z</time>
      </trkpt>
      <trkpt lat="42.08459" lon="21.61191">
        <ele>573.966333</ele>
        <time>2022-04-13T09:57:11.289Z</time>
      </trkpt>
      <trkpt lat="42.08457" lon="21.61177">
        <ele>574.161207</ele>
        <time>2022-04-13T09:57:15.281Z</time>
      </trkpt>
      <trkpt lat="42.08454" lon="21.61165">
        <ele>574.349939</ele>
        <time>2022-04-13T09:57:19.272Z</time>
      </trkpt>
      <trkpt lat="42.08451" lon="21.61153">
        <ele>574.524419</ele>
        <time>2022-04-13T09:57:23.282Z</time>
      </trkpt>
      <trkpt lat="42.08448" lon="21.61141">
        <ele>574.707158</ele>
        <time>2022-04-13T09:57:27.283Z</time>
      </trkpt>
      <trkpt lat="42.08445" lon="21.61128">
        <ele>574.89917</ele>
        <time>2022-04-13T09:57:31.282Z</time>
      </trkpt>
      <trkpt lat="42.08442" lon="21.61115">
        <ele>575.087664</ele>
        <time>2022-04-13T09:57:35.283Z</time>
      </trkpt>
      <trkpt lat="42.0844" lon="21.61102">
        <ele>575.277755</ele>
        <time>2022-04-13T09:57:39.303Z</time>
      </trkpt>
      <trkpt lat="42.08436" lon="21.6109">
        <ele>575.464862</ele>
        <time>2022-04-13T09:57:43.288Z</time>
      </trkpt>
      <trkpt lat="42.08433" lon="21.61076">
        <ele>575.662963</ele>
        <time>2022-04-13T09:57:47.280Z</time>
      </trkpt>
      <trkpt lat="42.08431" lon="21.61063">
        <ele>575.856595</ele>
        <time>2022-04-13T09:57:51.292Z</time>
      </trkpt>
      <trkpt lat="42.08426" lon="21.6105">
        <ele>576.062651</ele>
        <time>2022-04-13T09:57:55.279Z</time>
      </trkpt>
      <trkpt lat="42.08423" lon="21.61037">
        <ele>576.265765</ele>
        <time>2022-04-13T09:57:59.286Z</time>
      </trkpt>
      <trkpt lat="42.0842" lon="21.61022">
        <ele>576.475829</ele>
        <time>2022-04-13T09:58:03.284Z</time>
      </trkpt>
      <trkpt lat="42.08417" lon="21.61009">
        <ele>576.677905</ele>
        <time>2022-04-13T09:58:07.292Z</time>
      </trkpt>
      <trkpt lat="42.08413" lon="21.60996">
        <ele>576.872402</ele>
        <time>2022-04-13T09:58:11.278Z</time>
      </trkpt>
      <trkpt lat="42.0841" lon="21.60983">
        <ele>577.098463</ele>
        <time>2022-04-13T09:58:15.286Z</time>
      </trkpt>
      <trkpt lat="42.08407" lon="21.6097">
        <ele>577.522557</ele>
        <time>2022-04-13T09:58:19.276Z</time>
      </trkpt>
      <trkpt lat="42.08405" lon="21.60957">
        <ele>577.918035</ele>
        <time>2022-04-13T09:58:23.283Z</time>
      </trkpt>
      <trkpt lat="42.08401" lon="21.60944">
        <ele>578.342724</ele>
        <time>2022-04-13T09:58:27.281Z</time>
      </trkpt>
      <trkpt lat="42.08398" lon="21.60931">
        <ele>578.765764</ele>
        <time>2022-04-13T09:58:31.274Z</time>
      </trkpt>
      <trkpt lat="42.08395" lon="21.60918">
        <ele>579.186327</ele>
        <time>2022-04-13T09:58:35.285Z</time>
      </trkpt>
      <trkpt lat="42.08391" lon="21.60904">
        <ele>579.627656</ele>
        <time>2022-04-13T09:58:39.279Z</time>
      </trkpt>
      <trkpt lat="42.08388" lon="21.6089">
        <ele>580.067736</ele>
        <time>2022-04-13T09:58:43.282Z</time>
      </trkpt>
      <trkpt lat="42.08384" lon="21.60876">
        <ele>580.534852</ele>
        <time>2022-04-13T09:58:47.286Z</time>
      </trkpt>
      <trkpt lat="42.0838" lon="21.60861">
        <ele>581.013304</ele>
        <time>2022-04-13T09:58:51.286Z</time>
      </trkpt>
      <trkpt lat="42.08377" lon="21.60847">
        <ele>581.474662</ele>
        <time>2022-04-13T09:58:55.278Z</time>
      </trkpt>
      <trkpt lat="42.08372" lon="21.60834">
        <ele>581.921568</ele>
        <time>2022-04-13T09:58:59.278Z</time>
      </trkpt>
      <trkpt lat="42.08368" lon="21.60821">
        <ele>582.347134</ele>
        <time>2022-04-13T09:59:03.279Z</time>
      </trkpt>
      <trkpt lat="42.08366" lon="21.60807">
        <ele>582.782849</ele>
        <time>2022-04-13T09:59:07.280Z</time>
      </trkpt>
      <trkpt lat="42.08364" lon="21.60793">
        <ele>583.220964</ele>
        <time>2022-04-13T09:59:11.286Z</time>
      </trkpt>
      <trkpt lat="42.08361" lon="21.60779">
        <ele>583.649799</ele>
        <time>2022-04-13T09:59:15.288Z</time>
      </trkpt>
      <trkpt lat="42.08358" lon="21.60766">
        <ele>584.064542</ele>
        <time>2022-04-13T09:59:19.278Z</time>
      </trkpt>
      <trkpt lat="42.08355" lon="21.60753">
        <ele>584.435962</ele>
        <time>2022-04-13T09:59:23.280Z</time>
      </trkpt>
      <trkpt lat="42.08352" lon="21.60738">
        <ele>584.583096</ele>
        <time>2022-04-13T09:59:28.275Z</time>
      </trkpt>
      <trkpt lat="42.08348" lon="21.60724">
        <ele>584.723071</ele>
        <time>2022-04-13T09:59:32.278Z</time>
      </trkpt>
      <trkpt lat="42.08345" lon="21.60711">
        <ele>584.8551</ele>
        <time>2022-04-13T09:59:36.280Z</time>
      </trkpt>
      <trkpt lat="42.08342" lon="21.60698">
        <ele>584.985588</ele>
        <time>2022-04-13T09:59:40.276Z</time>
      </trkpt>
      <trkpt lat="42.08339" lon="21.60685">
        <ele>585.11592</ele>
        <time>2022-04-13T09:59:44.304Z</time>
      </trkpt>
      <trkpt lat="42.08336" lon="21.60672">
        <ele>585.24423</ele>
        <time>2022-04-13T09:59:48.279Z</time>
      </trkpt>
      <trkpt lat="42.08333" lon="21.60658">
        <ele>585.380899</ele>
        <time>2022-04-13T09:59:52.275Z</time>
      </trkpt>
      <trkpt lat="42.08329" lon="21.60644">
        <ele>585.517428</ele>
        <time>2022-04-13T09:59:56.305Z</time>
      </trkpt>
      <trkpt lat="42.08326" lon="21.6063">
        <ele>585.656822</ele>
        <time>2022-04-13T10:00:00.281Z</time>
      </trkpt>
      <trkpt lat="42.08323" lon="21.60617">
        <ele>585.791475</ele>
        <time>2022-04-13T10:00:04.278Z</time>
      </trkpt>
      <trkpt lat="42.08319" lon="21.60604">
        <ele>585.922567</ele>
        <time>2022-04-13T10:00:08.309Z</time>
      </trkpt>
      <trkpt lat="42.08316" lon="21.60591">
        <ele>586.053803</ele>
        <time>2022-04-13T10:00:12.285Z</time>
      </trkpt>
      <trkpt lat="42.08312" lon="21.60577">
        <ele>586.187551</ele>
        <time>2022-04-13T10:00:16.279Z</time>
      </trkpt>
      <trkpt lat="42.08309" lon="21.60564">
        <ele>586.316223</ele>
        <time>2022-04-13T10:00:20.278Z</time>
      </trkpt>
      <trkpt lat="42.08307" lon="21.60552">
        <ele>586.443623</ele>
        <time>2022-04-13T10:00:24.286Z</time>
      </trkpt>
      <trkpt lat="42.08304" lon="21.60538">
        <ele>586.574112</ele>
        <time>2022-04-13T10:00:28.281Z</time>
      </trkpt>
      <trkpt lat="42.08301" lon="21.60525">
        <ele>586.709508</ele>
        <time>2022-04-13T10:00:32.276Z</time>
      </trkpt>
      <trkpt lat="42.08298" lon="21.60511">
        <ele>586.873434</ele>
        <time>2022-04-13T10:00:36.271Z</time>
      </trkpt>
      <trkpt lat="42.08294" lon="21.60498">
        <ele>587.040203</ele>
        <time>2022-04-13T10:00:40.279Z</time>
      </trkpt>
      <trkpt lat="42.08291" lon="21.60485">
        <ele>587.200182</ele>
        <time>2022-04-13T10:00:44.275Z</time>
      </trkpt>
      <trkpt lat="42.08287" lon="21.60472">
        <ele>587.364605</ele>
        <time>2022-04-13T10:00:48.278Z</time>
      </trkpt>
      <trkpt lat="42.08285" lon="21.60458">
        <ele>587.531009</ele>
        <time>2022-04-13T10:00:52.301Z</time>
      </trkpt>
      <trkpt lat="42.08281" lon="21.60444">
        <ele>587.702569</ele>
        <time>2022-04-13T10:00:56.274Z</time>
      </trkpt>
      <trkpt lat="42.08278" lon="21.6043">
        <ele>587.874493</ele>
        <time>2022-04-13T10:01:00.277Z</time>
      </trkpt>
      <trkpt lat="42.08276" lon="21.60417">
        <ele>588.040512</ele>
        <time>2022-04-13T10:01:04.303Z</time>
      </trkpt>
      <trkpt lat="42.08273" lon="21.60403">
        <ele>588.211989</ele>
        <time>2022-04-13T10:01:08.287Z</time>
      </trkpt>
      <trkpt lat="42.08269" lon="21.60388">
        <ele>588.388692</ele>
        <time>2022-04-13T10:01:12.275Z</time>
      </trkpt>
      <trkpt lat="42.08266" lon="21.60376">
        <ele>588.546461</ele>
        <time>2022-04-13T10:01:16.316Z</time>
      </trkpt>
      <trkpt lat="42.08263" lon="21.60364">
        <ele>588.697702</ele>
        <time>2022-04-13T10:01:20.280Z</time>
      </trkpt>
      <trkpt lat="42.0826" lon="21.60351">
        <ele>588.853911</ele>
        <time>2022-04-13T10:01:24.278Z</time>
      </trkpt>
      <trkpt lat="42.08257" lon="21.60338">
        <ele>589.012348</ele>
        <time>2022-04-13T10:01:28.274Z</time>
      </trkpt>
      <trkpt lat="42.08254" lon="21.60325">
        <ele>589.170118</ele>
        <time>2022-04-13T10:01:32.292Z</time>
      </trkpt>
      <trkpt lat="42.08249" lon="21.60313">
        <ele>589.332247</ele>
        <time>2022-04-13T10:01:36.287Z</time>
      </trkpt>
      <trkpt lat="42.08246" lon="21.60301">
        <ele>589.487839</ele>
        <time>2022-04-13T10:01:40.289Z</time>
      </trkpt>
      <trkpt lat="42.08242" lon="21.60288">
        <ele>589.727697</ele>
        <time>2022-04-13T10:01:44.310Z</time>
      </trkpt>
      <trkpt lat="42.08238" lon="21.60276">
        <ele>590.048744</ele>
        <time>2022-04-13T10:01:48.285Z</time>
      </trkpt>
      <trkpt lat="42.08234" lon="21.60264">
        <ele>590.351865</ele>
        <time>2022-04-13T10:01:52.277Z</time>
      </trkpt>
      <trkpt lat="42.0823" lon="21.60253">
        <ele>590.65437</ele>
        <time>2022-04-13T10:01:56.283Z</time>
      </trkpt>
      <trkpt lat="42.08226" lon="21.60242">
        <ele>590.941946</ele>
        <time>2022-04-13T10:02:00.282Z</time>
      </trkpt>
      <trkpt lat="42.08221" lon="21.60229">
        <ele>591.28705</ele>
        <time>2022-04-13T10:02:05.290Z</time>
      </trkpt>
      <trkpt lat="42.08216" lon="21.60216">
        <ele>591.636102</ele>
        <time>2022-04-13T10:02:10.282Z</time>
      </trkpt>
      <trkpt lat="42.08211" lon="21.60205">
        <ele>591.923874</ele>
        <time>2022-04-13T10:02:14.270Z</time>
      </trkpt>
      <trkpt lat="42.08206" lon="21.60192">
        <ele>592.279827</ele>
        <time>2022-04-13T10:02:19.274Z</time>
      </trkpt>
      <trkpt lat="42.08201" lon="21.60181">
        <ele>592.578954</ele>
        <time>2022-04-13T10:02:23.271Z</time>
      </trkpt>
      <trkpt lat="42.08196" lon="21.60169">
        <ele>592.896206</ele>
        <time>2022-04-13T10:02:27.284Z</time>
      </trkpt>
      <trkpt lat="42.08193" lon="21.60156">
        <ele>593.234602</ele>
        <time>2022-04-13T10:02:32.284Z</time>
      </trkpt>
      <trkpt lat="42.08189" lon="21.60145">
        <ele>593.522374</ele>
        <time>2022-04-13T10:02:36.286Z</time>
      </trkpt>
      <trkpt lat="42.08184" lon="21.60132">
        <ele>593.863657</ele>
        <time>2022-04-13T10:02:41.283Z</time>
      </trkpt>
      <trkpt lat="42.0818" lon="21.6012">
        <ele>594.164835</ele>
        <time>2022-04-13T10:02:45.271Z</time>
      </trkpt>
      <trkpt lat="42.08176" lon="21.60108">
        <ele>594.48636</ele>
        <time>2022-04-13T10:02:49.286Z</time>
      </trkpt>
      <trkpt lat="42.08171" lon="21.60097">
        <ele>594.787566</ele>
        <time>2022-04-13T10:02:53.284Z</time>
      </trkpt>
      <trkpt lat="42.08167" lon="21.60086">
        <ele>595.078025</ele>
        <time>2022-04-13T10:02:57.283Z</time>
      </trkpt>
      <trkpt lat="42.08163" lon="21.60075">
        <ele>595.377076</ele>
        <time>2022-04-13T10:03:01.279Z</time>
      </trkpt>
      <trkpt lat="42.08159" lon="21.60064">
        <ele>595.696728</ele>
        <time>2022-04-13T10:03:05.280Z</time>
      </trkpt>
      <trkpt lat="42.08154" lon="21.60051">
        <ele>596.076197</ele>
        <time>2022-04-13T10:03:10.303Z</time>
      </trkpt>
      <trkpt lat="42.0815" lon="21.60038">
        <ele>596.444638</ele>
        <time>2022-04-13T10:03:15.289Z</time>
      </trkpt>
      <trkpt lat="42.08145" lon="21.60028">
        <ele>596.773755</ele>
        <time>2022-04-13T10:03:19.286Z</time>
      </trkpt>
      <trkpt lat="42.0814" lon="21.60015">
        <ele>597.157809</ele>
        <time>2022-04-13T10:03:24.279Z</time>
      </trkpt>
      <trkpt lat="42.08136" lon="21.60002">
        <ele>597.524767</ele>
        <time>2022-04-13T10:03:29.279Z</time>
      </trkpt>
      <trkpt lat="42.08132" lon="21.59988">
        <ele>597.906891</ele>
        <time>2022-04-13T10:03:34.287Z</time>
      </trkpt>
      <trkpt lat="42.08127" lon="21.59978">
        <ele>598.238973</ele>
        <time>2022-04-13T10:03:38.281Z</time>
      </trkpt>
      <trkpt lat="42.08121" lon="21.59966">
        <ele>598.617001</ele>
        <time>2022-04-13T10:03:43.283Z</time>
      </trkpt>
      <trkpt lat="42.08116" lon="21.59953">
        <ele>598.997136</ele>
        <time>2022-04-13T10:03:48.280Z</time>
      </trkpt>
      <trkpt lat="42.08112" lon="21.59941">
        <ele>599.337256</ele>
        <time>2022-04-13T10:03:52.281Z</time>
      </trkpt>
      <trkpt lat="42.08107" lon="21.5993">
        <ele>599.67606</ele>
        <time>2022-04-13T10:03:56.284Z</time>
      </trkpt>
      <trkpt lat="42.08103" lon="21.59919">
        <ele>600.003402</ele>
        <time>2022-04-13T10:04:00.286Z</time>
      </trkpt>
      <trkpt lat="42.08098" lon="21.59909">
        <ele>600.32535</ele>
        <time>2022-04-13T10:04:04.286Z</time>
      </trkpt>
      <trkpt lat="42.08092" lon="21.59898">
        <ele>600.684213</ele>
        <time>2022-04-13T10:04:08.280Z</time>
      </trkpt>
      <trkpt lat="42.08085" lon="21.59889">
        <ele>601.020033</ele>
        <time>2022-04-13T10:04:12.278Z</time>
      </trkpt>
      <trkpt lat="42.08079" lon="21.5988">
        <ele>601.338059</ele>
        <time>2022-04-13T10:04:16.288Z</time>
      </trkpt>
      <trkpt lat="42.08073" lon="21.5987">
        <ele>601.668288</ele>
        <time>2022-04-13T10:04:20.284Z</time>
      </trkpt>
      <trkpt lat="42.08066" lon="21.59862">
        <ele>601.539176</ele>
        <time>2022-04-13T10:04:24.284Z</time>
      </trkpt>
      <trkpt lat="42.08059" lon="21.59854">
        <ele>601.400919</ele>
        <time>2022-04-13T10:04:28.276Z</time>
      </trkpt>
      <trkpt lat="42.08051" lon="21.59845">
        <ele>601.250136</ele>
        <time>2022-04-13T10:04:32.314Z</time>
      </trkpt>
      <trkpt lat="42.08041" lon="21.59836">
        <ele>601.088523</ele>
        <time>2022-04-13T10:04:36.280Z</time>
      </trkpt>
      <trkpt lat="42.08031" lon="21.59828">
        <ele>600.925773</ele>
        <time>2022-04-13T10:04:40.286Z</time>
      </trkpt>
      <trkpt lat="42.08023" lon="21.59823">
        <ele>600.798678</ele>
        <time>2022-04-13T10:04:43.292Z</time>
      </trkpt>
      <trkpt lat="42.08015" lon="21.59816">
        <ele>600.658448</ele>
        <time>2022-04-13T10:04:46.282Z</time>
      </trkpt>
      <trkpt lat="42.08006" lon="21.59809">
        <ele>600.518386</ele>
        <time>2022-04-13T10:04:49.278Z</time>
      </trkpt>
      <trkpt lat="42.07996" lon="21.59803">
        <ele>600.366271</ele>
        <time>2022-04-13T10:04:52.276Z</time>
      </trkpt>
      <trkpt lat="42.07986" lon="21.59797">
        <ele>600.207279</ele>
        <time>2022-04-13T10:04:55.294Z</time>
      </trkpt>
      <trkpt lat="42.07976" lon="21.59791">
        <ele>600.055151</ele>
        <time>2022-04-13T10:04:58.285Z</time>
      </trkpt>
      <trkpt lat="42.07966" lon="21.59786">
        <ele>599.905919</ele>
        <time>2022-04-13T10:05:01.288Z</time>
      </trkpt>
      <trkpt lat="42.07957" lon="21.59782">
        <ele>599.758883</ele>
        <time>2022-04-13T10:05:04.273Z</time>
      </trkpt>
      <trkpt lat="42.07948" lon="21.59777">
        <ele>599.624455</ele>
        <time>2022-04-13T10:05:07.286Z</time>
      </trkpt>
      <trkpt lat="42.07939" lon="21.59771">
        <ele>599.482645</ele>
        <time>2022-04-13T10:05:10.277Z</time>
      </trkpt>
      <trkpt lat="42.07929" lon="21.59765">
        <ele>599.326251</ele>
        <time>2022-04-13T10:05:13.285Z</time>
      </trkpt>
      <trkpt lat="42.07919" lon="21.59759">
        <ele>599.177595</ele>
        <time>2022-04-13T10:05:16.278Z</time>
      </trkpt>
      <trkpt lat="42.07911" lon="21.59753">
        <ele>599.138647</ele>
        <time>2022-04-13T10:05:19.320Z</time>
      </trkpt>
      <trkpt lat="42.07903" lon="21.59748">
        <ele>599.169844</ele>
        <time>2022-04-13T10:05:22.284Z</time>
      </trkpt>
      <trkpt lat="42.07892" lon="21.59743">
        <ele>599.207279</ele>
        <time>2022-04-13T10:05:26.286Z</time>
      </trkpt>
      <trkpt lat="42.07882" lon="21.59738">
        <ele>599.242433</ele>
        <time>2022-04-13T10:05:30.306Z</time>
      </trkpt>
      <trkpt lat="42.07873" lon="21.59732">
        <ele>599.277553</ele>
        <time>2022-04-13T10:05:34.276Z</time>
      </trkpt>
      <trkpt lat="42.07865" lon="21.59727">
        <ele>599.308632</ele>
        <time>2022-04-13T10:05:38.279Z</time>
      </trkpt>
      <trkpt lat="42.07856" lon="21.59723">
        <ele>599.340972</ele>
        <time>2022-04-13T10:05:42.282Z</time>
      </trkpt>
      <trkpt lat="42.07847" lon="21.59718">
        <ele>599.372875</ele>
        <time>2022-04-13T10:05:46.280Z</time>
      </trkpt>
      <trkpt lat="42.07839" lon="21.59713">
        <ele>599.404158</ele>
        <time>2022-04-13T10:05:50.280Z</time>
      </trkpt>
      <trkpt lat="42.0783" lon="21.59708">
        <ele>599.43555</ele>
        <time>2022-04-13T10:05:54.279Z</time>
      </trkpt>
      <trkpt lat="42.0782" lon="21.59701">
        <ele>599.472418</ele>
        <time>2022-04-13T10:05:58.278Z</time>
      </trkpt>
      <trkpt lat="42.07811" lon="21.59695">
        <ele>599.509361</ele>
        <time>2022-04-13T10:06:02.280Z</time>
      </trkpt>
      <trkpt lat="42.07801" lon="21.59688">
        <ele>599.547023</ele>
        <time>2022-04-13T10:06:06.274Z</time>
      </trkpt>
      <trkpt lat="42.07791" lon="21.59681">
        <ele>599.585359</ele>
        <time>2022-04-13T10:06:10.281Z</time>
      </trkpt>
      <trkpt lat="42.07781" lon="21.59674">
        <ele>599.621311</ele>
        <time>2022-04-13T10:06:14.279Z</time>
      </trkpt>
      <trkpt lat="42.07771" lon="21.59669">
        <ele>599.657933</ele>
        <time>2022-04-13T10:06:18.274Z</time>
      </trkpt>
      <trkpt lat="42.0776" lon="21.59665">
        <ele>599.697545</ele>
        <time>2022-04-13T10:06:22.300Z</time>
      </trkpt>
      <trkpt lat="42.07749" lon="21.59663">
        <ele>599.74328</ele>
        <time>2022-04-13T10:06:26.279Z</time>
      </trkpt>
      <trkpt lat="42.0774" lon="21.59662">
        <ele>599.812785</ele>
        <time>2022-04-13T10:06:29.286Z</time>
      </trkpt>
      <trkpt lat="42.07729" lon="21.59661">
        <ele>599.899218</ele>
        <time>2022-04-13T10:06:33.307Z</time>
      </trkpt>
      <trkpt lat="42.07718" lon="21.59662">
        <ele>599.981008</ele>
        <time>2022-04-13T10:06:37.285Z</time>
      </trkpt>
      <trkpt lat="42.07707" lon="21.59664">
        <ele>600.071108</ele>
        <time>2022-04-13T10:06:41.288Z</time>
      </trkpt>
      <trkpt lat="42.07695" lon="21.59665">
        <ele>600.161208</ele>
        <time>2022-04-13T10:06:45.284Z</time>
      </trkpt>
      <trkpt lat="42.07686" lon="21.59667">
        <ele>600.232706</ele>
        <time>2022-04-13T10:06:48.278Z</time>
      </trkpt>
      <trkpt lat="42.07677" lon="21.59668">
        <ele>600.30315</ele>
        <time>2022-04-13T10:06:51.274Z</time>
      </trkpt>
      <trkpt lat="42.07668" lon="21.59669">
        <ele>600.377309</ele>
        <time>2022-04-13T10:06:54.273Z</time>
      </trkpt>
      <trkpt lat="42.07658" lon="21.59671">
        <ele>600.45568</ele>
        <time>2022-04-13T10:06:57.279Z</time>
      </trkpt>
      <trkpt lat="42.07648" lon="21.59673">
        <ele>600.534824</ele>
        <time>2022-04-13T10:07:00.274Z</time>
      </trkpt>
      <trkpt lat="42.07637" lon="21.59674">
        <ele>600.614742</ele>
        <time>2022-04-13T10:07:03.283Z</time>
      </trkpt>
      <trkpt lat="42.07627" lon="21.59675">
        <ele>600.697527</ele>
        <time>2022-04-13T10:07:06.280Z</time>
      </trkpt>
      <trkpt lat="42.07615" lon="21.59676">
        <ele>600.787988</ele>
        <time>2022-04-13T10:07:09.287Z</time>
      </trkpt>
      <trkpt lat="42.07604" lon="21.59677">
        <ele>600.876083</ele>
        <time>2022-04-13T10:07:12.280Z</time>
      </trkpt>
      <trkpt lat="42.07591" lon="21.59679">
        <ele>600.97443</ele>
        <time>2022-04-13T10:07:15.284Z</time>
      </trkpt>
      <trkpt lat="42.07582" lon="21.59679">
        <ele>601.044557</ele>
        <time>2022-04-13T10:07:17.282Z</time>
      </trkpt>
      <trkpt lat="42.07569" lon="21.5968">
        <ele>601.136052</ele>
        <time>2022-04-13T10:07:20.277Z</time>
      </trkpt>
      <trkpt lat="42.07557" lon="21.59681">
        <ele>601.162782</ele>
        <time>2022-04-13T10:07:23.284Z</time>
      </trkpt>
      <trkpt lat="42.07545" lon="21.59681">
        <ele>601.187082</ele>
        <time>2022-04-13T10:07:26.278Z</time>
      </trkpt>
      <trkpt lat="42.07533" lon="21.59682">
        <ele>601.212908</ele>
        <time>2022-04-13T10:07:29.272Z</time>
      </trkpt>
      <trkpt lat="42.07522" lon="21.59682">
        <ele>601.238071</ele>
        <time>2022-04-13T10:07:32.279Z</time>
      </trkpt>
      <trkpt lat="42.0751" lon="21.59682">
        <ele>601.263893</ele>
        <time>2022-04-13T10:07:35.282Z</time>
      </trkpt>
      <trkpt lat="42.07498" lon="21.59682">
        <ele>601.289491</ele>
        <time>2022-04-13T10:07:38.279Z</time>
      </trkpt>
      <trkpt lat="42.07486" lon="21.59683">
        <ele>601.315313</ele>
        <time>2022-04-13T10:07:41.288Z</time>
      </trkpt>
      <trkpt lat="42.07474" lon="21.59683">
        <ele>601.341134</ele>
        <time>2022-04-13T10:07:44.277Z</time>
      </trkpt>
      <trkpt lat="42.07462" lon="21.59684">
        <ele>601.367622</ele>
        <time>2022-04-13T10:07:47.286Z</time>
      </trkpt>
      <trkpt lat="42.07449" lon="21.59684">
        <ele>601.395188</ele>
        <time>2022-04-13T10:07:50.277Z</time>
      </trkpt>
      <trkpt lat="42.07437" lon="21.59685">
        <ele>601.422532</ele>
        <time>2022-04-13T10:07:53.279Z</time>
      </trkpt>
      <trkpt lat="42.07423" lon="21.59686">
        <ele>601.451653</ele>
        <time>2022-04-13T10:07:56.273Z</time>
      </trkpt>
      <trkpt lat="42.0741" lon="21.59686">
        <ele>601.480294</ele>
        <time>2022-04-13T10:07:59.317Z</time>
      </trkpt>
      <trkpt lat="42.07401" lon="21.59686">
        <ele>601.500251</ele>
        <time>2022-04-13T10:08:01.279Z</time>
      </trkpt>
      <trkpt lat="42.07391" lon="21.59686">
        <ele>601.515769</ele>
        <time>2022-04-13T10:08:03.322Z</time>
      </trkpt>
      <trkpt lat="42.07381" lon="21.59687">
        <ele>601.316788</ele>
        <time>2022-04-13T10:08:05.281Z</time>
      </trkpt>
      <trkpt lat="42.07371" lon="21.59688">
        <ele>601.121787</ele>
        <time>2022-04-13T10:08:07.281Z</time>
      </trkpt>
      <trkpt lat="42.0736" lon="21.59688">
        <ele>600.920879</ele>
        <time>2022-04-13T10:08:09.278Z</time>
      </trkpt>
      <trkpt lat="42.0735" lon="21.59689">
        <ele>600.72014</ele>
        <time>2022-04-13T10:08:11.282Z</time>
      </trkpt>
      <trkpt lat="42.0734" lon="21.59689">
        <ele>600.521407</ele>
        <time>2022-04-13T10:08:13.287Z</time>
      </trkpt>
      <trkpt lat="42.07329" lon="21.59689">
        <ele>600.318739</ele>
        <time>2022-04-13T10:08:15.282Z</time>
      </trkpt>
      <trkpt lat="42.07319" lon="21.5969">
        <ele>600.117954</ele>
        <time>2022-04-13T10:08:17.286Z</time>
      </trkpt>
      <trkpt lat="42.07309" lon="21.5969">
        <ele>599.919143</ele>
        <time>2022-04-13T10:08:19.278Z</time>
      </trkpt>
      <trkpt lat="42.07298" lon="21.5969">
        <ele>599.716536</ele>
        <time>2022-04-13T10:08:21.287Z</time>
      </trkpt>
      <trkpt lat="42.07287" lon="21.59691">
        <ele>599.498439</ele>
        <time>2022-04-13T10:08:23.288Z</time>
      </trkpt>
      <trkpt lat="42.07275" lon="21.5969">
        <ele>599.280299</ele>
        <time>2022-04-13T10:08:25.285Z</time>
      </trkpt>
      <trkpt lat="42.07265" lon="21.59689">
        <ele>599.073358</ele>
        <time>2022-04-13T10:08:27.283Z</time>
      </trkpt>
      <trkpt lat="42.07254" lon="21.59688">
        <ele>598.869781</ele>
        <time>2022-04-13T10:08:29.276Z</time>
      </trkpt>
      <trkpt lat="42.07244" lon="21.59686">
        <ele>598.665902</ele>
        <time>2022-04-13T10:08:31.275Z</time>
      </trkpt>
      <trkpt lat="42.07234" lon="21.59684">
        <ele>598.472963</ele>
        <time>2022-04-13T10:08:33.288Z</time>
      </trkpt>
      <trkpt lat="42.07224" lon="21.59683">
        <ele>598.288243</ele>
        <time>2022-04-13T10:08:35.284Z</time>
      </trkpt>
      <trkpt lat="42.07215" lon="21.59681">
        <ele>598.109443</ele>
        <time>2022-04-13T10:08:37.278Z</time>
      </trkpt>
      <trkpt lat="42.07206" lon="21.5968">
        <ele>597.963175</ele>
        <time>2022-04-13T10:08:39.295Z</time>
      </trkpt>
      <trkpt lat="42.07196" lon="21.59678">
        <ele>597.831296</ele>
        <time>2022-04-13T10:08:41.281Z</time>
      </trkpt>
      <trkpt lat="42.07187" lon="21.59677">
        <ele>597.708656</ele>
        <time>2022-04-13T10:08:43.283Z</time>
      </trkpt>
      <trkpt lat="42.07177" lon="21.59676">
        <ele>597.583007</ele>
        <time>2022-04-13T10:08:45.280Z</time>
      </trkpt>
      <trkpt lat="42.07165" lon="21.59673">
        <ele>597.411527</ele>
        <time>2022-04-13T10:08:48.305Z</time>
      </trkpt>
      <trkpt lat="42.07153" lon="21.59671">
        <ele>597.251593</ele>
        <time>2022-04-13T10:08:51.323Z</time>
      </trkpt>
      <trkpt lat="42.07142" lon="21.5967">
        <ele>597.102431</ele>
        <time>2022-04-13T10:08:54.300Z</time>
      </trkpt>
      <trkpt lat="42.07132" lon="21.59668">
        <ele>596.970133</ele>
        <time>2022-04-13T10:08:57.290Z</time>
      </trkpt>
      <trkpt lat="42.07122" lon="21.59666">
        <ele>596.836077</ele>
        <time>2022-04-13T10:09:00.307Z</time>
      </trkpt>
      <trkpt lat="42.07112" lon="21.59665">
        <ele>596.693597</ele>
        <time>2022-04-13T10:09:03.314Z</time>
      </trkpt>
      <trkpt lat="42.071" lon="21.59663">
        <ele>596.53999</ele>
        <time>2022-04-13T10:09:06.281Z</time>
      </trkpt>
      <trkpt lat="42.07087" lon="21.59661">
        <ele>596.364634</ele>
        <time>2022-04-13T10:09:09.282Z</time>
      </trkpt>
      <trkpt lat="42.07078" lon="21.59659">
        <ele>596.236445</ele>
        <time>2022-04-13T10:09:11.313Z</time>
      </trkpt>
      <trkpt lat="42.07068" lon="21.59658">
        <ele>596.099908</ele>
        <time>2022-04-13T10:09:13.280Z</time>
      </trkpt>
      <trkpt lat="42.07057" lon="21.59656">
        <ele>595.95248</ele>
        <time>2022-04-13T10:09:15.284Z</time>
      </trkpt>
      <trkpt lat="42.07045" lon="21.59653">
        <ele>595.798139</ele>
        <time>2022-04-13T10:09:17.276Z</time>
      </trkpt>
      <trkpt lat="42.07034" lon="21.59651">
        <ele>595.645126</ele>
        <time>2022-04-13T10:09:19.289Z</time>
      </trkpt>
      <trkpt lat="42.07023" lon="21.5965">
        <ele>595.816455</ele>
        <time>2022-04-13T10:09:21.284Z</time>
      </trkpt>
      <trkpt lat="42.07012" lon="21.59648">
        <ele>595.991166</ele>
        <time>2022-04-13T10:09:23.275Z</time>
      </trkpt>
      <trkpt lat="42.07002" lon="21.59646">
        <ele>596.161172</ele>
        <time>2022-04-13T10:09:25.282Z</time>
      </trkpt>
      <trkpt lat="42.06992" lon="21.59644">
        <ele>596.322602</ele>
        <time>2022-04-13T10:09:27.324Z</time>
      </trkpt>
      <trkpt lat="42.06982" lon="21.59643">
        <ele>596.487583</ele>
        <time>2022-04-13T10:09:29.284Z</time>
      </trkpt>
      <trkpt lat="42.06973" lon="21.59641">
        <ele>596.646872</ele>
        <time>2022-04-13T10:09:31.279Z</time>
      </trkpt>
      <trkpt lat="42.06963" lon="21.59641">
        <ele>596.797714</ele>
        <time>2022-04-13T10:09:33.279Z</time>
      </trkpt>
      <trkpt lat="42.0695" lon="21.59639">
        <ele>597.014238</ele>
        <time>2022-04-13T10:09:36.283Z</time>
      </trkpt>
      <trkpt lat="42.06938" lon="21.59638">
        <ele>597.217828</ele>
        <time>2022-04-13T10:09:39.286Z</time>
      </trkpt>
      <trkpt lat="42.06926" lon="21.59637">
        <ele>597.409402</ele>
        <time>2022-04-13T10:09:42.286Z</time>
      </trkpt>
      <trkpt lat="42.06915" lon="21.59639">
        <ele>597.593852</ele>
        <time>2022-04-13T10:09:45.282Z</time>
      </trkpt>
      <trkpt lat="42.06902" lon="21.5964">
        <ele>597.799182</ele>
        <time>2022-04-13T10:09:48.279Z</time>
      </trkpt>
      <trkpt lat="42.0689" lon="21.59644">
        <ele>598.001819</ele>
        <time>2022-04-13T10:09:51.290Z</time>
      </trkpt>
      <trkpt lat="42.06878" lon="21.59647">
        <ele>598.211722</ele>
        <time>2022-04-13T10:09:54.282Z</time>
      </trkpt>
      <trkpt lat="42.06865" lon="21.5965">
        <ele>598.415713</ele>
        <time>2022-04-13T10:09:57.274Z</time>
      </trkpt>
      <trkpt lat="42.06852" lon="21.59653">
        <ele>598.530011</ele>
        <time>2022-04-13T10:10:00.277Z</time>
      </trkpt>
      <trkpt lat="42.06843" lon="21.59655">
        <ele>598.384844</ele>
        <time>2022-04-13T10:10:02.321Z</time>
      </trkpt>
      <trkpt lat="42.06834" lon="21.59658">
        <ele>598.235215</ele>
        <time>2022-04-13T10:10:04.281Z</time>
      </trkpt>
      <trkpt lat="42.06825" lon="21.59661">
        <ele>598.085623</ele>
        <time>2022-04-13T10:10:06.276Z</time>
      </trkpt>
      <trkpt lat="42.06816" lon="21.59663">
        <ele>597.933463</ele>
        <time>2022-04-13T10:10:08.273Z</time>
      </trkpt>
      <trkpt lat="42.06806" lon="21.59667">
        <ele>597.770898</ele>
        <time>2022-04-13T10:10:10.288Z</time>
      </trkpt>
      <trkpt lat="42.06796" lon="21.5967">
        <ele>597.60678</ele>
        <time>2022-04-13T10:10:12.274Z</time>
      </trkpt>
      <trkpt lat="42.06785" lon="21.59673">
        <ele>597.435143</ele>
        <time>2022-04-13T10:10:14.276Z</time>
      </trkpt>
      <trkpt lat="42.06774" lon="21.59676">
        <ele>597.255699</ele>
        <time>2022-04-13T10:10:16.275Z</time>
      </trkpt>
      <trkpt lat="42.06763" lon="21.59679">
        <ele>597.070878</ele>
        <time>2022-04-13T10:10:18.301Z</time>
      </trkpt>
      <trkpt lat="42.06751" lon="21.5968">
        <ele>596.881626</ele>
        <time>2022-04-13T10:10:20.276Z</time>
      </trkpt>
      <trkpt lat="42.06739" lon="21.59679">
        <ele>596.692838</ele>
        <time>2022-04-13T10:10:22.280Z</time>
      </trkpt>
      <trkpt lat="42.06728" lon="21.59678">
        <ele>596.506647</ele>
        <time>2022-04-13T10:10:24.304Z</time>
      </trkpt>
      <trkpt lat="42.06716" lon="21.59675">
        <ele>596.310196</ele>
        <time>2022-04-13T10:10:26.282Z</time>
      </trkpt>
      <trkpt lat="42.06704" lon="21.59671">
        <ele>596.114918</ele>
        <time>2022-04-13T10:10:28.276Z</time>
      </trkpt>
      <trkpt lat="42.06691" lon="21.59668">
        <ele>595.904114</ele>
        <time>2022-04-13T10:10:30.302Z</time>
      </trkpt>
      <trkpt lat="42.06677" lon="21.59664">
        <ele>595.654948</ele>
        <time>2022-04-13T10:10:32.280Z</time>
      </trkpt>
      <trkpt lat="42.06663" lon="21.5966">
        <ele>595.222521</ele>
        <time>2022-04-13T10:10:34.277Z</time>
      </trkpt>
      <trkpt lat="42.0665" lon="21.59657">
        <ele>594.801519</ele>
        <time>2022-04-13T10:10:36.275Z</time>
      </trkpt>
      <trkpt lat="42.06636" lon="21.59655">
        <ele>594.376534</ele>
        <time>2022-04-13T10:10:38.275Z</time>
      </trkpt>
      <trkpt lat="42.06623" lon="21.59656">
        <ele>593.96524</ele>
        <time>2022-04-13T10:10:40.270Z</time>
      </trkpt>
      <trkpt lat="42.06611" lon="21.5966">
        <ele>593.561571</ele>
        <time>2022-04-13T10:10:42.271Z</time>
      </trkpt>
      <trkpt lat="42.06599" lon="21.59665">
        <ele>593.18053</ele>
        <time>2022-04-13T10:10:44.283Z</time>
      </trkpt>
      <trkpt lat="42.06588" lon="21.5967">
        <ele>592.832008</ele>
        <time>2022-04-13T10:10:46.282Z</time>
      </trkpt>
      <trkpt lat="42.06578" lon="21.59675">
        <ele>592.481279</ele>
        <time>2022-04-13T10:10:48.276Z</time>
      </trkpt>
      <trkpt lat="42.06567" lon="21.59681">
        <ele>592.121383</ele>
        <time>2022-04-13T10:10:50.278Z</time>
      </trkpt>
      <trkpt lat="42.06556" lon="21.59687">
        <ele>591.762909</ele>
        <time>2022-04-13T10:10:52.274Z</time>
      </trkpt>
      <trkpt lat="42.06545" lon="21.59692">
        <ele>591.392174</ele>
        <time>2022-04-13T10:10:54.281Z</time>
      </trkpt>
      <trkpt lat="42.06533" lon="21.59698">
        <ele>591.001658</ele>
        <time>2022-04-13T10:10:56.274Z</time>
      </trkpt>
      <trkpt lat="42.06521" lon="21.59703">
        <ele>590.613137</ele>
        <time>2022-04-13T10:10:58.273Z</time>
      </trkpt>
      <trkpt lat="42.0651" lon="21.5971">
        <ele>590.216338</ele>
        <time>2022-04-13T10:11:00.286Z</time>
      </trkpt>
      <trkpt lat="42.06497" lon="21.59716">
        <ele>590.123726</ele>
        <time>2022-04-13T10:11:02.280Z</time>
      </trkpt>
      <trkpt lat="42.06483" lon="21.59723">
        <ele>590.135082</ele>
        <time>2022-04-13T10:11:04.277Z</time>
      </trkpt>
      <trkpt lat="42.0647" lon="21.59729">
        <ele>590.146437</ele>
        <time>2022-04-13T10:11:06.282Z</time>
      </trkpt>
      <trkpt lat="42.06455" lon="21.59736">
        <ele>590.158251</ele>
        <time>2022-04-13T10:11:08.271Z</time>
      </trkpt>
      <trkpt lat="42.06441" lon="21.59743">
        <ele>590.16988</ele>
        <time>2022-04-13T10:11:10.274Z</time>
      </trkpt>
      <trkpt lat="42.06427" lon="21.59749">
        <ele>590.181473</ele>
        <time>2022-04-13T10:11:12.276Z</time>
      </trkpt>
      <trkpt lat="42.06413" lon="21.59755">
        <ele>590.192825</ele>
        <time>2022-04-13T10:11:14.300Z</time>
      </trkpt>
      <trkpt lat="42.064" lon="21.59761">
        <ele>590.203663</ele>
        <time>2022-04-13T10:11:16.273Z</time>
      </trkpt>
      <trkpt lat="42.06386" lon="21.59767">
        <ele>590.214926</ele>
        <time>2022-04-13T10:11:18.277Z</time>
      </trkpt>
      <trkpt lat="42.06373" lon="21.59774">
        <ele>590.226038</ele>
        <time>2022-04-13T10:11:20.271Z</time>
      </trkpt>
      <trkpt lat="42.06359" lon="21.5978">
        <ele>590.237003</ele>
        <time>2022-04-13T10:11:22.279Z</time>
      </trkpt>
      <trkpt lat="42.06347" lon="21.59786">
        <ele>590.247477</ele>
        <time>2022-04-13T10:11:24.295Z</time>
      </trkpt>
      <trkpt lat="42.06335" lon="21.59792">
        <ele>590.204661</ele>
        <time>2022-04-13T10:11:26.275Z</time>
      </trkpt>
      <trkpt lat="42.06322" lon="21.59798">
        <ele>589.911799</ele>
        <time>2022-04-13T10:11:28.287Z</time>
      </trkpt>
      <trkpt lat="42.06311" lon="21.59804">
        <ele>589.632887</ele>
        <time>2022-04-13T10:11:30.276Z</time>
      </trkpt>
      <trkpt lat="42.06299" lon="21.59809">
        <ele>589.346019</ele>
        <time>2022-04-13T10:11:32.283Z</time>
      </trkpt>
      <trkpt lat="42.06287" lon="21.59815">
        <ele>589.060805</ele>
        <time>2022-04-13T10:11:34.279Z</time>
      </trkpt>
      <trkpt lat="42.06275" lon="21.5982">
        <ele>588.77881</ele>
        <time>2022-04-13T10:11:36.278Z</time>
      </trkpt>
      <trkpt lat="42.06264" lon="21.59826">
        <ele>588.504744</ele>
        <time>2022-04-13T10:11:38.278Z</time>
      </trkpt>
      <trkpt lat="42.06253" lon="21.59831">
        <ele>588.23455</ele>
        <time>2022-04-13T10:11:40.278Z</time>
      </trkpt>
      <trkpt lat="42.06241" lon="21.59836">
        <ele>587.956868</ele>
        <time>2022-04-13T10:11:42.283Z</time>
      </trkpt>
      <trkpt lat="42.0623" lon="21.59842">
        <ele>587.692158</ele>
        <time>2022-04-13T10:11:44.279Z</time>
      </trkpt>
      <trkpt lat="42.06219" lon="21.59849">
        <ele>587.404137</ele>
        <time>2022-04-13T10:11:46.297Z</time>
      </trkpt>
      <trkpt lat="42.06207" lon="21.59855">
        <ele>587.128524</ele>
        <time>2022-04-13T10:11:48.281Z</time>
      </trkpt>
      <trkpt lat="42.06195" lon="21.59859">
        <ele>586.84341</ele>
        <time>2022-04-13T10:11:50.285Z</time>
      </trkpt>
      <trkpt lat="42.06182" lon="21.59864">
        <ele>586.534607</ele>
        <time>2022-04-13T10:11:52.282Z</time>
      </trkpt>
      <trkpt lat="42.06169" lon="21.5987">
        <ele>586.225176</ele>
        <time>2022-04-13T10:11:54.279Z</time>
      </trkpt>
      <trkpt lat="42.06157" lon="21.59875">
        <ele>585.782411</ele>
        <time>2022-04-13T10:11:56.289Z</time>
      </trkpt>
      <trkpt lat="42.06146" lon="21.59881">
        <ele>585.322644</ele>
        <time>2022-04-13T10:11:58.277Z</time>
      </trkpt>
      <trkpt lat="42.06134" lon="21.59888">
        <ele>584.855528</ele>
        <time>2022-04-13T10:12:00.282Z</time>
      </trkpt>
      <trkpt lat="42.06123" lon="21.59895">
        <ele>584.409899</ele>
        <time>2022-04-13T10:12:02.278Z</time>
      </trkpt>
      <trkpt lat="42.06113" lon="21.59903">
        <ele>583.954185</ele>
        <time>2022-04-13T10:12:04.306Z</time>
      </trkpt>
      <trkpt lat="42.06102" lon="21.59912">
        <ele>583.492857</ele>
        <time>2022-04-13T10:12:06.284Z</time>
      </trkpt>
      <trkpt lat="42.06091" lon="21.5992">
        <ele>583.025127</ele>
        <time>2022-04-13T10:12:08.280Z</time>
      </trkpt>
      <trkpt lat="42.06081" lon="21.59929">
        <ele>582.572087</ele>
        <time>2022-04-13T10:12:10.315Z</time>
      </trkpt>
      <trkpt lat="42.06072" lon="21.59939">
        <ele>582.126339</ele>
        <time>2022-04-13T10:12:12.283Z</time>
      </trkpt>
      <trkpt lat="42.06062" lon="21.59948">
        <ele>581.687099</ele>
        <time>2022-04-13T10:12:14.289Z</time>
      </trkpt>
      <trkpt lat="42.06053" lon="21.59957">
        <ele>581.26621</ele>
        <time>2022-04-13T10:12:16.280Z</time>
      </trkpt>
      <trkpt lat="42.06044" lon="21.59967">
        <ele>580.829747</ele>
        <time>2022-04-13T10:12:18.284Z</time>
      </trkpt>
      <trkpt lat="42.06034" lon="21.59976">
        <ele>580.382905</ele>
        <time>2022-04-13T10:12:20.280Z</time>
      </trkpt>
      <trkpt lat="42.06024" lon="21.59984">
        <ele>579.966886</ele>
        <time>2022-04-13T10:12:22.288Z</time>
      </trkpt>
      <trkpt lat="42.06015" lon="21.59992">
        <ele>579.569516</ele>
        <time>2022-04-13T10:12:24.301Z</time>
      </trkpt>
      <trkpt lat="42.06006" lon="21.59999">
        <ele>578.9481</ele>
        <time>2022-04-13T10:12:26.288Z</time>
      </trkpt>
      <trkpt lat="42.05997" lon="21.60008">
        <ele>578.216123</ele>
        <time>2022-04-13T10:12:28.285Z</time>
      </trkpt>
      <trkpt lat="42.05986" lon="21.60017">
        <ele>577.43119</ele>
        <time>2022-04-13T10:12:30.289Z</time>
      </trkpt>
      <trkpt lat="42.05976" lon="21.60027">
        <ele>576.61723</ele>
        <time>2022-04-13T10:12:32.305Z</time>
      </trkpt>
      <trkpt lat="42.05965" lon="21.60037">
        <ele>575.789702</ele>
        <time>2022-04-13T10:12:34.279Z</time>
      </trkpt>
      <trkpt lat="42.05953" lon="21.60046">
        <ele>574.930113</ele>
        <time>2022-04-13T10:12:36.283Z</time>
      </trkpt>
      <trkpt lat="42.05943" lon="21.60056">
        <ele>574.097716</ele>
        <time>2022-04-13T10:12:38.309Z</time>
      </trkpt>
      <trkpt lat="42.05934" lon="21.60067">
        <ele>573.330892</ele>
        <time>2022-04-13T10:12:40.291Z</time>
      </trkpt>
      <trkpt lat="42.05927" lon="21.60081">
        <ele>572.539458</ele>
        <time>2022-04-13T10:12:42.286Z</time>
      </trkpt>
      <trkpt lat="42.05921" lon="21.60097">
        <ele>571.664169</ele>
        <time>2022-04-13T10:12:44.280Z</time>
      </trkpt>
      <trkpt lat="42.05913" lon="21.60114">
        <ele>570.750214</ele>
        <time>2022-04-13T10:12:46.288Z</time>
      </trkpt>
      <trkpt lat="42.05903" lon="21.60129">
        <ele>569.812747</ele>
        <time>2022-04-13T10:12:48.280Z</time>
      </trkpt>
      <trkpt lat="42.05891" lon="21.60141">
        <ele>568.826741</ele>
        <time>2022-04-13T10:12:50.284Z</time>
      </trkpt>
      <trkpt lat="42.05876" lon="21.6015">
        <ele>567.763678</ele>
        <time>2022-04-13T10:12:52.271Z</time>
      </trkpt>
      <trkpt lat="42.05861" lon="21.60159">
        <ele>566.632731</ele>
        <time>2022-04-13T10:12:54.282Z</time>
      </trkpt>
      <trkpt lat="42.05847" lon="21.60168">
        <ele>565.564751</ele>
        <time>2022-04-13T10:12:56.282Z</time>
      </trkpt>
      <trkpt lat="42.05833" lon="21.60176">
        <ele>564.530339</ele>
        <time>2022-04-13T10:12:58.276Z</time>
      </trkpt>
      <trkpt lat="42.05819" lon="21.60183">
        <ele>563.496978</ele>
        <time>2022-04-13T10:13:00.308Z</time>
      </trkpt>
      <trkpt lat="42.05805" lon="21.60185">
        <ele>562.53754</ele>
        <time>2022-04-13T10:13:02.278Z</time>
      </trkpt>
      <trkpt lat="42.05793" lon="21.60185">
        <ele>561.70942</ele>
        <time>2022-04-13T10:13:04.284Z</time>
      </trkpt>
      <trkpt lat="42.0578" lon="21.60182">
        <ele>560.818418</ele>
        <time>2022-04-13T10:13:06.316Z</time>
      </trkpt>
      <trkpt lat="42.05766" lon="21.60179">
        <ele>559.842726</ele>
        <time>2022-04-13T10:13:08.289Z</time>
      </trkpt>
      <trkpt lat="42.05753" lon="21.60174">
        <ele>558.851345</ele>
        <time>2022-04-13T10:13:10.285Z</time>
      </trkpt>
      <trkpt lat="42.05738" lon="21.60169">
        <ele>557.84363</ele>
        <time>2022-04-13T10:13:12.295Z</time>
      </trkpt>
      <trkpt lat="42.05724" lon="21.60164">
        <ele>556.79335</ele>
        <time>2022-04-13T10:13:14.283Z</time>
      </trkpt>
      <trkpt lat="42.0571" lon="21.60157">
        <ele>555.753488</ele>
        <time>2022-04-13T10:13:16.279Z</time>
      </trkpt>
      <trkpt lat="42.05695" lon="21.6015">
        <ele>555.226251</ele>
        <time>2022-04-13T10:13:18.298Z</time>
      </trkpt>
      <trkpt lat="42.05681" lon="21.60143">
        <ele>554.786547</ele>
        <time>2022-04-13T10:13:20.279Z</time>
      </trkpt>
      <trkpt lat="42.05666" lon="21.60137">
        <ele>554.336696</ele>
        <time>2022-04-13T10:13:22.283Z</time>
      </trkpt>
      <trkpt lat="42.05651" lon="21.60129">
        <ele>553.886134</ele>
        <time>2022-04-13T10:13:24.290Z</time>
      </trkpt>
      <trkpt lat="42.05636" lon="21.60123">
        <ele>553.445046</ele>
        <time>2022-04-13T10:13:26.285Z</time>
      </trkpt>
      <trkpt lat="42.05621" lon="21.60116">
        <ele>553.001271</ele>
        <time>2022-04-13T10:13:28.288Z</time>
      </trkpt>
      <trkpt lat="42.05606" lon="21.60109">
        <ele>552.537837</ele>
        <time>2022-04-13T10:13:30.284Z</time>
      </trkpt>
      <trkpt lat="42.05592" lon="21.60102">
        <ele>552.108925</ele>
        <time>2022-04-13T10:13:32.281Z</time>
      </trkpt>
      <trkpt lat="42.05578" lon="21.60096">
        <ele>551.687458</ele>
        <time>2022-04-13T10:13:34.279Z</time>
      </trkpt>
      <trkpt lat="42.05565" lon="21.60089">
        <ele>551.284112</ele>
        <time>2022-04-13T10:13:36.276Z</time>
      </trkpt>
      <trkpt lat="42.05552" lon="21.60081">
        <ele>550.891236</ele>
        <time>2022-04-13T10:13:38.279Z</time>
      </trkpt>
      <trkpt lat="42.05541" lon="21.60073">
        <ele>550.536261</ele>
        <time>2022-04-13T10:13:40.280Z</time>
      </trkpt>
      <trkpt lat="42.05533" lon="21.60067">
        <ele>550.276996</ele>
        <time>2022-04-13T10:13:42.294Z</time>
      </trkpt>
      <trkpt lat="42.05524" lon="21.60063">
        <ele>549.997118</ele>
        <time>2022-04-13T10:13:45.280Z</time>
      </trkpt>
      <trkpt lat="42.05515" lon="21.60062">
        <ele>549.737237</ele>
        <time>2022-04-13T10:13:49.283Z</time>
      </trkpt>
      <trkpt lat="42.05504" lon="21.60065">
        <ele>549.420141</ele>
        <time>2022-04-13T10:13:54.303Z</time>
      </trkpt>
      <trkpt lat="42.05491" lon="21.60073">
        <ele>549.022736</ele>
        <time>2022-04-13T10:13:57.286Z</time>
      </trkpt>
      <trkpt lat="42.0548" lon="21.6008">
        <ele>548.674762</ele>
        <time>2022-04-13T10:13:59.280Z</time>
      </trkpt>
      <trkpt lat="42.05465" lon="21.60082">
        <ele>548.237011</ele>
        <time>2022-04-13T10:14:01.287Z</time>
      </trkpt>
      <trkpt lat="42.05449" lon="21.60078">
        <ele>547.78334</ele>
        <time>2022-04-13T10:14:03.287Z</time>
      </trkpt>
      <trkpt lat="42.05434" lon="21.60072">
        <ele>547.336104</ele>
        <time>2022-04-13T10:14:05.286Z</time>
      </trkpt>
      <trkpt lat="42.05418" lon="21.60064">
        <ele>546.851484</ele>
        <time>2022-04-13T10:14:07.281Z</time>
      </trkpt>
      <trkpt lat="42.05401" lon="21.60056">
        <ele>546.343573</ele>
        <time>2022-04-13T10:14:09.295Z</time>
      </trkpt>
      <trkpt lat="42.05385" lon="21.60048">
        <ele>545.857041</ele>
        <time>2022-04-13T10:14:11.282Z</time>
      </trkpt>
      <trkpt lat="42.0537" lon="21.60039">
        <ele>545.383035</ele>
        <time>2022-04-13T10:14:13.280Z</time>
      </trkpt>
      <trkpt lat="42.05355" lon="21.60032">
        <ele>544.583616</ele>
        <time>2022-04-13T10:14:15.287Z</time>
      </trkpt>
      <trkpt lat="42.0534" lon="21.60024">
        <ele>543.779615</ele>
        <time>2022-04-13T10:14:17.284Z</time>
      </trkpt>
      <trkpt lat="42.05325" lon="21.60016">
        <ele>542.987846</ele>
        <time>2022-04-13T10:14:19.289Z</time>
      </trkpt>
      <trkpt lat="42.05311" lon="21.60008">
        <ele>542.184328</ele>
        <time>2022-04-13T10:14:21.292Z</time>
      </trkpt>
      <trkpt lat="42.05296" lon="21.59999">
        <ele>541.368817</ele>
        <time>2022-04-13T10:14:23.288Z</time>
      </trkpt>
      <trkpt lat="42.05282" lon="21.5999">
        <ele>540.561977</ele>
        <time>2022-04-13T10:14:25.293Z</time>
      </trkpt>
      <trkpt lat="42.05268" lon="21.5998">
        <ele>539.747206</ele>
        <time>2022-04-13T10:14:27.281Z</time>
      </trkpt>
      <trkpt lat="42.05254" lon="21.5997">
        <ele>538.934523</ele>
        <time>2022-04-13T10:14:29.284Z</time>
      </trkpt>
      <trkpt lat="42.0524" lon="21.59961">
        <ele>538.147573</ele>
        <time>2022-04-13T10:14:31.283Z</time>
      </trkpt>
      <trkpt lat="42.05225" lon="21.59953">
        <ele>537.357165</ele>
        <time>2022-04-13T10:14:33.307Z</time>
      </trkpt>
      <trkpt lat="42.05209" lon="21.59948">
        <ele>536.514655</ele>
        <time>2022-04-13T10:14:35.293Z</time>
      </trkpt>
      <trkpt lat="42.05193" lon="21.59945">
        <ele>535.541518</ele>
        <time>2022-04-13T10:14:37.283Z</time>
      </trkpt>
      <trkpt lat="42.05178" lon="21.59943">
        <ele>534.588498</ele>
        <time>2022-04-13T10:14:39.292Z</time>
      </trkpt>
      <trkpt lat="42.05165" lon="21.59941">
        <ele>533.687093</ele>
        <time>2022-04-13T10:14:41.279Z</time>
      </trkpt>
      <trkpt lat="42.05149" lon="21.59938">
        <ele>532.675475</ele>
        <time>2022-04-13T10:14:43.291Z</time>
      </trkpt>
      <trkpt lat="42.05135" lon="21.59936">
        <ele>531.783211</ele>
        <time>2022-04-13T10:14:45.308Z</time>
      </trkpt>
      <trkpt lat="42.05122" lon="21.59931">
        <ele>530.880536</ele>
        <time>2022-04-13T10:14:47.283Z</time>
      </trkpt>
      <trkpt lat="42.05108" lon="21.59925">
        <ele>529.925473</ele>
        <time>2022-04-13T10:14:49.296Z</time>
      </trkpt>
      <trkpt lat="42.05094" lon="21.59917">
        <ele>528.966209</ele>
        <time>2022-04-13T10:14:51.290Z</time>
      </trkpt>
      <trkpt lat="42.05081" lon="21.59906">
        <ele>527.963723</ele>
        <time>2022-04-13T10:14:53.297Z</time>
      </trkpt>
      <trkpt lat="42.05067" lon="21.59897">
        <ele>526.936727</ele>
        <time>2022-04-13T10:14:55.312Z</time>
      </trkpt>
      <trkpt lat="42.05051" lon="21.59895">
        <ele>525.862267</ele>
        <time>2022-04-13T10:14:57.286Z</time>
      </trkpt>
      <trkpt lat="42.05034" lon="21.599">
        <ele>524.730758</ele>
        <time>2022-04-13T10:14:59.282Z</time>
      </trkpt>
      <trkpt lat="42.05024" lon="21.59904">
        <ele>524.216147</ele>
        <time>2022-04-13T10:15:00.283Z</time>
      </trkpt>
      <trkpt lat="42.05015" lon="21.59908">
        <ele>523.72764</ele>
        <time>2022-04-13T10:15:01.283Z</time>
      </trkpt>
      <trkpt lat="42.05005" lon="21.59912">
        <ele>523.24282</ele>
        <time>2022-04-13T10:15:02.292Z</time>
      </trkpt>
      <trkpt lat="42.04996" lon="21.59916">
        <ele>522.777582</ele>
        <time>2022-04-13T10:15:03.284Z</time>
      </trkpt>
      <trkpt lat="42.04987" lon="21.59919">
        <ele>522.328807</ele>
        <time>2022-04-13T10:15:04.291Z</time>
      </trkpt>
      <trkpt lat="42.0497" lon="21.59919">
        <ele>521.471346</ele>
        <time>2022-04-13T10:15:06.282Z</time>
      </trkpt>
      <trkpt lat="42.04954" lon="21.59913">
        <ele>520.64574</ele>
        <time>2022-04-13T10:15:08.286Z</time>
      </trkpt>
      <trkpt lat="42.04941" lon="21.59904">
        <ele>519.950461</ele>
        <time>2022-04-13T10:15:10.287Z</time>
      </trkpt>
      <trkpt lat="42.04928" lon="21.599">
        <ele>519.301607</ele>
        <time>2022-04-13T10:15:12.280Z</time>
      </trkpt>
      <trkpt lat="42.04913" lon="21.59903">
        <ele>518.567102</ele>
        <time>2022-04-13T10:15:14.283Z</time>
      </trkpt>
      <trkpt lat="42.04899" lon="21.59914">
        <ele>517.78889</ele>
        <time>2022-04-13T10:15:16.278Z</time>
      </trkpt>
      <trkpt lat="42.04888" lon="21.59928">
        <ele>517.026324</ele>
        <time>2022-04-13T10:15:18.282Z</time>
      </trkpt>
      <trkpt lat="42.04876" lon="21.59943">
        <ele>516.255372</ele>
        <time>2022-04-13T10:15:20.287Z</time>
      </trkpt>
      <trkpt lat="42.04862" lon="21.59956">
        <ele>515.408338</ele>
        <time>2022-04-13T10:15:22.304Z</time>
      </trkpt>
      <trkpt lat="42.04846" lon="21.59968">
        <ele>514.433013</ele>
        <time>2022-04-13T10:15:24.289Z</time>
      </trkpt>
      <trkpt lat="42.04837" lon="21.59973">
        <ele>513.920971</ele>
        <time>2022-04-13T10:15:25.288Z</time>
      </trkpt>
      <trkpt lat="42.04828" lon="21.59978">
        <ele>513.399135</ele>
        <time>2022-04-13T10:15:26.288Z</time>
      </trkpt>
      <trkpt lat="42.04818" lon="21.59981">
        <ele>512.87044</ele>
        <time>2022-04-13T10:15:27.284Z</time>
      </trkpt>
      <trkpt lat="42.04809" lon="21.59984">
        <ele>512.35044</ele>
        <time>2022-04-13T10:15:28.280Z</time>
      </trkpt>
      <trkpt lat="42.04799" lon="21.59987">
        <ele>511.8413</ele>
        <time>2022-04-13T10:15:29.283Z</time>
      </trkpt>
      <trkpt lat="42.04791" lon="21.59991">
        <ele>511.361726</ele>
        <time>2022-04-13T10:15:30.287Z</time>
      </trkpt>
      <trkpt lat="42.04775" lon="21.59998">
        <ele>510.478511</ele>
        <time>2022-04-13T10:15:32.280Z</time>
      </trkpt>
      <trkpt lat="42.0476" lon="21.60005">
        <ele>509.660675</ele>
        <time>2022-04-13T10:15:34.286Z</time>
      </trkpt>
      <trkpt lat="42.04747" lon="21.6001">
        <ele>508.927508</ele>
        <time>2022-04-13T10:15:36.279Z</time>
      </trkpt>
      <trkpt lat="42.04734" lon="21.60014">
        <ele>508.200436</ele>
        <time>2022-04-13T10:15:38.310Z</time>
      </trkpt>
      <trkpt lat="42.04719" lon="21.60016">
        <ele>507.418267</ele>
        <time>2022-04-13T10:15:40.280Z</time>
      </trkpt>
      <trkpt lat="42.04704" lon="21.60017">
        <ele>506.616713</ele>
        <time>2022-04-13T10:15:42.288Z</time>
      </trkpt>
      <trkpt lat="42.04687" lon="21.60018">
        <ele>505.63181</ele>
        <time>2022-04-13T10:15:44.311Z</time>
      </trkpt>
      <trkpt lat="42.04671" lon="21.60019">
        <ele>504.538267</ele>
        <time>2022-04-13T10:15:46.281Z</time>
      </trkpt>
      <trkpt lat="42.04654" lon="21.6002">
        <ele>503.416701</ele>
        <time>2022-04-13T10:15:48.287Z</time>
      </trkpt>
      <trkpt lat="42.04636" lon="21.60024">
        <ele>502.272423</ele>
        <time>2022-04-13T10:15:50.316Z</time>
      </trkpt>
      <trkpt lat="42.04627" lon="21.60026">
        <ele>501.677607</ele>
        <time>2022-04-13T10:15:51.278Z</time>
      </trkpt>
      <trkpt lat="42.04618" lon="21.60027">
        <ele>501.082096</ele>
        <time>2022-04-13T10:15:52.292Z</time>
      </trkpt>
      <trkpt lat="42.04609" lon="21.60029">
        <ele>500.486586</ele>
        <time>2022-04-13T10:15:53.285Z</time>
      </trkpt>
      <trkpt lat="42.04592" lon="21.60033">
        <ele>499.319955</ele>
        <time>2022-04-13T10:15:55.287Z</time>
      </trkpt>
      <trkpt lat="42.04575" lon="21.60037">
        <ele>498.192081</ele>
        <time>2022-04-13T10:15:57.284Z</time>
      </trkpt>
      <trkpt lat="42.04558" lon="21.60041">
        <ele>497.077119</ele>
        <time>2022-04-13T10:15:59.283Z</time>
      </trkpt>
      <trkpt lat="42.04541" lon="21.60045">
        <ele>495.979835</ele>
        <time>2022-04-13T10:16:01.284Z</time>
      </trkpt>
      <trkpt lat="42.04525" lon="21.60048">
        <ele>494.894539</ele>
        <time>2022-04-13T10:16:03.286Z</time>
      </trkpt>
      <trkpt lat="42.04509" lon="21.60049">
        <ele>493.989659</ele>
        <time>2022-04-13T10:16:05.284Z</time>
      </trkpt>
      <trkpt lat="42.04493" lon="21.60047">
        <ele>493.212965</ele>
        <time>2022-04-13T10:16:07.280Z</time>
      </trkpt>
      <trkpt lat="42.04479" lon="21.60041">
        <ele>492.486284</ele>
        <time>2022-04-13T10:16:09.295Z</time>
      </trkpt>
      <trkpt lat="42.04465" lon="21.60035">
        <ele>491.756498</ele>
        <time>2022-04-13T10:16:11.286Z</time>
      </trkpt>
      <trkpt lat="42.0445" lon="21.6003">
        <ele>491.002168</ele>
        <time>2022-04-13T10:16:13.280Z</time>
      </trkpt>
      <trkpt lat="42.04434" lon="21.60027">
        <ele>490.212556</ele>
        <time>2022-04-13T10:16:15.295Z</time>
      </trkpt>
      <trkpt lat="42.04418" lon="21.60027">
        <ele>489.420333</ele>
        <time>2022-04-13T10:16:17.287Z</time>
      </trkpt>
      <trkpt lat="42.04402" lon="21.60029">
        <ele>488.614671</ele>
        <time>2022-04-13T10:16:19.279Z</time>
      </trkpt>
      <trkpt lat="42.04386" lon="21.60035">
        <ele>487.820953</ele>
        <time>2022-04-13T10:16:21.291Z</time>
      </trkpt>
      <trkpt lat="42.04371" lon="21.60045">
        <ele>487.016174</ele>
        <time>2022-04-13T10:16:23.294Z</time>
      </trkpt>
      <trkpt lat="42.04357" lon="21.60055">
        <ele>486.210584</ele>
        <time>2022-04-13T10:16:25.290Z</time>
      </trkpt>
      <trkpt lat="42.04341" lon="21.60063">
        <ele>485.375492</ele>
        <time>2022-04-13T10:16:27.284Z</time>
      </trkpt>
      <trkpt lat="42.04325" lon="21.60069">
        <ele>484.438741</ele>
        <time>2022-04-13T10:16:29.296Z</time>
      </trkpt>
      <trkpt lat="42.04308" lon="21.60072">
        <ele>483.511012</ele>
        <time>2022-04-13T10:16:31.283Z</time>
      </trkpt>
      <trkpt lat="42.0429" lon="21.6007">
        <ele>482.514547</ele>
        <time>2022-04-13T10:16:33.284Z</time>
      </trkpt>
      <trkpt lat="42.04273" lon="21.60067">
        <ele>481.557519</ele>
        <time>2022-04-13T10:16:35.297Z</time>
      </trkpt>
      <trkpt lat="42.04258" lon="21.60065">
        <ele>480.694181</ele>
        <time>2022-04-13T10:16:37.284Z</time>
      </trkpt>
      <trkpt lat="42.04244" lon="21.60063">
        <ele>479.917698</ele>
        <time>2022-04-13T10:16:39.288Z</time>
      </trkpt>
      <trkpt lat="42.0423" lon="21.60062">
        <ele>479.160747</ele>
        <time>2022-04-13T10:16:41.284Z</time>
      </trkpt>
      <trkpt lat="42.04215" lon="21.60062">
        <ele>478.348227</ele>
        <time>2022-04-13T10:16:43.283Z</time>
      </trkpt>
      <trkpt lat="42.042" lon="21.60058">
        <ele>477.507295</ele>
        <time>2022-04-13T10:16:45.283Z</time>
      </trkpt>
      <trkpt lat="42.04187" lon="21.6005">
        <ele>476.704311</ele>
        <time>2022-04-13T10:16:47.284Z</time>
      </trkpt>
      <trkpt lat="42.04177" lon="21.60037">
        <ele>475.923229</ele>
        <time>2022-04-13T10:16:49.278Z</time>
      </trkpt>
      <trkpt lat="42.04169" lon="21.60025">
        <ele>475.31646</ele>
        <time>2022-04-13T10:16:51.283Z</time>
      </trkpt>
      <trkpt lat="42.0416" lon="21.60017">
        <ele>474.808546</ele>
        <time>2022-04-13T10:16:53.279Z</time>
      </trkpt>
      <trkpt lat="42.04148" lon="21.6001">
        <ele>474.199126</ele>
        <time>2022-04-13T10:16:55.279Z</time>
      </trkpt>
      <trkpt lat="42.04134" lon="21.60008">
        <ele>473.53467</ele>
        <time>2022-04-13T10:16:57.279Z</time>
      </trkpt>
      <trkpt lat="42.0412" lon="21.60009">
        <ele>472.846837</ele>
        <time>2022-04-13T10:16:59.282Z</time>
      </trkpt>
      <trkpt lat="42.04105" lon="21.60008">
        <ele>472.149836</ele>
        <time>2022-04-13T10:17:01.278Z</time>
      </trkpt>
      <trkpt lat="42.04091" lon="21.60007">
        <ele>471.482672</ele>
        <time>2022-04-13T10:17:03.274Z</time>
      </trkpt>
      <trkpt lat="42.04078" lon="21.60004">
        <ele>470.8788</ele>
        <time>2022-04-13T10:17:05.283Z</time>
      </trkpt>
      <trkpt lat="42.04067" lon="21.60001">
        <ele>470.304106</ele>
        <time>2022-04-13T10:17:07.284Z</time>
      </trkpt>
      <trkpt lat="42.04055" lon="21.59998">
        <ele>469.73195</ele>
        <time>2022-04-13T10:17:09.279Z</time>
      </trkpt>
      <trkpt lat="42.04043" lon="21.59994">
        <ele>469.13822</ele>
        <time>2022-04-13T10:17:11.288Z</time>
      </trkpt>
      <trkpt lat="42.04029" lon="21.59988">
        <ele>468.484101</ele>
        <time>2022-04-13T10:17:13.287Z</time>
      </trkpt>
      <trkpt lat="42.04016" lon="21.59981">
        <ele>467.799443</ele>
        <time>2022-04-13T10:17:15.281Z</time>
      </trkpt>
      <trkpt lat="42.04001" lon="21.59974">
        <ele>467.076824</ele>
        <time>2022-04-13T10:17:17.278Z</time>
      </trkpt>
      <trkpt lat="42.03986" lon="21.59967">
        <ele>466.421117</ele>
        <time>2022-04-13T10:17:19.281Z</time>
      </trkpt>
      <trkpt lat="42.0397" lon="21.59959">
        <ele>465.74464</ele>
        <time>2022-04-13T10:17:21.280Z</time>
      </trkpt>
      <trkpt lat="42.03954" lon="21.59951">
        <ele>465.081717</ele>
        <time>2022-04-13T10:17:23.280Z</time>
      </trkpt>
      <trkpt lat="42.0394" lon="21.59941">
        <ele>464.447685</ele>
        <time>2022-04-13T10:17:25.288Z</time>
      </trkpt>
      <trkpt lat="42.03928" lon="21.59928">
        <ele>463.835979</ele>
        <time>2022-04-13T10:17:27.283Z</time>
      </trkpt>
      <trkpt lat="42.03919" lon="21.59913">
        <ele>463.242538</ele>
        <time>2022-04-13T10:17:29.281Z</time>
      </trkpt>
      <trkpt lat="42.0391" lon="21.59896">
        <ele>462.62854</ele>
        <time>2022-04-13T10:17:31.276Z</time>
      </trkpt>
      <trkpt lat="42.03903" lon="21.59877">
        <ele>462.010808</ele>
        <time>2022-04-13T10:17:33.278Z</time>
      </trkpt>
      <trkpt lat="42.03897" lon="21.59859">
        <ele>461.415738</ele>
        <time>2022-04-13T10:17:35.276Z</time>
      </trkpt>
      <trkpt lat="42.03889" lon="21.59842">
        <ele>460.842425</ele>
        <time>2022-04-13T10:17:37.285Z</time>
      </trkpt>
      <trkpt lat="42.0388" lon="21.59827">
        <ele>460.249853</ele>
        <time>2022-04-13T10:17:39.304Z</time>
      </trkpt>
      <trkpt lat="42.03868" lon="21.59812">
        <ele>459.657452</ele>
        <time>2022-04-13T10:17:41.287Z</time>
      </trkpt>
      <trkpt lat="42.03855" lon="21.59799">
        <ele>459.081118</ele>
        <time>2022-04-13T10:17:43.296Z</time>
      </trkpt>
      <trkpt lat="42.03848" lon="21.59792">
        <ele>458.757498</ele>
        <time>2022-04-13T10:17:44.280Z</time>
      </trkpt>
      <trkpt lat="42.0384" lon="21.59784">
        <ele>458.430767</ele>
        <time>2022-04-13T10:17:45.279Z</time>
      </trkpt>
      <trkpt lat="42.03833" lon="21.59777">
        <ele>458.108095</ele>
        <time>2022-04-13T10:17:46.276Z</time>
      </trkpt>
      <trkpt lat="42.03826" lon="21.59769">
        <ele>457.775645</ele>
        <time>2022-04-13T10:17:47.284Z</time>
      </trkpt>
      <trkpt lat="42.03818" lon="21.59762">
        <ele>457.434365</ele>
        <time>2022-04-13T10:17:48.290Z</time>
      </trkpt>
      <trkpt lat="42.0381" lon="21.59754">
        <ele>457.106057</ele>
        <time>2022-04-13T10:17:49.309Z</time>
      </trkpt>
      <trkpt lat="42.03797" lon="21.5974">
        <ele>456.492786</ele>
        <time>2022-04-13T10:17:51.281Z</time>
      </trkpt>
      <trkpt lat="42.03784" lon="21.59728">
        <ele>455.922343</ele>
        <time>2022-04-13T10:17:53.279Z</time>
      </trkpt>
      <trkpt lat="42.03769" lon="21.59718">
        <ele>455.359121</ele>
        <time>2022-04-13T10:17:55.287Z</time>
      </trkpt>
      <trkpt lat="42.03754" lon="21.59711">
        <ele>454.769531</ele>
        <time>2022-04-13T10:17:57.282Z</time>
      </trkpt>
      <trkpt lat="42.03737" lon="21.59706">
        <ele>454.167012</ele>
        <time>2022-04-13T10:17:59.277Z</time>
      </trkpt>
      <trkpt lat="42.03721" lon="21.59701">
        <ele>453.552436</ele>
        <time>2022-04-13T10:18:01.283Z</time>
      </trkpt>
      <trkpt lat="42.03705" lon="21.59696">
        <ele>452.403243</ele>
        <time>2022-04-13T10:18:03.272Z</time>
      </trkpt>
      <trkpt lat="42.03689" lon="21.5969">
        <ele>451.23096</ele>
        <time>2022-04-13T10:18:05.280Z</time>
      </trkpt>
      <trkpt lat="42.03672" lon="21.59684">
        <ele>449.971429</ele>
        <time>2022-04-13T10:18:07.279Z</time>
      </trkpt>
      <trkpt lat="42.03663" lon="21.59681">
        <ele>449.307641</ele>
        <time>2022-04-13T10:18:08.283Z</time>
      </trkpt>
      <trkpt lat="42.03653" lon="21.59678">
        <ele>448.622042</ele>
        <time>2022-04-13T10:18:09.285Z</time>
      </trkpt>
      <trkpt lat="42.03644" lon="21.59674">
        <ele>447.933724</ele>
        <time>2022-04-13T10:18:10.274Z</time>
      </trkpt>
      <trkpt lat="42.03634" lon="21.59671">
        <ele>447.239965</ele>
        <time>2022-04-13T10:18:11.288Z</time>
      </trkpt>
      <trkpt lat="42.03625" lon="21.59668">
        <ele>446.554366</ele>
        <time>2022-04-13T10:18:12.272Z</time>
      </trkpt>
      <trkpt lat="42.03616" lon="21.59664">
        <ele>445.875594</ele>
        <time>2022-04-13T10:18:13.287Z</time>
      </trkpt>
      <trkpt lat="42.03606" lon="21.59661">
        <ele>445.194075</ele>
        <time>2022-04-13T10:18:14.269Z</time>
      </trkpt>
      <trkpt lat="42.0359" lon="21.59654">
        <ele>443.961201</ele>
        <time>2022-04-13T10:18:16.275Z</time>
      </trkpt>
      <trkpt lat="42.03581" lon="21.59651">
        <ele>443.313686</ele>
        <time>2022-04-13T10:18:17.303Z</time>
      </trkpt>
      <trkpt lat="42.03571" lon="21.59648">
        <ele>442.634913</ele>
        <time>2022-04-13T10:18:18.284Z</time>
      </trkpt>
      <trkpt lat="42.03562" lon="21.59644">
        <ele>441.939789</ele>
        <time>2022-04-13T10:18:19.270Z</time>
      </trkpt>
      <trkpt lat="42.03552" lon="21.5964">
        <ele>441.226808</ele>
        <time>2022-04-13T10:18:20.279Z</time>
      </trkpt>
      <trkpt lat="42.03542" lon="21.59636">
        <ele>440.438492</ele>
        <time>2022-04-13T10:18:21.284Z</time>
      </trkpt>
      <trkpt lat="42.03533" lon="21.59632">
        <ele>439.643456</ele>
        <time>2022-04-13T10:18:22.272Z</time>
      </trkpt>
      <trkpt lat="42.03524" lon="21.59628">
        <ele>438.899506</ele>
        <time>2022-04-13T10:18:23.280Z</time>
      </trkpt>
      <trkpt lat="42.03515" lon="21.59623">
        <ele>438.140465</ele>
        <time>2022-04-13T10:18:24.279Z</time>
      </trkpt>
      <trkpt lat="42.03499" lon="21.59615">
        <ele>436.774642</ele>
        <time>2022-04-13T10:18:26.278Z</time>
      </trkpt>
      <trkpt lat="42.03485" lon="21.59606">
        <ele>435.470933</ele>
        <time>2022-04-13T10:18:28.281Z</time>
      </trkpt>
      <trkpt lat="42.03469" lon="21.59597">
        <ele>434.120594</ele>
        <time>2022-04-13T10:18:30.278Z</time>
      </trkpt>
      <trkpt lat="42.03454" lon="21.59589">
        <ele>432.779341</ele>
        <time>2022-04-13T10:18:32.271Z</time>
      </trkpt>
      <trkpt lat="42.03438" lon="21.59581">
        <ele>431.483183</ele>
        <time>2022-04-13T10:18:34.277Z</time>
      </trkpt>
      <trkpt lat="42.03424" lon="21.59574">
        <ele>430.22197</ele>
        <time>2022-04-13T10:18:36.274Z</time>
      </trkpt>
      <trkpt lat="42.03409" lon="21.59568">
        <ele>428.955197</ele>
        <time>2022-04-13T10:18:38.275Z</time>
      </trkpt>
      <trkpt lat="42.03394" lon="21.59562">
        <ele>427.700762</ele>
        <time>2022-04-13T10:18:40.277Z</time>
      </trkpt>
      <trkpt lat="42.03379" lon="21.59556">
        <ele>426.505278</ele>
        <time>2022-04-13T10:18:42.284Z</time>
      </trkpt>
      <trkpt lat="42.03366" lon="21.59551">
        <ele>425.380119</ele>
        <time>2022-04-13T10:18:44.319Z</time>
      </trkpt>
      <trkpt lat="42.03352" lon="21.59546">
        <ele>424.224034</ele>
        <time>2022-04-13T10:18:46.290Z</time>
      </trkpt>
      <trkpt lat="42.03337" lon="21.59541">
        <ele>423.008814</ele>
        <time>2022-04-13T10:18:48.274Z</time>
      </trkpt>
      <trkpt lat="42.03323" lon="21.59536">
        <ele>421.796404</ele>
        <time>2022-04-13T10:18:50.289Z</time>
      </trkpt>
      <trkpt lat="42.03307" lon="21.5953">
        <ele>420.511569</ele>
        <time>2022-04-13T10:18:52.276Z</time>
      </trkpt>
      <trkpt lat="42.03292" lon="21.59523">
        <ele>419.235669</ele>
        <time>2022-04-13T10:18:54.283Z</time>
      </trkpt>
      <trkpt lat="42.03278" lon="21.59516">
        <ele>418.009135</ele>
        <time>2022-04-13T10:18:56.280Z</time>
      </trkpt>
      <trkpt lat="42.03262" lon="21.59509">
        <ele>416.704829</ele>
        <time>2022-04-13T10:18:58.275Z</time>
      </trkpt>
      <trkpt lat="42.03247" lon="21.59501">
        <ele>415.34693</ele>
        <time>2022-04-13T10:19:00.277Z</time>
      </trkpt>
      <trkpt lat="42.03231" lon="21.59492">
        <ele>413.999749</ele>
        <time>2022-04-13T10:19:02.279Z</time>
      </trkpt>
      <trkpt lat="42.03216" lon="21.59483">
        <ele>412.7109</ele>
        <time>2022-04-13T10:19:04.289Z</time>
      </trkpt>
      <trkpt lat="42.03201" lon="21.59475">
        <ele>411.424085</ele>
        <time>2022-04-13T10:19:06.303Z</time>
      </trkpt>
      <trkpt lat="42.03187" lon="21.59467">
        <ele>410.212561</ele>
        <time>2022-04-13T10:19:08.276Z</time>
      </trkpt>
      <trkpt lat="42.03172" lon="21.59459">
        <ele>408.97965</ele>
        <time>2022-04-13T10:19:10.275Z</time>
      </trkpt>
      <trkpt lat="42.03157" lon="21.59451">
        <ele>407.716798</ele>
        <time>2022-04-13T10:19:12.280Z</time>
      </trkpt>
      <trkpt lat="42.03142" lon="21.59441">
        <ele>406.504949</ele>
        <time>2022-04-13T10:19:14.273Z</time>
      </trkpt>
      <trkpt lat="42.0313" lon="21.59431">
        <ele>405.352211</ele>
        <time>2022-04-13T10:19:16.276Z</time>
      </trkpt>
      <trkpt lat="42.03118" lon="21.5942">
        <ele>404.277785</ele>
        <time>2022-04-13T10:19:18.280Z</time>
      </trkpt>
      <trkpt lat="42.03109" lon="21.59409">
        <ele>403.297719</ele>
        <time>2022-04-13T10:19:20.278Z</time>
      </trkpt>
      <trkpt lat="42.03102" lon="21.59397">
        <ele>402.421867</ele>
        <time>2022-04-13T10:19:22.272Z</time>
      </trkpt>
      <trkpt lat="42.03096" lon="21.59384">
        <ele>401.583601</ele>
        <time>2022-04-13T10:19:24.288Z</time>
      </trkpt>
      <trkpt lat="42.0309" lon="21.59369">
        <ele>400.610981</ele>
        <time>2022-04-13T10:19:26.278Z</time>
      </trkpt>
      <trkpt lat="42.03084" lon="21.5935">
        <ele>399.449306</ele>
        <time>2022-04-13T10:19:28.297Z</time>
      </trkpt>
      <trkpt lat="42.03082" lon="21.59328">
        <ele>398.19629</ele>
        <time>2022-04-13T10:19:30.274Z</time>
      </trkpt>
      <trkpt lat="42.03081" lon="21.59305">
        <ele>397.44374</ele>
        <time>2022-04-13T10:19:32.278Z</time>
      </trkpt>
      <trkpt lat="42.03079" lon="21.59284">
        <ele>396.747991</ele>
        <time>2022-04-13T10:19:34.279Z</time>
      </trkpt>
      <trkpt lat="42.03073" lon="21.59265">
        <ele>396.040202</ele>
        <time>2022-04-13T10:19:36.283Z</time>
      </trkpt>
      <trkpt lat="42.03063" lon="21.59246">
        <ele>395.278153</ele>
        <time>2022-04-13T10:19:38.282Z</time>
      </trkpt>
      <trkpt lat="42.03051" lon="21.59228">
        <ele>394.496086</ele>
        <time>2022-04-13T10:19:40.273Z</time>
      </trkpt>
      <trkpt lat="42.03039" lon="21.59212">
        <ele>393.73268</ele>
        <time>2022-04-13T10:19:42.279Z</time>
      </trkpt>
      <trkpt lat="42.03026" lon="21.59197">
        <ele>392.988014</ele>
        <time>2022-04-13T10:19:44.275Z</time>
      </trkpt>
      <trkpt lat="42.03015" lon="21.59183">
        <ele>392.316866</ele>
        <time>2022-04-13T10:19:46.282Z</time>
      </trkpt>
      <trkpt lat="42.03005" lon="21.59167">
        <ele>391.628791</ele>
        <time>2022-04-13T10:19:48.275Z</time>
      </trkpt>
      <trkpt lat="42.02998" lon="21.59147">
        <ele>390.901981</ele>
        <time>2022-04-13T10:19:50.274Z</time>
      </trkpt>
      <trkpt lat="42.02993" lon="21.59126">
        <ele>390.157682</ele>
        <time>2022-04-13T10:19:52.274Z</time>
      </trkpt>
      <trkpt lat="42.02989" lon="21.59105">
        <ele>389.369993</ele>
        <time>2022-04-13T10:19:54.285Z</time>
      </trkpt>
      <trkpt lat="42.02986" lon="21.59085">
        <ele>388.58543</ele>
        <time>2022-04-13T10:19:56.298Z</time>
      </trkpt>
      <trkpt lat="42.02984" lon="21.59067">
        <ele>387.89054</ele>
        <time>2022-04-13T10:19:58.273Z</time>
      </trkpt>
      <trkpt lat="42.02986" lon="21.59051">
        <ele>387.283514</ele>
        <time>2022-04-13T10:20:00.289Z</time>
      </trkpt>
      <trkpt lat="42.02992" lon="21.59036">
        <ele>386.649852</ele>
        <time>2022-04-13T10:20:02.303Z</time>
      </trkpt>
      <trkpt lat="42.02997" lon="21.59021">
        <ele>386.001555</ele>
        <time>2022-04-13T10:20:04.282Z</time>
      </trkpt>
      <trkpt lat="42.02999" lon="21.59006">
        <ele>385.439409</ele>
        <time>2022-04-13T10:20:06.277Z</time>
      </trkpt>
      <trkpt lat="42.02994" lon="21.58993">
        <ele>384.885652</ele>
        <time>2022-04-13T10:20:08.309Z</time>
      </trkpt>
      <trkpt lat="42.02986" lon="21.58982">
        <ele>384.325106</ele>
        <time>2022-04-13T10:20:10.278Z</time>
      </trkpt>
      <trkpt lat="42.02979" lon="21.58969">
        <ele>383.711088</ele>
        <time>2022-04-13T10:20:12.276Z</time>
      </trkpt>
      <trkpt lat="42.02975" lon="21.58952">
        <ele>383.052345</ele>
        <time>2022-04-13T10:20:14.297Z</time>
      </trkpt>
      <trkpt lat="42.02977" lon="21.58936">
        <ele>382.411265</ele>
        <time>2022-04-13T10:20:16.279Z</time>
      </trkpt>
      <trkpt lat="42.02987" lon="21.58921">
        <ele>381.658031</ele>
        <time>2022-04-13T10:20:18.283Z</time>
      </trkpt>
      <trkpt lat="42.02997" lon="21.58907">
        <ele>380.858037</ele>
        <time>2022-04-13T10:20:20.279Z</time>
      </trkpt>
      <trkpt lat="42.03003" lon="21.58888">
        <ele>379.842122</ele>
        <time>2022-04-13T10:20:22.420Z</time>
      </trkpt>
      <trkpt lat="42.03004" lon="21.58865">
        <ele>378.721746</ele>
        <time>2022-04-13T10:20:24.279Z</time>
      </trkpt>
      <trkpt lat="42.03002" lon="21.58853">
        <ele>378.134409</ele>
        <time>2022-04-13T10:20:25.311Z</time>
      </trkpt>
      <trkpt lat="42.02999" lon="21.58841">
        <ele>377.51873</ele>
        <time>2022-04-13T10:20:26.274Z</time>
      </trkpt>
      <trkpt lat="42.02995" lon="21.5883">
        <ele>376.902598</ele>
        <time>2022-04-13T10:20:27.276Z</time>
      </trkpt>
      <trkpt lat="42.02991" lon="21.58819">
        <ele>376.295208</ele>
        <time>2022-04-13T10:20:28.273Z</time>
      </trkpt>
      <trkpt lat="42.02987" lon="21.58807">
        <ele>375.682939</ele>
        <time>2022-04-13T10:20:29.275Z</time>
      </trkpt>
      <trkpt lat="42.02983" lon="21.58795">
        <ele>375.057308</ele>
        <time>2022-04-13T10:20:30.281Z</time>
      </trkpt>
      <trkpt lat="42.02979" lon="21.58783">
        <ele>374.418261</ele>
        <time>2022-04-13T10:20:31.284Z</time>
      </trkpt>
      <trkpt lat="42.02975" lon="21.58771">
        <ele>373.778442</ele>
        <time>2022-04-13T10:20:32.277Z</time>
      </trkpt>
      <trkpt lat="42.02971" lon="21.5876">
        <ele>373.165134</ele>
        <time>2022-04-13T10:20:33.283Z</time>
      </trkpt>
      <trkpt lat="42.02968" lon="21.58749">
        <ele>372.567022</ele>
        <time>2022-04-13T10:20:34.272Z</time>
      </trkpt>
      <trkpt lat="42.02961" lon="21.58727">
        <ele>371.419803</ele>
        <time>2022-04-13T10:20:36.300Z</time>
      </trkpt>
      <trkpt lat="42.02955" lon="21.58705">
        <ele>370.26066</ele>
        <time>2022-04-13T10:20:38.278Z</time>
      </trkpt>
      <trkpt lat="42.02951" lon="21.58693">
        <ele>369.651603</ele>
        <time>2022-04-13T10:20:39.283Z</time>
      </trkpt>
      <trkpt lat="42.02947" lon="21.58681">
        <ele>369.08592</ele>
        <time>2022-04-13T10:20:40.279Z</time>
      </trkpt>
      <trkpt lat="42.02943" lon="21.58669">
        <ele>368.55671</ele>
        <time>2022-04-13T10:20:41.283Z</time>
      </trkpt>
      <trkpt lat="42.02939" lon="21.58657">
        <ele>368.013746</ele>
        <time>2022-04-13T10:20:42.283Z</time>
      </trkpt>
      <trkpt lat="42.02935" lon="21.58644">
        <ele>367.453161</ele>
        <time>2022-04-13T10:20:43.291Z</time>
      </trkpt>
      <trkpt lat="42.02931" lon="21.58631">
        <ele>366.883889</ele>
        <time>2022-04-13T10:20:44.290Z</time>
      </trkpt>
      <trkpt lat="42.02927" lon="21.58617">
        <ele>366.296744</ele>
        <time>2022-04-13T10:20:45.275Z</time>
      </trkpt>
      <trkpt lat="42.02923" lon="21.58604">
        <ele>365.707881</ele>
        <time>2022-04-13T10:20:46.272Z</time>
      </trkpt>
      <trkpt lat="42.02919" lon="21.5859">
        <ele>365.119019</ele>
        <time>2022-04-13T10:20:47.309Z</time>
      </trkpt>
      <trkpt lat="42.02915" lon="21.58576">
        <ele>364.53401</ele>
        <time>2022-04-13T10:20:48.274Z</time>
      </trkpt>
      <trkpt lat="42.02911" lon="21.58563">
        <ele>363.962015</ele>
        <time>2022-04-13T10:20:49.351Z</time>
      </trkpt>
      <trkpt lat="42.02908" lon="21.5855">
        <ele>363.409806</ele>
        <time>2022-04-13T10:20:50.277Z</time>
      </trkpt>
      <trkpt lat="42.02905" lon="21.58536">
        <ele>362.861421</ele>
        <time>2022-04-13T10:20:51.286Z</time>
      </trkpt>
      <trkpt lat="42.02902" lon="21.58524">
        <ele>362.326089</ele>
        <time>2022-04-13T10:20:52.283Z</time>
      </trkpt>
      <trkpt lat="42.029" lon="21.58511">
        <ele>361.804373</ele>
        <time>2022-04-13T10:20:53.286Z</time>
      </trkpt>
      <trkpt lat="42.02897" lon="21.58499">
        <ele>361.295759</ele>
        <time>2022-04-13T10:20:54.280Z</time>
      </trkpt>
      <trkpt lat="42.02894" lon="21.58487">
        <ele>360.8026</ele>
        <time>2022-04-13T10:20:55.283Z</time>
      </trkpt>
      <trkpt lat="42.02891" lon="21.58476">
        <ele>360.311238</ele>
        <time>2022-04-13T10:20:56.283Z</time>
      </trkpt>
      <trkpt lat="42.02888" lon="21.58464">
        <ele>359.824949</ele>
        <time>2022-04-13T10:20:57.277Z</time>
      </trkpt>
      <trkpt lat="42.02882" lon="21.58443">
        <ele>360.006892</ele>
        <time>2022-04-13T10:20:59.281Z</time>
      </trkpt>
      <trkpt lat="42.02874" lon="21.58425">
        <ele>360.375574</ele>
        <time>2022-04-13T10:21:01.283Z</time>
      </trkpt>
      <trkpt lat="42.02862" lon="21.58412">
        <ele>360.719766</ele>
        <time>2022-04-13T10:21:03.299Z</time>
      </trkpt>
      <trkpt lat="42.02851" lon="21.58402">
        <ele>361.016954</ele>
        <time>2022-04-13T10:21:05.283Z</time>
      </trkpt>
      <trkpt lat="42.02842" lon="21.58394">
        <ele>361.283519</ele>
        <time>2022-04-13T10:21:07.274Z</time>
      </trkpt>
      <trkpt lat="42.02834" lon="21.58386">
        <ele>361.508937</ele>
        <time>2022-04-13T10:21:09.302Z</time>
      </trkpt>
      <trkpt lat="42.02824" lon="21.58376">
        <ele>361.785837</ele>
        <time>2022-04-13T10:21:12.274Z</time>
      </trkpt>
      <trkpt lat="42.02817" lon="21.58367">
        <ele>362.026139</ele>
        <time>2022-04-13T10:21:16.277Z</time>
      </trkpt>
      <trkpt lat="42.02809" lon="21.58358">
        <ele>362.264691</ele>
        <time>2022-04-13T10:21:22.278Z</time>
      </trkpt>
      <trkpt lat="42.02803" lon="21.58348">
        <ele>362.48672</ele>
        <time>2022-04-13T10:21:27.283Z</time>
      </trkpt>
      <trkpt lat="42.02799" lon="21.58337">
        <ele>362.694947</ele>
        <time>2022-04-13T10:21:32.276Z</time>
      </trkpt>
      <trkpt lat="42.02795" lon="21.58325">
        <ele>362.920313</ele>
        <time>2022-04-13T10:21:37.280Z</time>
      </trkpt>
      <trkpt lat="42.02793" lon="21.58311">
        <ele>363.160473</ele>
        <time>2022-04-13T10:21:42.300Z</time>
      </trkpt>
      <trkpt lat="42.02791" lon="21.58298">
        <ele>363.386637</ele>
        <time>2022-04-13T10:21:46.279Z</time>
      </trkpt>
      <trkpt lat="42.02788" lon="21.58286">
        <ele>363.609629</ele>
        <time>2022-04-13T10:21:50.275Z</time>
      </trkpt>
      <trkpt lat="42.02785" lon="21.58274">
        <ele>363.827962</ele>
        <time>2022-04-13T10:21:54.344Z</time>
      </trkpt>
      <trkpt lat="42.02783" lon="21.58261">
        <ele>364.701346</ele>
        <time>2022-04-13T10:21:58.320Z</time>
      </trkpt>
      <trkpt lat="42.0278" lon="21.58248">
        <ele>365.70786</ele>
        <time>2022-04-13T10:22:03.310Z</time>
      </trkpt>
      <trkpt lat="42.02777" lon="21.58236">
        <ele>366.566141</ele>
        <time>2022-04-13T10:22:07.338Z</time>
      </trkpt>
      <trkpt lat="42.02774" lon="21.58224">
        <ele>367.462644</ele>
        <time>2022-04-13T10:22:11.348Z</time>
      </trkpt>
      <trkpt lat="42.02771" lon="21.58212">
        <ele>368.369585</ele>
        <time>2022-04-13T10:22:15.298Z</time>
      </trkpt>
      <trkpt lat="42.02768" lon="21.58199">
        <ele>369.329147</ele>
        <time>2022-04-13T10:22:19.297Z</time>
      </trkpt>
      <trkpt lat="42.02765" lon="21.58186">
        <ele>370.278311</ele>
        <time>2022-04-13T10:22:23.309Z</time>
      </trkpt>
      <trkpt lat="42.02762" lon="21.58174">
        <ele>371.170316</ele>
        <time>2022-04-13T10:22:27.303Z</time>
      </trkpt>
      <trkpt lat="42.0276" lon="21.5816">
        <ele>372.141659</ele>
        <time>2022-04-13T10:22:32.303Z</time>
      </trkpt>
      <trkpt lat="42.02756" lon="21.58147">
        <ele>373.149724</ele>
        <time>2022-04-13T10:22:37.302Z</time>
      </trkpt>
      <trkpt lat="42.02755" lon="21.58132">
        <ele>374.169055</ele>
        <time>2022-04-13T10:22:42.303Z</time>
      </trkpt>
      <trkpt lat="42.02753" lon="21.58119">
        <ele>375.113118</ele>
        <time>2022-04-13T10:22:47.306Z</time>
      </trkpt>
      <trkpt lat="42.02754" lon="21.58106">
        <ele>376.035535</ele>
        <time>2022-04-13T10:22:52.307Z</time>
      </trkpt>
      <trkpt lat="42.02755" lon="21.58092">
        <ele>377.00398</ele>
        <time>2022-04-13T10:22:57.343Z</time>
      </trkpt>
      <trkpt lat="42.02755" lon="21.58078">
        <ele>378.030766</ele>
        <time>2022-04-13T10:23:02.312Z</time>
      </trkpt>
      <trkpt lat="42.02756" lon="21.58065">
        <ele>378.946804</ele>
        <time>2022-04-13T10:23:06.310Z</time>
      </trkpt>
      <trkpt lat="42.02757" lon="21.58051">
        <ele>379.907283</ele>
        <time>2022-04-13T10:23:10.300Z</time>
      </trkpt>
      <trkpt lat="42.02758" lon="21.58039">
        <ele>380.758251</ele>
        <time>2022-04-13T10:23:13.305Z</time>
      </trkpt>
      <trkpt lat="42.0276" lon="21.58026">
        <ele>381.570169</ele>
        <time>2022-04-13T10:23:16.299Z</time>
      </trkpt>
      <trkpt lat="42.02761" lon="21.58014">
        <ele>382.307733</ele>
        <time>2022-04-13T10:23:19.331Z</time>
      </trkpt>
      <trkpt lat="42.02763" lon="21.57999">
        <ele>383.265318</ele>
        <time>2022-04-13T10:23:23.305Z</time>
      </trkpt>
      <trkpt lat="42.02762" lon="21.57983">
        <ele>384.193841</ele>
        <time>2022-04-13T10:23:27.300Z</time>
      </trkpt>
      <trkpt lat="42.02763" lon="21.57968">
        <ele>385.132343</ele>
        <time>2022-04-13T10:23:31.289Z</time>
      </trkpt>
      <trkpt lat="42.02766" lon="21.57954">
        <ele>386.022553</ele>
        <time>2022-04-13T10:23:35.283Z</time>
      </trkpt>
      <trkpt lat="42.02766" lon="21.57938">
        <ele>386.99417</ele>
        <time>2022-04-13T10:23:39.302Z</time>
      </trkpt>
      <trkpt lat="42.02768" lon="21.57922">
        <ele>387.957816</ele>
        <time>2022-04-13T10:23:43.310Z</time>
      </trkpt>
      <trkpt lat="42.02769" lon="21.57908">
        <ele>388.841739</ele>
        <time>2022-04-13T10:23:47.301Z</time>
      </trkpt>
      <trkpt lat="42.0277" lon="21.57893">
        <ele>389.751987</ele>
        <time>2022-04-13T10:23:52.306Z</time>
      </trkpt>
      <trkpt lat="42.02771" lon="21.5788">
        <ele>390.528693</ele>
        <time>2022-04-13T10:23:56.299Z</time>
      </trkpt>
      <trkpt lat="42.02772" lon="21.57868">
        <ele>391.299451</ele>
        <time>2022-04-13T10:24:00.298Z</time>
      </trkpt>
      <trkpt lat="42.02773" lon="21.57856">
        <ele>392.057318</ele>
        <time>2022-04-13T10:24:04.340Z</time>
      </trkpt>
      <trkpt lat="42.02774" lon="21.57842">
        <ele>392.902368</ele>
        <time>2022-04-13T10:24:08.307Z</time>
      </trkpt>
      <trkpt lat="42.02775" lon="21.57828">
        <ele>393.752226</ele>
        <time>2022-04-13T10:24:11.301Z</time>
      </trkpt>
      <trkpt lat="42.02775" lon="21.57812">
        <ele>394.722695</ele>
        <time>2022-04-13T10:24:14.295Z</time>
      </trkpt>
      <trkpt lat="42.02776" lon="21.57799">
        <ele>395.512344</ele>
        <time>2022-04-13T10:24:16.375Z</time>
      </trkpt>
      <trkpt lat="42.02778" lon="21.57785">
        <ele>395.473316</ele>
        <time>2022-04-13T10:24:18.283Z</time>
      </trkpt>
      <trkpt lat="42.02777" lon="21.57768">
        <ele>395.267518</ele>
        <time>2022-04-13T10:24:20.307Z</time>
      </trkpt>
      <trkpt lat="42.02774" lon="21.57752">
        <ele>395.059077</ele>
        <time>2022-04-13T10:24:22.303Z</time>
      </trkpt>
      <trkpt lat="42.02772" lon="21.57735">
        <ele>394.858124</ele>
        <time>2022-04-13T10:24:24.319Z</time>
      </trkpt>
      <trkpt lat="42.0277" lon="21.5772">
        <ele>394.664346</ele>
        <time>2022-04-13T10:24:26.342Z</time>
      </trkpt>
      <trkpt lat="42.02768" lon="21.57703">
        <ele>394.462349</ele>
        <time>2022-04-13T10:24:28.320Z</time>
      </trkpt>
      <trkpt lat="42.02767" lon="21.57686">
        <ele>394.252146</ele>
        <time>2022-04-13T10:24:30.323Z</time>
      </trkpt>
      <trkpt lat="42.02765" lon="21.57669">
        <ele>394.035213</ele>
        <time>2022-04-13T10:24:32.401Z</time>
      </trkpt>
      <trkpt lat="42.02763" lon="21.57653">
        <ele>393.845754</ele>
        <time>2022-04-13T10:24:34.306Z</time>
      </trkpt>
      <trkpt lat="42.02761" lon="21.5764">
        <ele>393.684634</ele>
        <time>2022-04-13T10:24:36.332Z</time>
      </trkpt>
      <trkpt lat="42.02761" lon="21.57624">
        <ele>393.488301</ele>
        <time>2022-04-13T10:24:38.309Z</time>
      </trkpt>
      <trkpt lat="42.0276" lon="21.57607">
        <ele>393.281739</ele>
        <time>2022-04-13T10:24:40.314Z</time>
      </trkpt>
      <trkpt lat="42.02759" lon="21.5759">
        <ele>393.073232</ele>
        <time>2022-04-13T10:24:42.311Z</time>
      </trkpt>
      <trkpt lat="42.02759" lon="21.57575">
        <ele>392.884351</ele>
        <time>2022-04-13T10:24:44.292Z</time>
      </trkpt>
      <trkpt lat="42.02759" lon="21.5756">
        <ele>392.70011</ele>
        <time>2022-04-13T10:24:46.305Z</time>
      </trkpt>
      <trkpt lat="42.02758" lon="21.57544">
        <ele>392.228989</ele>
        <time>2022-04-13T10:24:48.339Z</time>
      </trkpt>
      <trkpt lat="42.02759" lon="21.57529">
        <ele>391.748469</ele>
        <time>2022-04-13T10:24:50.313Z</time>
      </trkpt>
      <trkpt lat="42.02758" lon="21.57512">
        <ele>391.187409</ele>
        <time>2022-04-13T10:24:53.308Z</time>
      </trkpt>
      <trkpt lat="42.02757" lon="21.57496">
        <ele>390.64146</ele>
        <time>2022-04-13T10:24:56.302Z</time>
      </trkpt>
      <trkpt lat="42.02758" lon="21.57483">
        <ele>390.22137</ele>
        <time>2022-04-13T10:24:58.316Z</time>
      </trkpt>
      <trkpt lat="42.02758" lon="21.57471">
        <ele>389.80081</ele>
        <time>2022-04-13T10:25:00.286Z</time>
      </trkpt>
      <trkpt lat="42.02758" lon="21.57457">
        <ele>389.367056</ele>
        <time>2022-04-13T10:25:02.298Z</time>
      </trkpt>
      <trkpt lat="42.02756" lon="21.57441">
        <ele>388.82478</ele>
        <time>2022-04-13T10:25:05.285Z</time>
      </trkpt>
      <trkpt lat="42.02756" lon="21.57427">
        <ele>388.361336</ele>
        <time>2022-04-13T10:25:09.312Z</time>
      </trkpt>
      <trkpt lat="42.02755" lon="21.57414">
        <ele>387.921434</ele>
        <time>2022-04-13T10:25:13.295Z</time>
      </trkpt>
      <trkpt lat="42.02753" lon="21.57397">
        <ele>387.35329</ele>
        <time>2022-04-13T10:25:16.314Z</time>
      </trkpt>
      <trkpt lat="42.02752" lon="21.57383">
        <ele>386.895838</ele>
        <time>2022-04-13T10:25:18.303Z</time>
      </trkpt>
      <trkpt lat="42.02751" lon="21.57368">
        <ele>386.388485</ele>
        <time>2022-04-13T10:25:20.373Z</time>
      </trkpt>
      <trkpt lat="42.02749" lon="21.5735">
        <ele>385.804623</ele>
        <time>2022-04-13T10:25:22.302Z</time>
      </trkpt>
      <trkpt lat="42.02748" lon="21.57331">
        <ele>385.163309</ele>
        <time>2022-04-13T10:25:24.288Z</time>
      </trkpt>
      <trkpt lat="42.02746" lon="21.57312">
        <ele>384.446617</ele>
        <time>2022-04-13T10:25:26.314Z</time>
      </trkpt>
      <trkpt lat="42.02744" lon="21.57293">
        <ele>383.516102</ele>
        <time>2022-04-13T10:25:28.308Z</time>
      </trkpt>
      <trkpt lat="42.02745" lon="21.57274">
        <ele>382.53042</ele>
        <time>2022-04-13T10:25:30.301Z</time>
      </trkpt>
      <trkpt lat="42.02746" lon="21.57256">
        <ele>381.639242</ele>
        <time>2022-04-13T10:25:32.290Z</time>
      </trkpt>
      <trkpt lat="42.02745" lon="21.5724">
        <ele>380.876967</ele>
        <time>2022-04-13T10:25:34.326Z</time>
      </trkpt>
      <trkpt lat="42.02745" lon="21.57227">
        <ele>380.199911</ele>
        <time>2022-04-13T10:25:37.318Z</time>
      </trkpt>
      <trkpt lat="42.02742" lon="21.5721">
        <ele>379.360368</ele>
        <time>2022-04-13T10:25:41.288Z</time>
      </trkpt>
      <trkpt lat="42.02742" lon="21.57197">
        <ele>378.69621</ele>
        <time>2022-04-13T10:25:43.314Z</time>
      </trkpt>
      <trkpt lat="42.0274" lon="21.57182">
        <ele>377.937934</ele>
        <time>2022-04-13T10:25:45.288Z</time>
      </trkpt>
      <trkpt lat="42.02739" lon="21.57166">
        <ele>377.126906</ele>
        <time>2022-04-13T10:25:47.320Z</time>
      </trkpt>
      <trkpt lat="42.02738" lon="21.57148">
        <ele>376.253291</ele>
        <time>2022-04-13T10:25:49.308Z</time>
      </trkpt>
      <trkpt lat="42.02737" lon="21.5713">
        <ele>375.348183</ele>
        <time>2022-04-13T10:25:51.336Z</time>
      </trkpt>
      <trkpt lat="42.02735" lon="21.5711">
        <ele>374.347644</ele>
        <time>2022-04-13T10:25:53.306Z</time>
      </trkpt>
      <trkpt lat="42.02735" lon="21.57089">
        <ele>373.301856</ele>
        <time>2022-04-13T10:25:55.282Z</time>
      </trkpt>
      <trkpt lat="42.02734" lon="21.57068">
        <ele>372.308019</ele>
        <time>2022-04-13T10:25:57.320Z</time>
      </trkpt>
      <trkpt lat="42.02733" lon="21.57047">
        <ele>371.429031</ele>
        <time>2022-04-13T10:25:59.304Z</time>
      </trkpt>
      <trkpt lat="42.02732" lon="21.57026">
        <ele>370.566325</ele>
        <time>2022-04-13T10:26:01.299Z</time>
      </trkpt>
      <trkpt lat="42.02732" lon="21.57005">
        <ele>369.708462</ele>
        <time>2022-04-13T10:26:03.289Z</time>
      </trkpt>
      <trkpt lat="42.02731" lon="21.56985">
        <ele>368.859043</ele>
        <time>2022-04-13T10:26:05.300Z</time>
      </trkpt>
      <trkpt lat="42.02731" lon="21.56964">
        <ele>368.021433</ele>
        <time>2022-04-13T10:26:07.343Z</time>
      </trkpt>
      <trkpt lat="42.02729" lon="21.56945">
        <ele>367.217049</ele>
        <time>2022-04-13T10:26:09.314Z</time>
      </trkpt>
      <trkpt lat="42.02728" lon="21.56925">
        <ele>366.387961</ele>
        <time>2022-04-13T10:26:11.327Z</time>
      </trkpt>
      <trkpt lat="42.02725" lon="21.56906">
        <ele>365.586495</ele>
        <time>2022-04-13T10:26:13.307Z</time>
      </trkpt>
      <trkpt lat="42.02724" lon="21.56888">
        <ele>364.810258</ele>
        <time>2022-04-13T10:26:15.299Z</time>
      </trkpt>
      <trkpt lat="42.02722" lon="21.56871">
        <ele>364.121715</ele>
        <time>2022-04-13T10:26:17.299Z</time>
      </trkpt>
      <trkpt lat="42.02722" lon="21.56854">
        <ele>363.425755</ele>
        <time>2022-04-13T10:26:19.312Z</time>
      </trkpt>
      <trkpt lat="42.02721" lon="21.56838">
        <ele>362.733466</ele>
        <time>2022-04-13T10:26:21.294Z</time>
      </trkpt>
      <trkpt lat="42.02721" lon="21.56821">
        <ele>361.748701</ele>
        <time>2022-04-13T10:26:23.288Z</time>
      </trkpt>
      <trkpt lat="42.0272" lon="21.56804">
        <ele>360.615186</ele>
        <time>2022-04-13T10:26:25.293Z</time>
      </trkpt>
      <trkpt lat="42.02719" lon="21.56786">
        <ele>359.473657</ele>
        <time>2022-04-13T10:26:27.301Z</time>
      </trkpt>
      <trkpt lat="42.0272" lon="21.56768">
        <ele>358.275485</ele>
        <time>2022-04-13T10:26:29.352Z</time>
      </trkpt>
      <trkpt lat="42.0272" lon="21.56748">
        <ele>356.973996</ele>
        <time>2022-04-13T10:26:31.321Z</time>
      </trkpt>
      <trkpt lat="42.0272" lon="21.56727">
        <ele>355.646014</ele>
        <time>2022-04-13T10:26:33.305Z</time>
      </trkpt>
      <trkpt lat="42.02721" lon="21.56708">
        <ele>354.363927</ele>
        <time>2022-04-13T10:26:35.304Z</time>
      </trkpt>
      <trkpt lat="42.0272" lon="21.56687">
        <ele>353.010264</ele>
        <time>2022-04-13T10:26:37.293Z</time>
      </trkpt>
      <trkpt lat="42.0272" lon="21.56666">
        <ele>351.62999</ele>
        <time>2022-04-13T10:26:39.282Z</time>
      </trkpt>
      <trkpt lat="42.02719" lon="21.56646">
        <ele>350.366451</ele>
        <time>2022-04-13T10:26:41.292Z</time>
      </trkpt>
      <trkpt lat="42.02719" lon="21.56632">
        <ele>349.435886</ele>
        <time>2022-04-13T10:26:43.307Z</time>
      </trkpt>
      <trkpt lat="42.02719" lon="21.56619">
        <ele>348.576724</ele>
        <time>2022-04-13T10:26:45.299Z</time>
      </trkpt>
      <trkpt lat="42.02719" lon="21.56605">
        <ele>347.646118</ele>
        <time>2022-04-13T10:26:47.298Z</time>
      </trkpt>
      <trkpt lat="42.02719" lon="21.56589">
        <ele>346.677326</ele>
        <time>2022-04-13T10:26:49.302Z</time>
      </trkpt>
      <trkpt lat="42.02717" lon="21.56573">
        <ele>345.755831</ele>
        <time>2022-04-13T10:26:51.309Z</time>
      </trkpt>
      <trkpt lat="42.02716" lon="21.56556">
        <ele>344.761954</ele>
        <time>2022-04-13T10:26:53.302Z</time>
      </trkpt>
      <trkpt lat="42.02716" lon="21.56538">
        <ele>343.746485</ele>
        <time>2022-04-13T10:26:55.303Z</time>
      </trkpt>
      <trkpt lat="42.02715" lon="21.5652">
        <ele>342.692632</ele>
        <time>2022-04-13T10:26:57.297Z</time>
      </trkpt>
      <trkpt lat="42.02713" lon="21.56504">
        <ele>341.772204</ele>
        <time>2022-04-13T10:26:59.413Z</time>
      </trkpt>
      <trkpt lat="42.02712" lon="21.56491">
        <ele>341.020729</ele>
        <time>2022-04-13T10:27:01.305Z</time>
      </trkpt>
      <trkpt lat="42.0271" lon="21.56474">
        <ele>340.030844</ele>
        <time>2022-04-13T10:27:04.298Z</time>
      </trkpt>
      <trkpt lat="42.0271" lon="21.56461">
        <ele>339.284465</ele>
        <time>2022-04-13T10:27:06.296Z</time>
      </trkpt>
      <trkpt lat="42.0271" lon="21.56448">
        <ele>338.51574</ele>
        <time>2022-04-13T10:27:08.358Z</time>
      </trkpt>
      <trkpt lat="42.02709" lon="21.56435">
        <ele>337.780013</ele>
        <time>2022-04-13T10:27:10.313Z</time>
      </trkpt>
      <trkpt lat="42.02708" lon="21.56422">
        <ele>337.037436</ele>
        <time>2022-04-13T10:27:12.291Z</time>
      </trkpt>
      <trkpt lat="42.02708" lon="21.56405">
        <ele>336.038217</ele>
        <time>2022-04-13T10:27:15.308Z</time>
      </trkpt>
      <trkpt lat="42.02705" lon="21.56387">
        <ele>335.017343</ele>
        <time>2022-04-13T10:27:18.312Z</time>
      </trkpt>
      <trkpt lat="42.02703" lon="21.56375">
        <ele>334.298951</ele>
        <time>2022-04-13T10:27:20.298Z</time>
      </trkpt>
      <trkpt lat="42.027" lon="21.56363">
        <ele>333.563783</ele>
        <time>2022-04-13T10:27:22.304Z</time>
      </trkpt>
      <trkpt lat="42.02696" lon="21.56347">
        <ele>332.626275</ele>
        <time>2022-04-13T10:27:25.352Z</time>
      </trkpt>
      <trkpt lat="42.02692" lon="21.56332">
        <ele>331.767466</ele>
        <time>2022-04-13T10:27:28.308Z</time>
      </trkpt>
      <trkpt lat="42.02688" lon="21.56318">
        <ele>330.981803</ele>
        <time>2022-04-13T10:27:30.311Z</time>
      </trkpt>
      <trkpt lat="42.02683" lon="21.56304">
        <ele>330.116728</ele>
        <time>2022-04-13T10:27:32.291Z</time>
      </trkpt>
      <trkpt lat="42.02679" lon="21.5629">
        <ele>329.331357</ele>
        <time>2022-04-13T10:27:34.358Z</time>
      </trkpt>
      <trkpt lat="42.02674" lon="21.56275">
        <ele>328.418312</ele>
        <time>2022-04-13T10:27:36.348Z</time>
      </trkpt>
      <trkpt lat="42.02669" lon="21.56259">
        <ele>327.494045</ele>
        <time>2022-04-13T10:27:38.308Z</time>
      </trkpt>
      <trkpt lat="42.02664" lon="21.56241">
        <ele>326.497906</ele>
        <time>2022-04-13T10:27:40.335Z</time>
      </trkpt>
      <trkpt lat="42.02658" lon="21.56225">
        <ele>325.546256</ele>
        <time>2022-04-13T10:27:42.323Z</time>
      </trkpt>
      <trkpt lat="42.02653" lon="21.5621">
        <ele>324.659268</ele>
        <time>2022-04-13T10:27:44.371Z</time>
      </trkpt>
      <trkpt lat="42.0265" lon="21.56192">
        <ele>323.645881</ele>
        <time>2022-04-13T10:27:46.292Z</time>
      </trkpt>
      <trkpt lat="42.02645" lon="21.56173">
        <ele>322.561806</ele>
        <time>2022-04-13T10:27:48.296Z</time>
      </trkpt>
      <trkpt lat="42.0264" lon="21.56152">
        <ele>321.392065</ele>
        <time>2022-04-13T10:27:50.308Z</time>
      </trkpt>
      <trkpt lat="42.02634" lon="21.5613">
        <ele>320.179871</ele>
        <time>2022-04-13T10:27:52.328Z</time>
      </trkpt>
      <trkpt lat="42.02629" lon="21.5611">
        <ele>318.771631</ele>
        <time>2022-04-13T10:27:54.311Z</time>
      </trkpt>
      <trkpt lat="42.02624" lon="21.56089">
        <ele>317.256166</ele>
        <time>2022-04-13T10:27:56.304Z</time>
      </trkpt>
      <trkpt lat="42.02619" lon="21.56068">
        <ele>315.721352</ele>
        <time>2022-04-13T10:27:58.349Z</time>
      </trkpt>
      <trkpt lat="42.02613" lon="21.56047">
        <ele>314.228633</ele>
        <time>2022-04-13T10:28:00.302Z</time>
      </trkpt>
      <trkpt lat="42.02607" lon="21.56026">
        <ele>312.716736</ele>
        <time>2022-04-13T10:28:02.292Z</time>
      </trkpt>
      <trkpt lat="42.02601" lon="21.56006">
        <ele>311.223837</ele>
        <time>2022-04-13T10:28:04.344Z</time>
      </trkpt>
      <trkpt lat="42.02596" lon="21.55986">
        <ele>309.769476</ele>
        <time>2022-04-13T10:28:06.302Z</time>
      </trkpt>
      <trkpt lat="42.0259" lon="21.55964">
        <ele>308.196678</ele>
        <time>2022-04-13T10:28:08.313Z</time>
      </trkpt>
      <trkpt lat="42.02586" lon="21.55953">
        <ele>307.362311</ele>
        <time>2022-04-13T10:28:09.311Z</time>
      </trkpt>
      <trkpt lat="42.0258" lon="21.55931">
        <ele>305.770423</ele>
        <time>2022-04-13T10:28:11.382Z</time>
      </trkpt>
      <trkpt lat="42.02574" lon="21.5591">
        <ele>304.242408</ele>
        <time>2022-04-13T10:28:13.303Z</time>
      </trkpt>
      <trkpt lat="42.02569" lon="21.55891">
        <ele>302.859397</ele>
        <time>2022-04-13T10:28:15.340Z</time>
      </trkpt>
      <trkpt lat="42.02563" lon="21.55871">
        <ele>301.528032</ele>
        <time>2022-04-13T10:28:17.303Z</time>
      </trkpt>
      <trkpt lat="42.02557" lon="21.55852">
        <ele>300.216859</ele>
        <time>2022-04-13T10:28:19.316Z</time>
      </trkpt>
      <trkpt lat="42.02552" lon="21.55833">
        <ele>298.95093</ele>
        <time>2022-04-13T10:28:21.291Z</time>
      </trkpt>
      <trkpt lat="42.02546" lon="21.55815">
        <ele>297.732183</ele>
        <time>2022-04-13T10:28:23.306Z</time>
      </trkpt>
      <trkpt lat="42.02541" lon="21.55797">
        <ele>296.531059</ele>
        <time>2022-04-13T10:28:25.288Z</time>
      </trkpt>
      <trkpt lat="42.02536" lon="21.55779">
        <ele>295.300196</ele>
        <time>2022-04-13T10:28:27.290Z</time>
      </trkpt>
      <trkpt lat="42.02531" lon="21.55761">
        <ele>294.057644</ele>
        <time>2022-04-13T10:28:29.307Z</time>
      </trkpt>
      <trkpt lat="42.02526" lon="21.55743">
        <ele>292.871481</ele>
        <time>2022-04-13T10:28:31.317Z</time>
      </trkpt>
      <trkpt lat="42.02522" lon="21.55727">
        <ele>291.7916</ele>
        <time>2022-04-13T10:28:33.376Z</time>
      </trkpt>
      <trkpt lat="42.02517" lon="21.55712">
        <ele>290.785634</ele>
        <time>2022-04-13T10:28:35.308Z</time>
      </trkpt>
      <trkpt lat="42.02513" lon="21.55698">
        <ele>289.794537</ele>
        <time>2022-04-13T10:28:37.296Z</time>
      </trkpt>
      <trkpt lat="42.02509" lon="21.55686">
        <ele>288.995267</ele>
        <time>2022-04-13T10:28:39.306Z</time>
      </trkpt>
      <trkpt lat="42.02503" lon="21.55672">
        <ele>288.067744</ele>
        <time>2022-04-13T10:28:43.310Z</time>
      </trkpt>
      <trkpt lat="42.02499" lon="21.55659">
        <ele>287.583193</ele>
        <time>2022-04-13T10:28:45.283Z</time>
      </trkpt>
      <trkpt lat="42.02495" lon="21.55644">
        <ele>287.024968</ele>
        <time>2022-04-13T10:28:47.301Z</time>
      </trkpt>
      <trkpt lat="42.02491" lon="21.5563">
        <ele>286.491345</ele>
        <time>2022-04-13T10:28:50.305Z</time>
      </trkpt>
      <trkpt lat="42.02487" lon="21.55616">
        <ele>285.966128</ele>
        <time>2022-04-13T10:28:54.301Z</time>
      </trkpt>
      <trkpt lat="42.02484" lon="21.55602">
        <ele>285.457675</ele>
        <time>2022-04-13T10:28:57.314Z</time>
      </trkpt>
      <trkpt lat="42.02479" lon="21.55585">
        <ele>284.812265</ele>
        <time>2022-04-13T10:29:00.314Z</time>
      </trkpt>
      <trkpt lat="42.02475" lon="21.55571">
        <ele>284.298574</ele>
        <time>2022-04-13T10:29:02.328Z</time>
      </trkpt>
      <trkpt lat="42.02471" lon="21.55556">
        <ele>283.714086</ele>
        <time>2022-04-13T10:29:04.294Z</time>
      </trkpt>
      <trkpt lat="42.02466" lon="21.55539">
        <ele>283.081255</ele>
        <time>2022-04-13T10:29:06.287Z</time>
      </trkpt>
      <trkpt lat="42.02462" lon="21.55523">
        <ele>282.460395</ele>
        <time>2022-04-13T10:29:08.318Z</time>
      </trkpt>
      <trkpt lat="42.02457" lon="21.55506">
        <ele>281.857793</ele>
        <time>2022-04-13T10:29:10.317Z</time>
      </trkpt>
      <trkpt lat="42.02452" lon="21.55492">
        <ele>281.288616</ele>
        <time>2022-04-13T10:29:12.316Z</time>
      </trkpt>
      <trkpt lat="42.02447" lon="21.55476">
        <ele>280.693597</ele>
        <time>2022-04-13T10:29:14.304Z</time>
      </trkpt>
      <trkpt lat="42.02442" lon="21.5546">
        <ele>280.074412</ele>
        <time>2022-04-13T10:29:16.342Z</time>
      </trkpt>
      <trkpt lat="42.02438" lon="21.55443">
        <ele>279.662091</ele>
        <time>2022-04-13T10:29:18.304Z</time>
      </trkpt>
      <trkpt lat="42.02433" lon="21.55428">
        <ele>279.610728</ele>
        <time>2022-04-13T10:29:20.379Z</time>
      </trkpt>
      <trkpt lat="42.0243" lon="21.55413">
        <ele>279.560034</ele>
        <time>2022-04-13T10:29:22.285Z</time>
      </trkpt>
      <trkpt lat="42.02426" lon="21.55397">
        <ele>279.507735</ele>
        <time>2022-04-13T10:29:24.316Z</time>
      </trkpt>
      <trkpt lat="42.02422" lon="21.55382">
        <ele>279.454876</ele>
        <time>2022-04-13T10:29:26.303Z</time>
      </trkpt>
      <trkpt lat="42.02417" lon="21.55367">
        <ele>279.404228</ele>
        <time>2022-04-13T10:29:28.314Z</time>
      </trkpt>
      <trkpt lat="42.02413" lon="21.55353">
        <ele>279.357015</ele>
        <time>2022-04-13T10:29:30.316Z</time>
      </trkpt>
      <trkpt lat="42.02409" lon="21.55339">
        <ele>279.30787</ele>
        <time>2022-04-13T10:29:32.303Z</time>
      </trkpt>
      <trkpt lat="42.02404" lon="21.55325">
        <ele>279.257974</ele>
        <time>2022-04-13T10:29:34.306Z</time>
      </trkpt>
      <trkpt lat="42.024" lon="21.55311">
        <ele>279.210939</ele>
        <time>2022-04-13T10:29:36.296Z</time>
      </trkpt>
      <trkpt lat="42.02397" lon="21.55297">
        <ele>279.165093</ele>
        <time>2022-04-13T10:29:38.332Z</time>
      </trkpt>
      <trkpt lat="42.02393" lon="21.55284">
        <ele>279.119543</ele>
        <time>2022-04-13T10:29:40.318Z</time>
      </trkpt>
      <trkpt lat="42.02389" lon="21.55271">
        <ele>279.073399</ele>
        <time>2022-04-13T10:29:42.287Z</time>
      </trkpt>
      <trkpt lat="42.02385" lon="21.55257">
        <ele>279.027849</ele>
        <time>2022-04-13T10:29:44.292Z</time>
      </trkpt>
      <trkpt lat="42.02381" lon="21.55245">
        <ele>278.985659</ele>
        <time>2022-04-13T10:29:46.293Z</time>
      </trkpt>
      <trkpt lat="42.02377" lon="21.55233">
        <ele>278.943841</ele>
        <time>2022-04-13T10:29:48.295Z</time>
      </trkpt>
      <trkpt lat="42.02373" lon="21.5522">
        <ele>278.892914</ele>
        <time>2022-04-13T10:29:50.323Z</time>
      </trkpt>
      <trkpt lat="42.0237" lon="21.55208">
        <ele>278.824842</ele>
        <time>2022-04-13T10:29:52.301Z</time>
      </trkpt>
      <trkpt lat="42.02366" lon="21.55191">
        <ele>278.732826</ele>
        <time>2022-04-13T10:29:55.290Z</time>
      </trkpt>
      <trkpt lat="42.02362" lon="21.55174">
        <ele>278.638248</ele>
        <time>2022-04-13T10:29:58.287Z</time>
      </trkpt>
      <trkpt lat="42.02358" lon="21.55161">
        <ele>278.567543</ele>
        <time>2022-04-13T10:30:00.290Z</time>
      </trkpt>
      <trkpt lat="42.02356" lon="21.55148">
        <ele>278.500674</ele>
        <time>2022-04-13T10:30:02.296Z</time>
      </trkpt>
      <trkpt lat="42.02352" lon="21.55137">
        <ele>278.436602</ele>
        <time>2022-04-13T10:30:04.309Z</time>
      </trkpt>
      <trkpt lat="42.02347" lon="21.55124">
        <ele>278.359549</ele>
        <time>2022-04-13T10:30:06.299Z</time>
      </trkpt>
      <trkpt lat="42.02343" lon="21.55111">
        <ele>278.28612</ele>
        <time>2022-04-13T10:30:08.309Z</time>
      </trkpt>
      <trkpt lat="42.02338" lon="21.55097">
        <ele>278.207169</ele>
        <time>2022-04-13T10:30:10.319Z</time>
      </trkpt>
      <trkpt lat="42.02334" lon="21.55082">
        <ele>278.125304</ele>
        <time>2022-04-13T10:30:12.313Z</time>
      </trkpt>
      <trkpt lat="42.02329" lon="21.55067">
        <ele>278.04311</ele>
        <time>2022-04-13T10:30:14.309Z</time>
      </trkpt>
      <trkpt lat="42.02325" lon="21.55053">
        <ele>277.966591</ele>
        <time>2022-04-13T10:30:16.306Z</time>
      </trkpt>
      <trkpt lat="42.02321" lon="21.55039">
        <ele>277.885622</ele>
        <time>2022-04-13T10:30:18.293Z</time>
      </trkpt>
      <trkpt lat="42.02317" lon="21.55026">
        <ele>277.811503</ele>
        <time>2022-04-13T10:30:20.295Z</time>
      </trkpt>
      <trkpt lat="42.02313" lon="21.55013">
        <ele>277.742742</ele>
        <time>2022-04-13T10:30:22.298Z</time>
      </trkpt>
      <trkpt lat="42.0231" lon="21.55001">
        <ele>277.67277</ele>
        <time>2022-04-13T10:30:24.327Z</time>
      </trkpt>
      <trkpt lat="42.02307" lon="21.54989">
        <ele>277.484327</ele>
        <time>2022-04-13T10:30:26.313Z</time>
      </trkpt>
      <trkpt lat="42.02303" lon="21.54978">
        <ele>277.270835</ele>
        <time>2022-04-13T10:30:31.299Z</time>
      </trkpt>
      <trkpt lat="42.02299" lon="21.54963">
        <ele>276.996627</ele>
        <time>2022-04-13T10:30:35.289Z</time>
      </trkpt>
      <trkpt lat="42.02294" lon="21.54947">
        <ele>276.698023</ele>
        <time>2022-04-13T10:30:38.294Z</time>
      </trkpt>
      <trkpt lat="42.02289" lon="21.54932">
        <ele>276.414922</ele>
        <time>2022-04-13T10:30:41.315Z</time>
      </trkpt>
      <trkpt lat="42.02286" lon="21.54921">
        <ele>276.205414</ele>
        <time>2022-04-13T10:30:43.305Z</time>
      </trkpt>
      <trkpt lat="42.02282" lon="21.54909">
        <ele>275.981295</ele>
        <time>2022-04-13T10:30:45.304Z</time>
      </trkpt>
      <trkpt lat="42.02279" lon="21.54897">
        <ele>275.760446</ele>
        <time>2022-04-13T10:30:47.304Z</time>
      </trkpt>
      <trkpt lat="42.02276" lon="21.54886">
        <ele>275.537115</ele>
        <time>2022-04-13T10:30:49.288Z</time>
      </trkpt>
      <trkpt lat="42.02273" lon="21.54874">
        <ele>275.325942</ele>
        <time>2022-04-13T10:30:51.294Z</time>
      </trkpt>
      <trkpt lat="42.02268" lon="21.54858">
        <ele>275.017492</ele>
        <time>2022-04-13T10:30:54.312Z</time>
      </trkpt>
      <trkpt lat="42.02265" lon="21.54846">
        <ele>274.805624</ele>
        <time>2022-04-13T10:30:56.317Z</time>
      </trkpt>
      <trkpt lat="42.02261" lon="21.54835">
        <ele>274.589472</ele>
        <time>2022-04-13T10:30:58.302Z</time>
      </trkpt>
      <trkpt lat="42.02258" lon="21.54823">
        <ele>274.371872</ele>
        <time>2022-04-13T10:31:00.282Z</time>
      </trkpt>
      <trkpt lat="42.02254" lon="21.54812">
        <ele>274.15922</ele>
        <time>2022-04-13T10:31:02.316Z</time>
      </trkpt>
      <trkpt lat="42.02251" lon="21.548">
        <ele>273.942463</ele>
        <time>2022-04-13T10:31:04.303Z</time>
      </trkpt>
      <trkpt lat="42.02248" lon="21.54789">
        <ele>273.724863</ele>
        <time>2022-04-13T10:31:06.290Z</time>
      </trkpt>
      <trkpt lat="42.02245" lon="21.54777">
        <ele>273.503217</ele>
        <time>2022-04-13T10:31:08.317Z</time>
      </trkpt>
      <trkpt lat="42.02241" lon="21.54765">
        <ele>273.409835</ele>
        <time>2022-04-13T10:31:10.339Z</time>
      </trkpt>
      <trkpt lat="42.02237" lon="21.54754">
        <ele>273.371627</ele>
        <time>2022-04-13T10:31:12.291Z</time>
      </trkpt>
      <trkpt lat="42.02234" lon="21.54742">
        <ele>273.333655</ele>
        <time>2022-04-13T10:31:14.303Z</time>
      </trkpt>
      <trkpt lat="42.02229" lon="21.54725">
        <ele>273.278647</ele>
        <time>2022-04-13T10:31:17.300Z</time>
      </trkpt>
      <trkpt lat="42.02225" lon="21.54713">
        <ele>273.239964</ele>
        <time>2022-04-13T10:31:19.318Z</time>
      </trkpt>
      <trkpt lat="42.02222" lon="21.54701">
        <ele>273.201573</ele>
        <time>2022-04-13T10:31:21.298Z</time>
      </trkpt>
      <trkpt lat="42.02219" lon="21.5469">
        <ele>273.164174</ele>
        <time>2022-04-13T10:31:23.293Z</time>
      </trkpt>
      <trkpt lat="42.02215" lon="21.54678">
        <ele>273.125216</ele>
        <time>2022-04-13T10:31:25.298Z</time>
      </trkpt>
      <trkpt lat="42.02212" lon="21.54665">
        <ele>273.086111</ele>
        <time>2022-04-13T10:31:27.292Z</time>
      </trkpt>
      <trkpt lat="42.02209" lon="21.54653">
        <ele>273.047153</ele>
        <time>2022-04-13T10:31:29.289Z</time>
      </trkpt>
      <trkpt lat="42.02205" lon="21.54641">
        <ele>273.006495</ele>
        <time>2022-04-13T10:31:31.390Z</time>
      </trkpt>
      <trkpt lat="42.02202" lon="21.54628">
        <ele>272.964983</ele>
        <time>2022-04-13T10:31:33.290Z</time>
      </trkpt>
      <trkpt lat="42.02198" lon="21.54615">
        <ele>272.924441</ele>
        <time>2022-04-13T10:31:35.303Z</time>
      </trkpt>
      <trkpt lat="42.02194" lon="21.54604">
        <ele>272.886038</ele>
        <time>2022-04-13T10:31:37.298Z</time>
      </trkpt>
      <trkpt lat="42.0219" lon="21.54589">
        <ele>272.837984</ele>
        <time>2022-04-13T10:31:40.306Z</time>
      </trkpt>
      <trkpt lat="42.02185" lon="21.54572">
        <ele>272.783438</ele>
        <time>2022-04-13T10:31:43.304Z</time>
      </trkpt>
      <trkpt lat="42.02181" lon="21.5456">
        <ele>272.744289</ele>
        <time>2022-04-13T10:31:45.297Z</time>
      </trkpt>
      <trkpt lat="42.02178" lon="21.54548">
        <ele>272.704546</ele>
        <time>2022-04-13T10:31:47.302Z</time>
      </trkpt>
      <trkpt lat="42.02173" lon="21.54535">
        <ele>272.691413</ele>
        <time>2022-04-13T10:31:49.298Z</time>
      </trkpt>
      <trkpt lat="42.0217" lon="21.54523">
        <ele>272.678382</ele>
        <time>2022-04-13T10:31:51.292Z</time>
      </trkpt>
      <trkpt lat="42.02166" lon="21.54511">
        <ele>272.665942</ele>
        <time>2022-04-13T10:31:53.293Z</time>
      </trkpt>
      <trkpt lat="42.02163" lon="21.54498">
        <ele>272.653622</ele>
        <time>2022-04-13T10:31:55.283Z</time>
      </trkpt>
      <trkpt lat="42.0216" lon="21.54486">
        <ele>272.640913</ele>
        <time>2022-04-13T10:31:57.295Z</time>
      </trkpt>
      <trkpt lat="42.02156" lon="21.54473">
        <ele>272.628249</ele>
        <time>2022-04-13T10:31:59.317Z</time>
      </trkpt>
      <trkpt lat="42.02153" lon="21.54461">
        <ele>272.615539</ele>
        <time>2022-04-13T10:32:01.320Z</time>
      </trkpt>
      <trkpt lat="42.02149" lon="21.54449">
        <ele>272.603231</ele>
        <time>2022-04-13T10:32:03.299Z</time>
      </trkpt>
      <trkpt lat="42.02146" lon="21.54437">
        <ele>272.590562</ele>
        <time>2022-04-13T10:32:05.287Z</time>
      </trkpt>
      <trkpt lat="42.02142" lon="21.54424">
        <ele>272.577794</ele>
        <time>2022-04-13T10:32:07.298Z</time>
      </trkpt>
      <trkpt lat="42.02138" lon="21.54412">
        <ele>272.565173</ele>
        <time>2022-04-13T10:32:09.299Z</time>
      </trkpt>
      <trkpt lat="42.02135" lon="21.544">
        <ele>272.552554</ele>
        <time>2022-04-13T10:32:11.300Z</time>
      </trkpt>
      <trkpt lat="42.02131" lon="21.54387">
        <ele>272.53966</ele>
        <time>2022-04-13T10:32:13.343Z</time>
      </trkpt>
      <trkpt lat="42.02128" lon="21.54374">
        <ele>272.526996</ele>
        <time>2022-04-13T10:32:15.286Z</time>
      </trkpt>
      <trkpt lat="42.02124" lon="21.54362">
        <ele>272.514327</ele>
        <time>2022-04-13T10:32:17.314Z</time>
      </trkpt>
      <trkpt lat="42.02121" lon="21.5435">
        <ele>272.501481</ele>
        <time>2022-04-13T10:32:19.298Z</time>
      </trkpt>
      <trkpt lat="42.02117" lon="21.54337">
        <ele>272.488675</ele>
        <time>2022-04-13T10:32:21.303Z</time>
      </trkpt>
      <trkpt lat="42.02113" lon="21.54325">
        <ele>272.475743</ele>
        <time>2022-04-13T10:32:23.292Z</time>
      </trkpt>
      <trkpt lat="42.0211" lon="21.54313">
        <ele>272.459283</ele>
        <time>2022-04-13T10:32:25.288Z</time>
      </trkpt>
      <trkpt lat="42.02106" lon="21.543">
        <ele>272.441615</ele>
        <time>2022-04-13T10:32:27.304Z</time>
      </trkpt>
      <trkpt lat="42.02102" lon="21.54288">
        <ele>272.423639</ele>
        <time>2022-04-13T10:32:29.291Z</time>
      </trkpt>
      <trkpt lat="42.02099" lon="21.54276">
        <ele>272.405665</ele>
        <time>2022-04-13T10:32:31.307Z</time>
      </trkpt>
      <trkpt lat="42.02095" lon="21.54263">
        <ele>272.386927</ele>
        <time>2022-04-13T10:32:33.332Z</time>
      </trkpt>
      <trkpt lat="42.02092" lon="21.5425">
        <ele>272.368825</ele>
        <time>2022-04-13T10:32:35.327Z</time>
      </trkpt>
      <trkpt lat="42.02088" lon="21.54238">
        <ele>272.350723</ele>
        <time>2022-04-13T10:32:37.308Z</time>
      </trkpt>
      <trkpt lat="42.02085" lon="21.54226">
        <ele>272.333382</ele>
        <time>2022-04-13T10:32:39.304Z</time>
      </trkpt>
      <trkpt lat="42.02081" lon="21.54213">
        <ele>272.315784</ele>
        <time>2022-04-13T10:32:41.340Z</time>
      </trkpt>
      <trkpt lat="42.02078" lon="21.54201">
        <ele>272.298317</ele>
        <time>2022-04-13T10:32:43.296Z</time>
      </trkpt>
      <trkpt lat="42.02074" lon="21.54189">
        <ele>272.280898</ele>
        <time>2022-04-13T10:32:45.320Z</time>
      </trkpt>
      <trkpt lat="42.02071" lon="21.54178">
        <ele>272.263674</ele>
        <time>2022-04-13T10:32:47.318Z</time>
      </trkpt>
      <trkpt lat="42.02067" lon="21.54166">
        <ele>272.246325</ele>
        <time>2022-04-13T10:32:49.305Z</time>
      </trkpt>
      <trkpt lat="42.02064" lon="21.54154">
        <ele>272.228975</ele>
        <time>2022-04-13T10:32:51.299Z</time>
      </trkpt>
      <trkpt lat="42.0206" lon="21.54142">
        <ele>272.211751</ele>
        <time>2022-04-13T10:32:53.314Z</time>
      </trkpt>
      <trkpt lat="42.02057" lon="21.5413">
        <ele>272.194536</ele>
        <time>2022-04-13T10:32:55.298Z</time>
      </trkpt>
      <trkpt lat="42.02054" lon="21.54118">
        <ele>272.177809</ele>
        <time>2022-04-13T10:32:57.294Z</time>
      </trkpt>
      <trkpt lat="42.02051" lon="21.54106">
        <ele>272.160144</ele>
        <time>2022-04-13T10:32:59.324Z</time>
      </trkpt>
      <trkpt lat="42.02047" lon="21.54094">
        <ele>272.148039</ele>
        <time>2022-04-13T10:33:01.320Z</time>
      </trkpt>
      <trkpt lat="42.02043" lon="21.54081">
        <ele>272.154417</ele>
        <time>2022-04-13T10:33:03.315Z</time>
      </trkpt>
      <trkpt lat="42.02039" lon="21.54068">
        <ele>272.160775</ele>
        <time>2022-04-13T10:33:05.285Z</time>
      </trkpt>
      <trkpt lat="42.02035" lon="21.54056">
        <ele>272.167139</ele>
        <time>2022-04-13T10:33:07.316Z</time>
      </trkpt>
      <trkpt lat="42.02031" lon="21.54043">
        <ele>272.173588</ele>
        <time>2022-04-13T10:33:09.312Z</time>
      </trkpt>
      <trkpt lat="42.02027" lon="21.54031">
        <ele>272.179951</ele>
        <time>2022-04-13T10:33:11.324Z</time>
      </trkpt>
      <trkpt lat="42.02024" lon="21.54018">
        <ele>272.186179</ele>
        <time>2022-04-13T10:33:13.307Z</time>
      </trkpt>
      <trkpt lat="42.0202" lon="21.54006">
        <ele>272.192427</ele>
        <time>2022-04-13T10:33:15.291Z</time>
      </trkpt>
      <trkpt lat="42.02017" lon="21.53994">
        <ele>272.198432</ele>
        <time>2022-04-13T10:33:17.303Z</time>
      </trkpt>
      <trkpt lat="42.02013" lon="21.53982">
        <ele>272.20448</ele>
        <time>2022-04-13T10:33:19.306Z</time>
      </trkpt>
      <trkpt lat="42.0201" lon="21.53969">
        <ele>272.210748</ele>
        <time>2022-04-13T10:33:21.304Z</time>
      </trkpt>
      <trkpt lat="42.02006" lon="21.53957">
        <ele>272.216909</ele>
        <time>2022-04-13T10:33:23.276Z</time>
      </trkpt>
      <trkpt lat="42.02003" lon="21.53945">
        <ele>272.223046</ele>
        <time>2022-04-13T10:33:25.302Z</time>
      </trkpt>
      <trkpt lat="42.01999" lon="21.53932">
        <ele>272.229138</ele>
        <time>2022-04-13T10:33:27.306Z</time>
      </trkpt>
      <trkpt lat="42.01996" lon="21.5392">
        <ele>272.235384</ele>
        <time>2022-04-13T10:33:29.312Z</time>
      </trkpt>
      <trkpt lat="42.01992" lon="21.53908">
        <ele>272.241545</ele>
        <time>2022-04-13T10:33:31.320Z</time>
      </trkpt>
      <trkpt lat="42.01989" lon="21.53896">
        <ele>272.247506</ele>
        <time>2022-04-13T10:33:33.307Z</time>
      </trkpt>
      <trkpt lat="42.01985" lon="21.53883">
        <ele>272.253708</ele>
        <time>2022-04-13T10:33:35.291Z</time>
      </trkpt>
      <trkpt lat="42.01982" lon="21.53872">
        <ele>272.259669</ele>
        <time>2022-04-13T10:33:37.292Z</time>
      </trkpt>
      <trkpt lat="42.01978" lon="21.5386">
        <ele>272.256471</ele>
        <time>2022-04-13T10:33:39.319Z</time>
      </trkpt>
      <trkpt lat="42.01975" lon="21.53848">
        <ele>272.253077</ele>
        <time>2022-04-13T10:33:41.305Z</time>
      </trkpt>
      <trkpt lat="42.01971" lon="21.53836">
        <ele>272.249568</ele>
        <time>2022-04-13T10:33:43.333Z</time>
      </trkpt>
      <trkpt lat="42.01967" lon="21.53824">
        <ele>272.246048</ele>
        <time>2022-04-13T10:33:45.301Z</time>
      </trkpt>
      <trkpt lat="42.01964" lon="21.53811">
        <ele>272.242479</ele>
        <time>2022-04-13T10:33:47.289Z</time>
      </trkpt>
      <trkpt lat="42.0196" lon="21.53799">
        <ele>272.238923</ele>
        <time>2022-04-13T10:33:49.304Z</time>
      </trkpt>
      <trkpt lat="42.01957" lon="21.53786">
        <ele>272.235355</ele>
        <time>2022-04-13T10:33:51.300Z</time>
      </trkpt>
      <trkpt lat="42.01953" lon="21.53774">
        <ele>272.231811</ele>
        <time>2022-04-13T10:33:53.304Z</time>
      </trkpt>
      <trkpt lat="42.0195" lon="21.53762">
        <ele>272.228441</ele>
        <time>2022-04-13T10:33:55.291Z</time>
      </trkpt>
      <trkpt lat="42.01946" lon="21.53749">
        <ele>272.224973</ele>
        <time>2022-04-13T10:33:57.332Z</time>
      </trkpt>
      <trkpt lat="42.01942" lon="21.53737">
        <ele>272.221376</ele>
        <time>2022-04-13T10:33:59.307Z</time>
      </trkpt>
      <trkpt lat="42.01938" lon="21.53725">
        <ele>272.217881</ele>
        <time>2022-04-13T10:34:01.299Z</time>
      </trkpt>
      <trkpt lat="42.01935" lon="21.53713">
        <ele>272.214537</ele>
        <time>2022-04-13T10:34:03.305Z</time>
      </trkpt>
      <trkpt lat="42.0193" lon="21.53696">
        <ele>272.209799</ele>
        <time>2022-04-13T10:34:06.278Z</time>
      </trkpt>
      <trkpt lat="42.01927" lon="21.53685">
        <ele>272.206467</ele>
        <time>2022-04-13T10:34:08.313Z</time>
      </trkpt>
      <trkpt lat="42.01924" lon="21.53673">
        <ele>272.203135</ele>
        <time>2022-04-13T10:34:10.330Z</time>
      </trkpt>
      <trkpt lat="42.0192" lon="21.53661">
        <ele>272.199766</ele>
        <time>2022-04-13T10:34:12.292Z</time>
      </trkpt>
      <trkpt lat="42.01915" lon="21.53645">
        <ele>272.238407</ele>
        <time>2022-04-13T10:34:15.279Z</time>
      </trkpt>
      <trkpt lat="42.01912" lon="21.53632">
        <ele>272.643728</ele>
        <time>2022-04-13T10:34:18.319Z</time>
      </trkpt>
      <trkpt lat="42.01908" lon="21.5362">
        <ele>273.011341</ele>
        <time>2022-04-13T10:34:21.300Z</time>
      </trkpt>
      <trkpt lat="42.01904" lon="21.53605">
        <ele>273.47057</ele>
        <time>2022-04-13T10:34:25.302Z</time>
      </trkpt>
      <trkpt lat="42.019" lon="21.5359">
        <ele>273.917632</ele>
        <time>2022-04-13T10:34:29.313Z</time>
      </trkpt>
      <trkpt lat="42.01897" lon="21.53577">
        <ele>274.308152</ele>
        <time>2022-04-13T10:34:33.307Z</time>
      </trkpt>
      <trkpt lat="42.01893" lon="21.53565">
        <ele>274.705613</ele>
        <time>2022-04-13T10:34:37.316Z</time>
      </trkpt>
      <trkpt lat="42.01889" lon="21.53552">
        <ele>275.085418</ele>
        <time>2022-04-13T10:34:41.313Z</time>
      </trkpt>
      <trkpt lat="42.01886" lon="21.53539">
        <ele>275.482669</ele>
        <time>2022-04-13T10:34:45.283Z</time>
      </trkpt>
      <trkpt lat="42.01882" lon="21.53526">
        <ele>275.884309</ele>
        <time>2022-04-13T10:34:49.293Z</time>
      </trkpt>
      <trkpt lat="42.0188" lon="21.53513">
        <ele>276.262147</ele>
        <time>2022-04-13T10:34:53.313Z</time>
      </trkpt>
      <trkpt lat="42.01876" lon="21.53501">
        <ele>276.654064</ele>
        <time>2022-04-13T10:34:57.291Z</time>
      </trkpt>
      <trkpt lat="42.01871" lon="21.53487">
        <ele>277.089672</ele>
        <time>2022-04-13T10:35:01.296Z</time>
      </trkpt>
      <trkpt lat="42.01867" lon="21.53474">
        <ele>277.482233</ele>
        <time>2022-04-13T10:35:05.300Z</time>
      </trkpt>
      <trkpt lat="42.01864" lon="21.53462">
        <ele>277.864715</ele>
        <time>2022-04-13T10:35:09.293Z</time>
      </trkpt>
      <trkpt lat="42.0186" lon="21.5345">
        <ele>278.231005</ele>
        <time>2022-04-13T10:35:13.312Z</time>
      </trkpt>
      <trkpt lat="42.01857" lon="21.53438">
        <ele>278.582506</ele>
        <time>2022-04-13T10:35:17.342Z</time>
      </trkpt>
      <trkpt lat="42.01854" lon="21.53426">
        <ele>278.967636</ele>
        <time>2022-04-13T10:35:21.297Z</time>
      </trkpt>
      <trkpt lat="42.0185" lon="21.53412">
        <ele>279.047373</ele>
        <time>2022-04-13T10:35:25.314Z</time>
      </trkpt>
      <trkpt lat="42.01845" lon="21.53397">
        <ele>278.845761</ele>
        <time>2022-04-13T10:35:29.296Z</time>
      </trkpt>
      <trkpt lat="42.01841" lon="21.53384">
        <ele>278.669187</ele>
        <time>2022-04-13T10:35:32.293Z</time>
      </trkpt>
      <trkpt lat="42.01837" lon="21.53368">
        <ele>278.465846</ele>
        <time>2022-04-13T10:35:35.286Z</time>
      </trkpt>
      <trkpt lat="42.01834" lon="21.53357">
        <ele>278.310073</ele>
        <time>2022-04-13T10:35:37.303Z</time>
      </trkpt>
      <trkpt lat="42.0183" lon="21.53343">
        <ele>278.125947</ele>
        <time>2022-04-13T10:35:39.298Z</time>
      </trkpt>
      <trkpt lat="42.01825" lon="21.53328">
        <ele>277.924078</ele>
        <time>2022-04-13T10:35:41.307Z</time>
      </trkpt>
      <trkpt lat="42.0182" lon="21.53313">
        <ele>277.717134</ele>
        <time>2022-04-13T10:35:43.328Z</time>
      </trkpt>
      <trkpt lat="42.01815" lon="21.53296">
        <ele>277.494998</ele>
        <time>2022-04-13T10:35:45.323Z</time>
      </trkpt>
      <trkpt lat="42.0181" lon="21.53279">
        <ele>277.255371</ele>
        <time>2022-04-13T10:35:47.309Z</time>
      </trkpt>
      <trkpt lat="42.01804" lon="21.5326">
        <ele>277.005598</ele>
        <time>2022-04-13T10:35:49.347Z</time>
      </trkpt>
      <trkpt lat="42.01797" lon="21.5324">
        <ele>276.74031</ele>
        <time>2022-04-13T10:35:51.310Z</time>
      </trkpt>
      <trkpt lat="42.01791" lon="21.5322">
        <ele>276.466433</ele>
        <time>2022-04-13T10:35:53.317Z</time>
      </trkpt>
      <trkpt lat="42.01786" lon="21.532">
        <ele>276.201879</ele>
        <time>2022-04-13T10:35:55.285Z</time>
      </trkpt>
      <trkpt lat="42.01782" lon="21.53185">
        <ele>276.196822</ele>
        <time>2022-04-13T10:35:57.287Z</time>
      </trkpt>
      <trkpt lat="42.01779" lon="21.53172">
        <ele>276.258728</ele>
        <time>2022-04-13T10:35:59.302Z</time>
      </trkpt>
      <trkpt lat="42.01776" lon="21.5316">
        <ele>276.318519</ele>
        <time>2022-04-13T10:36:01.329Z</time>
      </trkpt>
      <trkpt lat="42.01773" lon="21.53144">
        <ele>276.398089</ele>
        <time>2022-04-13T10:36:04.298Z</time>
      </trkpt>
      <trkpt lat="42.01769" lon="21.53128">
        <ele>276.479085</ele>
        <time>2022-04-13T10:36:07.284Z</time>
      </trkpt>
      <trkpt lat="42.01765" lon="21.53116">
        <ele>276.541259</ele>
        <time>2022-04-13T10:36:09.294Z</time>
      </trkpt>
      <trkpt lat="42.01759" lon="21.53103">
        <ele>276.611648</ele>
        <time>2022-04-13T10:36:11.300Z</time>
      </trkpt>
      <trkpt lat="42.01755" lon="21.53091">
        <ele>276.675318</ele>
        <time>2022-04-13T10:36:13.309Z</time>
      </trkpt>
      <trkpt lat="42.01752" lon="21.53078">
        <ele>276.737841</ele>
        <time>2022-04-13T10:36:15.283Z</time>
      </trkpt>
      <trkpt lat="42.01748" lon="21.53066">
        <ele>276.799841</ele>
        <time>2022-04-13T10:36:17.295Z</time>
      </trkpt>
      <trkpt lat="42.01744" lon="21.53055">
        <ele>276.86028</ele>
        <time>2022-04-13T10:36:19.302Z</time>
      </trkpt>
      <trkpt lat="42.01739" lon="21.53039">
        <ele>276.942571</ele>
        <time>2022-04-13T10:36:22.319Z</time>
      </trkpt>
      <trkpt lat="42.01733" lon="21.53024">
        <ele>277.024577</ele>
        <time>2022-04-13T10:36:25.290Z</time>
      </trkpt>
      <trkpt lat="42.01727" lon="21.53008">
        <ele>277.108962</ele>
        <time>2022-04-13T10:36:28.300Z</time>
      </trkpt>
      <trkpt lat="42.01723" lon="21.52992">
        <ele>277.189547</ele>
        <time>2022-04-13T10:36:31.315Z</time>
      </trkpt>
      <trkpt lat="42.01718" lon="21.52975">
        <ele>277.273873</ele>
        <time>2022-04-13T10:36:34.370Z</time>
      </trkpt>
      <trkpt lat="42.01715" lon="21.52963">
        <ele>277.390687</ele>
        <time>2022-04-13T10:36:36.298Z</time>
      </trkpt>
      <trkpt lat="42.01712" lon="21.52952">
        <ele>277.524099</ele>
        <time>2022-04-13T10:36:38.311Z</time>
      </trkpt>
      <trkpt lat="42.01707" lon="21.52936">
        <ele>277.718297</ele>
        <time>2022-04-13T10:36:41.302Z</time>
      </trkpt>
      <trkpt lat="42.01702" lon="21.5292">
        <ele>277.910889</ele>
        <time>2022-04-13T10:36:44.292Z</time>
      </trkpt>
      <trkpt lat="42.01697" lon="21.52905">
        <ele>278.091744</ele>
        <time>2022-04-13T10:36:47.308Z</time>
      </trkpt>
      <trkpt lat="42.01693" lon="21.52889">
        <ele>278.275294</ele>
        <time>2022-04-13T10:36:50.306Z</time>
      </trkpt>
      <trkpt lat="42.01688" lon="21.52874">
        <ele>278.458841</ele>
        <time>2022-04-13T10:36:53.291Z</time>
      </trkpt>
      <trkpt lat="42.01684" lon="21.52858">
        <ele>278.641985</ele>
        <time>2022-04-13T10:36:56.348Z</time>
      </trkpt>
      <trkpt lat="42.01679" lon="21.52843">
        <ele>278.822439</ele>
        <time>2022-04-13T10:36:59.304Z</time>
      </trkpt>
      <trkpt lat="42.01675" lon="21.52827">
        <ele>279.015852</ele>
        <time>2022-04-13T10:37:02.340Z</time>
      </trkpt>
      <trkpt lat="42.0167" lon="21.5281">
        <ele>279.212363</ele>
        <time>2022-04-13T10:37:05.285Z</time>
      </trkpt>
      <trkpt lat="42.01667" lon="21.52798">
        <ele>279.351835</ele>
        <time>2022-04-13T10:37:07.304Z</time>
      </trkpt>
      <trkpt lat="42.01663" lon="21.52787">
        <ele>279.491839</ele>
        <time>2022-04-13T10:37:09.318Z</time>
      </trkpt>
      <trkpt lat="42.01658" lon="21.5277">
        <ele>279.692595</ele>
        <time>2022-04-13T10:37:12.311Z</time>
      </trkpt>
      <trkpt lat="42.01653" lon="21.52754">
        <ele>279.879107</ele>
        <time>2022-04-13T10:37:15.281Z</time>
      </trkpt>
      <trkpt lat="42.01648" lon="21.52738">
        <ele>280.036494</ele>
        <time>2022-04-13T10:37:18.316Z</time>
      </trkpt>
      <trkpt lat="42.01644" lon="21.52727">
        <ele>280.121044</ele>
        <time>2022-04-13T10:37:20.311Z</time>
      </trkpt>
      <trkpt lat="42.01641" lon="21.52715">
        <ele>280.20653</ele>
        <time>2022-04-13T10:37:22.314Z</time>
      </trkpt>
      <trkpt lat="42.01638" lon="21.52703">
        <ele>280.292665</ele>
        <time>2022-04-13T10:37:24.348Z</time>
      </trkpt>
      <trkpt lat="42.01635" lon="21.52691">
        <ele>280.378879</ele>
        <time>2022-04-13T10:37:26.304Z</time>
      </trkpt>
      <trkpt lat="42.01633" lon="21.52679">
        <ele>280.46183</ele>
        <time>2022-04-13T10:37:28.317Z</time>
      </trkpt>
      <trkpt lat="42.01628" lon="21.52663">
        <ele>280.57813</ele>
        <time>2022-04-13T10:37:31.304Z</time>
      </trkpt>
      <trkpt lat="42.01623" lon="21.52648">
        <ele>280.695845</ele>
        <time>2022-04-13T10:37:34.306Z</time>
      </trkpt>
      <trkpt lat="42.01619" lon="21.52632">
        <ele>280.81022</ele>
        <time>2022-04-13T10:37:37.302Z</time>
      </trkpt>
      <trkpt lat="42.01614" lon="21.52617">
        <ele>280.922345</ele>
        <time>2022-04-13T10:37:40.300Z</time>
      </trkpt>
      <trkpt lat="42.01609" lon="21.52602">
        <ele>281.032309</ele>
        <time>2022-04-13T10:37:43.310Z</time>
      </trkpt>
      <trkpt lat="42.01605" lon="21.52587">
        <ele>281.145076</ele>
        <time>2022-04-13T10:37:46.339Z</time>
      </trkpt>
      <trkpt lat="42.01601" lon="21.52571">
        <ele>281.259145</ele>
        <time>2022-04-13T10:37:49.301Z</time>
      </trkpt>
      <trkpt lat="42.01596" lon="21.52555">
        <ele>281.376742</ele>
        <time>2022-04-13T10:37:52.315Z</time>
      </trkpt>
      <trkpt lat="42.01591" lon="21.52541">
        <ele>281.486087</ele>
        <time>2022-04-13T10:37:55.282Z</time>
      </trkpt>
      <trkpt lat="42.01587" lon="21.52525">
        <ele>281.600803</ele>
        <time>2022-04-13T10:37:58.308Z</time>
      </trkpt>
      <trkpt lat="42.01583" lon="21.5251">
        <ele>281.980066</ele>
        <time>2022-04-13T10:38:01.316Z</time>
      </trkpt>
      <trkpt lat="42.01578" lon="21.52496">
        <ele>282.411277</ele>
        <time>2022-04-13T10:38:04.299Z</time>
      </trkpt>
      <trkpt lat="42.01574" lon="21.52481">
        <ele>282.843049</ele>
        <time>2022-04-13T10:38:07.326Z</time>
      </trkpt>
      <trkpt lat="42.01569" lon="21.52468">
        <ele>283.266545</ele>
        <time>2022-04-13T10:38:10.293Z</time>
      </trkpt>
      <trkpt lat="42.01565" lon="21.52455">
        <ele>283.66551</ele>
        <time>2022-04-13T10:38:13.297Z</time>
      </trkpt>
      <trkpt lat="42.01561" lon="21.52442">
        <ele>284.035556</ele>
        <time>2022-04-13T10:38:16.308Z</time>
      </trkpt>
      <trkpt lat="42.01558" lon="21.52431">
        <ele>284.39205</ele>
        <time>2022-04-13T10:38:19.292Z</time>
      </trkpt>
      <trkpt lat="42.01555" lon="21.52419">
        <ele>284.736659</ele>
        <time>2022-04-13T10:38:22.294Z</time>
      </trkpt>
      <trkpt lat="42.01551" lon="21.52405">
        <ele>285.171219</ele>
        <time>2022-04-13T10:38:26.310Z</time>
      </trkpt>
      <trkpt lat="42.01547" lon="21.52392">
        <ele>285.572071</ele>
        <time>2022-04-13T10:38:29.297Z</time>
      </trkpt>
      <trkpt lat="42.01542" lon="21.5238">
        <ele>285.941574</ele>
        <time>2022-04-13T10:38:32.316Z</time>
      </trkpt>
      <trkpt lat="42.01539" lon="21.52367">
        <ele>286.317865</ele>
        <time>2022-04-13T10:38:35.298Z</time>
      </trkpt>
      <trkpt lat="42.01535" lon="21.52352">
        <ele>286.772052</ele>
        <time>2022-04-13T10:38:38.313Z</time>
      </trkpt>
      <trkpt lat="42.01531" lon="21.52337">
        <ele>287.240833</ele>
        <time>2022-04-13T10:38:41.308Z</time>
      </trkpt>
      <trkpt lat="42.01526" lon="21.52323">
        <ele>287.674225</ele>
        <time>2022-04-13T10:38:44.303Z</time>
      </trkpt>
      <trkpt lat="42.01521" lon="21.52309">
        <ele>288.102429</ele>
        <time>2022-04-13T10:38:47.297Z</time>
      </trkpt>
      <trkpt lat="42.01517" lon="21.52294">
        <ele>288.4814</ele>
        <time>2022-04-13T10:38:50.284Z</time>
      </trkpt>
      <trkpt lat="42.01513" lon="21.52279">
        <ele>288.635853</ele>
        <time>2022-04-13T10:38:53.312Z</time>
      </trkpt>
      <trkpt lat="42.01509" lon="21.52264">
        <ele>288.797145</ele>
        <time>2022-04-13T10:38:56.323Z</time>
      </trkpt>
      <trkpt lat="42.01506" lon="21.52249">
        <ele>288.942455</ele>
        <time>2022-04-13T10:38:59.301Z</time>
      </trkpt>
      <trkpt lat="42.01503" lon="21.52236">
        <ele>289.074657</ele>
        <time>2022-04-13T10:39:02.291Z</time>
      </trkpt>
      <trkpt lat="42.01499" lon="21.52222">
        <ele>289.217749</ele>
        <time>2022-04-13T10:39:05.300Z</time>
      </trkpt>
      <trkpt lat="42.01495" lon="21.52209">
        <ele>289.364247</ele>
        <time>2022-04-13T10:39:08.313Z</time>
      </trkpt>
      <trkpt lat="42.0149" lon="21.52195">
        <ele>289.507412</ele>
        <time>2022-04-13T10:39:11.298Z</time>
      </trkpt>
      <trkpt lat="42.01486" lon="21.52182">
        <ele>289.646889</ele>
        <time>2022-04-13T10:39:14.305Z</time>
      </trkpt>
      <trkpt lat="42.01482" lon="21.52169">
        <ele>289.781872</ele>
        <time>2022-04-13T10:39:17.303Z</time>
      </trkpt>
      <trkpt lat="42.01477" lon="21.52156">
        <ele>289.923308</ele>
        <time>2022-04-13T10:39:20.299Z</time>
      </trkpt>
      <trkpt lat="42.01472" lon="21.52142">
        <ele>290.075751</ele>
        <time>2022-04-13T10:39:23.317Z</time>
      </trkpt>
      <trkpt lat="42.01468" lon="21.52127">
        <ele>290.228399</ele>
        <time>2022-04-13T10:39:26.306Z</time>
      </trkpt>
      <trkpt lat="42.01463" lon="21.52111">
        <ele>290.39881</ele>
        <time>2022-04-13T10:39:29.308Z</time>
      </trkpt>
      <trkpt lat="42.0146" lon="21.52095">
        <ele>290.558809</ele>
        <time>2022-04-13T10:39:32.315Z</time>
      </trkpt>
      <trkpt lat="42.01455" lon="21.52081">
        <ele>290.713655</ele>
        <time>2022-04-13T10:39:35.286Z</time>
      </trkpt>
      <trkpt lat="42.0145" lon="21.52065">
        <ele>290.971055</ele>
        <time>2022-04-13T10:39:38.279Z</time>
      </trkpt>
      <trkpt lat="42.01446" lon="21.5205">
        <ele>291.319129</ele>
        <time>2022-04-13T10:39:41.280Z</time>
      </trkpt>
      <trkpt lat="42.01444" lon="21.52036">
        <ele>291.635202</ele>
        <time>2022-04-13T10:39:44.275Z</time>
      </trkpt>
      <trkpt lat="42.01438" lon="21.52025">
        <ele>291.939941</ele>
        <time>2022-04-13T10:39:47.291Z</time>
      </trkpt>
      <trkpt lat="42.01433" lon="21.52011">
        <ele>292.273317</ele>
        <time>2022-04-13T10:39:50.273Z</time>
      </trkpt>
      <trkpt lat="42.01429" lon="21.51996">
        <ele>292.623456</ele>
        <time>2022-04-13T10:39:53.283Z</time>
      </trkpt>
      <trkpt lat="42.01426" lon="21.51984">
        <ele>292.905372</ele>
        <time>2022-04-13T10:39:55.279Z</time>
      </trkpt>
      <trkpt lat="42.01423" lon="21.51971">
        <ele>293.210964</ele>
        <time>2022-04-13T10:39:57.282Z</time>
      </trkpt>
      <trkpt lat="42.01418" lon="21.5196">
        <ele>293.492526</ele>
        <time>2022-04-13T10:39:59.299Z</time>
      </trkpt>
      <trkpt lat="42.01413" lon="21.51948">
        <ele>293.80448</ele>
        <time>2022-04-13T10:40:01.273Z</time>
      </trkpt>
      <trkpt lat="42.01409" lon="21.51937">
        <ele>294.083112</ele>
        <time>2022-04-13T10:40:03.298Z</time>
      </trkpt>
      <trkpt lat="42.01405" lon="21.51925">
        <ele>294.359698</ele>
        <time>2022-04-13T10:40:05.303Z</time>
      </trkpt>
      <trkpt lat="42.01402" lon="21.51909">
        <ele>294.734427</ele>
        <time>2022-04-13T10:40:08.273Z</time>
      </trkpt>
      <trkpt lat="42.01398" lon="21.51895">
        <ele>295.071553</ele>
        <time>2022-04-13T10:40:11.278Z</time>
      </trkpt>
      <trkpt lat="42.01395" lon="21.51878">
        <ele>295.455756</ele>
        <time>2022-04-13T10:40:14.284Z</time>
      </trkpt>
      <trkpt lat="42.0139" lon="21.51861">
        <ele>295.851496</ele>
        <time>2022-04-13T10:40:17.284Z</time>
      </trkpt>
      <trkpt lat="42.01387" lon="21.51849">
        <ele>296.137403</ele>
        <time>2022-04-13T10:40:19.281Z</time>
      </trkpt>
      <trkpt lat="42.01382" lon="21.51833">
        <ele>295.870579</ele>
        <time>2022-04-13T10:40:22.281Z</time>
      </trkpt>
      <trkpt lat="42.01377" lon="21.51818">
        <ele>295.590538</ele>
        <time>2022-04-13T10:40:25.276Z</time>
      </trkpt>
      <trkpt lat="42.01371" lon="21.51802">
        <ele>295.297939</ele>
        <time>2022-04-13T10:40:28.303Z</time>
      </trkpt>
      <trkpt lat="42.01366" lon="21.51786">
        <ele>295.00914</ele>
        <time>2022-04-13T10:40:31.286Z</time>
      </trkpt>
      <trkpt lat="42.01363" lon="21.51771">
        <ele>294.742696</ele>
        <time>2022-04-13T10:40:34.296Z</time>
      </trkpt>
      <trkpt lat="42.01359" lon="21.51755">
        <ele>294.463921</ele>
        <time>2022-04-13T10:40:37.278Z</time>
      </trkpt>
      <trkpt lat="42.01354" lon="21.5174">
        <ele>294.177978</ele>
        <time>2022-04-13T10:40:40.301Z</time>
      </trkpt>
      <trkpt lat="42.0135" lon="21.51723">
        <ele>293.884201</ele>
        <time>2022-04-13T10:40:43.270Z</time>
      </trkpt>
      <trkpt lat="42.01345" lon="21.51707">
        <ele>293.592828</ele>
        <time>2022-04-13T10:40:46.301Z</time>
      </trkpt>
      <trkpt lat="42.01341" lon="21.5169">
        <ele>293.295117</ele>
        <time>2022-04-13T10:40:49.279Z</time>
      </trkpt>
      <trkpt lat="42.01337" lon="21.51679">
        <ele>293.084566</ele>
        <time>2022-04-13T10:40:51.275Z</time>
      </trkpt>
      <trkpt lat="42.01333" lon="21.51667">
        <ele>292.875555</ele>
        <time>2022-04-13T10:40:53.284Z</time>
      </trkpt>
      <trkpt lat="42.0133" lon="21.51656">
        <ele>292.667605</ele>
        <time>2022-04-13T10:40:55.270Z</time>
      </trkpt>
      <trkpt lat="42.01327" lon="21.51644">
        <ele>292.457253</ele>
        <time>2022-04-13T10:40:57.283Z</time>
      </trkpt>
      <trkpt lat="42.01323" lon="21.51632">
        <ele>292.244627</ele>
        <time>2022-04-13T10:40:59.278Z</time>
      </trkpt>
      <trkpt lat="42.0132" lon="21.51615">
        <ele>292.049284</ele>
        <time>2022-04-13T10:41:02.282Z</time>
      </trkpt>
      <trkpt lat="42.01316" lon="21.51598">
        <ele>291.978153</ele>
        <time>2022-04-13T10:41:05.283Z</time>
      </trkpt>
      <trkpt lat="42.01311" lon="21.51582">
        <ele>291.906447</ele>
        <time>2022-04-13T10:41:08.278Z</time>
      </trkpt>
      <trkpt lat="42.01306" lon="21.51567">
        <ele>291.840466</ele>
        <time>2022-04-13T10:41:11.281Z</time>
      </trkpt>
      <trkpt lat="42.01301" lon="21.51552">
        <ele>291.776198</ele>
        <time>2022-04-13T10:41:14.300Z</time>
      </trkpt>
      <trkpt lat="42.01299" lon="21.51539">
        <ele>291.721136</ele>
        <time>2022-04-13T10:41:17.279Z</time>
      </trkpt>
      <trkpt lat="42.01295" lon="21.51525">
        <ele>291.657436</ele>
        <time>2022-04-13T10:41:20.305Z</time>
      </trkpt>
      <trkpt lat="42.01291" lon="21.51512">
        <ele>291.601156</ele>
        <time>2022-04-13T10:41:23.283Z</time>
      </trkpt>
      <trkpt lat="42.01288" lon="21.51499">
        <ele>291.547332</ele>
        <time>2022-04-13T10:41:26.303Z</time>
      </trkpt>
      <trkpt lat="42.01282" lon="21.51484">
        <ele>291.478431</ele>
        <time>2022-04-13T10:41:29.279Z</time>
      </trkpt>
      <trkpt lat="42.01277" lon="21.51469">
        <ele>291.40947</ele>
        <time>2022-04-13T10:41:32.296Z</time>
      </trkpt>
      <trkpt lat="42.01272" lon="21.51453">
        <ele>291.34057</ele>
        <time>2022-04-13T10:41:35.268Z</time>
      </trkpt>
      <trkpt lat="42.01267" lon="21.51437">
        <ele>291.268407</ele>
        <time>2022-04-13T10:41:38.269Z</time>
      </trkpt>
      <trkpt lat="42.01263" lon="21.5142">
        <ele>291.197857</ele>
        <time>2022-04-13T10:41:41.276Z</time>
      </trkpt>
      <trkpt lat="42.01259" lon="21.51406">
        <ele>291.135387</ele>
        <time>2022-04-13T10:41:44.300Z</time>
      </trkpt>
      <trkpt lat="42.01256" lon="21.51392">
        <ele>291.000108</ele>
        <time>2022-04-13T10:41:47.286Z</time>
      </trkpt>
      <trkpt lat="42.01253" lon="21.51375">
        <ele>290.72058</ele>
        <time>2022-04-13T10:41:50.304Z</time>
      </trkpt>
      <trkpt lat="42.01248" lon="21.5136">
        <ele>290.450584</ele>
        <time>2022-04-13T10:41:53.282Z</time>
      </trkpt>
      <trkpt lat="42.01244" lon="21.51345">
        <ele>290.193607</ele>
        <time>2022-04-13T10:41:56.310Z</time>
      </trkpt>
      <trkpt lat="42.01239" lon="21.51329">
        <ele>289.917853</ele>
        <time>2022-04-13T10:41:59.289Z</time>
      </trkpt>
      <trkpt lat="42.01234" lon="21.51315">
        <ele>289.670328</ele>
        <time>2022-04-13T10:42:02.302Z</time>
      </trkpt>
      <trkpt lat="42.0123" lon="21.51301">
        <ele>289.417168</ele>
        <time>2022-04-13T10:42:05.273Z</time>
      </trkpt>
      <trkpt lat="42.01228" lon="21.51288">
        <ele>289.202057</ele>
        <time>2022-04-13T10:42:08.301Z</time>
      </trkpt>
      <trkpt lat="42.01225" lon="21.5127">
        <ele>288.911979</ele>
        <time>2022-04-13T10:42:11.276Z</time>
      </trkpt>
      <trkpt lat="42.01221" lon="21.51253">
        <ele>288.619142</ele>
        <time>2022-04-13T10:42:14.296Z</time>
      </trkpt>
      <trkpt lat="42.01218" lon="21.51242">
        <ele>288.421494</ele>
        <time>2022-04-13T10:42:16.281Z</time>
      </trkpt>
      <trkpt lat="42.01213" lon="21.51226">
        <ele>288.142985</ele>
        <time>2022-04-13T10:42:19.270Z</time>
      </trkpt>
      <trkpt lat="42.01208" lon="21.51211">
        <ele>287.876671</ele>
        <time>2022-04-13T10:42:22.272Z</time>
      </trkpt>
      <trkpt lat="42.01203" lon="21.51196">
        <ele>287.608996</ele>
        <time>2022-04-13T10:42:25.277Z</time>
      </trkpt>
      <trkpt lat="42.01199" lon="21.51181">
        <ele>287.342141</ele>
        <time>2022-04-13T10:42:28.279Z</time>
      </trkpt>
      <trkpt lat="42.01195" lon="21.51165">
        <ele>287.289551</ele>
        <time>2022-04-13T10:42:31.278Z</time>
      </trkpt>
      <trkpt lat="42.0119" lon="21.51151">
        <ele>287.678613</ele>
        <time>2022-04-13T10:42:34.273Z</time>
      </trkpt>
      <trkpt lat="42.01185" lon="21.51137">
        <ele>288.045868</ele>
        <time>2022-04-13T10:42:37.278Z</time>
      </trkpt>
      <trkpt lat="42.01182" lon="21.51125">
        <ele>288.353497</ele>
        <time>2022-04-13T10:42:40.272Z</time>
      </trkpt>
      <trkpt lat="42.01177" lon="21.51113">
        <ele>288.686965</ele>
        <time>2022-04-13T10:42:43.302Z</time>
      </trkpt>
      <trkpt lat="42.01173" lon="21.51098">
        <ele>289.068459</ele>
        <time>2022-04-13T10:42:46.276Z</time>
      </trkpt>
      <trkpt lat="42.01169" lon="21.51083">
        <ele>289.483437</ele>
        <time>2022-04-13T10:42:49.386Z</time>
      </trkpt>
      <trkpt lat="42.01164" lon="21.51067">
        <ele>289.894665</ele>
        <time>2022-04-13T10:42:52.284Z</time>
      </trkpt>
      <trkpt lat="42.0116" lon="21.51053">
        <ele>290.254465</ele>
        <time>2022-04-13T10:42:55.287Z</time>
      </trkpt>
      <trkpt lat="42.01156" lon="21.5104">
        <ele>290.593225</ele>
        <time>2022-04-13T10:42:58.269Z</time>
      </trkpt>
      <trkpt lat="42.01153" lon="21.51027">
        <ele>290.927926</ele>
        <time>2022-04-13T10:43:01.280Z</time>
      </trkpt>
      <trkpt lat="42.01149" lon="21.51016">
        <ele>291.232897</ele>
        <time>2022-04-13T10:43:05.269Z</time>
      </trkpt>
      <trkpt lat="42.01144" lon="21.51003">
        <ele>291.586843</ele>
        <time>2022-04-13T10:43:09.281Z</time>
      </trkpt>
      <trkpt lat="42.01139" lon="21.50992">
        <ele>291.914253</ele>
        <time>2022-04-13T10:43:13.343Z</time>
      </trkpt>
      <trkpt lat="42.01134" lon="21.50976">
        <ele>292.316733</ele>
        <time>2022-04-13T10:43:17.268Z</time>
      </trkpt>
      <trkpt lat="42.01132" lon="21.50964">
        <ele>292.624283</ele>
        <time>2022-04-13T10:43:20.272Z</time>
      </trkpt>
      <trkpt lat="42.0113" lon="21.50952">
        <ele>292.92636</ele>
        <time>2022-04-13T10:43:23.278Z</time>
      </trkpt>
      <trkpt lat="42.01124" lon="21.5094">
        <ele>293.239498</ele>
        <time>2022-04-13T10:43:27.308Z</time>
      </trkpt>
      <trkpt lat="42.01115" lon="21.5093">
        <ele>293.561231</ele>
        <time>2022-04-13T10:43:31.273Z</time>
      </trkpt>
      <trkpt lat="42.01104" lon="21.50925">
        <ele>293.86706</ele>
        <time>2022-04-13T10:43:35.315Z</time>
      </trkpt>
      <trkpt lat="42.01096" lon="21.5092">
        <ele>294.121771</ele>
        <time>2022-04-13T10:43:39.276Z</time>
      </trkpt>
      <trkpt lat="42.01086" lon="21.50913">
        <ele>294.413452</ele>
        <time>2022-04-13T10:43:43.274Z</time>
      </trkpt>
      <trkpt lat="42.01075" lon="21.50905">
        <ele>294.775993</ele>
        <time>2022-04-13T10:43:47.274Z</time>
      </trkpt>
      <trkpt lat="42.01065" lon="21.50897">
        <ele>295.081408</ele>
        <time>2022-04-13T10:43:51.276Z</time>
      </trkpt>
      <trkpt lat="42.01057" lon="21.50891">
        <ele>295.335323</ele>
        <time>2022-04-13T10:43:54.274Z</time>
      </trkpt>
      <trkpt lat="42.01046" lon="21.50886">
        <ele>295.65893</ele>
        <time>2022-04-13T10:43:57.295Z</time>
      </trkpt>
      <trkpt lat="42.01035" lon="21.50881">
        <ele>295.972416</ele>
        <time>2022-04-13T10:44:00.279Z</time>
      </trkpt>
      <trkpt lat="42.01024" lon="21.50876">
        <ele>296.286353</ele>
        <time>2022-04-13T10:44:03.279Z</time>
      </trkpt>
      <trkpt lat="42.01016" lon="21.5087">
        <ele>296.550547</ele>
        <time>2022-04-13T10:44:06.285Z</time>
      </trkpt>
      <trkpt lat="42.01007" lon="21.50863">
        <ele>296.827267</ele>
        <time>2022-04-13T10:44:11.271Z</time>
      </trkpt>
      <trkpt lat="42.00998" lon="21.5086">
        <ele>297.091027</ele>
        <time>2022-04-13T10:44:16.277Z</time>
      </trkpt>
      <trkpt lat="42.00987" lon="21.50855">
        <ele>297.404918</ele>
        <time>2022-04-13T10:44:20.277Z</time>
      </trkpt>
      <trkpt lat="42.00974" lon="21.5085">
        <ele>297.765032</ele>
        <time>2022-04-13T10:44:23.306Z</time>
      </trkpt>
      <trkpt lat="42.00965" lon="21.50847">
        <ele>297.910001</ele>
        <time>2022-04-13T10:44:25.276Z</time>
      </trkpt>
      <trkpt lat="42.00955" lon="21.50843">
        <ele>297.378615</ele>
        <time>2022-04-13T10:44:27.275Z</time>
      </trkpt>
      <trkpt lat="42.00945" lon="21.50838">
        <ele>296.837703</ele>
        <time>2022-04-13T10:44:29.283Z</time>
      </trkpt>
      <trkpt lat="42.00934" lon="21.50833">
        <ele>296.227725</ele>
        <time>2022-04-13T10:44:31.291Z</time>
      </trkpt>
      <trkpt lat="42.00923" lon="21.50827">
        <ele>295.593525</ele>
        <time>2022-04-13T10:44:33.277Z</time>
      </trkpt>
      <trkpt lat="42.0091" lon="21.5082">
        <ele>294.872203</ele>
        <time>2022-04-13T10:44:35.275Z</time>
      </trkpt>
      <trkpt lat="42.00897" lon="21.50811">
        <ele>294.069902</ele>
        <time>2022-04-13T10:44:37.278Z</time>
      </trkpt>
      <trkpt lat="42.00883" lon="21.508">
        <ele>293.245488</ele>
        <time>2022-04-13T10:44:39.284Z</time>
      </trkpt>
      <trkpt lat="42.0087" lon="21.50787">
        <ele>292.418962</ele>
        <time>2022-04-13T10:44:41.276Z</time>
      </trkpt>
      <trkpt lat="42.00859" lon="21.50772">
        <ele>291.589445</ele>
        <time>2022-04-13T10:44:43.280Z</time>
      </trkpt>
      <trkpt lat="42.00848" lon="21.50756">
        <ele>290.743117</ele>
        <time>2022-04-13T10:44:45.279Z</time>
      </trkpt>
      <trkpt lat="42.00839" lon="21.5074">
        <ele>289.969243</ele>
        <time>2022-04-13T10:44:47.282Z</time>
      </trkpt>
      <trkpt lat="42.0083" lon="21.50725">
        <ele>289.231195</ele>
        <time>2022-04-13T10:44:49.269Z</time>
      </trkpt>
      <trkpt lat="42.00821" lon="21.5071">
        <ele>288.50755</ele>
        <time>2022-04-13T10:44:51.292Z</time>
      </trkpt>
      <trkpt lat="42.00814" lon="21.50696">
        <ele>288.013762</ele>
        <time>2022-04-13T10:44:53.277Z</time>
      </trkpt>
      <trkpt lat="42.00806" lon="21.50682">
        <ele>287.51297</ele>
        <time>2022-04-13T10:44:55.277Z</time>
      </trkpt>
      <trkpt lat="42.00799" lon="21.50668">
        <ele>287.021444</ele>
        <time>2022-04-13T10:44:57.274Z</time>
      </trkpt>
      <trkpt lat="42.00791" lon="21.50655">
        <ele>286.538899</ele>
        <time>2022-04-13T10:44:59.272Z</time>
      </trkpt>
      <trkpt lat="42.00784" lon="21.50642">
        <ele>286.081993</ele>
        <time>2022-04-13T10:45:01.284Z</time>
      </trkpt>
      <trkpt lat="42.00778" lon="21.50628">
        <ele>285.621838</ele>
        <time>2022-04-13T10:45:03.279Z</time>
      </trkpt>
      <trkpt lat="42.00771" lon="21.50614">
        <ele>285.12746</ele>
        <time>2022-04-13T10:45:05.279Z</time>
      </trkpt>
      <trkpt lat="42.00764" lon="21.506">
        <ele>284.635825</ele>
        <time>2022-04-13T10:45:07.311Z</time>
      </trkpt>
      <trkpt lat="42.00757" lon="21.50586">
        <ele>284.162451</ele>
        <time>2022-04-13T10:45:09.286Z</time>
      </trkpt>
      <trkpt lat="42.0075" lon="21.50573">
        <ele>283.71473</ele>
        <time>2022-04-13T10:45:11.274Z</time>
      </trkpt>
      <trkpt lat="42.00744" lon="21.50561">
        <ele>283.289645</ele>
        <time>2022-04-13T10:45:13.284Z</time>
      </trkpt>
      <trkpt lat="42.00738" lon="21.50549">
        <ele>282.878146</ele>
        <time>2022-04-13T10:45:15.283Z</time>
      </trkpt>
      <trkpt lat="42.00733" lon="21.50537">
        <ele>282.483784</ele>
        <time>2022-04-13T10:45:17.278Z</time>
      </trkpt>
      <trkpt lat="42.00728" lon="21.50527">
        <ele>282.131422</ele>
        <time>2022-04-13T10:45:19.276Z</time>
      </trkpt>
      <trkpt lat="42.00723" lon="21.50517">
        <ele>281.77776</ele>
        <time>2022-04-13T10:45:21.288Z</time>
      </trkpt>
      <trkpt lat="42.00718" lon="21.50506">
        <ele>281.652246</ele>
        <time>2022-04-13T10:45:23.284Z</time>
      </trkpt>
      <trkpt lat="42.00712" lon="21.50496">
        <ele>281.681603</ele>
        <time>2022-04-13T10:45:25.278Z</time>
      </trkpt>
      <trkpt lat="42.00707" lon="21.50485">
        <ele>281.710815</ele>
        <time>2022-04-13T10:45:27.282Z</time>
      </trkpt>
      <trkpt lat="42.00702" lon="21.50475">
        <ele>281.740361</ele>
        <time>2022-04-13T10:45:29.299Z</time>
      </trkpt>
      <trkpt lat="42.00695" lon="21.50461">
        <ele>281.778788</ele>
        <time>2022-04-13T10:45:32.275Z</time>
      </trkpt>
      <trkpt lat="42.00688" lon="21.50448">
        <ele>281.815785</ele>
        <time>2022-04-13T10:45:35.302Z</time>
      </trkpt>
      <trkpt lat="42.00682" lon="21.50435">
        <ele>281.851045</ele>
        <time>2022-04-13T10:45:38.305Z</time>
      </trkpt>
      <trkpt lat="42.00675" lon="21.50423">
        <ele>281.884827</ele>
        <time>2022-04-13T10:45:41.299Z</time>
      </trkpt>
      <trkpt lat="42.0067" lon="21.50411">
        <ele>281.917684</ele>
        <time>2022-04-13T10:45:44.280Z</time>
      </trkpt>
      <trkpt lat="42.00662" lon="21.50397">
        <ele>281.957775</ele>
        <time>2022-04-13T10:45:47.287Z</time>
      </trkpt>
      <trkpt lat="42.00657" lon="21.50386">
        <ele>281.988289</ele>
        <time>2022-04-13T10:45:49.288Z</time>
      </trkpt>
      <trkpt lat="42.00651" lon="21.5037">
        <ele>282.028167</ele>
        <time>2022-04-13T10:45:52.356Z</time>
      </trkpt>
      <trkpt lat="42.00645" lon="21.50359">
        <ele>282.059578</ele>
        <time>2022-04-13T10:45:54.276Z</time>
      </trkpt>
      <trkpt lat="42.00639" lon="21.50346">
        <ele>282.096047</ele>
        <time>2022-04-13T10:45:56.278Z</time>
      </trkpt>
      <trkpt lat="42.00633" lon="21.50332">
        <ele>282.132189</ele>
        <time>2022-04-13T10:45:58.271Z</time>
      </trkpt>
      <trkpt lat="42.00626" lon="21.5032">
        <ele>282.166897</ele>
        <time>2022-04-13T10:46:00.278Z</time>
      </trkpt>
      <trkpt lat="42.0062" lon="21.5031">
        <ele>282.275375</ele>
        <time>2022-04-13T10:46:02.275Z</time>
      </trkpt>
      <trkpt lat="42.00613" lon="21.50299">
        <ele>282.746815</ele>
        <time>2022-04-13T10:46:04.275Z</time>
      </trkpt>
      <trkpt lat="42.00607" lon="21.5029">
        <ele>283.190262</ele>
        <time>2022-04-13T10:46:06.274Z</time>
      </trkpt>
      <trkpt lat="42.00599" lon="21.50275">
        <ele>283.797832</ele>
        <time>2022-04-13T10:46:09.274Z</time>
      </trkpt>
      <trkpt lat="42.00592" lon="21.50264">
        <ele>284.310274</ele>
        <time>2022-04-13T10:46:12.276Z</time>
      </trkpt>
      <trkpt lat="42.00586" lon="21.50254">
        <ele>284.728182</ele>
        <time>2022-04-13T10:46:15.271Z</time>
      </trkpt>
      <trkpt lat="42.0058" lon="21.50244">
        <ele>285.197041</ele>
        <time>2022-04-13T10:46:19.285Z</time>
      </trkpt>
      <trkpt lat="42.00573" lon="21.50234">
        <ele>285.654497</ele>
        <time>2022-04-13T10:46:23.280Z</time>
      </trkpt>
      <trkpt lat="42.00566" lon="21.50226">
        <ele>286.076243</ele>
        <time>2022-04-13T10:46:27.279Z</time>
      </trkpt>
      <trkpt lat="42.00568" lon="21.50239">
        <ele>286.545894</ele>
        <time>2022-04-13T10:46:36.272Z</time>
      </trkpt>
      <trkpt lat="42.00575" lon="21.50252">
        <ele>287.106799</ele>
        <time>2022-04-13T10:46:39.270Z</time>
      </trkpt>
      <trkpt lat="42.00581" lon="21.50265">
        <ele>287.627625</ele>
        <time>2022-04-13T10:46:42.272Z</time>
      </trkpt>
      <trkpt lat="42.00586" lon="21.50279">
        <ele>288.166174</ele>
        <time>2022-04-13T10:46:45.269Z</time>
      </trkpt>
      <trkpt lat="42.00593" lon="21.50294">
        <ele>288.768549</ele>
        <time>2022-04-13T10:46:48.273Z</time>
      </trkpt>
      <trkpt lat="42.006" lon="21.50304">
        <ele>289.221031</ele>
        <time>2022-04-13T10:46:50.274Z</time>
      </trkpt>
      <trkpt lat="42.00605" lon="21.50316">
        <ele>289.687975</ele>
        <time>2022-04-13T10:46:53.273Z</time>
      </trkpt>
      <trkpt lat="42.00605" lon="21.50331">
        <ele>290.194906</ele>
        <time>2022-04-13T10:46:57.280Z</time>
      </trkpt>
      <trkpt lat="42.006" lon="21.50342">
        <ele>290.479648</ele>
        <time>2022-04-13T10:47:00.268Z</time>
      </trkpt>
      <trkpt lat="42.0059" lon="21.50351">
        <ele>290.470731</ele>
        <time>2022-04-13T10:47:03.285Z</time>
      </trkpt>
      <trkpt lat="42.0058" lon="21.50359">
        <ele>290.461892</ele>
        <time>2022-04-13T10:47:06.271Z</time>
      </trkpt>
      <trkpt lat="42.00569" lon="21.50366">
        <ele>290.452896</ele>
        <time>2022-04-13T10:47:09.286Z</time>
      </trkpt>
      <trkpt lat="42.0056" lon="21.50372">
        <ele>290.444905</ele>
        <time>2022-04-13T10:47:12.269Z</time>
      </trkpt>
      <trkpt lat="42.0055" lon="21.50378">
        <ele>290.436938</ele>
        <time>2022-04-13T10:47:15.276Z</time>
      </trkpt>
      <trkpt lat="42.00539" lon="21.50384">
        <ele>290.428286</ele>
        <time>2022-04-13T10:47:18.275Z</time>
      </trkpt>
      <trkpt lat="42.00527" lon="21.50391">
        <ele>290.418374</ele>
        <time>2022-04-13T10:47:21.275Z</time>
      </trkpt>
      <trkpt lat="42.00518" lon="21.50395">
        <ele>290.411368</ele>
        <time>2022-04-13T10:47:23.284Z</time>
      </trkpt>
      <trkpt lat="42.00509" lon="21.504">
        <ele>290.404142</ele>
        <time>2022-04-13T10:47:25.285Z</time>
      </trkpt>
      <trkpt lat="42.00497" lon="21.50405">
        <ele>290.394614</ele>
        <time>2022-04-13T10:47:28.300Z</time>
      </trkpt>
      <trkpt lat="42.00484" lon="21.50408">
        <ele>290.38477</ele>
        <time>2022-04-13T10:47:31.298Z</time>
      </trkpt>
      <trkpt lat="42.00472" lon="21.5041">
        <ele>290.376116</ele>
        <time>2022-04-13T10:47:34.294Z</time>
      </trkpt>
      <trkpt lat="42.0046" lon="21.5041">
        <ele>290.366855</ele>
        <time>2022-04-13T10:47:37.285Z</time>
      </trkpt>
      <trkpt lat="42.00447" lon="21.50411">
        <ele>290.356916</ele>
        <time>2022-04-13T10:47:40.290Z</time>
      </trkpt>
      <trkpt lat="42.00437" lon="21.50412">
        <ele>290.349748</ele>
        <time>2022-04-13T10:47:42.295Z</time>
      </trkpt>
      <trkpt lat="42.00428" lon="21.50411">
        <ele>290.103036</ele>
        <time>2022-04-13T10:47:44.301Z</time>
      </trkpt>
      <trkpt lat="42.00415" lon="21.50409">
        <ele>289.65684</ele>
        <time>2022-04-13T10:47:47.293Z</time>
      </trkpt>
      <trkpt lat="42.00403" lon="21.50406">
        <ele>289.233292</ele>
        <time>2022-04-13T10:47:50.304Z</time>
      </trkpt>
      <trkpt lat="42.0039" lon="21.50403">
        <ele>288.778804</ele>
        <time>2022-04-13T10:47:53.291Z</time>
      </trkpt>
      <trkpt lat="42.00378" lon="21.50398">
        <ele>288.347656</ele>
        <time>2022-04-13T10:47:56.300Z</time>
      </trkpt>
      <trkpt lat="42.00365" lon="21.50393">
        <ele>287.878525</ele>
        <time>2022-04-13T10:47:59.307Z</time>
      </trkpt>
      <trkpt lat="42.00356" lon="21.5039">
        <ele>287.565271</ele>
        <time>2022-04-13T10:48:01.293Z</time>
      </trkpt>
      <trkpt lat="42.00344" lon="21.50383">
        <ele>287.122445</ele>
        <time>2022-04-13T10:48:04.294Z</time>
      </trkpt>
      <trkpt lat="42.00335" lon="21.50378">
        <ele>286.79583</ele>
        <time>2022-04-13T10:48:06.313Z</time>
      </trkpt>
      <trkpt lat="42.00327" lon="21.50373">
        <ele>286.469519</ele>
        <time>2022-04-13T10:48:08.302Z</time>
      </trkpt>
      <trkpt lat="42.00315" lon="21.50365">
        <ele>286.025407</ele>
        <time>2022-04-13T10:48:11.298Z</time>
      </trkpt>
      <trkpt lat="42.00304" lon="21.50356">
        <ele>285.565499</ele>
        <time>2022-04-13T10:48:14.289Z</time>
      </trkpt>
      <trkpt lat="42.00292" lon="21.50348">
        <ele>285.120153</ele>
        <time>2022-04-13T10:48:17.284Z</time>
      </trkpt>
      <trkpt lat="42.00285" lon="21.50341">
        <ele>284.808117</ele>
        <time>2022-04-13T10:48:19.312Z</time>
      </trkpt>
      <trkpt lat="42.00273" lon="21.50332">
        <ele>284.354734</ele>
        <time>2022-04-13T10:48:22.300Z</time>
      </trkpt>
      <trkpt lat="42.00262" lon="21.50324">
        <ele>284.007162</ele>
        <time>2022-04-13T10:48:25.288Z</time>
      </trkpt>
      <trkpt lat="42.00252" lon="21.50316">
        <ele>283.752942</ele>
        <time>2022-04-13T10:48:28.283Z</time>
      </trkpt>
      <trkpt lat="42.00241" lon="21.50307">
        <ele>283.484826</ele>
        <time>2022-04-13T10:48:31.290Z</time>
      </trkpt>
      <trkpt lat="42.00233" lon="21.50301">
        <ele>283.288103</ele>
        <time>2022-04-13T10:48:33.298Z</time>
      </trkpt>
      <trkpt lat="42.00225" lon="21.50295">
        <ele>283.086164</ele>
        <time>2022-04-13T10:48:35.337Z</time>
      </trkpt>
      <trkpt lat="42.00216" lon="21.50289">
        <ele>282.881617</ele>
        <time>2022-04-13T10:48:37.334Z</time>
      </trkpt>
      <trkpt lat="42.00207" lon="21.50283">
        <ele>282.669991</ele>
        <time>2022-04-13T10:48:39.311Z</time>
      </trkpt>
      <trkpt lat="42.00199" lon="21.50276">
        <ele>282.470469</ele>
        <time>2022-04-13T10:48:41.315Z</time>
      </trkpt>
      <trkpt lat="42.00192" lon="21.5027">
        <ele>282.279106</ele>
        <time>2022-04-13T10:48:43.297Z</time>
      </trkpt>
      <trkpt lat="42.00184" lon="21.50262">
        <ele>282.078924</ele>
        <time>2022-04-13T10:48:45.298Z</time>
      </trkpt>
      <trkpt lat="42.00176" lon="21.50255">
        <ele>281.875284</ele>
        <time>2022-04-13T10:48:47.303Z</time>
      </trkpt>
      <trkpt lat="42.00168" lon="21.50247">
        <ele>281.662011</ele>
        <time>2022-04-13T10:48:49.298Z</time>
      </trkpt>
      <trkpt lat="42.00159" lon="21.5024">
        <ele>281.450354</ele>
        <time>2022-04-13T10:48:51.312Z</time>
      </trkpt>
      <trkpt lat="42.00151" lon="21.50234">
        <ele>281.253453</ele>
        <time>2022-04-13T10:48:53.294Z</time>
      </trkpt>
      <trkpt lat="42.00142" lon="21.50227">
        <ele>281.041827</ele>
        <time>2022-04-13T10:48:55.285Z</time>
      </trkpt>
      <trkpt lat="42.00132" lon="21.5022">
        <ele>280.788085</ele>
        <time>2022-04-13T10:48:58.307Z</time>
      </trkpt>
      <trkpt lat="42.0012" lon="21.50211">
        <ele>280.505949</ele>
        <time>2022-04-13T10:49:01.289Z</time>
      </trkpt>
      <trkpt lat="42.00111" lon="21.50206">
        <ele>280.384353</ele>
        <time>2022-04-13T10:49:03.297Z</time>
      </trkpt>
      <trkpt lat="42.00102" lon="21.50201">
        <ele>280.604109</ele>
        <time>2022-04-13T10:49:05.295Z</time>
      </trkpt>
      <trkpt lat="42.00094" lon="21.50196">
        <ele>280.814775</ele>
        <time>2022-04-13T10:49:07.291Z</time>
      </trkpt>
      <trkpt lat="42.00085" lon="21.50191">
        <ele>281.028843</ele>
        <time>2022-04-13T10:49:09.355Z</time>
      </trkpt>
      <trkpt lat="42.00077" lon="21.50187">
        <ele>281.247266</ele>
        <time>2022-04-13T10:49:11.310Z</time>
      </trkpt>
      <trkpt lat="42.00068" lon="21.50182">
        <ele>281.472794</ele>
        <time>2022-04-13T10:49:13.309Z</time>
      </trkpt>
      <trkpt lat="42.00059" lon="21.50176">
        <ele>281.683367</ele>
        <time>2022-04-13T10:49:15.282Z</time>
      </trkpt>
      <trkpt lat="42.00051" lon="21.50171">
        <ele>281.902381</ele>
        <time>2022-04-13T10:49:17.306Z</time>
      </trkpt>
      <trkpt lat="42.00041" lon="21.50164">
        <ele>282.160112</ele>
        <time>2022-04-13T10:49:20.303Z</time>
      </trkpt>
      <trkpt lat="42.00031" lon="21.50157">
        <ele>282.42402</ele>
        <time>2022-04-13T10:49:24.297Z</time>
      </trkpt>
      <trkpt lat="42.00021" lon="21.50153">
        <ele>282.671305</ele>
        <time>2022-04-13T10:49:28.304Z</time>
      </trkpt>
      <trkpt lat="42.0001" lon="21.50148">
        <ele>282.925923</ele>
        <time>2022-04-13T10:49:33.354Z</time>
      </trkpt>
      <trkpt lat="42" lon="21.50142">
        <ele>283.182703</ele>
        <time>2022-04-13T10:49:38.303Z</time>
      </trkpt>
      <trkpt lat="41.99991" lon="21.50137">
        <ele>283.425758</ele>
        <time>2022-04-13T10:49:43.299Z</time>
      </trkpt>
      <trkpt lat="41.99982" lon="21.5013">
        <ele>283.644834</ele>
        <time>2022-04-13T10:49:48.295Z</time>
      </trkpt>
      <trkpt lat="41.99972" lon="21.50124">
        <ele>283.90412</ele>
        <time>2022-04-13T10:49:53.308Z</time>
      </trkpt>
      <trkpt lat="41.99963" lon="21.5012">
        <ele>284.12342</ele>
        <time>2022-04-13T10:49:57.333Z</time>
      </trkpt>
      <trkpt lat="41.99954" lon="21.50115">
        <ele>284.36132</ele>
        <time>2022-04-13T10:50:01.307Z</time>
      </trkpt>
      <trkpt lat="41.99944" lon="21.50109">
        <ele>284.48129</ele>
        <time>2022-04-13T10:50:05.303Z</time>
      </trkpt>
      <trkpt lat="41.99935" lon="21.50104">
        <ele>284.382675</ele>
        <time>2022-04-13T10:50:09.348Z</time>
      </trkpt>
      <trkpt lat="41.99927" lon="21.50099">
        <ele>284.296868</ele>
        <time>2022-04-13T10:50:12.302Z</time>
      </trkpt>
      <trkpt lat="41.99918" lon="21.50094">
        <ele>284.207034</ele>
        <time>2022-04-13T10:50:15.369Z</time>
      </trkpt>
      <trkpt lat="41.99908" lon="21.50088">
        <ele>284.098807</ele>
        <time>2022-04-13T10:50:18.296Z</time>
      </trkpt>
      <trkpt lat="41.99899" lon="21.50084">
        <ele>284.00891</ele>
        <time>2022-04-13T10:50:20.308Z</time>
      </trkpt>
      <trkpt lat="41.99889" lon="21.50078">
        <ele>283.90825</ele>
        <time>2022-04-13T10:50:22.305Z</time>
      </trkpt>
      <trkpt lat="41.99877" lon="21.50072">
        <ele>283.786141</ele>
        <time>2022-04-13T10:50:24.298Z</time>
      </trkpt>
      <trkpt lat="41.99864" lon="21.50066">
        <ele>283.654547</ele>
        <time>2022-04-13T10:50:26.309Z</time>
      </trkpt>
      <trkpt lat="41.99853" lon="21.5006">
        <ele>283.537928</ele>
        <time>2022-04-13T10:50:28.304Z</time>
      </trkpt>
      <trkpt lat="41.99843" lon="21.50055">
        <ele>283.43653</ele>
        <time>2022-04-13T10:50:30.301Z</time>
      </trkpt>
      <trkpt lat="41.99834" lon="21.50051">
        <ele>283.341095</ele>
        <time>2022-04-13T10:50:32.333Z</time>
      </trkpt>
      <trkpt lat="41.99825" lon="21.50046">
        <ele>283.247369</ele>
        <time>2022-04-13T10:50:34.302Z</time>
      </trkpt>
      <trkpt lat="41.99813" lon="21.50039">
        <ele>283.12544</ele>
        <time>2022-04-13T10:50:37.308Z</time>
      </trkpt>
      <trkpt lat="41.99801" lon="21.50033">
        <ele>283.004861</ele>
        <time>2022-04-13T10:50:40.303Z</time>
      </trkpt>
      <trkpt lat="41.99789" lon="21.50026">
        <ele>282.878235</ele>
        <time>2022-04-13T10:50:43.301Z</time>
      </trkpt>
      <trkpt lat="41.99778" lon="21.50021">
        <ele>282.800731</ele>
        <time>2022-04-13T10:50:46.313Z</time>
      </trkpt>
      <trkpt lat="41.99768" lon="21.50016">
        <ele>282.84517</ele>
        <time>2022-04-13T10:50:49.301Z</time>
      </trkpt>
      <trkpt lat="41.99756" lon="21.50009">
        <ele>282.899358</ele>
        <time>2022-04-13T10:50:52.320Z</time>
      </trkpt>
      <trkpt lat="41.99744" lon="21.50003">
        <ele>282.95088</ele>
        <time>2022-04-13T10:50:55.291Z</time>
      </trkpt>
      <trkpt lat="41.99731" lon="21.49996">
        <ele>283.005714</ele>
        <time>2022-04-13T10:50:58.292Z</time>
      </trkpt>
      <trkpt lat="41.99718" lon="21.4999">
        <ele>283.06159</ele>
        <time>2022-04-13T10:51:01.319Z</time>
      </trkpt>
      <trkpt lat="41.99707" lon="21.49983">
        <ele>283.113827</ele>
        <time>2022-04-13T10:51:04.313Z</time>
      </trkpt>
      <trkpt lat="41.99696" lon="21.49978">
        <ele>283.158652</ele>
        <time>2022-04-13T10:51:07.308Z</time>
      </trkpt>
      <trkpt lat="41.99685" lon="21.4997">
        <ele>283.208429</ele>
        <time>2022-04-13T10:51:10.316Z</time>
      </trkpt>
      <trkpt lat="41.99674" lon="21.49963">
        <ele>283.259113</ele>
        <time>2022-04-13T10:51:13.328Z</time>
      </trkpt>
      <trkpt lat="41.99666" lon="21.49957">
        <ele>283.295903</ele>
        <time>2022-04-13T10:51:15.300Z</time>
      </trkpt>
      <trkpt lat="41.99658" lon="21.49952">
        <ele>283.333361</ele>
        <time>2022-04-13T10:51:17.339Z</time>
      </trkpt>
      <trkpt lat="41.99647" lon="21.49943">
        <ele>283.384752</ele>
        <time>2022-04-13T10:51:20.283Z</time>
      </trkpt>
      <trkpt lat="41.99636" lon="21.49938">
        <ele>283.432936</ele>
        <time>2022-04-13T10:51:23.302Z</time>
      </trkpt>
      <trkpt lat="41.99627" lon="21.49934">
        <ele>283.469898</ele>
        <time>2022-04-13T10:51:30.287Z</time>
      </trkpt>
      <trkpt lat="41.99618" lon="21.49928">
        <ele>283.510509</ele>
        <time>2022-04-13T10:51:40.307Z</time>
      </trkpt>
      <trkpt lat="41.99609" lon="21.49924">
        <ele>283.51392</ele>
        <time>2022-04-13T10:51:43.304Z</time>
      </trkpt>
      <trkpt lat="41.99597" lon="21.49918">
        <ele>283.501213</ele>
        <time>2022-04-13T10:51:46.299Z</time>
      </trkpt>
      <trkpt lat="41.99586" lon="21.49912">
        <ele>283.488684</ele>
        <time>2022-04-13T10:51:49.289Z</time>
      </trkpt>
      <trkpt lat="41.99575" lon="21.49908">
        <ele>283.476664</ele>
        <time>2022-04-13T10:51:52.316Z</time>
      </trkpt>
      <trkpt lat="41.99564" lon="21.49902">
        <ele>283.464757</ele>
        <time>2022-04-13T10:51:55.301Z</time>
      </trkpt>
      <trkpt lat="41.99553" lon="21.49897">
        <ele>283.452551</ele>
        <time>2022-04-13T10:51:58.297Z</time>
      </trkpt>
      <trkpt lat="41.99541" lon="21.49892">
        <ele>283.439639</ele>
        <time>2022-04-13T10:52:01.335Z</time>
      </trkpt>
      <trkpt lat="41.99529" lon="21.49888">
        <ele>283.427081</ele>
        <time>2022-04-13T10:52:04.305Z</time>
      </trkpt>
      <trkpt lat="41.99517" lon="21.49882">
        <ele>283.414429</ele>
        <time>2022-04-13T10:52:07.301Z</time>
      </trkpt>
      <trkpt lat="41.99506" lon="21.49876">
        <ele>283.401513</ele>
        <time>2022-04-13T10:52:10.318Z</time>
      </trkpt>
      <trkpt lat="41.99496" lon="21.49871">
        <ele>283.390716</ele>
        <time>2022-04-13T10:52:13.332Z</time>
      </trkpt>
      <trkpt lat="41.99487" lon="21.49866">
        <ele>283.380465</ele>
        <time>2022-04-13T10:52:16.289Z</time>
      </trkpt>
      <trkpt lat="41.99477" lon="21.49858">
        <ele>283.368704</ele>
        <time>2022-04-13T10:52:20.317Z</time>
      </trkpt>
      <trkpt lat="41.9947" lon="21.49846">
        <ele>283.357458</ele>
        <time>2022-04-13T10:52:24.306Z</time>
      </trkpt>
      <trkpt lat="41.99472" lon="21.49834">
        <ele>283.347614</ele>
        <time>2022-04-13T10:52:27.308Z</time>
      </trkpt>
      <trkpt lat="41.99477" lon="21.4982">
        <ele>283.33655</ele>
        <time>2022-04-13T10:52:30.319Z</time>
      </trkpt>
      <trkpt lat="41.9948" lon="21.49807">
        <ele>283.409381</ele>
        <time>2022-04-13T10:52:33.294Z</time>
      </trkpt>
      <trkpt lat="41.99485" lon="21.49794">
        <ele>283.486794</ele>
        <time>2022-04-13T10:52:36.300Z</time>
      </trkpt>
      <trkpt lat="41.99489" lon="21.4978">
        <ele>283.573392</ele>
        <time>2022-04-13T10:52:39.310Z</time>
      </trkpt>
      <trkpt lat="41.99493" lon="21.49765">
        <ele>283.664149</ele>
        <time>2022-04-13T10:52:42.328Z</time>
      </trkpt>
      <trkpt lat="41.99498" lon="21.49751">
        <ele>283.748352</ele>
        <time>2022-04-13T10:52:45.298Z</time>
      </trkpt>
      <trkpt lat="41.99502" lon="21.49739">
        <ele>283.823249</ele>
        <time>2022-04-13T10:52:48.331Z</time>
      </trkpt>
      <trkpt lat="41.99506" lon="21.49726">
        <ele>283.900989</ele>
        <time>2022-04-13T10:52:51.328Z</time>
      </trkpt>
      <trkpt lat="41.9951" lon="21.49711">
        <ele>283.986525</ele>
        <time>2022-04-13T10:52:54.348Z</time>
      </trkpt>
      <trkpt lat="41.99514" lon="21.49695">
        <ele>284.081938</ele>
        <time>2022-04-13T10:52:57.305Z</time>
      </trkpt>
      <trkpt lat="41.9952" lon="21.4968">
        <ele>284.17389</ele>
        <time>2022-04-13T10:53:00.302Z</time>
      </trkpt>
      <trkpt lat="41.99525" lon="21.49665">
        <ele>284.265843</ele>
        <time>2022-04-13T10:53:03.292Z</time>
      </trkpt>
      <trkpt lat="41.9953" lon="21.4965">
        <ele>284.356021</ele>
        <time>2022-04-13T10:53:06.346Z</time>
      </trkpt>
      <trkpt lat="41.99535" lon="21.49636">
        <ele>284.445084</ele>
        <time>2022-04-13T10:53:09.293Z</time>
      </trkpt>
      <trkpt lat="41.9954" lon="21.49621">
        <ele>284.533247</ele>
        <time>2022-04-13T10:53:12.306Z</time>
      </trkpt>
      <trkpt lat="41.99545" lon="21.49607">
        <ele>284.621296</ele>
        <time>2022-04-13T10:53:15.323Z</time>
      </trkpt>
      <trkpt lat="41.9955" lon="21.49593">
        <ele>284.657504</ele>
        <time>2022-04-13T10:53:18.310Z</time>
      </trkpt>
      <trkpt lat="41.99555" lon="21.49579">
        <ele>284.59523</ele>
        <time>2022-04-13T10:53:21.327Z</time>
      </trkpt>
      <trkpt lat="41.99559" lon="21.49565">
        <ele>284.538387</ele>
        <time>2022-04-13T10:53:24.307Z</time>
      </trkpt>
      <trkpt lat="41.99562" lon="21.49553">
        <ele>284.484517</ele>
        <time>2022-04-13T10:53:27.314Z</time>
      </trkpt>
      <trkpt lat="41.99566" lon="21.49541">
        <ele>284.433251</ele>
        <time>2022-04-13T10:53:30.287Z</time>
      </trkpt>
      <trkpt lat="41.9957" lon="21.49529">
        <ele>284.383586</ele>
        <time>2022-04-13T10:53:33.303Z</time>
      </trkpt>
      <trkpt lat="41.99574" lon="21.49516">
        <ele>284.327982</ele>
        <time>2022-04-13T10:53:36.296Z</time>
      </trkpt>
      <trkpt lat="41.99577" lon="21.49505">
        <ele>284.277643</ele>
        <time>2022-04-13T10:53:39.297Z</time>
      </trkpt>
      <trkpt lat="41.99582" lon="21.49489">
        <ele>284.213373</ele>
        <time>2022-04-13T10:53:43.295Z</time>
      </trkpt>
      <trkpt lat="41.99586" lon="21.49478">
        <ele>284.161972</ele>
        <time>2022-04-13T10:53:46.316Z</time>
      </trkpt>
      <trkpt lat="41.99589" lon="21.49464">
        <ele>284.1036</ele>
        <time>2022-04-13T10:53:49.296Z</time>
      </trkpt>
      <trkpt lat="41.99593" lon="21.4945">
        <ele>284.044716</ele>
        <time>2022-04-13T10:53:52.306Z</time>
      </trkpt>
      <trkpt lat="41.99597" lon="21.49438">
        <ele>283.994879</ele>
        <time>2022-04-13T10:53:55.320Z</time>
      </trkpt>
      <trkpt lat="41.99601" lon="21.49426">
        <ele>283.941355</ele>
        <time>2022-04-13T10:53:58.305Z</time>
      </trkpt>
      <trkpt lat="41.99605" lon="21.49412">
        <ele>283.884329</ele>
        <time>2022-04-13T10:54:01.309Z</time>
      </trkpt>
      <trkpt lat="41.99609" lon="21.49399">
        <ele>283.824887</ele>
        <time>2022-04-13T10:54:04.299Z</time>
      </trkpt>
      <trkpt lat="41.99614" lon="21.49387">
        <ele>283.772767</ele>
        <time>2022-04-13T10:54:07.292Z</time>
      </trkpt>
      <trkpt lat="41.99619" lon="21.49376">
        <ele>283.722656</ele>
        <time>2022-04-13T10:54:10.287Z</time>
      </trkpt>
      <trkpt lat="41.99623" lon="21.49365">
        <ele>283.84367</ele>
        <time>2022-04-13T10:54:13.383Z</time>
      </trkpt>
      <trkpt lat="41.99628" lon="21.49353">
        <ele>283.989382</ele>
        <time>2022-04-13T10:54:17.320Z</time>
      </trkpt>
      <trkpt lat="41.99633" lon="21.49342">
        <ele>284.11853</ele>
        <time>2022-04-13T10:54:21.301Z</time>
      </trkpt>
      <trkpt lat="41.99639" lon="21.49332">
        <ele>284.25271</ele>
        <time>2022-04-13T10:54:25.340Z</time>
      </trkpt>
      <trkpt lat="41.99642" lon="21.49318">
        <ele>284.405642</ele>
        <time>2022-04-13T10:54:29.435Z</time>
      </trkpt>
      <trkpt lat="41.99639" lon="21.49306">
        <ele>284.535148</ele>
        <time>2022-04-13T10:54:32.336Z</time>
      </trkpt>
      <trkpt lat="41.99635" lon="21.49293">
        <ele>284.686198</ele>
        <time>2022-04-13T10:54:36.288Z</time>
      </trkpt>
      <trkpt lat="41.99629" lon="21.49283">
        <ele>284.818605</ele>
        <time>2022-04-13T10:54:41.293Z</time>
      </trkpt>
      <trkpt lat="41.99622" lon="21.49274">
        <ele>284.949683</ele>
        <time>2022-04-13T10:54:44.302Z</time>
      </trkpt>
      <trkpt lat="41.99615" lon="21.49267">
        <ele>285.078488</ele>
        <time>2022-04-13T10:54:47.327Z</time>
      </trkpt>
      <trkpt lat="41.99604" lon="21.49263">
        <ele>285.235586</ele>
        <time>2022-04-13T10:54:51.301Z</time>
      </trkpt>
      <trkpt lat="41.99595" lon="21.4926">
        <ele>285.366104</ele>
        <time>2022-04-13T10:54:54.288Z</time>
      </trkpt>
      <trkpt lat="41.99585" lon="21.49259">
        <ele>285.504924</ele>
        <time>2022-04-13T10:54:57.285Z</time>
      </trkpt>
      <trkpt lat="41.99575" lon="21.49258">
        <ele>285.638797</ele>
        <time>2022-04-13T10:55:00.293Z</time>
      </trkpt>
      <trkpt lat="41.99565" lon="21.49255">
        <ele>285.784272</ele>
        <time>2022-04-13T10:55:03.346Z</time>
      </trkpt>
      <trkpt lat="41.99554" lon="21.49252">
        <ele>285.943539</ele>
        <time>2022-04-13T10:55:06.300Z</time>
      </trkpt>
      <trkpt lat="41.99544" lon="21.49248">
        <ele>286.09223</ele>
        <time>2022-04-13T10:55:09.285Z</time>
      </trkpt>
      <trkpt lat="41.99532" lon="21.49245">
        <ele>286.276074</ele>
        <time>2022-04-13T10:55:12.293Z</time>
      </trkpt>
      <trkpt lat="41.99519" lon="21.49243">
        <ele>286.509608</ele>
        <time>2022-04-13T10:55:15.309Z</time>
      </trkpt>
      <trkpt lat="41.99508" lon="21.49241">
        <ele>286.72518</ele>
        <time>2022-04-13T10:55:18.296Z</time>
      </trkpt>
      <trkpt lat="41.99499" lon="21.49239">
        <ele>286.899985</ele>
        <time>2022-04-13T10:55:20.283Z</time>
      </trkpt>
      <trkpt lat="41.99487" lon="21.49236">
        <ele>287.124649</ele>
        <time>2022-04-13T10:55:23.343Z</time>
      </trkpt>
      <trkpt lat="41.99475" lon="21.49236">
        <ele>287.354982</ele>
        <time>2022-04-13T10:55:26.308Z</time>
      </trkpt>
      <trkpt lat="41.99463" lon="21.49235">
        <ele>287.581858</ele>
        <time>2022-04-13T10:55:29.301Z</time>
      </trkpt>
      <trkpt lat="41.9945" lon="21.4923">
        <ele>287.830047</ele>
        <time>2022-04-13T10:55:32.289Z</time>
      </trkpt>
      <trkpt lat="41.99438" lon="21.49226">
        <ele>288.070571</ele>
        <time>2022-04-13T10:55:35.292Z</time>
      </trkpt>
      <trkpt lat="41.99425" lon="21.49222">
        <ele>288.31876</ele>
        <time>2022-04-13T10:55:38.285Z</time>
      </trkpt>
      <trkpt lat="41.99415" lon="21.4922">
        <ele>288.504546</ele>
        <time>2022-04-13T10:55:40.302Z</time>
      </trkpt>
      <trkpt lat="41.99405" lon="21.49218">
        <ele>288.695245</ele>
        <time>2022-04-13T10:55:42.284Z</time>
      </trkpt>
      <trkpt lat="41.99396" lon="21.49216">
        <ele>288.876408</ele>
        <time>2022-04-13T10:55:44.294Z</time>
      </trkpt>
      <trkpt lat="41.99386" lon="21.49214">
        <ele>289.057147</ele>
        <time>2022-04-13T10:55:46.309Z</time>
      </trkpt>
      <trkpt lat="41.99376" lon="21.49211">
        <ele>289.249814</ele>
        <time>2022-04-13T10:55:48.296Z</time>
      </trkpt>
      <trkpt lat="41.99367" lon="21.49207">
        <ele>289.438877</ele>
        <time>2022-04-13T10:55:50.319Z</time>
      </trkpt>
      <trkpt lat="41.99358" lon="21.492">
        <ele>289.629598</ele>
        <time>2022-04-13T10:55:52.309Z</time>
      </trkpt>
      <trkpt lat="41.99347" lon="21.49191">
        <ele>289.159738</ele>
        <time>2022-04-13T10:55:55.305Z</time>
      </trkpt>
      <trkpt lat="41.99339" lon="21.49184">
        <ele>288.79743</ele>
        <time>2022-04-13T10:55:57.281Z</time>
      </trkpt>
      <trkpt lat="41.99329" lon="21.49173">
        <ele>288.290354</ele>
        <time>2022-04-13T10:56:00.296Z</time>
      </trkpt>
      <trkpt lat="41.99318" lon="21.49165">
        <ele>287.822435</ele>
        <time>2022-04-13T10:56:03.310Z</time>
      </trkpt>
      <trkpt lat="41.99309" lon="21.49155">
        <ele>287.35799</ele>
        <time>2022-04-13T10:56:06.288Z</time>
      </trkpt>
      <trkpt lat="41.99299" lon="21.49146">
        <ele>286.917897</ele>
        <time>2022-04-13T10:56:09.282Z</time>
      </trkpt>
      <trkpt lat="41.9929" lon="21.49137">
        <ele>286.468565</ele>
        <time>2022-04-13T10:56:12.311Z</time>
      </trkpt>
      <trkpt lat="41.99283" lon="21.49128">
        <ele>286.102871</ele>
        <time>2022-04-13T10:56:15.288Z</time>
      </trkpt>
      <trkpt lat="41.9928" lon="21.49117">
        <ele>285.743906</ele>
        <time>2022-04-13T10:56:18.293Z</time>
      </trkpt>
      <trkpt lat="41.99276" lon="21.49102">
        <ele>285.300546</ele>
        <time>2022-04-13T10:56:22.326Z</time>
      </trkpt>
      <trkpt lat="41.99272" lon="21.4909">
        <ele>284.922373</ele>
        <time>2022-04-13T10:56:25.304Z</time>
      </trkpt>
      <trkpt lat="41.99265" lon="21.49078">
        <ele>284.499276</ele>
        <time>2022-04-13T10:56:28.310Z</time>
      </trkpt>
      <trkpt lat="41.99261" lon="21.49067">
        <ele>284.126144</ele>
        <time>2022-04-13T10:56:31.287Z</time>
      </trkpt>
      <trkpt lat="41.99252" lon="21.49057">
        <ele>283.696095</ele>
        <time>2022-04-13T10:56:34.319Z</time>
      </trkpt>
      <trkpt lat="41.99243" lon="21.49048">
        <ele>283.25392</ele>
        <time>2022-04-13T10:56:37.283Z</time>
      </trkpt>
      <trkpt lat="41.99233" lon="21.49038">
        <ele>282.793186</ele>
        <time>2022-04-13T10:56:40.284Z</time>
      </trkpt>
      <trkpt lat="41.99224" lon="21.49029">
        <ele>282.872884</ele>
        <time>2022-04-13T10:56:43.305Z</time>
      </trkpt>
      <trkpt lat="41.99213" lon="21.4902">
        <ele>283.086323</ele>
        <time>2022-04-13T10:56:46.287Z</time>
      </trkpt>
      <trkpt lat="41.99205" lon="21.49011">
        <ele>283.275156</ele>
        <time>2022-04-13T10:56:49.292Z</time>
      </trkpt>
      <trkpt lat="41.99196" lon="21.49003">
        <ele>283.448624</ele>
        <time>2022-04-13T10:56:52.296Z</time>
      </trkpt>
      <trkpt lat="41.99188" lon="21.48994">
        <ele>283.63474</ele>
        <time>2022-04-13T10:56:56.302Z</time>
      </trkpt>
      <trkpt lat="41.99179" lon="21.48983">
        <ele>283.839454</ele>
        <time>2022-04-13T10:57:00.307Z</time>
      </trkpt>
      <trkpt lat="41.99171" lon="21.48974">
        <ele>284.019936</ele>
        <time>2022-04-13T10:57:03.288Z</time>
      </trkpt>
      <trkpt lat="41.99161" lon="21.48967">
        <ele>284.213934</ele>
        <time>2022-04-13T10:57:06.289Z</time>
      </trkpt>
      <trkpt lat="41.99152" lon="21.48958">
        <ele>284.403118</ele>
        <time>2022-04-13T10:57:09.288Z</time>
      </trkpt>
      <trkpt lat="41.99142" lon="21.4895">
        <ele>284.609473</ele>
        <time>2022-04-13T10:57:12.300Z</time>
      </trkpt>
      <trkpt lat="41.99132" lon="21.48941">
        <ele>284.813682</ele>
        <time>2022-04-13T10:57:15.293Z</time>
      </trkpt>
      <trkpt lat="41.99123" lon="21.48931">
        <ele>285.019665</ele>
        <time>2022-04-13T10:57:18.290Z</time>
      </trkpt>
      <trkpt lat="41.99113" lon="21.48923">
        <ele>285.209408</ele>
        <time>2022-04-13T10:57:21.294Z</time>
      </trkpt>
      <trkpt lat="41.99103" lon="21.48914">
        <ele>285.421654</ele>
        <time>2022-04-13T10:57:25.302Z</time>
      </trkpt>
      <trkpt lat="41.99095" lon="21.48905">
        <ele>285.59977</ele>
        <time>2022-04-13T10:57:28.317Z</time>
      </trkpt>
      <trkpt lat="41.99087" lon="21.48898">
        <ele>285.756114</ele>
        <time>2022-04-13T10:57:33.288Z</time>
      </trkpt>
      <trkpt lat="41.99082" lon="21.48888">
        <ele>286.010589</ele>
        <time>2022-04-13T10:57:37.305Z</time>
      </trkpt>
      <trkpt lat="41.99083" lon="21.48872">
        <ele>286.355</ele>
        <time>2022-04-13T10:57:41.306Z</time>
      </trkpt>
      <trkpt lat="41.99085" lon="21.4886">
        <ele>286.630433</ele>
        <time>2022-04-13T10:57:44.287Z</time>
      </trkpt>
      <trkpt lat="41.99084" lon="21.48846">
        <ele>286.928962</ele>
        <time>2022-04-13T10:57:47.292Z</time>
      </trkpt>
      <trkpt lat="41.99084" lon="21.48834">
        <ele>287.197017</ele>
        <time>2022-04-13T10:57:50.310Z</time>
      </trkpt>
      <trkpt lat="41.99083" lon="21.48822">
        <ele>287.471842</ele>
        <time>2022-04-13T10:57:54.295Z</time>
      </trkpt>
      <trkpt lat="41.99084" lon="21.4881">
        <ele>287.739472</ele>
        <time>2022-04-13T10:58:00.294Z</time>
      </trkpt>
      <trkpt lat="41.99085" lon="21.48825">
        <ele>288.085982</ele>
        <time>2022-04-13T10:59:52.295Z</time>
      </trkpt>
      <trkpt lat="41.99085" lon="21.48838">
        <ele>288.355791</ele>
        <time>2022-04-13T10:59:55.320Z</time>
      </trkpt>
      <trkpt lat="41.99085" lon="21.4885">
        <ele>288.621217</ele>
        <time>2022-04-13T10:59:58.305Z</time>
      </trkpt>
      <trkpt lat="41.99082" lon="21.48866">
        <ele>288.984959</ele>
        <time>2022-04-13T11:00:02.285Z</time>
      </trkpt>
      <trkpt lat="41.99079" lon="21.48878">
        <ele>289.261602</ele>
        <time>2022-04-13T11:00:05.285Z</time>
      </trkpt>
      <trkpt lat="41.99079" lon="21.48891">
        <ele>289.535714</ele>
        <time>2022-04-13T11:00:09.272Z</time>
      </trkpt>
      <trkpt lat="41.99085" lon="21.489">
        <ele>289.801136</ele>
        <time>2022-04-13T11:00:13.303Z</time>
      </trkpt>
      <trkpt lat="41.99092" lon="21.48908">
        <ele>290.083724</ele>
        <time>2022-04-13T11:00:17.276Z</time>
      </trkpt>
      <trkpt lat="41.99099" lon="21.48916">
        <ele>290.354101</ele>
        <time>2022-04-13T11:00:20.313Z</time>
      </trkpt>
      <trkpt lat="41.99108" lon="21.48924">
        <ele>290.650267</ele>
        <time>2022-04-13T11:00:24.297Z</time>
      </trkpt>
      <trkpt lat="41.99116" lon="21.4893">
        <ele>290.921951</ele>
        <time>2022-04-13T11:00:28.286Z</time>
      </trkpt>
      <trkpt lat="41.99125" lon="21.48939">
        <ele>291.174233</ele>
        <time>2022-04-13T11:00:32.305Z</time>
      </trkpt>
      <trkpt lat="41.99132" lon="21.48947">
        <ele>291.28936</ele>
        <time>2022-04-13T11:00:35.286Z</time>
      </trkpt>
      <trkpt lat="41.99141" lon="21.48955">
        <ele>291.417583</ele>
        <time>2022-04-13T11:00:39.294Z</time>
      </trkpt>
      <trkpt lat="41.99158" lon="21.48967">
        <ele>291.65564</ele>
        <time>2022-04-13T11:04:50.314Z</time>
      </trkpt>
      <trkpt lat="41.99166" lon="21.48977">
        <ele>291.799574</ele>
        <time>2022-04-13T11:04:55.281Z</time>
      </trkpt>
      <trkpt lat="41.99176" lon="21.48985">
        <ele>291.937986</ele>
        <time>2022-04-13T11:04:59.299Z</time>
      </trkpt>
      <trkpt lat="41.99184" lon="21.48993">
        <ele>292.069163</ele>
        <time>2022-04-13T11:05:03.293Z</time>
      </trkpt>
      <trkpt lat="41.99193" lon="21.49001">
        <ele>292.194617</ele>
        <time>2022-04-13T11:05:06.303Z</time>
      </trkpt>
      <trkpt lat="41.99201" lon="21.49007">
        <ele>292.31498</ele>
        <time>2022-04-13T11:05:09.299Z</time>
      </trkpt>
      <trkpt lat="41.99208" lon="21.49015">
        <ele>292.433305</ele>
        <time>2022-04-13T11:05:12.402Z</time>
      </trkpt>
      <trkpt lat="41.99216" lon="21.49023">
        <ele>292.5553</ele>
        <time>2022-04-13T11:05:15.283Z</time>
      </trkpt>
      <trkpt lat="41.99224" lon="21.49031">
        <ele>292.681698</ele>
        <time>2022-04-13T11:05:18.336Z</time>
      </trkpt>
      <trkpt lat="41.99233" lon="21.49039">
        <ele>292.812868</ele>
        <time>2022-04-13T11:05:21.300Z</time>
      </trkpt>
      <trkpt lat="41.99241" lon="21.49047">
        <ele>292.938688</ele>
        <time>2022-04-13T11:05:24.271Z</time>
      </trkpt>
      <trkpt lat="41.99249" lon="21.49056">
        <ele>293.070473</ele>
        <time>2022-04-13T11:05:27.294Z</time>
      </trkpt>
      <trkpt lat="41.99256" lon="21.49065">
        <ele>293.190558</ele>
        <time>2022-04-13T11:05:30.334Z</time>
      </trkpt>
      <trkpt lat="41.99262" lon="21.49077">
        <ele>293.326626</ele>
        <time>2022-04-13T11:05:34.289Z</time>
      </trkpt>
      <trkpt lat="41.99266" lon="21.49092">
        <ele>293.162501</ele>
        <time>2022-04-13T11:05:38.278Z</time>
      </trkpt>
      <trkpt lat="41.9927" lon="21.49103">
        <ele>292.981694</ele>
        <time>2022-04-13T11:05:41.296Z</time>
      </trkpt>
      <trkpt lat="41.99274" lon="21.49117">
        <ele>292.758053</ele>
        <time>2022-04-13T11:05:45.277Z</time>
      </trkpt>
      <trkpt lat="41.99278" lon="21.49129">
        <ele>292.57168</ele>
        <time>2022-04-13T11:05:48.303Z</time>
      </trkpt>
      <trkpt lat="41.99283" lon="21.49142">
        <ele>292.345864</ele>
        <time>2022-04-13T11:05:52.280Z</time>
      </trkpt>
      <trkpt lat="41.99293" lon="21.49149">
        <ele>292.134872</ele>
        <time>2022-04-13T11:05:55.292Z</time>
      </trkpt>
      <trkpt lat="41.99303" lon="21.49156">
        <ele>291.905957</ele>
        <time>2022-04-13T11:05:58.394Z</time>
      </trkpt>
      <trkpt lat="41.99313" lon="21.49165">
        <ele>291.677429</ele>
        <time>2022-04-13T11:06:01.282Z</time>
      </trkpt>
      <trkpt lat="41.99322" lon="21.49173">
        <ele>291.465352</ele>
        <time>2022-04-13T11:06:04.302Z</time>
      </trkpt>
      <trkpt lat="41.9933" lon="21.49181">
        <ele>291.264661</ele>
        <time>2022-04-13T11:06:07.302Z</time>
      </trkpt>
      <trkpt lat="41.99339" lon="21.49189">
        <ele>291.053399</ele>
        <time>2022-04-13T11:06:10.328Z</time>
      </trkpt>
      <trkpt lat="41.99348" lon="21.49198">
        <ele>290.819011</ele>
        <time>2022-04-13T11:06:13.286Z</time>
      </trkpt>
      <trkpt lat="41.99357" lon="21.49205">
        <ele>290.614173</ele>
        <time>2022-04-13T11:06:16.286Z</time>
      </trkpt>
      <trkpt lat="41.99366" lon="21.49211">
        <ele>290.417699</ele>
        <time>2022-04-13T11:06:19.316Z</time>
      </trkpt>
      <trkpt lat="41.99376" lon="21.49216">
        <ele>290.212649</ele>
        <time>2022-04-13T11:06:22.295Z</time>
      </trkpt>
      <trkpt lat="41.99387" lon="21.49217">
        <ele>289.983418</ele>
        <time>2022-04-13T11:06:26.344Z</time>
      </trkpt>
      <trkpt lat="41.99397" lon="21.49219">
        <ele>289.791815</ele>
        <time>2022-04-13T11:06:29.322Z</time>
      </trkpt>
      <trkpt lat="41.99408" lon="21.49221">
        <ele>289.834521</ele>
        <time>2022-04-13T11:06:32.299Z</time>
      </trkpt>
      <trkpt lat="41.99419" lon="21.49224">
        <ele>289.876243</ele>
        <time>2022-04-13T11:06:35.318Z</time>
      </trkpt>
      <trkpt lat="41.9943" lon="21.49227">
        <ele>289.919481</ele>
        <time>2022-04-13T11:06:38.288Z</time>
      </trkpt>
      <trkpt lat="41.9944" lon="21.49229">
        <ele>289.961528</ele>
        <time>2022-04-13T11:06:41.313Z</time>
      </trkpt>
      <trkpt lat="41.99452" lon="21.49232">
        <ele>290.005331</ele>
        <time>2022-04-13T11:06:44.288Z</time>
      </trkpt>
      <trkpt lat="41.99464" lon="21.49235">
        <ele>290.052322</ele>
        <time>2022-04-13T11:06:47.295Z</time>
      </trkpt>
      <trkpt lat="41.99476" lon="21.49237">
        <ele>290.09952</ele>
        <time>2022-04-13T11:06:50.301Z</time>
      </trkpt>
      <trkpt lat="41.99488" lon="21.49238">
        <ele>290.146683</ele>
        <time>2022-04-13T11:06:53.300Z</time>
      </trkpt>
      <trkpt lat="41.995" lon="21.49239">
        <ele>290.192583</ele>
        <time>2022-04-13T11:06:56.329Z</time>
      </trkpt>
      <trkpt lat="41.99511" lon="21.49241">
        <ele>290.237683</ele>
        <time>2022-04-13T11:06:59.375Z</time>
      </trkpt>
      <trkpt lat="41.99523" lon="21.49243">
        <ele>290.284257</ele>
        <time>2022-04-13T11:07:02.301Z</time>
      </trkpt>
      <trkpt lat="41.99535" lon="21.49245">
        <ele>290.33065</ele>
        <time>2022-04-13T11:07:05.284Z</time>
      </trkpt>
      <trkpt lat="41.99547" lon="21.49249">
        <ele>290.376901</ele>
        <time>2022-04-13T11:07:08.327Z</time>
      </trkpt>
      <trkpt lat="41.99558" lon="21.49253">
        <ele>290.421358</ele>
        <time>2022-04-13T11:07:11.343Z</time>
      </trkpt>
      <trkpt lat="41.99569" lon="21.49258">
        <ele>290.464921</ele>
        <time>2022-04-13T11:07:14.294Z</time>
      </trkpt>
      <trkpt lat="41.9958" lon="21.4926">
        <ele>290.566926</ele>
        <time>2022-04-13T11:07:17.437Z</time>
      </trkpt>
      <trkpt lat="41.99591" lon="21.49263">
        <ele>290.709126</ele>
        <time>2022-04-13T11:07:20.308Z</time>
      </trkpt>
      <trkpt lat="41.99601" lon="21.49268">
        <ele>290.855879</ele>
        <time>2022-04-13T11:07:23.299Z</time>
      </trkpt>
      <trkpt lat="41.99611" lon="21.49272">
        <ele>290.991488</ele>
        <time>2022-04-13T11:07:27.281Z</time>
      </trkpt>
      <trkpt lat="41.99622" lon="21.49273">
        <ele>291.134435</ele>
        <time>2022-04-13T11:07:32.316Z</time>
      </trkpt>
      <trkpt lat="41.99629" lon="21.49262">
        <ele>291.284787</ele>
        <time>2022-04-13T11:07:36.302Z</time>
      </trkpt>
      <trkpt lat="41.99631" lon="21.49246">
        <ele>291.438155</ele>
        <time>2022-04-13T11:07:39.287Z</time>
      </trkpt>
      <trkpt lat="41.99633" lon="21.49232">
        <ele>291.582968</ele>
        <time>2022-04-13T11:07:42.304Z</time>
      </trkpt>
      <trkpt lat="41.99634" lon="21.49218">
        <ele>291.722752</ele>
        <time>2022-04-13T11:07:45.300Z</time>
      </trkpt>
      <trkpt lat="41.99635" lon="21.49202">
        <ele>291.874497</ele>
        <time>2022-04-13T11:07:48.309Z</time>
      </trkpt>
      <trkpt lat="41.99636" lon="21.49187">
        <ele>292.023582</ele>
        <time>2022-04-13T11:07:51.345Z</time>
      </trkpt>
      <trkpt lat="41.99637" lon="21.49173">
        <ele>292.159048</ele>
        <time>2022-04-13T11:07:54.283Z</time>
      </trkpt>
      <trkpt lat="41.99639" lon="21.49159">
        <ele>292.302079</ele>
        <time>2022-04-13T11:07:57.342Z</time>
      </trkpt>
      <trkpt lat="41.9964" lon="21.49143">
        <ele>292.45372</ele>
        <time>2022-04-13T11:08:00.302Z</time>
      </trkpt>
      <trkpt lat="41.9964" lon="21.49128">
        <ele>292.606138</ele>
        <time>2022-04-13T11:08:03.303Z</time>
      </trkpt>
      <trkpt lat="41.99639" lon="21.4911">
        <ele>292.776218</ele>
        <time>2022-04-13T11:08:06.355Z</time>
      </trkpt>
      <trkpt lat="41.9964" lon="21.49094">
        <ele>292.85117</ele>
        <time>2022-04-13T11:08:09.355Z</time>
      </trkpt>
      <trkpt lat="41.99641" lon="21.49078">
        <ele>292.853613</ele>
        <time>2022-04-13T11:08:12.298Z</time>
      </trkpt>
      <trkpt lat="41.99642" lon="21.49063">
        <ele>292.855937</ele>
        <time>2022-04-13T11:08:15.294Z</time>
      </trkpt>
      <trkpt lat="41.99641" lon="21.49048">
        <ele>292.858198</ele>
        <time>2022-04-13T11:08:18.294Z</time>
      </trkpt>
      <trkpt lat="41.99641" lon="21.49034">
        <ele>292.860408</ele>
        <time>2022-04-13T11:08:21.293Z</time>
      </trkpt>
      <trkpt lat="41.99641" lon="21.49017">
        <ele>292.863016</ele>
        <time>2022-04-13T11:08:24.308Z</time>
      </trkpt>
      <trkpt lat="41.99642" lon="21.49001">
        <ele>292.865487</ele>
        <time>2022-04-13T11:08:27.296Z</time>
      </trkpt>
      <trkpt lat="41.99641" lon="21.48984">
        <ele>292.867988</ele>
        <time>2022-04-13T11:08:30.319Z</time>
      </trkpt>
      <trkpt lat="41.99641" lon="21.48968">
        <ele>292.870504</ele>
        <time>2022-04-13T11:08:33.367Z</time>
      </trkpt>
      <trkpt lat="41.99641" lon="21.48954">
        <ele>292.872667</ele>
        <time>2022-04-13T11:08:36.300Z</time>
      </trkpt>
      <trkpt lat="41.99641" lon="21.48938">
        <ele>292.875168</ele>
        <time>2022-04-13T11:08:39.307Z</time>
      </trkpt>
      <trkpt lat="41.99643" lon="21.48921">
        <ele>292.877747</ele>
        <time>2022-04-13T11:08:42.303Z</time>
      </trkpt>
      <trkpt lat="41.99646" lon="21.48906">
        <ele>292.880097</ele>
        <time>2022-04-13T11:08:45.301Z</time>
      </trkpt>
      <trkpt lat="41.99652" lon="21.4889">
        <ele>292.882846</ele>
        <time>2022-04-13T11:08:48.318Z</time>
      </trkpt>
      <trkpt lat="41.99657" lon="21.4888">
        <ele>292.884739</ele>
        <time>2022-04-13T11:08:50.283Z</time>
      </trkpt>
      <trkpt lat="41.99664" lon="21.48867">
        <ele>292.903518</ele>
        <time>2022-04-13T11:08:53.292Z</time>
      </trkpt>
      <trkpt lat="41.99673" lon="21.48857">
        <ele>293.108154</ele>
        <time>2022-04-13T11:08:56.309Z</time>
      </trkpt>
      <trkpt lat="41.99681" lon="21.48849">
        <ele>293.270642</ele>
        <time>2022-04-13T11:08:58.300Z</time>
      </trkpt>
      <trkpt lat="41.99688" lon="21.48842">
        <ele>293.42371</ele>
        <time>2022-04-13T11:09:00.299Z</time>
      </trkpt>
      <trkpt lat="41.99697" lon="21.48834">
        <ele>293.604292</ele>
        <time>2022-04-13T11:09:04.301Z</time>
      </trkpt>
      <trkpt lat="41.99706" lon="21.48825">
        <ele>293.789949</ele>
        <time>2022-04-13T11:09:09.326Z</time>
      </trkpt>
      <trkpt lat="41.99714" lon="21.48816">
        <ele>293.970945</ele>
        <time>2022-04-13T11:09:13.294Z</time>
      </trkpt>
      <trkpt lat="41.99721" lon="21.48804">
        <ele>294.162706</ele>
        <time>2022-04-13T11:09:17.314Z</time>
      </trkpt>
      <trkpt lat="41.99727" lon="21.4879">
        <ele>294.363595</ele>
        <time>2022-04-13T11:09:21.309Z</time>
      </trkpt>
      <trkpt lat="41.99729" lon="21.48776">
        <ele>294.544056</ele>
        <time>2022-04-13T11:09:24.340Z</time>
      </trkpt>
      <trkpt lat="41.99729" lon="21.48763">
        <ele>294.719983</ele>
        <time>2022-04-13T11:09:27.338Z</time>
      </trkpt>
      <trkpt lat="41.99729" lon="21.48749">
        <ele>294.886768</ele>
        <time>2022-04-13T11:09:30.293Z</time>
      </trkpt>
      <trkpt lat="41.9973" lon="21.48736">
        <ele>295.053632</ele>
        <time>2022-04-13T11:09:33.293Z</time>
      </trkpt>
      <trkpt lat="41.99731" lon="21.48724">
        <ele>295.207113</ele>
        <time>2022-04-13T11:09:36.281Z</time>
      </trkpt>
      <trkpt lat="41.9973" lon="21.48711">
        <ele>295.374452</ele>
        <time>2022-04-13T11:09:39.301Z</time>
      </trkpt>
      <trkpt lat="41.9973" lon="21.48696">
        <ele>295.559209</ele>
        <time>2022-04-13T11:09:42.301Z</time>
      </trkpt>
      <trkpt lat="41.99729" lon="21.48682">
        <ele>295.738831</ele>
        <time>2022-04-13T11:09:45.306Z</time>
      </trkpt>
      <trkpt lat="41.99728" lon="21.48667">
        <ele>295.930539</ele>
        <time>2022-04-13T11:09:48.290Z</time>
      </trkpt>
      <trkpt lat="41.99728" lon="21.48652">
        <ele>296.338476</ele>
        <time>2022-04-13T11:09:51.297Z</time>
      </trkpt>
      <trkpt lat="41.99726" lon="21.48636">
        <ele>296.785218</ele>
        <time>2022-04-13T11:09:54.315Z</time>
      </trkpt>
      <trkpt lat="41.99725" lon="21.48621">
        <ele>297.217606</ele>
        <time>2022-04-13T11:09:57.302Z</time>
      </trkpt>
      <trkpt lat="41.99724" lon="21.48604">
        <ele>297.693932</ele>
        <time>2022-04-13T11:10:00.281Z</time>
      </trkpt>
      <trkpt lat="41.99722" lon="21.48592">
        <ele>298.033419</ele>
        <time>2022-04-13T11:10:02.294Z</time>
      </trkpt>
      <trkpt lat="41.99721" lon="21.48573">
        <ele>298.553531</ele>
        <time>2022-04-13T11:10:05.295Z</time>
      </trkpt>
      <trkpt lat="41.9972" lon="21.4856">
        <ele>298.92572</ele>
        <time>2022-04-13T11:10:07.300Z</time>
      </trkpt>
      <trkpt lat="41.9972" lon="21.48547">
        <ele>299.286273</ele>
        <time>2022-04-13T11:10:09.295Z</time>
      </trkpt>
      <trkpt lat="41.99721" lon="21.48534">
        <ele>299.644328</ele>
        <time>2022-04-13T11:10:11.299Z</time>
      </trkpt>
      <trkpt lat="41.99721" lon="21.4852">
        <ele>300.027295</ele>
        <time>2022-04-13T11:10:13.314Z</time>
      </trkpt>
      <trkpt lat="41.99721" lon="21.48507">
        <ele>300.401878</ele>
        <time>2022-04-13T11:10:15.305Z</time>
      </trkpt>
      <trkpt lat="41.99719" lon="21.48495">
        <ele>300.746335</ele>
        <time>2022-04-13T11:10:17.306Z</time>
      </trkpt>
      <trkpt lat="41.99718" lon="21.48478">
        <ele>301.225252</ele>
        <time>2022-04-13T11:10:20.293Z</time>
      </trkpt>
      <trkpt lat="41.99717" lon="21.48466">
        <ele>301.570679</ele>
        <time>2022-04-13T11:10:22.300Z</time>
      </trkpt>
      <trkpt lat="41.99716" lon="21.48453">
        <ele>301.917903</ele>
        <time>2022-04-13T11:10:24.299Z</time>
      </trkpt>
      <trkpt lat="41.99715" lon="21.48441">
        <ele>302.267986</ele>
        <time>2022-04-13T11:10:26.286Z</time>
      </trkpt>
      <trkpt lat="41.99715" lon="21.48428">
        <ele>302.614566</ele>
        <time>2022-04-13T11:10:28.286Z</time>
      </trkpt>
      <trkpt lat="41.99715" lon="21.48416">
        <ele>302.687432</ele>
        <time>2022-04-13T11:10:30.317Z</time>
      </trkpt>
      <trkpt lat="41.99714" lon="21.48404">
        <ele>302.656934</ele>
        <time>2022-04-13T11:10:32.306Z</time>
      </trkpt>
      <trkpt lat="41.99714" lon="21.48387">
        <ele>302.616776</ele>
        <time>2022-04-13T11:10:35.286Z</time>
      </trkpt>
      <trkpt lat="41.99714" lon="21.48372">
        <ele>302.579318</ele>
        <time>2022-04-13T11:10:38.290Z</time>
      </trkpt>
      <trkpt lat="41.99714" lon="21.48358">
        <ele>302.544275</ele>
        <time>2022-04-13T11:10:41.291Z</time>
      </trkpt>
      <trkpt lat="41.99713" lon="21.48345">
        <ele>302.512654</ele>
        <time>2022-04-13T11:10:44.317Z</time>
      </trkpt>
      <trkpt lat="41.99711" lon="21.48328">
        <ele>302.470572</ele>
        <time>2022-04-13T11:10:47.293Z</time>
      </trkpt>
      <trkpt lat="41.99709" lon="21.48311">
        <ele>302.428006</ele>
        <time>2022-04-13T11:10:50.308Z</time>
      </trkpt>
      <trkpt lat="41.99707" lon="21.48295">
        <ele>302.387744</ele>
        <time>2022-04-13T11:10:53.346Z</time>
      </trkpt>
      <trkpt lat="41.99704" lon="21.48278">
        <ele>302.347067</ele>
        <time>2022-04-13T11:10:56.322Z</time>
      </trkpt>
      <trkpt lat="41.99703" lon="21.48261">
        <ele>302.303772</ele>
        <time>2022-04-13T11:10:59.291Z</time>
      </trkpt>
      <trkpt lat="41.99702" lon="21.48245">
        <ele>302.264538</ele>
        <time>2022-04-13T11:11:02.311Z</time>
      </trkpt>
      <trkpt lat="41.99702" lon="21.48233">
        <ele>302.234873</ele>
        <time>2022-04-13T11:11:04.289Z</time>
      </trkpt>
      <trkpt lat="41.99701" lon="21.4822">
        <ele>302.204547</ele>
        <time>2022-04-13T11:11:06.300Z</time>
      </trkpt>
      <trkpt lat="41.997" lon="21.48208">
        <ele>302.17365</ele>
        <time>2022-04-13T11:11:08.308Z</time>
      </trkpt>
      <trkpt lat="41.99699" lon="21.48195">
        <ele>302.142029</ele>
        <time>2022-04-13T11:11:10.277Z</time>
      </trkpt>
      <trkpt lat="41.99699" lon="21.48183">
        <ele>302.081988</ele>
        <time>2022-04-13T11:11:12.359Z</time>
      </trkpt>
      <trkpt lat="41.99698" lon="21.48165">
        <ele>301.769214</ele>
        <time>2022-04-13T11:11:15.286Z</time>
      </trkpt>
      <trkpt lat="41.99697" lon="21.48153">
        <ele>301.538958</ele>
        <time>2022-04-13T11:11:17.295Z</time>
      </trkpt>
      <trkpt lat="41.99696" lon="21.4814">
        <ele>301.307982</ele>
        <time>2022-04-13T11:11:19.294Z</time>
      </trkpt>
      <trkpt lat="41.99696" lon="21.48122">
        <ele>300.988739</ele>
        <time>2022-04-13T11:11:22.299Z</time>
      </trkpt>
      <trkpt lat="41.99695" lon="21.48106">
        <ele>300.693377</ele>
        <time>2022-04-13T11:11:25.292Z</time>
      </trkpt>
      <trkpt lat="41.99694" lon="21.4809">
        <ele>300.40737</ele>
        <time>2022-04-13T11:11:28.311Z</time>
      </trkpt>
      <trkpt lat="41.99695" lon="21.48073">
        <ele>300.086162</ele>
        <time>2022-04-13T11:11:31.287Z</time>
      </trkpt>
      <trkpt lat="41.99695" lon="21.48055">
        <ele>299.769091</ele>
        <time>2022-04-13T11:11:34.310Z</time>
      </trkpt>
      <trkpt lat="41.99695" lon="21.48038">
        <ele>299.451795</ele>
        <time>2022-04-13T11:11:37.293Z</time>
      </trkpt>
      <trkpt lat="41.99693" lon="21.4802">
        <ele>299.130007</ele>
        <time>2022-04-13T11:11:40.301Z</time>
      </trkpt>
      <trkpt lat="41.99693" lon="21.48007">
        <ele>298.897445</ele>
        <time>2022-04-13T11:11:42.283Z</time>
      </trkpt>
      <trkpt lat="41.99691" lon="21.47995">
        <ele>298.678538</ele>
        <time>2022-04-13T11:11:44.346Z</time>
      </trkpt>
      <trkpt lat="41.99691" lon="21.47983">
        <ele>298.457322</ele>
        <time>2022-04-13T11:11:46.305Z</time>
      </trkpt>
      <trkpt lat="41.9969" lon="21.47965">
        <ele>298.129296</ele>
        <time>2022-04-13T11:11:49.306Z</time>
      </trkpt>
      <trkpt lat="41.9969" lon="21.47953">
        <ele>297.906391</ele>
        <time>2022-04-13T11:11:51.319Z</time>
      </trkpt>
      <trkpt lat="41.99689" lon="21.47935">
        <ele>297.665653</ele>
        <time>2022-04-13T11:11:54.300Z</time>
      </trkpt>
      <trkpt lat="41.99688" lon="21.47917">
        <ele>297.521599</ele>
        <time>2022-04-13T11:11:57.305Z</time>
      </trkpt>
      <trkpt lat="41.99688" lon="21.47905">
        <ele>297.4173</ele>
        <time>2022-04-13T11:11:59.321Z</time>
      </trkpt>
      <trkpt lat="41.99687" lon="21.47887">
        <ele>297.269673</ele>
        <time>2022-04-13T11:12:02.322Z</time>
      </trkpt>
      <trkpt lat="41.99686" lon="21.4787">
        <ele>297.127149</ele>
        <time>2022-04-13T11:12:05.282Z</time>
      </trkpt>
      <trkpt lat="41.99685" lon="21.47854">
        <ele>296.992394</ele>
        <time>2022-04-13T11:12:08.311Z</time>
      </trkpt>
      <trkpt lat="41.99685" lon="21.47838">
        <ele>296.863338</ele>
        <time>2022-04-13T11:12:11.288Z</time>
      </trkpt>
      <trkpt lat="41.99683" lon="21.47824">
        <ele>296.746195</ele>
        <time>2022-04-13T11:12:14.292Z</time>
      </trkpt>
      <trkpt lat="41.99684" lon="21.4781">
        <ele>296.631106</ele>
        <time>2022-04-13T11:12:17.295Z</time>
      </trkpt>
      <trkpt lat="41.99683" lon="21.47794">
        <ele>296.498486</ele>
        <time>2022-04-13T11:12:20.287Z</time>
      </trkpt>
      <trkpt lat="41.99682" lon="21.47777">
        <ele>296.354311</ele>
        <time>2022-04-13T11:12:23.282Z</time>
      </trkpt>
      <trkpt lat="41.99682" lon="21.47759">
        <ele>296.208719</ele>
        <time>2022-04-13T11:12:26.293Z</time>
      </trkpt>
      <trkpt lat="41.99681" lon="21.47743">
        <ele>296.077479</ele>
        <time>2022-04-13T11:12:29.288Z</time>
      </trkpt>
      <trkpt lat="41.99679" lon="21.47729">
        <ele>295.954914</ele>
        <time>2022-04-13T11:12:32.299Z</time>
      </trkpt>
      <trkpt lat="41.99679" lon="21.47713">
        <ele>295.827535</ele>
        <time>2022-04-13T11:12:35.296Z</time>
      </trkpt>
      <trkpt lat="41.99678" lon="21.47699">
        <ele>295.650099</ele>
        <time>2022-04-13T11:12:38.287Z</time>
      </trkpt>
      <trkpt lat="41.99678" lon="21.47683">
        <ele>295.231046</ele>
        <time>2022-04-13T11:12:41.288Z</time>
      </trkpt>
      <trkpt lat="41.99678" lon="21.47669">
        <ele>294.861929</ele>
        <time>2022-04-13T11:12:44.322Z</time>
      </trkpt>
      <trkpt lat="41.99677" lon="21.47655">
        <ele>294.499135</ele>
        <time>2022-04-13T11:12:47.292Z</time>
      </trkpt>
      <trkpt lat="41.99678" lon="21.4764">
        <ele>294.09853</ele>
        <time>2022-04-13T11:12:50.298Z</time>
      </trkpt>
      <trkpt lat="41.99677" lon="21.47626">
        <ele>293.739828</ele>
        <time>2022-04-13T11:12:54.330Z</time>
      </trkpt>
      <trkpt lat="41.99676" lon="21.47614">
        <ele>293.411887</ele>
        <time>2022-04-13T11:12:57.290Z</time>
      </trkpt>
      <trkpt lat="41.99673" lon="21.47602">
        <ele>293.076408</ele>
        <time>2022-04-13T11:13:01.339Z</time>
      </trkpt>
      <trkpt lat="41.99662" lon="21.47589">
        <ele>292.546492</ele>
        <time>2022-04-13T11:13:22.314Z</time>
      </trkpt>
      <trkpt lat="41.99652" lon="21.47588">
        <ele>292.19163</ele>
        <time>2022-04-13T11:13:26.314Z</time>
      </trkpt>
      <trkpt lat="41.99642" lon="21.47585">
        <ele>291.828643</ele>
        <time>2022-04-13T11:13:31.316Z</time>
      </trkpt>
      <trkpt lat="41.99631" lon="21.47583">
        <ele>291.436566</ele>
        <time>2022-04-13T11:13:35.298Z</time>
      </trkpt>
      <trkpt lat="41.9962" lon="21.47581">
        <ele>291.046091</ele>
        <time>2022-04-13T11:13:38.281Z</time>
      </trkpt>
      <trkpt lat="41.9961" lon="21.4758">
        <ele>290.678409</ele>
        <time>2022-04-13T11:13:41.282Z</time>
      </trkpt>
      <trkpt lat="41.99598" lon="21.47578">
        <ele>290.278719</ele>
        <time>2022-04-13T11:13:45.289Z</time>
      </trkpt>
      <trkpt lat="41.99586" lon="21.47577">
        <ele>289.851801</ele>
        <time>2022-04-13T11:13:49.294Z</time>
      </trkpt>
      <trkpt lat="41.99573" lon="21.47574">
        <ele>289.388004</ele>
        <time>2022-04-13T11:13:52.298Z</time>
      </trkpt>
      <trkpt lat="41.99561" lon="21.4757">
        <ele>288.988161</ele>
        <time>2022-04-13T11:13:55.333Z</time>
      </trkpt>
      <trkpt lat="41.99549" lon="21.47572">
        <ele>288.623278</ele>
        <time>2022-04-13T11:13:58.283Z</time>
      </trkpt>
      <trkpt lat="41.99536" lon="21.47573">
        <ele>288.233855</ele>
        <time>2022-04-13T11:14:01.308Z</time>
      </trkpt>
      <trkpt lat="41.99524" lon="21.47572">
        <ele>287.865744</ele>
        <time>2022-04-13T11:14:04.298Z</time>
      </trkpt>
      <trkpt lat="41.99514" lon="21.47569">
        <ele>287.572721</ele>
        <time>2022-04-13T11:14:06.285Z</time>
      </trkpt>
      <trkpt lat="41.99505" lon="21.47565">
        <ele>287.284242</ele>
        <time>2022-04-13T11:14:08.282Z</time>
      </trkpt>
      <trkpt lat="41.99496" lon="21.47562">
        <ele>286.996541</ele>
        <time>2022-04-13T11:14:10.283Z</time>
      </trkpt>
      <trkpt lat="41.99486" lon="21.47559">
        <ele>286.685844</ele>
        <time>2022-04-13T11:14:12.288Z</time>
      </trkpt>
      <trkpt lat="41.99476" lon="21.47556">
        <ele>286.373628</ele>
        <time>2022-04-13T11:14:14.306Z</time>
      </trkpt>
      <trkpt lat="41.99467" lon="21.47552">
        <ele>286.078698</ele>
        <time>2022-04-13T11:14:16.291Z</time>
      </trkpt>
      <trkpt lat="41.99454" lon="21.47546">
        <ele>285.68769</ele>
        <time>2022-04-13T11:14:19.290Z</time>
      </trkpt>
      <trkpt lat="41.99445" lon="21.47543">
        <ele>285.398139</ele>
        <time>2022-04-13T11:14:21.287Z</time>
      </trkpt>
      <trkpt lat="41.99432" lon="21.47539">
        <ele>284.986483</ele>
        <time>2022-04-13T11:14:24.295Z</time>
      </trkpt>
      <trkpt lat="41.99416" lon="21.47534">
        <ele>284.502829</ele>
        <time>2022-04-13T11:14:28.287Z</time>
      </trkpt>
      <trkpt lat="41.99406" lon="21.47531">
        <ele>284.195584</ele>
        <time>2022-04-13T11:14:30.296Z</time>
      </trkpt>
      <trkpt lat="41.99394" lon="21.47526">
        <ele>283.993104</ele>
        <time>2022-04-13T11:14:33.297Z</time>
      </trkpt>
      <trkpt lat="41.99383" lon="21.47522">
        <ele>284.271512</ele>
        <time>2022-04-13T11:14:36.285Z</time>
      </trkpt>
      <trkpt lat="41.99372" lon="21.47521">
        <ele>284.542378</ele>
        <time>2022-04-13T11:14:39.291Z</time>
      </trkpt>
      <trkpt lat="41.99361" lon="21.47518">
        <ele>284.817168</ele>
        <time>2022-04-13T11:14:42.284Z</time>
      </trkpt>
      <trkpt lat="41.99352" lon="21.47515">
        <ele>285.055787</ele>
        <time>2022-04-13T11:14:45.292Z</time>
      </trkpt>
      <trkpt lat="41.99341" lon="21.4751">
        <ele>285.320164</ele>
        <time>2022-04-13T11:14:49.293Z</time>
      </trkpt>
      <trkpt lat="41.99332" lon="21.47509">
        <ele>285.561401</ele>
        <time>2022-04-13T11:14:54.316Z</time>
      </trkpt>
      <trkpt lat="41.99322" lon="21.47507">
        <ele>285.794995</ele>
        <time>2022-04-13T11:14:57.283Z</time>
      </trkpt>
      <trkpt lat="41.99313" lon="21.47501">
        <ele>286.04406</ele>
        <time>2022-04-13T11:15:01.282Z</time>
      </trkpt>
      <trkpt lat="41.99304" lon="21.47493">
        <ele>286.320754</ele>
        <time>2022-04-13T11:15:09.300Z</time>
      </trkpt>
      <trkpt lat="41.99292" lon="21.47494">
        <ele>286.596049</ele>
        <time>2022-04-13T11:15:14.309Z</time>
      </trkpt>
      <trkpt lat="41.99281" lon="21.47494">
        <ele>286.885375</ele>
        <time>2022-04-13T11:15:18.340Z</time>
      </trkpt>
      <trkpt lat="41.9927" lon="21.47492">
        <ele>287.152255</ele>
        <time>2022-04-13T11:15:22.281Z</time>
      </trkpt>
      <trkpt lat="41.9926" lon="21.47489">
        <ele>287.395084</ele>
        <time>2022-04-13T11:15:25.314Z</time>
      </trkpt>
      <trkpt lat="41.99251" lon="21.47487">
        <ele>287.625173</ele>
        <time>2022-04-13T11:15:28.291Z</time>
      </trkpt>
      <trkpt lat="41.99241" lon="21.47485">
        <ele>287.860114</ele>
        <time>2022-04-13T11:15:31.293Z</time>
      </trkpt>
      <trkpt lat="41.99232" lon="21.47482">
        <ele>288.100921</ele>
        <time>2022-04-13T11:15:34.301Z</time>
      </trkpt>
      <trkpt lat="41.99221" lon="21.47478">
        <ele>288.29314</ele>
        <time>2022-04-13T11:15:38.295Z</time>
      </trkpt>
      <trkpt lat="41.9921" lon="21.47476">
        <ele>288.154042</ele>
        <time>2022-04-13T11:15:42.291Z</time>
      </trkpt>
      <trkpt lat="41.992" lon="21.47474">
        <ele>288.038865</ele>
        <time>2022-04-13T11:15:45.303Z</time>
      </trkpt>
      <trkpt lat="41.9919" lon="21.4747">
        <ele>287.910162</ele>
        <time>2022-04-13T11:15:49.292Z</time>
      </trkpt>
      <trkpt lat="41.99181" lon="21.47466">
        <ele>287.793457</ele>
        <time>2022-04-13T11:15:57.299Z</time>
      </trkpt>
      <trkpt lat="41.99162" lon="21.47443">
        <ele>287.492281</ele>
        <time>2022-04-13T11:16:46.336Z</time>
      </trkpt>
      <trkpt lat="41.99156" lon="21.47456">
        <ele>287.358516</ele>
        <time>2022-04-13T11:17:01.307Z</time>
      </trkpt>
      <trkpt lat="41.9915" lon="21.47465">
        <ele>287.246727</ele>
        <time>2022-04-13T11:17:02.295Z</time>
      </trkpt>
      <trkpt lat="41.9915" lon="21.47451">
        <ele>287.119129</ele>
        <time>2022-04-13T11:17:10.311Z</time>
      </trkpt>
      <trkpt lat="41.99154" lon="21.47437">
        <ele>286.991155</ele>
        <time>2022-04-13T11:17:14.303Z</time>
      </trkpt>
      <trkpt lat="41.99157" lon="21.47422">
        <ele>286.848438</ele>
        <time>2022-04-13T11:17:17.293Z</time>
      </trkpt>
      <trkpt lat="41.99161" lon="21.47409">
        <ele>286.72046</ele>
        <time>2022-04-13T11:17:20.294Z</time>
      </trkpt>
      <trkpt lat="41.99164" lon="21.47395">
        <ele>286.592266</ele>
        <time>2022-04-13T11:17:23.303Z</time>
      </trkpt>
      <trkpt lat="41.99166" lon="21.47381">
        <ele>286.463208</ele>
        <time>2022-04-13T11:17:26.300Z</time>
      </trkpt>
      <trkpt lat="41.9917" lon="21.47367">
        <ele>286.332514</ele>
        <time>2022-04-13T11:17:29.284Z</time>
      </trkpt>
      <trkpt lat="41.99173" lon="21.47352">
        <ele>286.199072</ele>
        <time>2022-04-13T11:17:32.295Z</time>
      </trkpt>
      <trkpt lat="41.99176" lon="21.47338">
        <ele>286.042571</ele>
        <time>2022-04-13T11:17:35.285Z</time>
      </trkpt>
      <trkpt lat="41.9918" lon="21.47322">
        <ele>285.873036</ele>
        <time>2022-04-13T11:17:38.306Z</time>
      </trkpt>
      <trkpt lat="41.99184" lon="21.47307">
        <ele>285.706027</ele>
        <time>2022-04-13T11:17:41.288Z</time>
      </trkpt>
      <trkpt lat="41.99189" lon="21.47292">
        <ele>285.527614</ele>
        <time>2022-04-13T11:17:44.310Z</time>
      </trkpt>
      <trkpt lat="41.99194" lon="21.47276">
        <ele>285.348759</ele>
        <time>2022-04-13T11:17:47.296Z</time>
      </trkpt>
      <trkpt lat="41.99199" lon="21.4726">
        <ele>285.166949</ele>
        <time>2022-04-13T11:17:50.304Z</time>
      </trkpt>
      <trkpt lat="41.99207" lon="21.47246">
        <ele>284.983901</ele>
        <time>2022-04-13T11:17:53.309Z</time>
      </trkpt>
      <trkpt lat="41.99214" lon="21.47232">
        <ele>284.803949</ele>
        <time>2022-04-13T11:17:56.303Z</time>
      </trkpt>
      <trkpt lat="41.99221" lon="21.47218">
        <ele>284.624874</ele>
        <time>2022-04-13T11:17:59.299Z</time>
      </trkpt>
      <trkpt lat="41.99228" lon="21.47204">
        <ele>284.445954</ele>
        <time>2022-04-13T11:18:02.296Z</time>
      </trkpt>
      <trkpt lat="41.99235" lon="21.4719">
        <ele>284.267896</ele>
        <time>2022-04-13T11:18:05.283Z</time>
      </trkpt>
      <trkpt lat="41.99242" lon="21.47175">
        <ele>284.080437</ele>
        <time>2022-04-13T11:18:08.306Z</time>
      </trkpt>
      <trkpt lat="41.99251" lon="21.47161">
        <ele>283.892283</ele>
        <time>2022-04-13T11:18:11.289Z</time>
      </trkpt>
      <trkpt lat="41.99258" lon="21.47147">
        <ele>283.710881</ele>
        <time>2022-04-13T11:18:14.300Z</time>
      </trkpt>
      <trkpt lat="41.99266" lon="21.47132">
        <ele>283.692075</ele>
        <time>2022-04-13T11:18:17.286Z</time>
      </trkpt>
      <trkpt lat="41.99273" lon="21.47118">
        <ele>283.846729</ele>
        <time>2022-04-13T11:18:20.294Z</time>
      </trkpt>
      <trkpt lat="41.99281" lon="21.47104">
        <ele>283.995743</ele>
        <time>2022-04-13T11:18:23.283Z</time>
      </trkpt>
      <trkpt lat="41.99288" lon="21.4709">
        <ele>284.147138</ele>
        <time>2022-04-13T11:18:26.291Z</time>
      </trkpt>
      <trkpt lat="41.99296" lon="21.47076">
        <ele>284.30462</ele>
        <time>2022-04-13T11:18:29.316Z</time>
      </trkpt>
      <trkpt lat="41.99304" lon="21.47061">
        <ele>284.464924</ele>
        <time>2022-04-13T11:18:32.287Z</time>
      </trkpt>
      <trkpt lat="41.99312" lon="21.47047">
        <ele>284.621009</ele>
        <time>2022-04-13T11:18:35.293Z</time>
      </trkpt>
      <trkpt lat="41.99319" lon="21.47033">
        <ele>284.771449</ele>
        <time>2022-04-13T11:18:38.301Z</time>
      </trkpt>
      <trkpt lat="41.99324" lon="21.47023">
        <ele>284.878885</ele>
        <time>2022-04-13T11:18:40.303Z</time>
      </trkpt>
      <trkpt lat="41.9933" lon="21.47012">
        <ele>284.994805</ele>
        <time>2022-04-13T11:18:42.311Z</time>
      </trkpt>
      <trkpt lat="41.99337" lon="21.46997">
        <ele>285.152764</ele>
        <time>2022-04-13T11:18:45.286Z</time>
      </trkpt>
      <trkpt lat="41.99342" lon="21.46987">
        <ele>285.260831</ele>
        <time>2022-04-13T11:18:47.295Z</time>
      </trkpt>
      <trkpt lat="41.9935" lon="21.46973">
        <ele>285.412804</ele>
        <time>2022-04-13T11:18:50.298Z</time>
      </trkpt>
      <trkpt lat="41.99358" lon="21.46959">
        <ele>285.566045</ele>
        <time>2022-04-13T11:18:53.315Z</time>
      </trkpt>
      <trkpt lat="41.99366" lon="21.46945">
        <ele>285.724961</ele>
        <time>2022-04-13T11:18:56.280Z</time>
      </trkpt>
      <trkpt lat="41.99371" lon="21.46935">
        <ele>285.761482</ele>
        <time>2022-04-13T11:18:58.288Z</time>
      </trkpt>
      <trkpt lat="41.99376" lon="21.46924">
        <ele>285.782325</ele>
        <time>2022-04-13T11:19:00.278Z</time>
      </trkpt>
      <trkpt lat="41.99382" lon="21.46914">
        <ele>285.803547</ele>
        <time>2022-04-13T11:19:02.317Z</time>
      </trkpt>
      <trkpt lat="41.99387" lon="21.46904">
        <ele>285.823321</ele>
        <time>2022-04-13T11:19:04.317Z</time>
      </trkpt>
      <trkpt lat="41.99392" lon="21.46894">
        <ele>285.843885</ele>
        <time>2022-04-13T11:19:06.316Z</time>
      </trkpt>
      <trkpt lat="41.99398" lon="21.46884">
        <ele>285.864457</ele>
        <time>2022-04-13T11:19:08.300Z</time>
      </trkpt>
      <trkpt lat="41.99406" lon="21.46869">
        <ele>285.89385</ele>
        <time>2022-04-13T11:19:11.282Z</time>
      </trkpt>
      <trkpt lat="41.99411" lon="21.46859">
        <ele>285.914411</ele>
        <time>2022-04-13T11:19:13.333Z</time>
      </trkpt>
      <trkpt lat="41.99417" lon="21.46849">
        <ele>285.934972</ele>
        <time>2022-04-13T11:19:15.286Z</time>
      </trkpt>
      <trkpt lat="41.99423" lon="21.46839">
        <ele>285.956462</ele>
        <time>2022-04-13T11:19:17.307Z</time>
      </trkpt>
      <trkpt lat="41.99428" lon="21.46828">
        <ele>285.977304</ele>
        <time>2022-04-13T11:19:19.277Z</time>
      </trkpt>
      <trkpt lat="41.99433" lon="21.46817">
        <ele>285.998815</ele>
        <time>2022-04-13T11:19:21.278Z</time>
      </trkpt>
      <trkpt lat="41.99439" lon="21.46807">
        <ele>286.020431</ele>
        <time>2022-04-13T11:19:23.298Z</time>
      </trkpt>
      <trkpt lat="41.99444" lon="21.46796">
        <ele>286.041562</ele>
        <time>2022-04-13T11:19:25.297Z</time>
      </trkpt>
      <trkpt lat="41.99452" lon="21.46781">
        <ele>286.071372</ele>
        <time>2022-04-13T11:19:28.280Z</time>
      </trkpt>
      <trkpt lat="41.99458" lon="21.46766">
        <ele>286.099743</ele>
        <time>2022-04-13T11:19:31.288Z</time>
      </trkpt>
      <trkpt lat="41.99465" lon="21.4675">
        <ele>286.129188</ele>
        <time>2022-04-13T11:19:34.319Z</time>
      </trkpt>
      <trkpt lat="41.99471" lon="21.46735">
        <ele>286.068742</ele>
        <time>2022-04-13T11:19:37.298Z</time>
      </trkpt>
      <trkpt lat="41.99477" lon="21.46718">
        <ele>285.931098</ele>
        <time>2022-04-13T11:19:40.289Z</time>
      </trkpt>
      <trkpt lat="41.99483" lon="21.46702">
        <ele>285.791915</ele>
        <time>2022-04-13T11:19:43.289Z</time>
      </trkpt>
      <trkpt lat="41.99486" lon="21.4669">
        <ele>285.696619</ele>
        <time>2022-04-13T11:19:45.283Z</time>
      </trkpt>
      <trkpt lat="41.99492" lon="21.46674">
        <ele>285.557722</ele>
        <time>2022-04-13T11:19:48.296Z</time>
      </trkpt>
      <trkpt lat="41.99494" lon="21.46662">
        <ele>285.465554</ele>
        <time>2022-04-13T11:19:50.278Z</time>
      </trkpt>
      <trkpt lat="41.99497" lon="21.4665">
        <ele>285.366512</ele>
        <time>2022-04-13T11:19:52.307Z</time>
      </trkpt>
      <trkpt lat="41.995" lon="21.46637">
        <ele>285.267031</ele>
        <time>2022-04-13T11:19:54.318Z</time>
      </trkpt>
      <trkpt lat="41.99503" lon="21.46625">
        <ele>285.167549</ele>
        <time>2022-04-13T11:19:56.294Z</time>
      </trkpt>
      <trkpt lat="41.99505" lon="21.46612">
        <ele>285.068394</ele>
        <time>2022-04-13T11:19:58.320Z</time>
      </trkpt>
      <trkpt lat="41.99507" lon="21.466">
        <ele>284.970469</ele>
        <time>2022-04-13T11:20:00.286Z</time>
      </trkpt>
      <trkpt lat="41.99509" lon="21.46587">
        <ele>284.873785</ele>
        <time>2022-04-13T11:20:02.298Z</time>
      </trkpt>
      <trkpt lat="41.99511" lon="21.46575">
        <ele>284.77723</ele>
        <time>2022-04-13T11:20:04.305Z</time>
      </trkpt>
      <trkpt lat="41.99513" lon="21.46563">
        <ele>284.681619</ele>
        <time>2022-04-13T11:20:06.288Z</time>
      </trkpt>
      <trkpt lat="41.99515" lon="21.4655">
        <ele>284.58619</ele>
        <time>2022-04-13T11:20:08.279Z</time>
      </trkpt>
      <trkpt lat="41.99515" lon="21.46538">
        <ele>284.490975</ele>
        <time>2022-04-13T11:20:10.331Z</time>
      </trkpt>
      <trkpt lat="41.99517" lon="21.46525">
        <ele>284.393895</ele>
        <time>2022-04-13T11:20:12.281Z</time>
      </trkpt>
      <trkpt lat="41.99518" lon="21.46508">
        <ele>284.399915</ele>
        <time>2022-04-13T11:20:15.296Z</time>
      </trkpt>
      <trkpt lat="41.99518" lon="21.46495">
        <ele>284.67769</ele>
        <time>2022-04-13T11:20:17.292Z</time>
      </trkpt>
      <trkpt lat="41.99519" lon="21.46478">
        <ele>285.068889</ele>
        <time>2022-04-13T11:20:20.300Z</time>
      </trkpt>
      <trkpt lat="41.99519" lon="21.46462">
        <ele>285.443619</ele>
        <time>2022-04-13T11:20:23.291Z</time>
      </trkpt>
      <trkpt lat="41.99518" lon="21.46447">
        <ele>285.795729</ele>
        <time>2022-04-13T11:20:26.302Z</time>
      </trkpt>
      <trkpt lat="41.99517" lon="21.46433">
        <ele>286.116719</ele>
        <time>2022-04-13T11:20:29.288Z</time>
      </trkpt>
      <trkpt lat="41.99516" lon="21.4642">
        <ele>286.411487</ele>
        <time>2022-04-13T11:20:32.310Z</time>
      </trkpt>
      <trkpt lat="41.99513" lon="21.46407">
        <ele>286.705639</ele>
        <time>2022-04-13T11:20:35.293Z</time>
      </trkpt>
      <trkpt lat="41.99512" lon="21.46395">
        <ele>287.001172</ele>
        <time>2022-04-13T11:20:38.282Z</time>
      </trkpt>
      <trkpt lat="41.9951" lon="21.46382">
        <ele>287.299916</ele>
        <time>2022-04-13T11:20:41.282Z</time>
      </trkpt>
      <trkpt lat="41.99507" lon="21.46369">
        <ele>287.60514</ele>
        <time>2022-04-13T11:20:44.300Z</time>
      </trkpt>
      <trkpt lat="41.99503" lon="21.46356">
        <ele>287.924179</ele>
        <time>2022-04-13T11:20:48.310Z</time>
      </trkpt>
      <trkpt lat="41.99499" lon="21.46344">
        <ele>288.240889</ele>
        <time>2022-04-13T11:20:52.297Z</time>
      </trkpt>
      <trkpt lat="41.99495" lon="21.46331">
        <ele>288.551764</ele>
        <time>2022-04-13T11:20:57.281Z</time>
      </trkpt>
      <trkpt lat="41.99504" lon="21.46332">
        <ele>288.845255</ele>
        <time>2022-04-13T11:21:37.296Z</time>
      </trkpt>
      <trkpt lat="41.99507" lon="21.46321">
        <ele>289.122544</ele>
        <time>2022-04-13T11:21:46.294Z</time>
      </trkpt>
      <trkpt lat="41.99504" lon="21.46309">
        <ele>289.426816</ele>
        <time>2022-04-13T11:21:50.304Z</time>
      </trkpt>
      <trkpt lat="41.99498" lon="21.46296">
        <ele>289.758258</ele>
        <time>2022-04-13T11:21:55.282Z</time>
      </trkpt>
      <trkpt lat="41.99493" lon="21.46283">
        <ele>289.968308</ele>
        <time>2022-04-13T11:21:59.285Z</time>
      </trkpt>
      <trkpt lat="41.99489" lon="21.46273">
        <ele>290.123828</ele>
        <time>2022-04-13T11:22:02.288Z</time>
      </trkpt>
      <trkpt lat="41.99484" lon="21.46261">
        <ele>290.296113</ele>
        <time>2022-04-13T11:22:06.294Z</time>
      </trkpt>
      <trkpt lat="41.9948" lon="21.46248">
        <ele>290.481331</ele>
        <time>2022-04-13T11:22:10.303Z</time>
      </trkpt>
      <trkpt lat="41.99475" lon="21.46237">
        <ele>290.636851</ele>
        <time>2022-04-13T11:22:13.280Z</time>
      </trkpt>
      <trkpt lat="41.9947" lon="21.46226">
        <ele>290.811684</ele>
        <time>2022-04-13T11:22:17.295Z</time>
      </trkpt>
      <trkpt lat="41.99466" lon="21.46214">
        <ele>290.978624</ele>
        <time>2022-04-13T11:22:21.282Z</time>
      </trkpt>
      <trkpt lat="41.99463" lon="21.46201">
        <ele>291.14227</ele>
        <time>2022-04-13T11:22:25.293Z</time>
      </trkpt>
      <trkpt lat="41.99462" lon="21.46188">
        <ele>291.310686</ele>
        <time>2022-04-13T11:22:31.286Z</time>
      </trkpt>
      <trkpt lat="41.99456" lon="21.46176">
        <ele>291.494312</ele>
        <time>2022-04-13T11:22:37.303Z</time>
      </trkpt>
      <trkpt lat="41.99453" lon="21.46165">
        <ele>291.650248</ele>
        <time>2022-04-13T11:22:42.316Z</time>
      </trkpt>
      <trkpt lat="41.99449" lon="21.46152">
        <ele>291.8196</ele>
        <time>2022-04-13T11:22:48.291Z</time>
      </trkpt>
      <trkpt lat="41.99441" lon="21.46158">
        <ele>291.988399</ele>
        <time>2022-04-13T11:22:55.289Z</time>
      </trkpt>
      <trkpt lat="41.99434" lon="21.46167">
        <ele>292.15729</ele>
        <time>2022-04-13T11:23:00.278Z</time>
      </trkpt>
      <trkpt lat="41.99427" lon="21.46175">
        <ele>292.314969</ele>
        <time>2022-04-13T11:23:04.334Z</time>
      </trkpt>
      <trkpt lat="41.99418" lon="21.46185">
        <ele>292.507332</ele>
        <time>2022-04-13T11:23:08.305Z</time>
      </trkpt>
      <trkpt lat="41.99409" lon="21.46195">
        <ele>292.706107</ele>
        <time>2022-04-13T11:23:12.301Z</time>
      </trkpt>
      <trkpt lat="41.99399" lon="21.46204">
        <ele>292.909314</ele>
        <time>2022-04-13T11:23:16.321Z</time>
      </trkpt>
      <trkpt lat="41.99392" lon="21.46211">
        <ele>292.885693</ele>
        <time>2022-04-13T11:23:19.284Z</time>
      </trkpt>
      <trkpt lat="41.99384" lon="21.46219">
        <ele>292.860024</ele>
        <time>2022-04-13T11:23:22.324Z</time>
      </trkpt>
      <trkpt lat="41.99375" lon="21.46229">
        <ele>292.830349</ele>
        <time>2022-04-13T11:23:25.300Z</time>
      </trkpt>
      <trkpt lat="41.99364" lon="21.46239">
        <ele>292.795656</ele>
        <time>2022-04-13T11:23:28.317Z</time>
      </trkpt>
      <trkpt lat="41.99356" lon="21.46247">
        <ele>292.769569</ele>
        <time>2022-04-13T11:23:30.306Z</time>
      </trkpt>
      <trkpt lat="41.99348" lon="21.46256">
        <ele>292.743684</ele>
        <time>2022-04-13T11:23:32.311Z</time>
      </trkpt>
      <trkpt lat="41.9934" lon="21.46265">
        <ele>292.717032</ele>
        <time>2022-04-13T11:23:34.320Z</time>
      </trkpt>
      <trkpt lat="41.99333" lon="21.46273">
        <ele>292.691667</ele>
        <time>2022-04-13T11:23:36.318Z</time>
      </trkpt>
      <trkpt lat="41.99325" lon="21.46281">
        <ele>292.666707</ele>
        <time>2022-04-13T11:23:38.302Z</time>
      </trkpt>
      <trkpt lat="41.99318" lon="21.46289">
        <ele>292.643358</ele>
        <time>2022-04-13T11:23:40.359Z</time>
      </trkpt>
      <trkpt lat="41.99308" lon="21.46301">
        <ele>292.609143</ele>
        <time>2022-04-13T11:23:43.291Z</time>
      </trkpt>
      <trkpt lat="41.993" lon="21.46313">
        <ele>292.57773</ele>
        <time>2022-04-13T11:23:46.299Z</time>
      </trkpt>
      <trkpt lat="41.99293" lon="21.46326">
        <ele>292.545636</ele>
        <time>2022-04-13T11:23:49.293Z</time>
      </trkpt>
      <trkpt lat="41.99287" lon="21.46336">
        <ele>292.522337</ele>
        <time>2022-04-13T11:23:51.310Z</time>
      </trkpt>
      <trkpt lat="41.99282" lon="21.46346">
        <ele>292.497776</ele>
        <time>2022-04-13T11:23:53.311Z</time>
      </trkpt>
      <trkpt lat="41.99277" lon="21.46357">
        <ele>292.472525</ele>
        <time>2022-04-13T11:23:55.296Z</time>
      </trkpt>
      <trkpt lat="41.99272" lon="21.46369">
        <ele>292.447041</ele>
        <time>2022-04-13T11:23:57.296Z</time>
      </trkpt>
      <trkpt lat="41.99267" lon="21.46381">
        <ele>292.34425</ele>
        <time>2022-04-13T11:23:59.294Z</time>
      </trkpt>
      <trkpt lat="41.99263" lon="21.46392">
        <ele>292.236032</ele>
        <time>2022-04-13T11:24:01.309Z</time>
      </trkpt>
      <trkpt lat="41.99259" lon="21.46403">
        <ele>292.129038</ele>
        <time>2022-04-13T11:24:03.316Z</time>
      </trkpt>
      <trkpt lat="41.99257" lon="21.46415">
        <ele>292.02253</ele>
        <time>2022-04-13T11:24:05.301Z</time>
      </trkpt>
      <trkpt lat="41.99253" lon="21.46432">
        <ele>291.870043</ele>
        <time>2022-04-13T11:24:08.311Z</time>
      </trkpt>
      <trkpt lat="41.9925" lon="21.46448">
        <ele>291.726822</ele>
        <time>2022-04-13T11:24:11.360Z</time>
      </trkpt>
      <trkpt lat="41.9925" lon="21.46463">
        <ele>291.599927</ele>
        <time>2022-04-13T11:24:14.305Z</time>
      </trkpt>
      <trkpt lat="41.99253" lon="21.46478">
        <ele>291.461169</ele>
        <time>2022-04-13T11:24:17.301Z</time>
      </trkpt>
      <trkpt lat="41.99258" lon="21.4649">
        <ele>291.342086</ele>
        <time>2022-04-13T11:24:20.287Z</time>
      </trkpt>
      <trkpt lat="41.99267" lon="21.46483">
        <ele>291.220652</ele>
        <time>2022-04-13T11:24:26.304Z</time>
      </trkpt>
      <trkpt lat="41.99268" lon="21.46468">
        <ele>291.092133</ele>
        <time>2022-04-13T11:24:29.294Z</time>
      </trkpt>
      <trkpt lat="41.9927" lon="21.46456">
        <ele>290.985643</ele>
        <time>2022-04-13T11:24:31.288Z</time>
      </trkpt>
      <trkpt lat="41.99272" lon="21.46444">
        <ele>290.875806</ele>
        <time>2022-04-13T11:24:33.310Z</time>
      </trkpt>
      <trkpt lat="41.99274" lon="21.4643">
        <ele>290.75995</ele>
        <time>2022-04-13T11:24:35.304Z</time>
      </trkpt>
      <trkpt lat="41.99277" lon="21.46418">
        <ele>290.646331</ele>
        <time>2022-04-13T11:24:37.298Z</time>
      </trkpt>
      <trkpt lat="41.99281" lon="21.46407">
        <ele>290.536817</ele>
        <time>2022-04-13T11:24:39.298Z</time>
      </trkpt>
      <trkpt lat="41.99289" lon="21.46399">
        <ele>290.429527</ele>
        <time>2022-04-13T11:24:42.295Z</time>
      </trkpt>
      <trkpt lat="41.99299" lon="21.46396">
        <ele>290.473035</ele>
        <time>2022-04-13T11:24:46.335Z</time>
      </trkpt>
      <trkpt lat="41.9931" lon="21.46394">
        <ele>290.765892</ele>
        <time>2022-04-13T11:24:49.297Z</time>
      </trkpt>
      <trkpt lat="41.99322" lon="21.46394">
        <ele>291.07091</ele>
        <time>2022-04-13T11:24:52.282Z</time>
      </trkpt>
      <trkpt lat="41.99332" lon="21.46387">
        <ele>291.349558</ele>
        <time>2022-04-13T11:24:57.293Z</time>
      </trkpt>
      <trkpt lat="41.99327" lon="21.46375">
        <ele>291.609674</ele>
        <time>2022-04-13T11:25:01.313Z</time>
      </trkpt>
      <trkpt lat="41.99319" lon="21.46364">
        <ele>291.903147</ele>
        <time>2022-04-13T11:25:05.293Z</time>
      </trkpt>
      <trkpt lat="41.99315" lon="21.46352">
        <ele>292.156291</ele>
        <time>2022-04-13T11:25:08.319Z</time>
      </trkpt>
      <trkpt lat="41.99315" lon="21.46338">
        <ele>292.425302</ele>
        <time>2022-04-13T11:25:11.306Z</time>
      </trkpt>
      <trkpt lat="41.99316" lon="21.46326">
        <ele>292.664924</ele>
        <time>2022-04-13T11:25:14.298Z</time>
      </trkpt>
      <trkpt lat="41.99324" lon="21.4632">
        <ele>292.900324</ele>
        <time>2022-04-13T11:25:17.311Z</time>
      </trkpt>
      <trkpt lat="41.99333" lon="21.46311">
        <ele>293.18517</ele>
        <time>2022-04-13T11:25:20.307Z</time>
      </trkpt>
      <trkpt lat="41.99337" lon="21.46298">
        <ele>293.459598</ele>
        <time>2022-04-13T11:25:25.289Z</time>
      </trkpt>
      <trkpt lat="41.99346" lon="21.46285">
        <ele>293.790108</ele>
        <time>2022-04-13T11:25:28.297Z</time>
      </trkpt>
      <trkpt lat="41.99351" lon="21.46275">
        <ele>294.024667</ele>
        <time>2022-04-13T11:25:30.306Z</time>
      </trkpt>
      <trkpt lat="41.99363" lon="21.46273">
        <ele>294.324163</ele>
        <time>2022-04-13T11:25:34.309Z</time>
      </trkpt>
      <trkpt lat="41.99373" lon="21.46277">
        <ele>294.609735</ele>
        <time>2022-04-13T11:25:37.303Z</time>
      </trkpt>
      <trkpt lat="41.99383" lon="21.46274">
        <ele>294.850612</ele>
        <time>2022-04-13T11:25:42.309Z</time>
      </trkpt>
      <trkpt lat="41.9939" lon="21.46284">
        <ele>294.98395</ele>
        <time>2022-04-13T11:25:51.289Z</time>
      </trkpt>
      <trkpt lat="41.99395" lon="21.46296">
        <ele>294.932812</ele>
        <time>2022-04-13T11:25:55.298Z</time>
      </trkpt>
      <trkpt lat="41.994" lon="21.46307">
        <ele>294.885482</ele>
        <time>2022-04-13T11:25:58.291Z</time>
      </trkpt>
      <trkpt lat="41.99404" lon="21.46318">
        <ele>294.838595</ele>
        <time>2022-04-13T11:26:01.294Z</time>
      </trkpt>
      <trkpt lat="41.99408" lon="21.46332">
        <ele>294.78086</ele>
        <time>2022-04-13T11:26:05.301Z</time>
      </trkpt>
      <trkpt lat="41.99412" lon="21.46345">
        <ele>294.731472</ele>
        <time>2022-04-13T11:26:08.321Z</time>
      </trkpt>
      <trkpt lat="41.99415" lon="21.46357">
        <ele>294.680854</ele>
        <time>2022-04-13T11:26:11.322Z</time>
      </trkpt>
      <trkpt lat="41.99419" lon="21.46372">
        <ele>294.623841</ele>
        <time>2022-04-13T11:26:15.292Z</time>
      </trkpt>
      <trkpt lat="41.99419" lon="21.46385">
        <ele>294.57558</ele>
        <time>2022-04-13T11:26:19.311Z</time>
      </trkpt>
      <trkpt lat="41.99416" lon="21.464">
        <ele>294.515838</ele>
        <time>2022-04-13T11:26:24.294Z</time>
      </trkpt>
      <trkpt lat="41.99422" lon="21.46391">
        <ele>294.470606</ele>
        <time>2022-04-13T11:26:28.313Z</time>
      </trkpt>
      <trkpt lat="41.9942" lon="21.46379">
        <ele>294.424045</ele>
        <time>2022-04-13T11:26:31.304Z</time>
      </trkpt>
      <trkpt lat="41.99418" lon="21.46365">
        <ele>294.368579</ele>
        <time>2022-04-13T11:26:35.276Z</time>
      </trkpt>
      <trkpt lat="41.99413" lon="21.46351">
        <ele>294.311316</ele>
        <time>2022-04-13T11:26:39.306Z</time>
      </trkpt>
      <trkpt lat="41.9941" lon="21.46337">
        <ele>294.257545</ele>
        <time>2022-04-13T11:26:43.313Z</time>
      </trkpt>
      <trkpt lat="41.99405" lon="21.46323">
        <ele>294.200173</ele>
        <time>2022-04-13T11:26:48.294Z</time>
      </trkpt>
      <trkpt lat="41.994" lon="21.46312">
        <ele>294.151051</ele>
        <time>2022-04-13T11:26:52.278Z</time>
      </trkpt>
      <trkpt lat="41.99395" lon="21.463">
        <ele>294.102424</ele>
        <time>2022-04-13T11:26:57.300Z</time>
      </trkpt>
      <trkpt lat="41.9939" lon="21.46288">
        <ele>293.941306</ele>
        <time>2022-04-13T11:27:02.301Z</time>
      </trkpt>
      <trkpt lat="41.99384" lon="21.46277">
        <ele>293.793619</ele>
        <time>2022-04-13T11:27:07.279Z</time>
      </trkpt>
      <trkpt lat="41.9938" lon="21.46289">
        <ele>293.642038</ele>
        <time>2022-04-13T11:27:18.297Z</time>
      </trkpt>
      <trkpt lat="41.99382" lon="21.46301">
        <ele>293.50276</ele>
        <time>2022-04-13T11:27:22.288Z</time>
      </trkpt>
      <trkpt lat="41.99387" lon="21.46313">
        <ele>293.350074</ele>
        <time>2022-04-13T11:27:26.282Z</time>
      </trkpt>
      <trkpt lat="41.99392" lon="21.46324">
        <ele>293.215874</ele>
        <time>2022-04-13T11:27:29.287Z</time>
      </trkpt>
      <trkpt lat="41.99401" lon="21.46331">
        <ele>293.058767</ele>
        <time>2022-04-13T11:27:33.279Z</time>
      </trkpt>
      <trkpt lat="41.99408" lon="21.46318">
        <ele>292.874389</ele>
        <time>2022-04-13T11:28:46.295Z</time>
      </trkpt>
      <trkpt lat="41.99406" lon="21.46302">
        <ele>292.703194</ele>
        <time>2022-04-13T11:28:52.280Z</time>
      </trkpt>
      <trkpt lat="41.99403" lon="21.46291">
        <ele>292.562062</ele>
        <time>2022-04-13T11:28:55.274Z</time>
      </trkpt>
      <trkpt lat="41.99398" lon="21.46278">
        <ele>292.40249</ele>
        <time>2022-04-13T11:28:58.298Z</time>
      </trkpt>
      <trkpt lat="41.99393" lon="21.46265">
        <ele>292.243907</ele>
        <time>2022-04-13T11:29:01.287Z</time>
      </trkpt>
      <trkpt lat="41.99387" lon="21.46252">
        <ele>292.069774</ele>
        <time>2022-04-13T11:29:04.300Z</time>
      </trkpt>
      <trkpt lat="41.9938" lon="21.46241">
        <ele>291.903145</ele>
        <time>2022-04-13T11:29:08.282Z</time>
      </trkpt>
      <trkpt lat="41.99374" lon="21.46231">
        <ele>291.762568</ele>
        <time>2022-04-13T11:29:11.283Z</time>
      </trkpt>
      <trkpt lat="41.99367" lon="21.46221">
        <ele>291.609949</ele>
        <time>2022-04-13T11:29:15.280Z</time>
      </trkpt>
      <trkpt lat="41.99362" lon="21.46209">
        <ele>291.460185</ele>
        <time>2022-04-13T11:29:18.272Z</time>
      </trkpt>
      <trkpt lat="41.99362" lon="21.46192">
        <ele>291.300916</ele>
        <time>2022-04-13T11:29:21.302Z</time>
      </trkpt>
      <trkpt lat="41.99357" lon="21.46178">
        <ele>291.168554</ele>
        <time>2022-04-13T11:29:24.282Z</time>
      </trkpt>
      <trkpt lat="41.99347" lon="21.46168">
        <ele>291.017576</ele>
        <time>2022-04-13T11:29:27.296Z</time>
      </trkpt>
      <trkpt lat="41.99339" lon="21.46162">
        <ele>290.910917</ele>
        <time>2022-04-13T11:29:29.302Z</time>
      </trkpt>
      <trkpt lat="41.99327" lon="21.46153">
        <ele>290.759084</ele>
        <time>2022-04-13T11:29:32.291Z</time>
      </trkpt>
      <trkpt lat="41.99316" lon="21.46145">
        <ele>290.604426</ele>
        <time>2022-04-13T11:29:35.284Z</time>
      </trkpt>
      <trkpt lat="41.99305" lon="21.46135">
        <ele>290.452496</ele>
        <time>2022-04-13T11:29:38.290Z</time>
      </trkpt>
      <trkpt lat="41.99297" lon="21.46129">
        <ele>290.346271</ele>
        <time>2022-04-13T11:29:40.302Z</time>
      </trkpt>
      <trkpt lat="41.99289" lon="21.46124">
        <ele>290.240699</ele>
        <time>2022-04-13T11:29:42.282Z</time>
      </trkpt>
      <trkpt lat="41.99278" lon="21.46115">
        <ele>290.093001</ele>
        <time>2022-04-13T11:29:45.277Z</time>
      </trkpt>
      <trkpt lat="41.99268" lon="21.46106">
        <ele>289.950242</ele>
        <time>2022-04-13T11:29:48.285Z</time>
      </trkpt>
      <trkpt lat="41.99258" lon="21.46097">
        <ele>289.807032</ele>
        <time>2022-04-13T11:29:51.286Z</time>
      </trkpt>
      <trkpt lat="41.99248" lon="21.46088">
        <ele>289.67198</ele>
        <time>2022-04-13T11:29:54.277Z</time>
      </trkpt>
      <trkpt lat="41.99237" lon="21.46078">
        <ele>289.52192</ele>
        <time>2022-04-13T11:29:57.298Z</time>
      </trkpt>
      <trkpt lat="41.99227" lon="21.46067">
        <ele>289.368178</ele>
        <time>2022-04-13T11:30:00.278Z</time>
      </trkpt>
      <trkpt lat="41.99216" lon="21.46057">
        <ele>289.224518</ele>
        <time>2022-04-13T11:30:03.286Z</time>
      </trkpt>
      <trkpt lat="41.99205" lon="21.46047">
        <ele>289.094955</ele>
        <time>2022-04-13T11:30:06.274Z</time>
      </trkpt>
      <trkpt lat="41.99195" lon="21.46038">
        <ele>288.973195</ele>
        <time>2022-04-13T11:30:09.335Z</time>
      </trkpt>
      <trkpt lat="41.99185" lon="21.46029">
        <ele>288.853982</ele>
        <time>2022-04-13T11:30:12.280Z</time>
      </trkpt>
      <trkpt lat="41.99176" lon="21.46019">
        <ele>288.734751</ele>
        <time>2022-04-13T11:30:15.280Z</time>
      </trkpt>
      <trkpt lat="41.99166" lon="21.46009">
        <ele>288.613017</ele>
        <time>2022-04-13T11:30:18.302Z</time>
      </trkpt>
      <trkpt lat="41.99155" lon="21.46">
        <ele>288.485476</ele>
        <time>2022-04-13T11:30:21.291Z</time>
      </trkpt>
      <trkpt lat="41.99145" lon="21.4599">
        <ele>288.364523</ele>
        <time>2022-04-13T11:30:24.275Z</time>
      </trkpt>
      <trkpt lat="41.99135" lon="21.4598">
        <ele>288.233894</ele>
        <time>2022-04-13T11:30:27.292Z</time>
      </trkpt>
      <trkpt lat="41.99126" lon="21.45969">
        <ele>288.110342</ele>
        <time>2022-04-13T11:30:30.278Z</time>
      </trkpt>
      <trkpt lat="41.99116" lon="21.45958">
        <ele>287.982526</ele>
        <time>2022-04-13T11:30:33.273Z</time>
      </trkpt>
      <trkpt lat="41.99107" lon="21.45946">
        <ele>287.856214</ele>
        <time>2022-04-13T11:30:36.296Z</time>
      </trkpt>
      <trkpt lat="41.99099" lon="21.45933">
        <ele>287.733518</ele>
        <time>2022-04-13T11:30:39.280Z</time>
      </trkpt>
      <trkpt lat="41.99091" lon="21.4592">
        <ele>287.606506</ele>
        <time>2022-04-13T11:30:42.275Z</time>
      </trkpt>
      <trkpt lat="41.99083" lon="21.45907">
        <ele>287.543351</ele>
        <time>2022-04-13T11:30:45.276Z</time>
      </trkpt>
      <trkpt lat="41.99075" lon="21.45894">
        <ele>287.699386</ele>
        <time>2022-04-13T11:30:48.284Z</time>
      </trkpt>
      <trkpt lat="41.99067" lon="21.45879">
        <ele>287.863311</ele>
        <time>2022-04-13T11:30:51.278Z</time>
      </trkpt>
      <trkpt lat="41.9906" lon="21.45864">
        <ele>288.019788</ele>
        <time>2022-04-13T11:30:54.277Z</time>
      </trkpt>
      <trkpt lat="41.99054" lon="21.45851">
        <ele>288.168091</ele>
        <time>2022-04-13T11:30:57.275Z</time>
      </trkpt>
      <trkpt lat="41.99047" lon="21.45835">
        <ele>288.323409</ele>
        <time>2022-04-13T11:31:00.304Z</time>
      </trkpt>
      <trkpt lat="41.99042" lon="21.45819">
        <ele>288.484364</ele>
        <time>2022-04-13T11:31:03.278Z</time>
      </trkpt>
      <trkpt lat="41.99037" lon="21.45803">
        <ele>288.645781</ele>
        <time>2022-04-13T11:31:06.315Z</time>
      </trkpt>
      <trkpt lat="41.99033" lon="21.45786">
        <ele>288.806931</ele>
        <time>2022-04-13T11:31:09.291Z</time>
      </trkpt>
      <trkpt lat="41.99029" lon="21.45768">
        <ele>288.969961</ele>
        <time>2022-04-13T11:31:12.281Z</time>
      </trkpt>
      <trkpt lat="41.99026" lon="21.45751">
        <ele>289.128447</ele>
        <time>2022-04-13T11:31:15.270Z</time>
      </trkpt>
      <trkpt lat="41.99025" lon="21.45734">
        <ele>289.283291</ele>
        <time>2022-04-13T11:31:18.291Z</time>
      </trkpt>
      <trkpt lat="41.99024" lon="21.45717">
        <ele>289.437234</ele>
        <time>2022-04-13T11:31:21.284Z</time>
      </trkpt>
      <trkpt lat="41.99024" lon="21.457">
        <ele>289.594784</ele>
        <time>2022-04-13T11:31:24.291Z</time>
      </trkpt>
      <trkpt lat="41.99024" lon="21.45682">
        <ele>289.814254</ele>
        <time>2022-04-13T11:31:27.290Z</time>
      </trkpt>
      <trkpt lat="41.99023" lon="21.4567">
        <ele>290.035826</ele>
        <time>2022-04-13T11:31:29.310Z</time>
      </trkpt>
      <trkpt lat="41.99024" lon="21.45652">
        <ele>290.359093</ele>
        <time>2022-04-13T11:31:32.312Z</time>
      </trkpt>
      <trkpt lat="41.99025" lon="21.45634">
        <ele>290.686809</ele>
        <time>2022-04-13T11:31:35.277Z</time>
      </trkpt>
      <trkpt lat="41.99028" lon="21.45617">
        <ele>291.009125</ele>
        <time>2022-04-13T11:31:38.278Z</time>
      </trkpt>
      <trkpt lat="41.99029" lon="21.45605">
        <ele>291.227926</ele>
        <time>2022-04-13T11:31:40.281Z</time>
      </trkpt>
      <trkpt lat="41.99031" lon="21.45587">
        <ele>291.555622</ele>
        <time>2022-04-13T11:31:43.291Z</time>
      </trkpt>
      <trkpt lat="41.99034" lon="21.45569">
        <ele>291.883763</ele>
        <time>2022-04-13T11:31:46.268Z</time>
      </trkpt>
      <trkpt lat="41.99037" lon="21.45557">
        <ele>292.113587</ele>
        <time>2022-04-13T11:31:48.288Z</time>
      </trkpt>
      <trkpt lat="41.99039" lon="21.45544">
        <ele>292.352814</ele>
        <time>2022-04-13T11:31:50.274Z</time>
      </trkpt>
      <trkpt lat="41.99042" lon="21.45532">
        <ele>292.595127</ele>
        <time>2022-04-13T11:31:52.277Z</time>
      </trkpt>
      <trkpt lat="41.99045" lon="21.45519">
        <ele>292.837884</ele>
        <time>2022-04-13T11:31:54.276Z</time>
      </trkpt>
      <trkpt lat="41.99048" lon="21.45506">
        <ele>293.077978</ele>
        <time>2022-04-13T11:31:56.330Z</time>
      </trkpt>
      <trkpt lat="41.99052" lon="21.45494">
        <ele>293.316358</ele>
        <time>2022-04-13T11:31:58.307Z</time>
      </trkpt>
      <trkpt lat="41.99056" lon="21.45482">
        <ele>293.555595</ele>
        <time>2022-04-13T11:32:00.305Z</time>
      </trkpt>
      <trkpt lat="41.99061" lon="21.45471">
        <ele>293.794364</ele>
        <time>2022-04-13T11:32:02.288Z</time>
      </trkpt>
      <trkpt lat="41.99066" lon="21.45459">
        <ele>294.0401</ele>
        <time>2022-04-13T11:32:04.282Z</time>
      </trkpt>
      <trkpt lat="41.99073" lon="21.45444">
        <ele>293.96664</ele>
        <time>2022-04-13T11:32:07.278Z</time>
      </trkpt>
      <trkpt lat="41.99078" lon="21.45434">
        <ele>293.863488</ele>
        <time>2022-04-13T11:32:09.341Z</time>
      </trkpt>
      <trkpt lat="41.99086" lon="21.45419">
        <ele>293.715942</ele>
        <time>2022-04-13T11:32:12.273Z</time>
      </trkpt>
      <trkpt lat="41.99093" lon="21.45405">
        <ele>293.572539</ele>
        <time>2022-04-13T11:32:15.279Z</time>
      </trkpt>
      <trkpt lat="41.99099" lon="21.45395">
        <ele>293.470488</ele>
        <time>2022-04-13T11:32:17.283Z</time>
      </trkpt>
      <trkpt lat="41.99107" lon="21.45381">
        <ele>293.319016</ele>
        <time>2022-04-13T11:32:20.279Z</time>
      </trkpt>
      <trkpt lat="41.99113" lon="21.45371">
        <ele>293.210289</ele>
        <time>2022-04-13T11:32:22.285Z</time>
      </trkpt>
      <trkpt lat="41.99119" lon="21.4536">
        <ele>293.098081</ele>
        <time>2022-04-13T11:32:24.281Z</time>
      </trkpt>
      <trkpt lat="41.99127" lon="21.45346">
        <ele>292.952004</ele>
        <time>2022-04-13T11:32:27.302Z</time>
      </trkpt>
      <trkpt lat="41.99133" lon="21.45335">
        <ele>292.841757</ele>
        <time>2022-04-13T11:32:29.268Z</time>
      </trkpt>
      <trkpt lat="41.99139" lon="21.45323">
        <ele>292.71903</ele>
        <time>2022-04-13T11:32:31.286Z</time>
      </trkpt>
      <trkpt lat="41.99145" lon="21.45312">
        <ele>292.608311</ele>
        <time>2022-04-13T11:32:33.310Z</time>
      </trkpt>
      <trkpt lat="41.99151" lon="21.45302">
        <ele>292.500879</ele>
        <time>2022-04-13T11:32:35.278Z</time>
      </trkpt>
      <trkpt lat="41.99156" lon="21.4529">
        <ele>292.386072</ele>
        <time>2022-04-13T11:32:37.332Z</time>
      </trkpt>
      <trkpt lat="41.99163" lon="21.4528">
        <ele>292.273976</ele>
        <time>2022-04-13T11:32:39.278Z</time>
      </trkpt>
      <trkpt lat="41.99169" lon="21.4527">
        <ele>292.165223</ele>
        <time>2022-04-13T11:32:41.275Z</time>
      </trkpt>
      <trkpt lat="41.99174" lon="21.45259">
        <ele>292.087604</ele>
        <time>2022-04-13T11:32:43.281Z</time>
      </trkpt>
      <trkpt lat="41.9918" lon="21.45248">
        <ele>292.118668</ele>
        <time>2022-04-13T11:32:45.291Z</time>
      </trkpt>
      <trkpt lat="41.99185" lon="21.45238">
        <ele>292.146576</ele>
        <time>2022-04-13T11:32:47.286Z</time>
      </trkpt>
      <trkpt lat="41.99191" lon="21.45228">
        <ele>292.17634</ele>
        <time>2022-04-13T11:32:49.273Z</time>
      </trkpt>
      <trkpt lat="41.99197" lon="21.45217">
        <ele>292.207251</ele>
        <time>2022-04-13T11:32:51.282Z</time>
      </trkpt>
      <trkpt lat="41.99203" lon="21.45207">
        <ele>292.237202</ele>
        <time>2022-04-13T11:32:53.297Z</time>
      </trkpt>
      <trkpt lat="41.99209" lon="21.45197">
        <ele>292.267697</ele>
        <time>2022-04-13T11:32:55.291Z</time>
      </trkpt>
      <trkpt lat="41.99215" lon="21.45186">
        <ele>292.297266</ele>
        <time>2022-04-13T11:32:57.292Z</time>
      </trkpt>
      <trkpt lat="41.99222" lon="21.45177">
        <ele>292.328409</ele>
        <time>2022-04-13T11:32:59.266Z</time>
      </trkpt>
      <trkpt lat="41.9923" lon="21.45168">
        <ele>292.36008</ele>
        <time>2022-04-13T11:33:01.291Z</time>
      </trkpt>
      <trkpt lat="41.99237" lon="21.45158">
        <ele>292.392216</ele>
        <time>2022-04-13T11:33:03.279Z</time>
      </trkpt>
      <trkpt lat="41.99245" lon="21.4515">
        <ele>292.424227</ele>
        <time>2022-04-13T11:33:05.266Z</time>
      </trkpt>
      <trkpt lat="41.99253" lon="21.45141">
        <ele>292.456092</ele>
        <time>2022-04-13T11:33:07.289Z</time>
      </trkpt>
      <trkpt lat="41.99261" lon="21.45132">
        <ele>292.487285</ele>
        <time>2022-04-13T11:33:09.273Z</time>
      </trkpt>
      <trkpt lat="41.99269" lon="21.45125">
        <ele>292.51633</ele>
        <time>2022-04-13T11:33:11.287Z</time>
      </trkpt>
      <trkpt lat="41.99277" lon="21.45119">
        <ele>292.545248</ele>
        <time>2022-04-13T11:33:13.267Z</time>
      </trkpt>
      <trkpt lat="41.99285" lon="21.45112">
        <ele>292.574657</ele>
        <time>2022-04-13T11:33:15.287Z</time>
      </trkpt>
      <trkpt lat="41.99293" lon="21.45105">
        <ele>292.603834</ele>
        <time>2022-04-13T11:33:17.275Z</time>
      </trkpt>
      <trkpt lat="41.99301" lon="21.45098">
        <ele>292.635077</ele>
        <time>2022-04-13T11:33:19.274Z</time>
      </trkpt>
      <trkpt lat="41.99309" lon="21.4509">
        <ele>292.765803</ele>
        <time>2022-04-13T11:33:21.271Z</time>
      </trkpt>
      <trkpt lat="41.99319" lon="21.45081">
        <ele>292.957705</ele>
        <time>2022-04-13T11:33:24.282Z</time>
      </trkpt>
      <trkpt lat="41.99327" lon="21.45073">
        <ele>293.122206</ele>
        <time>2022-04-13T11:33:27.295Z</time>
      </trkpt>
      <trkpt lat="41.99337" lon="21.45062">
        <ele>293.318788</ele>
        <time>2022-04-13T11:33:30.286Z</time>
      </trkpt>
      <trkpt lat="41.99348" lon="21.45052">
        <ele>293.529613</ele>
        <time>2022-04-13T11:33:33.275Z</time>
      </trkpt>
      <trkpt lat="41.99359" lon="21.45043">
        <ele>293.735939</ele>
        <time>2022-04-13T11:33:36.283Z</time>
      </trkpt>
      <trkpt lat="41.9937" lon="21.45034">
        <ele>293.941028</ele>
        <time>2022-04-13T11:33:39.283Z</time>
      </trkpt>
      <trkpt lat="41.99381" lon="21.45023">
        <ele>294.151852</ele>
        <time>2022-04-13T11:33:42.310Z</time>
      </trkpt>
      <trkpt lat="41.99388" lon="21.45015">
        <ele>294.295139</ele>
        <time>2022-04-13T11:33:44.292Z</time>
      </trkpt>
      <trkpt lat="41.99395" lon="21.45007">
        <ele>294.445489</ele>
        <time>2022-04-13T11:33:46.281Z</time>
      </trkpt>
      <trkpt lat="41.99405" lon="21.44995">
        <ele>294.65004</ele>
        <time>2022-04-13T11:33:49.292Z</time>
      </trkpt>
      <trkpt lat="41.99414" lon="21.44982">
        <ele>294.858492</ele>
        <time>2022-04-13T11:33:52.276Z</time>
      </trkpt>
      <trkpt lat="41.99423" lon="21.44969">
        <ele>295.067146</ele>
        <time>2022-04-13T11:33:55.283Z</time>
      </trkpt>
      <trkpt lat="41.99431" lon="21.44955">
        <ele>295.266148</ele>
        <time>2022-04-13T11:33:58.274Z</time>
      </trkpt>
      <trkpt lat="41.99438" lon="21.44944">
        <ele>295.434574</ele>
        <time>2022-04-13T11:34:01.315Z</time>
      </trkpt>
      <trkpt lat="41.99445" lon="21.44933">
        <ele>295.876354</ele>
        <time>2022-04-13T11:34:04.274Z</time>
      </trkpt>
      <trkpt lat="41.99452" lon="21.44919">
        <ele>296.40568</ele>
        <time>2022-04-13T11:34:07.269Z</time>
      </trkpt>
      <trkpt lat="41.99458" lon="21.44908">
        <ele>296.821692</ele>
        <time>2022-04-13T11:34:10.269Z</time>
      </trkpt>
      <trkpt lat="41.99463" lon="21.44896">
        <ele>297.263884</ele>
        <time>2022-04-13T11:34:13.268Z</time>
      </trkpt>
      <trkpt lat="41.9947" lon="21.44885">
        <ele>297.728238</ele>
        <time>2022-04-13T11:34:15.288Z</time>
      </trkpt>
      <trkpt lat="41.99477" lon="21.44871">
        <ele>298.271765</ele>
        <time>2022-04-13T11:34:17.290Z</time>
      </trkpt>
      <trkpt lat="41.99482" lon="21.44858">
        <ele>298.733205</ele>
        <time>2022-04-13T11:34:19.280Z</time>
      </trkpt>
      <trkpt lat="41.99487" lon="21.44846">
        <ele>299.168315</ele>
        <time>2022-04-13T11:34:21.308Z</time>
      </trkpt>
      <trkpt lat="41.99492" lon="21.44835">
        <ele>299.573264</ele>
        <time>2022-04-13T11:34:23.294Z</time>
      </trkpt>
      <trkpt lat="41.99497" lon="21.44825">
        <ele>299.964054</ele>
        <time>2022-04-13T11:34:25.280Z</time>
      </trkpt>
      <trkpt lat="41.99502" lon="21.44814">
        <ele>300.362513</ele>
        <time>2022-04-13T11:34:27.290Z</time>
      </trkpt>
      <trkpt lat="41.99506" lon="21.44803">
        <ele>300.748944</ele>
        <time>2022-04-13T11:34:29.283Z</time>
      </trkpt>
      <trkpt lat="41.99513" lon="21.44788">
        <ele>301.321692</ele>
        <time>2022-04-13T11:34:32.290Z</time>
      </trkpt>
      <trkpt lat="41.99518" lon="21.44777">
        <ele>301.740498</ele>
        <time>2022-04-13T11:34:34.297Z</time>
      </trkpt>
      <trkpt lat="41.99523" lon="21.44766">
        <ele>302.146612</ele>
        <time>2022-04-13T11:34:36.277Z</time>
      </trkpt>
      <trkpt lat="41.99528" lon="21.44755">
        <ele>302.570138</ele>
        <time>2022-04-13T11:34:38.294Z</time>
      </trkpt>
      <trkpt lat="41.99533" lon="21.44743">
        <ele>302.999349</ele>
        <time>2022-04-13T11:34:40.276Z</time>
      </trkpt>
      <trkpt lat="41.99537" lon="21.4473">
        <ele>303.145061</ele>
        <time>2022-04-13T11:34:42.271Z</time>
      </trkpt>
      <trkpt lat="41.9954" lon="21.44718">
        <ele>303.119933</ele>
        <time>2022-04-13T11:34:44.287Z</time>
      </trkpt>
      <trkpt lat="41.99543" lon="21.44706">
        <ele>303.094347</ele>
        <time>2022-04-13T11:34:46.276Z</time>
      </trkpt>
      <trkpt lat="41.99547" lon="21.44693">
        <ele>303.067751</ele>
        <time>2022-04-13T11:34:48.284Z</time>
      </trkpt>
      <trkpt lat="41.9955" lon="21.4468">
        <ele>303.041039</ele>
        <time>2022-04-13T11:34:50.341Z</time>
      </trkpt>
      <trkpt lat="41.99553" lon="21.44667">
        <ele>303.013686</ele>
        <time>2022-04-13T11:34:52.299Z</time>
      </trkpt>
      <trkpt lat="41.99556" lon="21.44654">
        <ele>302.986899</ele>
        <time>2022-04-13T11:34:54.279Z</time>
      </trkpt>
      <trkpt lat="41.99558" lon="21.44641">
        <ele>302.961384</ele>
        <time>2022-04-13T11:34:56.289Z</time>
      </trkpt>
      <trkpt lat="41.9956" lon="21.44628">
        <ele>302.935048</ele>
        <time>2022-04-13T11:34:58.315Z</time>
      </trkpt>
      <trkpt lat="41.99562" lon="21.44614">
        <ele>302.906817</ele>
        <time>2022-04-13T11:35:00.270Z</time>
      </trkpt>
      <trkpt lat="41.99563" lon="21.44599">
        <ele>302.877741</ele>
        <time>2022-04-13T11:35:02.277Z</time>
      </trkpt>
      <trkpt lat="41.99563" lon="21.44583">
        <ele>302.847004</ele>
        <time>2022-04-13T11:35:04.301Z</time>
      </trkpt>
      <trkpt lat="41.99564" lon="21.44567">
        <ele>302.816231</ele>
        <time>2022-04-13T11:35:06.300Z</time>
      </trkpt>
      <trkpt lat="41.99564" lon="21.44552">
        <ele>302.786877</ele>
        <time>2022-04-13T11:35:08.302Z</time>
      </trkpt>
      <trkpt lat="41.99565" lon="21.44537">
        <ele>302.75751</ele>
        <time>2022-04-13T11:35:10.276Z</time>
      </trkpt>
      <trkpt lat="41.99564" lon="21.44522">
        <ele>302.727285</ele>
        <time>2022-04-13T11:35:12.288Z</time>
      </trkpt>
      <trkpt lat="41.99563" lon="21.44507">
        <ele>302.69835</ele>
        <time>2022-04-13T11:35:14.280Z</time>
      </trkpt>
      <trkpt lat="41.99561" lon="21.44492">
        <ele>302.501224</ele>
        <time>2022-04-13T11:35:16.301Z</time>
      </trkpt>
      <trkpt lat="41.99559" lon="21.44477">
        <ele>302.19766</ele>
        <time>2022-04-13T11:35:18.282Z</time>
      </trkpt>
      <trkpt lat="41.99555" lon="21.44462">
        <ele>301.892782</ele>
        <time>2022-04-13T11:35:20.273Z</time>
      </trkpt>
      <trkpt lat="41.99551" lon="21.44448">
        <ele>301.598161</ele>
        <time>2022-04-13T11:35:22.285Z</time>
      </trkpt>
      <trkpt lat="41.99547" lon="21.44433">
        <ele>301.30354</ele>
        <time>2022-04-13T11:35:24.277Z</time>
      </trkpt>
      <trkpt lat="41.99543" lon="21.44419">
        <ele>300.997572</ele>
        <time>2022-04-13T11:35:26.287Z</time>
      </trkpt>
      <trkpt lat="41.99537" lon="21.44405">
        <ele>300.694293</ele>
        <time>2022-04-13T11:35:28.265Z</time>
      </trkpt>
      <trkpt lat="41.99533" lon="21.44392">
        <ele>300.411458</ele>
        <time>2022-04-13T11:35:30.293Z</time>
      </trkpt>
      <trkpt lat="41.9953" lon="21.44377">
        <ele>300.109615</ele>
        <time>2022-04-13T11:35:32.305Z</time>
      </trkpt>
      <trkpt lat="41.99526" lon="21.44362">
        <ele>299.812089</ele>
        <time>2022-04-13T11:35:34.272Z</time>
      </trkpt>
      <trkpt lat="41.99522" lon="21.44348">
        <ele>299.51248</ele>
        <time>2022-04-13T11:35:36.271Z</time>
      </trkpt>
      <trkpt lat="41.99517" lon="21.44334">
        <ele>299.210752</ele>
        <time>2022-04-13T11:35:38.279Z</time>
      </trkpt>
      <trkpt lat="41.99512" lon="21.4432">
        <ele>298.913622</ele>
        <time>2022-04-13T11:35:40.290Z</time>
      </trkpt>
      <trkpt lat="41.99509" lon="21.44306">
        <ele>298.62976</ele>
        <time>2022-04-13T11:35:42.279Z</time>
      </trkpt>
      <trkpt lat="41.99505" lon="21.44292">
        <ele>298.356721</ele>
        <time>2022-04-13T11:35:44.284Z</time>
      </trkpt>
      <trkpt lat="41.99501" lon="21.44279">
        <ele>298.081002</ele>
        <time>2022-04-13T11:35:46.325Z</time>
      </trkpt>
      <trkpt lat="41.99498" lon="21.44265">
        <ele>298.027</ele>
        <time>2022-04-13T11:35:48.290Z</time>
      </trkpt>
      <trkpt lat="41.99495" lon="21.44253">
        <ele>298.053082</ele>
        <time>2022-04-13T11:35:50.285Z</time>
      </trkpt>
      <trkpt lat="41.99492" lon="21.4424">
        <ele>298.079788</ele>
        <time>2022-04-13T11:35:52.299Z</time>
      </trkpt>
      <trkpt lat="41.99489" lon="21.44228">
        <ele>298.105123</ele>
        <time>2022-04-13T11:35:54.289Z</time>
      </trkpt>
      <trkpt lat="41.99486" lon="21.44215">
        <ele>298.131086</ele>
        <time>2022-04-13T11:35:56.283Z</time>
      </trkpt>
      <trkpt lat="41.99483" lon="21.44202">
        <ele>298.157238</ele>
        <time>2022-04-13T11:35:58.277Z</time>
      </trkpt>
      <trkpt lat="41.99481" lon="21.44189">
        <ele>298.183335</ele>
        <time>2022-04-13T11:36:00.274Z</time>
      </trkpt>
      <trkpt lat="41.99479" lon="21.44175">
        <ele>298.211106</ele>
        <time>2022-04-13T11:36:02.276Z</time>
      </trkpt>
      <trkpt lat="41.99477" lon="21.4416">
        <ele>298.239837</ele>
        <time>2022-04-13T11:36:04.275Z</time>
      </trkpt>
      <trkpt lat="41.99476" lon="21.44146">
        <ele>298.268289</ele>
        <time>2022-04-13T11:36:06.301Z</time>
      </trkpt>
      <trkpt lat="41.99474" lon="21.44132">
        <ele>298.296206</ele>
        <time>2022-04-13T11:36:08.272Z</time>
      </trkpt>
      <trkpt lat="41.99472" lon="21.44117">
        <ele>298.324466</ele>
        <time>2022-04-13T11:36:10.290Z</time>
      </trkpt>
      <trkpt lat="41.99471" lon="21.44104">
        <ele>298.35172</ele>
        <time>2022-04-13T11:36:12.288Z</time>
      </trkpt>
      <trkpt lat="41.99469" lon="21.44091">
        <ele>298.377392</ele>
        <time>2022-04-13T11:36:14.290Z</time>
      </trkpt>
      <trkpt lat="41.99467" lon="21.44075">
        <ele>298.408479</ele>
        <time>2022-04-13T11:36:17.273Z</time>
      </trkpt>
      <trkpt lat="41.99466" lon="21.44058">
        <ele>298.442442</ele>
        <time>2022-04-13T11:36:20.280Z</time>
      </trkpt>
      <trkpt lat="41.99465" lon="21.44044">
        <ele>298.469748</ele>
        <time>2022-04-13T11:36:22.318Z</time>
      </trkpt>
      <trkpt lat="41.99464" lon="21.4403">
        <ele>298.575128</ele>
        <time>2022-04-13T11:36:24.282Z</time>
      </trkpt>
      <trkpt lat="41.99463" lon="21.44017">
        <ele>298.711604</ele>
        <time>2022-04-13T11:36:26.308Z</time>
      </trkpt>
      <trkpt lat="41.99462" lon="21.44004">
        <ele>298.854413</ele>
        <time>2022-04-13T11:36:28.286Z</time>
      </trkpt>
      <trkpt lat="41.9946" lon="21.4399">
        <ele>298.994524</ele>
        <time>2022-04-13T11:36:30.284Z</time>
      </trkpt>
      <trkpt lat="41.99459" lon="21.43977">
        <ele>299.136911</ele>
        <time>2022-04-13T11:36:32.280Z</time>
      </trkpt>
      <trkpt lat="41.99458" lon="21.43964">
        <ele>299.2722</ele>
        <time>2022-04-13T11:36:34.299Z</time>
      </trkpt>
      <trkpt lat="41.99457" lon="21.43952">
        <ele>299.401205</ele>
        <time>2022-04-13T11:36:36.270Z</time>
      </trkpt>
      <trkpt lat="41.99457" lon="21.4394">
        <ele>299.531714</ele>
        <time>2022-04-13T11:36:38.270Z</time>
      </trkpt>
      <trkpt lat="41.99458" lon="21.43927">
        <ele>299.661419</ele>
        <time>2022-04-13T11:36:40.287Z</time>
      </trkpt>
      <trkpt lat="41.99459" lon="21.4391">
        <ele>299.847268</ele>
        <time>2022-04-13T11:36:43.300Z</time>
      </trkpt>
      <trkpt lat="41.99461" lon="21.43894">
        <ele>300.020305</ele>
        <time>2022-04-13T11:36:46.276Z</time>
      </trkpt>
      <trkpt lat="41.99463" lon="21.43877">
        <ele>300.195154</ele>
        <time>2022-04-13T11:36:49.283Z</time>
      </trkpt>
      <trkpt lat="41.99467" lon="21.4386">
        <ele>300.382559</ele>
        <time>2022-04-13T11:36:52.303Z</time>
      </trkpt>
      <trkpt lat="41.9947" lon="21.43843">
        <ele>300.567804</ele>
        <time>2022-04-13T11:36:55.272Z</time>
      </trkpt>
      <trkpt lat="41.99473" lon="21.43826">
        <ele>300.751991</ele>
        <time>2022-04-13T11:36:58.285Z</time>
      </trkpt>
      <trkpt lat="41.99477" lon="21.43812">
        <ele>300.909135</ele>
        <time>2022-04-13T11:37:01.305Z</time>
      </trkpt>
      <trkpt lat="41.9948" lon="21.438">
        <ele>301.066119</ele>
        <time>2022-04-13T11:37:04.280Z</time>
      </trkpt>
      <trkpt lat="41.99483" lon="21.43787">
        <ele>301.43752</ele>
        <time>2022-04-13T11:37:08.276Z</time>
      </trkpt>
      <trkpt lat="41.99484" lon="21.43775">
        <ele>301.774817</ele>
        <time>2022-04-13T11:37:13.269Z</time>
      </trkpt>
      <trkpt lat="41.99487" lon="21.43759">
        <ele>302.191716</ele>
        <time>2022-04-13T11:37:17.285Z</time>
      </trkpt>
      <trkpt lat="41.9949" lon="21.43746">
        <ele>302.565355</ele>
        <time>2022-04-13T11:37:21.283Z</time>
      </trkpt>
      <trkpt lat="41.99493" lon="21.43732">
        <ele>302.946553</ele>
        <time>2022-04-13T11:37:26.273Z</time>
      </trkpt>
      <trkpt lat="41.99492" lon="21.4372">
        <ele>303.282223</ele>
        <time>2022-04-13T11:37:31.286Z</time>
      </trkpt>
      <trkpt lat="41.99488" lon="21.43705">
        <ele>303.697174</ele>
        <time>2022-04-13T11:37:39.267Z</time>
      </trkpt>
      <trkpt lat="41.99481" lon="21.43694">
        <ele>304.094469</ele>
        <time>2022-04-13T11:37:42.266Z</time>
      </trkpt>
      <trkpt lat="41.99472" lon="21.4369">
        <ele>304.452018</ele>
        <time>2022-04-13T11:37:44.312Z</time>
      </trkpt>
      <trkpt lat="41.99463" lon="21.43685">
        <ele>304.806316</ele>
        <time>2022-04-13T11:37:46.280Z</time>
      </trkpt>
      <trkpt lat="41.99454" lon="21.43682">
        <ele>305.140293</ele>
        <time>2022-04-13T11:37:48.274Z</time>
      </trkpt>
      <trkpt lat="41.99444" lon="21.43679">
        <ele>305.502823</ele>
        <time>2022-04-13T11:37:50.265Z</time>
      </trkpt>
      <trkpt lat="41.99435" lon="21.43674">
        <ele>305.847587</ele>
        <time>2022-04-13T11:37:52.260Z</time>
      </trkpt>
      <trkpt lat="41.99424" lon="21.43666">
        <ele>306.293435</ele>
        <time>2022-04-13T11:37:55.284Z</time>
      </trkpt>
      <trkpt lat="41.99417" lon="21.43656">
        <ele>306.657462</ele>
        <time>2022-04-13T11:37:57.273Z</time>
      </trkpt>
      <trkpt lat="41.99411" lon="21.43647">
        <ele>307.00949</ele>
        <time>2022-04-13T11:37:59.278Z</time>
      </trkpt>
      <trkpt lat="41.99405" lon="21.43636">
        <ele>307.351928</ele>
        <time>2022-04-13T11:38:01.284Z</time>
      </trkpt>
      <trkpt lat="41.99398" lon="21.43625">
        <ele>307.713248</ele>
        <time>2022-04-13T11:38:04.276Z</time>
      </trkpt>
      <trkpt lat="41.99393" lon="21.43612">
        <ele>308.065654</ele>
        <time>2022-04-13T11:38:08.263Z</time>
      </trkpt>
      <trkpt lat="41.99389" lon="21.43598">
        <ele>308.437649</ele>
        <time>2022-04-13T11:38:11.278Z</time>
      </trkpt>
      <trkpt lat="41.99382" lon="21.43584">
        <ele>308.853337</ele>
        <time>2022-04-13T11:38:14.303Z</time>
      </trkpt>
      <trkpt lat="41.99378" lon="21.4357">
        <ele>309.212389</ele>
        <time>2022-04-13T11:38:16.263Z</time>
      </trkpt>
      <trkpt lat="41.99374" lon="21.43558">
        <ele>309.545681</ele>
        <time>2022-04-13T11:38:18.283Z</time>
      </trkpt>
      <trkpt lat="41.99369" lon="21.43544">
        <ele>309.902038</ele>
        <time>2022-04-13T11:38:20.279Z</time>
      </trkpt>
      <trkpt lat="41.99363" lon="21.43532">
        <ele>310.265213</ele>
        <time>2022-04-13T11:38:22.276Z</time>
      </trkpt>
      <trkpt lat="41.99355" lon="21.43517">
        <ele>310.722099</ele>
        <time>2022-04-13T11:38:25.279Z</time>
      </trkpt>
      <trkpt lat="41.99349" lon="21.43507">
        <ele>311.037019</ele>
        <time>2022-04-13T11:38:27.274Z</time>
      </trkpt>
      <trkpt lat="41.99341" lon="21.43495">
        <ele>311.42822</ele>
        <time>2022-04-13T11:38:29.282Z</time>
      </trkpt>
      <trkpt lat="41.99332" lon="21.43479">
        <ele>311.906578</ele>
        <time>2022-04-13T11:38:31.282Z</time>
      </trkpt>
      <trkpt lat="41.99325" lon="21.43465">
        <ele>312.318532</ele>
        <time>2022-04-13T11:38:33.284Z</time>
      </trkpt>
      <trkpt lat="41.99318" lon="21.43454">
        <ele>312.668679</ele>
        <time>2022-04-13T11:38:35.267Z</time>
      </trkpt>
      <trkpt lat="41.9931" lon="21.43442">
        <ele>313.050082</ele>
        <time>2022-04-13T11:38:37.328Z</time>
      </trkpt>
      <trkpt lat="41.99305" lon="21.43428">
        <ele>313.352613</ele>
        <time>2022-04-13T11:38:40.278Z</time>
      </trkpt>
      <trkpt lat="41.993" lon="21.43412">
        <ele>312.730668</ele>
        <time>2022-04-13T11:38:43.288Z</time>
      </trkpt>
      <trkpt lat="41.99296" lon="21.434">
        <ele>312.243832</ele>
        <time>2022-04-13T11:38:46.284Z</time>
      </trkpt>
      <trkpt lat="41.99294" lon="21.43388">
        <ele>311.797234</ele>
        <time>2022-04-13T11:38:48.280Z</time>
      </trkpt>
      <trkpt lat="41.99293" lon="21.43372">
        <ele>311.201225</ele>
        <time>2022-04-13T11:38:50.283Z</time>
      </trkpt>
      <trkpt lat="41.99298" lon="21.43359">
        <ele>310.675085</ele>
        <time>2022-04-13T11:38:52.264Z</time>
      </trkpt>
      <trkpt lat="41.99304" lon="21.43351">
        <ele>310.207805</ele>
        <time>2022-04-13T11:38:54.296Z</time>
      </trkpt>
      <trkpt lat="41.99314" lon="21.43341">
        <ele>309.633388</ele>
        <time>2022-04-13T11:38:57.310Z</time>
      </trkpt>
      <trkpt lat="41.99325" lon="21.43335">
        <ele>309.031116</ele>
        <time>2022-04-13T11:39:00.284Z</time>
      </trkpt>
      <trkpt lat="41.99337" lon="21.43327">
        <ele>308.401623</ele>
        <time>2022-04-13T11:39:03.275Z</time>
      </trkpt>
      <trkpt lat="41.99348" lon="21.4332">
        <ele>307.764917</ele>
        <time>2022-04-13T11:39:06.301Z</time>
      </trkpt>
      <trkpt lat="41.9936" lon="21.43314">
        <ele>307.139596</ele>
        <time>2022-04-13T11:39:09.270Z</time>
      </trkpt>
      <trkpt lat="41.99368" lon="21.43307">
        <ele>306.683854</ele>
        <time>2022-04-13T11:39:11.274Z</time>
      </trkpt>
      <trkpt lat="41.99375" lon="21.433">
        <ele>306.230033</ele>
        <time>2022-04-13T11:39:13.268Z</time>
      </trkpt>
      <trkpt lat="41.99387" lon="21.43292">
        <ele>305.602775</ele>
        <time>2022-04-13T11:39:16.282Z</time>
      </trkpt>
      <trkpt lat="41.99395" lon="21.43284">
        <ele>305.09579</ele>
        <time>2022-04-13T11:39:19.271Z</time>
      </trkpt>
      <trkpt lat="41.99404" lon="21.43276">
        <ele>304.560056</ele>
        <time>2022-04-13T11:39:23.277Z</time>
      </trkpt>
      <trkpt lat="41.99411" lon="21.43267">
        <ele>304.563659</ele>
        <time>2022-04-13T11:39:29.284Z</time>
      </trkpt>
      <trkpt lat="41.99417" lon="21.43257">
        <ele>304.583033</ele>
        <time>2022-04-13T11:39:37.275Z</time>
      </trkpt>
      <trkpt lat="41.99423" lon="21.43244">
        <ele>304.60682</ele>
        <time>2022-04-13T11:39:41.284Z</time>
      </trkpt>
      <trkpt lat="41.99429" lon="21.43229">
        <ele>304.632093</ele>
        <time>2022-04-13T11:39:44.295Z</time>
      </trkpt>
      <trkpt lat="41.99434" lon="21.43216">
        <ele>304.654069</ele>
        <time>2022-04-13T11:39:47.291Z</time>
      </trkpt>
      <trkpt lat="41.99437" lon="21.43202">
        <ele>304.675417</ele>
        <time>2022-04-13T11:39:50.309Z</time>
      </trkpt>
      <trkpt lat="41.99441" lon="21.43188">
        <ele>304.697704</ele>
        <time>2022-04-13T11:39:53.269Z</time>
      </trkpt>
      <trkpt lat="41.99448" lon="21.43172">
        <ele>304.725161</ele>
        <time>2022-04-13T11:39:56.284Z</time>
      </trkpt>
      <trkpt lat="41.99451" lon="21.4316">
        <ele>304.744297</ele>
        <time>2022-04-13T11:39:58.304Z</time>
      </trkpt>
      <trkpt lat="41.99456" lon="21.43144">
        <ele>304.770209</ele>
        <time>2022-04-13T11:40:01.292Z</time>
      </trkpt>
      <trkpt lat="41.9946" lon="21.43132">
        <ele>304.788657</ele>
        <time>2022-04-13T11:40:03.278Z</time>
      </trkpt>
      <trkpt lat="41.99463" lon="21.43119">
        <ele>304.80853</ele>
        <time>2022-04-13T11:40:05.282Z</time>
      </trkpt>
      <trkpt lat="41.99465" lon="21.43105">
        <ele>304.8307</ele>
        <time>2022-04-13T11:40:07.280Z</time>
      </trkpt>
      <trkpt lat="41.99467" lon="21.43091">
        <ele>304.851764</ele>
        <time>2022-04-13T11:40:09.302Z</time>
      </trkpt>
      <trkpt lat="41.99469" lon="21.43076">
        <ele>304.874021</ele>
        <time>2022-04-13T11:40:11.280Z</time>
      </trkpt>
      <trkpt lat="41.99472" lon="21.43061">
        <ele>304.897936</ele>
        <time>2022-04-13T11:40:13.292Z</time>
      </trkpt>
      <trkpt lat="41.99475" lon="21.43046">
        <ele>305.13872</ele>
        <time>2022-04-13T11:40:15.316Z</time>
      </trkpt>
      <trkpt lat="41.99478" lon="21.43031">
        <ele>305.499302</ele>
        <time>2022-04-13T11:40:17.294Z</time>
      </trkpt>
      <trkpt lat="41.99481" lon="21.43018">
        <ele>305.822014</ele>
        <time>2022-04-13T11:40:19.283Z</time>
      </trkpt>
      <trkpt lat="41.99484" lon="21.43006">
        <ele>306.138304</ele>
        <time>2022-04-13T11:40:21.304Z</time>
      </trkpt>
      <trkpt lat="41.99488" lon="21.42994">
        <ele>306.444384</ele>
        <time>2022-04-13T11:40:23.288Z</time>
      </trkpt>
      <trkpt lat="41.9949" lon="21.42977">
        <ele>306.839879</ele>
        <time>2022-04-13T11:40:26.283Z</time>
      </trkpt>
      <trkpt lat="41.99493" lon="21.42961">
        <ele>307.234911</ele>
        <time>2022-04-13T11:40:29.287Z</time>
      </trkpt>
      <trkpt lat="41.99498" lon="21.42944">
        <ele>307.665205</ele>
        <time>2022-04-13T11:40:32.290Z</time>
      </trkpt>
      <trkpt lat="41.99498" lon="21.4293">
        <ele>307.990129</ele>
        <time>2022-04-13T11:40:34.281Z</time>
      </trkpt>
      <trkpt lat="41.99498" lon="21.42917">
        <ele>308.290693</ele>
        <time>2022-04-13T11:40:36.284Z</time>
      </trkpt>
      <trkpt lat="41.99498" lon="21.429">
        <ele>308.707142</ele>
        <time>2022-04-13T11:40:39.287Z</time>
      </trkpt>
      <trkpt lat="41.99501" lon="21.42883">
        <ele>309.102636</ele>
        <time>2022-04-13T11:40:42.314Z</time>
      </trkpt>
      <trkpt lat="41.99504" lon="21.42867">
        <ele>309.510429</ele>
        <time>2022-04-13T11:40:45.290Z</time>
      </trkpt>
      <trkpt lat="41.99506" lon="21.42854">
        <ele>309.82508</ele>
        <time>2022-04-13T11:40:48.287Z</time>
      </trkpt>
      <trkpt lat="41.99508" lon="21.42841">
        <ele>310.139731</ele>
        <time>2022-04-13T11:40:52.295Z</time>
      </trkpt>
      <trkpt lat="41.99521" lon="21.42805">
        <ele>310.218861</ele>
        <time>2022-04-13T11:41:12.300Z</time>
      </trkpt>
      <trkpt lat="41.99524" lon="21.4279">
        <ele>309.886022</ele>
        <time>2022-04-13T11:41:15.305Z</time>
      </trkpt>
      <trkpt lat="41.99527" lon="21.42776">
        <ele>309.579966</ele>
        <time>2022-04-13T11:41:18.314Z</time>
      </trkpt>
      <trkpt lat="41.99529" lon="21.4276">
        <ele>309.241625</ele>
        <time>2022-04-13T11:41:21.290Z</time>
      </trkpt>
      <trkpt lat="41.99531" lon="21.42744">
        <ele>308.896266</ele>
        <time>2022-04-13T11:41:24.323Z</time>
      </trkpt>
      <trkpt lat="41.99535" lon="21.42729">
        <ele>308.545916</ele>
        <time>2022-04-13T11:41:27.283Z</time>
      </trkpt>
      <trkpt lat="41.99538" lon="21.42711">
        <ele>308.153673</ele>
        <time>2022-04-13T11:41:30.286Z</time>
      </trkpt>
      <trkpt lat="41.9954" lon="21.42698">
        <ele>307.869869</ele>
        <time>2022-04-13T11:41:32.292Z</time>
      </trkpt>
      <trkpt lat="41.99544" lon="21.42684">
        <ele>307.5527</ele>
        <time>2022-04-13T11:41:35.282Z</time>
      </trkpt>
      <trkpt lat="41.99545" lon="21.42671">
        <ele>307.280437</ele>
        <time>2022-04-13T11:41:37.289Z</time>
      </trkpt>
      <trkpt lat="41.99545" lon="21.42658">
        <ele>307.006727</ele>
        <time>2022-04-13T11:41:39.308Z</time>
      </trkpt>
      <trkpt lat="41.99547" lon="21.42642">
        <ele>306.645616</ele>
        <time>2022-04-13T11:41:42.279Z</time>
      </trkpt>
      <trkpt lat="41.99549" lon="21.4263">
        <ele>306.383917</ele>
        <time>2022-04-13T11:41:49.292Z</time>
      </trkpt>
      <trkpt lat="41.99556" lon="21.42608">
        <ele>305.864232</ele>
        <time>2022-04-13T11:42:08.308Z</time>
      </trkpt>
      <trkpt lat="41.99556" lon="21.42595">
        <ele>305.599586</ele>
        <time>2022-04-13T11:42:13.273Z</time>
      </trkpt>
      <trkpt lat="41.99555" lon="21.42583">
        <ele>305.467565</ele>
        <time>2022-04-13T11:42:17.286Z</time>
      </trkpt>
      <trkpt lat="41.99554" lon="21.4257">
        <ele>305.467565</ele>
        <time>2022-04-13T11:42:21.286Z</time>
      </trkpt>
      <trkpt lat="41.99559" lon="21.42582">
        <ele>305.467565</ele>
        <time>2022-04-13T11:55:45.299Z</time>
      </trkpt>
      <trkpt lat="41.9956" lon="21.42595">
        <ele>305.467565</ele>
        <time>2022-04-13T11:56:00.254Z</time>
      </trkpt>
      <trkpt lat="41.99562" lon="21.42609">
        <ele>305.467565</ele>
        <time>2022-04-13T11:56:09.256Z</time>
      </trkpt>
      <trkpt lat="41.99562" lon="21.42621">
        <ele>305.467565</ele>
        <time>2022-04-13T11:56:25.260Z</time>
      </trkpt>
      <trkpt lat="41.9957" lon="21.42628">
        <ele>305.467565</ele>
        <time>2022-04-13T11:56:40.258Z</time>
      </trkpt>
      <trkpt lat="41.9958" lon="21.42626">
        <ele>305.467565</ele>
        <time>2022-04-13T11:56:50.260Z</time>
      </trkpt>
      <trkpt lat="41.9959" lon="21.42627">
        <ele>305.467565</ele>
        <time>2022-04-13T11:57:00.252Z</time>
      </trkpt>
      <trkpt lat="41.99595" lon="21.42617">
        <ele>305.467565</ele>
        <time>2022-04-13T11:57:12.254Z</time>
      </trkpt>
      <trkpt lat="41.99596" lon="21.42604">
        <ele>305.467565</ele>
        <time>2022-04-13T11:57:20.256Z</time>
      </trkpt>
      <trkpt lat="41.99598" lon="21.42591">
        <ele>305.467565</ele>
        <time>2022-04-13T11:57:32.254Z</time>
      </trkpt>
      <trkpt lat="41.99598" lon="21.42578">
        <ele>305.467565</ele>
        <time>2022-04-13T11:57:40.257Z</time>
      </trkpt>
      <trkpt lat="41.99598" lon="21.42565">
        <ele>305.467565</ele>
        <time>2022-04-13T11:57:47.283Z</time>
      </trkpt>
      <trkpt lat="41.99594" lon="21.42577">
        <ele>305.467565</ele>
        <time>2022-04-13T12:01:36.321Z</time>
      </trkpt>
    </trkseg>
  </trk>
</gpx>